<?xml version="1.0" encoding="UTF-8" standalone="no" ?>
<gpx xmlns="http://www.topografix.com/GPX/1/1" xmlns:xsi="http://www.w3.org/2001/XMLSchema-instance" xsi:schemaLocation="http://www.topografix.com/GPX/1/1 http://www.topografix.com/GPX/1/1/gpx.xsd" version="1.1" creator="VisuGPX - https://www.visugpx.com">
  <metadata>
    <name>Mayenne Journée 26Km58</name>
    <desc><![CDATA[Rndonnée du 10-09-2011 au départ de la Picherie]]></desc>
  </metadata>
  <trk>
    <name><![CDATA[20110910- l a P icherie]]></name>
    <trkseg>
      <trkpt lat="48.18535" lon="-0.66019">
        <ele>130.3</ele>
        <time>2011-09-10T06:57:00Z</time>
      </trkpt>
      <trkpt lat="48.18535" lon="-0.66019">
        <ele>130.3</ele>
        <time>2011-09-10T06:57:01Z</time>
      </trkpt>
      <trkpt lat="48.18525" lon="-0.66002">
        <ele>129.8</ele>
        <time>2011-09-10T06:57:30Z</time>
      </trkpt>
      <trkpt lat="48.18518" lon="-0.65993">
        <ele>130</ele>
        <time>2011-09-10T06:57:36Z</time>
      </trkpt>
      <trkpt lat="48.18512" lon="-0.65985">
        <ele>130.6</ele>
        <time>2011-09-10T06:57:43Z</time>
      </trkpt>
      <trkpt lat="48.18505" lon="-0.65977">
        <ele>131.3</ele>
        <time>2011-09-10T06:57:50Z</time>
      </trkpt>
      <trkpt lat="48.18499" lon="-0.65969">
        <ele>131.1</ele>
        <time>2011-09-10T06:57:56Z</time>
      </trkpt>
      <trkpt lat="48.18493" lon="-0.6596">
        <ele>131.3</ele>
        <time>2011-09-10T06:58:03Z</time>
      </trkpt>
      <trkpt lat="48.18492" lon="-0.65958">
        <ele>131.1</ele>
        <time>2011-09-10T06:58:04Z</time>
      </trkpt>
      <trkpt lat="48.18479" lon="-0.65943">
        <ele>131.1</ele>
        <time>2011-09-10T06:58:16Z</time>
      </trkpt>
      <trkpt lat="48.18474" lon="-0.65936">
        <ele>131.1</ele>
        <time>2011-09-10T06:58:22Z</time>
      </trkpt>
      <trkpt lat="48.18468" lon="-0.65926">
        <ele>131.1</ele>
        <time>2011-09-10T06:58:28Z</time>
      </trkpt>
      <trkpt lat="48.18462" lon="-0.65917">
        <ele>131.6</ele>
        <time>2011-09-10T06:58:34Z</time>
      </trkpt>
      <trkpt lat="48.18456" lon="-0.65908">
        <ele>131.1</ele>
        <time>2011-09-10T06:58:40Z</time>
      </trkpt>
      <trkpt lat="48.1845" lon="-0.65899">
        <ele>131</ele>
        <time>2011-09-10T06:58:46Z</time>
      </trkpt>
      <trkpt lat="48.18445" lon="-0.65891">
        <ele>131.3</ele>
        <time>2011-09-10T06:58:52Z</time>
      </trkpt>
      <trkpt lat="48.18439" lon="-0.65883">
        <ele>131.6</ele>
        <time>2011-09-10T06:58:58Z</time>
      </trkpt>
      <trkpt lat="48.18433" lon="-0.65875">
        <ele>131.6</ele>
        <time>2011-09-10T06:59:04Z</time>
      </trkpt>
      <trkpt lat="48.18427" lon="-0.65867">
        <ele>132.6</ele>
        <time>2011-09-10T06:59:10Z</time>
      </trkpt>
      <trkpt lat="48.18426" lon="-0.65865">
        <ele>132.6</ele>
        <time>2011-09-10T06:59:11Z</time>
      </trkpt>
      <trkpt lat="48.18428" lon="-0.65843">
        <ele>131.5</ele>
        <time>2011-09-10T06:59:23Z</time>
      </trkpt>
      <trkpt lat="48.18435" lon="-0.65837">
        <ele>131.3</ele>
        <time>2011-09-10T06:59:28Z</time>
      </trkpt>
      <trkpt lat="48.18443" lon="-0.65831">
        <ele>131</ele>
        <time>2011-09-10T06:59:34Z</time>
      </trkpt>
      <trkpt lat="48.18449" lon="-0.65825">
        <ele>131</ele>
        <time>2011-09-10T06:59:40Z</time>
      </trkpt>
      <trkpt lat="48.18455" lon="-0.65818">
        <ele>131.1</ele>
        <time>2011-09-10T06:59:46Z</time>
      </trkpt>
      <trkpt lat="48.18462" lon="-0.65812">
        <ele>131.6</ele>
        <time>2011-09-10T06:59:52Z</time>
      </trkpt>
      <trkpt lat="48.18469" lon="-0.65807">
        <ele>132.3</ele>
        <time>2011-09-10T06:59:57Z</time>
      </trkpt>
      <trkpt lat="48.18477" lon="-0.65802">
        <ele>132.3</ele>
        <time>2011-09-10T07:00:03Z</time>
      </trkpt>
      <trkpt lat="48.18485" lon="-0.65796">
        <ele>132.8</ele>
        <time>2011-09-10T07:00:09Z</time>
      </trkpt>
      <trkpt lat="48.18492" lon="-0.65791">
        <ele>132.8</ele>
        <time>2011-09-10T07:00:15Z</time>
      </trkpt>
      <trkpt lat="48.18493" lon="-0.6579">
        <ele>132.6</ele>
        <time>2011-09-10T07:00:16Z</time>
      </trkpt>
      <trkpt lat="48.18508" lon="-0.65781">
        <ele>133</ele>
        <time>2011-09-10T07:00:27Z</time>
      </trkpt>
      <trkpt lat="48.18514" lon="-0.65775">
        <ele>133.3</ele>
        <time>2011-09-10T07:00:32Z</time>
      </trkpt>
      <trkpt lat="48.18522" lon="-0.6577">
        <ele>133.8</ele>
        <time>2011-09-10T07:00:38Z</time>
      </trkpt>
      <trkpt lat="48.1853" lon="-0.65764">
        <ele>133.3</ele>
        <time>2011-09-10T07:00:44Z</time>
      </trkpt>
      <trkpt lat="48.18537" lon="-0.65757">
        <ele>134.5</ele>
        <time>2011-09-10T07:00:50Z</time>
      </trkpt>
      <trkpt lat="48.18544" lon="-0.65752">
        <ele>135.8</ele>
        <time>2011-09-10T07:00:56Z</time>
      </trkpt>
      <trkpt lat="48.18552" lon="-0.65746">
        <ele>136.1</ele>
        <time>2011-09-10T07:01:02Z</time>
      </trkpt>
      <trkpt lat="48.1856" lon="-0.6574">
        <ele>137.3</ele>
        <time>2011-09-10T07:01:08Z</time>
      </trkpt>
      <trkpt lat="48.18567" lon="-0.65734">
        <ele>138.1</ele>
        <time>2011-09-10T07:01:14Z</time>
      </trkpt>
      <trkpt lat="48.18575" lon="-0.65729">
        <ele>137.8</ele>
        <time>2011-09-10T07:01:20Z</time>
      </trkpt>
      <trkpt lat="48.18577" lon="-0.65728">
        <ele>137.8</ele>
        <time>2011-09-10T07:01:21Z</time>
      </trkpt>
      <trkpt lat="48.18591" lon="-0.65719">
        <ele>137.1</ele>
        <time>2011-09-10T07:01:32Z</time>
      </trkpt>
      <trkpt lat="48.18599" lon="-0.65717">
        <ele>136.3</ele>
        <time>2011-09-10T07:01:37Z</time>
      </trkpt>
      <trkpt lat="48.18607" lon="-0.65714">
        <ele>135.8</ele>
        <time>2011-09-10T07:01:42Z</time>
      </trkpt>
      <trkpt lat="48.18615" lon="-0.65711">
        <ele>135.6</ele>
        <time>2011-09-10T07:01:47Z</time>
      </trkpt>
      <trkpt lat="48.18623" lon="-0.6571">
        <ele>135.6</ele>
        <time>2011-09-10T07:01:52Z</time>
      </trkpt>
      <trkpt lat="48.18632" lon="-0.65712">
        <ele>136.5</ele>
        <time>2011-09-10T07:01:57Z</time>
      </trkpt>
      <trkpt lat="48.1864" lon="-0.65717">
        <ele>136.8</ele>
        <time>2011-09-10T07:02:03Z</time>
      </trkpt>
      <trkpt lat="48.18647" lon="-0.65722">
        <ele>136.6</ele>
        <time>2011-09-10T07:02:09Z</time>
      </trkpt>
      <trkpt lat="48.18654" lon="-0.65726">
        <ele>136.3</ele>
        <time>2011-09-10T07:02:14Z</time>
      </trkpt>
      <trkpt lat="48.18662" lon="-0.6573">
        <ele>136.3</ele>
        <time>2011-09-10T07:02:19Z</time>
      </trkpt>
      <trkpt lat="48.18671" lon="-0.65734">
        <ele>137.1</ele>
        <time>2011-09-10T07:02:26Z</time>
      </trkpt>
      <trkpt lat="48.18672" lon="-0.65735">
        <ele>137.1</ele>
        <time>2011-09-10T07:02:27Z</time>
      </trkpt>
      <trkpt lat="48.18687" lon="-0.6574">
        <ele>135.1</ele>
        <time>2011-09-10T07:02:40Z</time>
      </trkpt>
      <trkpt lat="48.18696" lon="-0.6574">
        <ele>133.8</ele>
        <time>2011-09-10T07:02:46Z</time>
      </trkpt>
      <trkpt lat="48.18703" lon="-0.65744">
        <ele>133.8</ele>
        <time>2011-09-10T07:02:57Z</time>
      </trkpt>
      <trkpt lat="48.18711" lon="-0.65744">
        <ele>135.1</ele>
        <time>2011-09-10T07:03:02Z</time>
      </trkpt>
      <trkpt lat="48.1872" lon="-0.65746">
        <ele>134.8</ele>
        <time>2011-09-10T07:03:09Z</time>
      </trkpt>
      <trkpt lat="48.18728" lon="-0.65747">
        <ele>135.6</ele>
        <time>2011-09-10T07:03:15Z</time>
      </trkpt>
      <trkpt lat="48.18736" lon="-0.65746">
        <ele>136.5</ele>
        <time>2011-09-10T07:03:22Z</time>
      </trkpt>
      <trkpt lat="48.18745" lon="-0.65747">
        <ele>135.6</ele>
        <time>2011-09-10T07:03:29Z</time>
      </trkpt>
      <trkpt lat="48.18746" lon="-0.65747">
        <ele>135.6</ele>
        <time>2011-09-10T07:03:30Z</time>
      </trkpt>
      <trkpt lat="48.18762" lon="-0.6575">
        <ele>136.1</ele>
        <time>2011-09-10T07:03:43Z</time>
      </trkpt>
      <trkpt lat="48.1877" lon="-0.65751">
        <ele>137</ele>
        <time>2011-09-10T07:03:49Z</time>
      </trkpt>
      <trkpt lat="48.18778" lon="-0.6575">
        <ele>137.1</ele>
        <time>2011-09-10T07:04:00Z</time>
      </trkpt>
      <trkpt lat="48.18787" lon="-0.65752">
        <ele>135.1</ele>
        <time>2011-09-10T07:04:07Z</time>
      </trkpt>
      <trkpt lat="48.18796" lon="-0.65754">
        <ele>134.3</ele>
        <time>2011-09-10T07:04:13Z</time>
      </trkpt>
      <trkpt lat="48.18805" lon="-0.65756">
        <ele>134.6</ele>
        <time>2011-09-10T07:04:19Z</time>
      </trkpt>
      <trkpt lat="48.18813" lon="-0.65757">
        <ele>135.1</ele>
        <time>2011-09-10T07:04:25Z</time>
      </trkpt>
      <trkpt lat="48.1882" lon="-0.65759">
        <ele>135.8</ele>
        <time>2011-09-10T07:04:31Z</time>
      </trkpt>
      <trkpt lat="48.18822" lon="-0.65759">
        <ele>135.8</ele>
        <time>2011-09-10T07:04:32Z</time>
      </trkpt>
      <trkpt lat="48.18837" lon="-0.65762">
        <ele>134.3</ele>
        <time>2011-09-10T07:04:45Z</time>
      </trkpt>
      <trkpt lat="48.18845" lon="-0.65765">
        <ele>135</ele>
        <time>2011-09-10T07:04:51Z</time>
      </trkpt>
      <trkpt lat="48.18853" lon="-0.65769">
        <ele>135.8</ele>
        <time>2011-09-10T07:04:57Z</time>
      </trkpt>
      <trkpt lat="48.1886" lon="-0.65774">
        <ele>136.1</ele>
        <time>2011-09-10T07:05:03Z</time>
      </trkpt>
      <trkpt lat="48.18867" lon="-0.6578">
        <ele>135.3</ele>
        <time>2011-09-10T07:05:09Z</time>
      </trkpt>
      <trkpt lat="48.18874" lon="-0.65785">
        <ele>137.1</ele>
        <time>2011-09-10T07:05:15Z</time>
      </trkpt>
      <trkpt lat="48.18881" lon="-0.65792">
        <ele>137</ele>
        <time>2011-09-10T07:05:22Z</time>
      </trkpt>
      <trkpt lat="48.18889" lon="-0.658">
        <ele>136.6</ele>
        <time>2011-09-10T07:05:29Z</time>
      </trkpt>
      <trkpt lat="48.18895" lon="-0.65808">
        <ele>136.6</ele>
        <time>2011-09-10T07:05:36Z</time>
      </trkpt>
      <trkpt lat="48.18896" lon="-0.6581">
        <ele>136.6</ele>
        <time>2011-09-10T07:05:37Z</time>
      </trkpt>
      <trkpt lat="48.18908" lon="-0.65825">
        <ele>135.6</ele>
        <time>2011-09-10T07:05:50Z</time>
      </trkpt>
      <trkpt lat="48.18914" lon="-0.65833">
        <ele>135.1</ele>
        <time>2011-09-10T07:05:56Z</time>
      </trkpt>
      <trkpt lat="48.1892" lon="-0.65842">
        <ele>135.3</ele>
        <time>2011-09-10T07:06:02Z</time>
      </trkpt>
      <trkpt lat="48.18927" lon="-0.65851">
        <ele>136.3</ele>
        <time>2011-09-10T07:06:08Z</time>
      </trkpt>
      <trkpt lat="48.18934" lon="-0.65858">
        <ele>136.8</ele>
        <time>2011-09-10T07:06:14Z</time>
      </trkpt>
      <trkpt lat="48.18942" lon="-0.65865">
        <ele>137</ele>
        <time>2011-09-10T07:06:19Z</time>
      </trkpt>
      <trkpt lat="48.18949" lon="-0.65871">
        <ele>137.8</ele>
        <time>2011-09-10T07:06:24Z</time>
      </trkpt>
      <trkpt lat="48.18955" lon="-0.65879">
        <ele>138.1</ele>
        <time>2011-09-10T07:06:30Z</time>
      </trkpt>
      <trkpt lat="48.18962" lon="-0.65885">
        <ele>138</ele>
        <time>2011-09-10T07:06:35Z</time>
      </trkpt>
      <trkpt lat="48.18968" lon="-0.65893">
        <ele>138</ele>
        <time>2011-09-10T07:06:59Z</time>
      </trkpt>
      <trkpt lat="48.18969" lon="-0.65894">
        <ele>138.6</ele>
        <time>2011-09-10T07:07:00Z</time>
      </trkpt>
      <trkpt lat="48.18981" lon="-0.65908">
        <ele>138.3</ele>
        <time>2011-09-10T07:07:11Z</time>
      </trkpt>
      <trkpt lat="48.18988" lon="-0.65916">
        <ele>137.1</ele>
        <time>2011-09-10T07:07:18Z</time>
      </trkpt>
      <trkpt lat="48.18994" lon="-0.65924">
        <ele>136.6</ele>
        <time>2011-09-10T07:07:25Z</time>
      </trkpt>
      <trkpt lat="48.19001" lon="-0.6593">
        <ele>136</ele>
        <time>2011-09-10T07:07:32Z</time>
      </trkpt>
      <trkpt lat="48.19008" lon="-0.65936">
        <ele>136.1</ele>
        <time>2011-09-10T07:07:39Z</time>
      </trkpt>
      <trkpt lat="48.19015" lon="-0.65943">
        <ele>135.1</ele>
        <time>2011-09-10T07:07:46Z</time>
      </trkpt>
      <trkpt lat="48.19022" lon="-0.65949">
        <ele>133.6</ele>
        <time>2011-09-10T07:07:55Z</time>
      </trkpt>
      <trkpt lat="48.19029" lon="-0.65955">
        <ele>132.6</ele>
        <time>2011-09-10T07:08:02Z</time>
      </trkpt>
      <trkpt lat="48.19031" lon="-0.65956">
        <ele>132.3</ele>
        <time>2011-09-10T07:08:03Z</time>
      </trkpt>
      <trkpt lat="48.19044" lon="-0.65964">
        <ele>132</ele>
        <time>2011-09-10T07:08:16Z</time>
      </trkpt>
      <trkpt lat="48.19052" lon="-0.65968">
        <ele>131.8</ele>
        <time>2011-09-10T07:08:23Z</time>
      </trkpt>
      <trkpt lat="48.1906" lon="-0.65972">
        <ele>131.5</ele>
        <time>2011-09-10T07:08:30Z</time>
      </trkpt>
      <trkpt lat="48.19068" lon="-0.65977">
        <ele>130.8</ele>
        <time>2011-09-10T07:08:37Z</time>
      </trkpt>
      <trkpt lat="48.19075" lon="-0.65979">
        <ele>131.6</ele>
        <time>2011-09-10T07:08:43Z</time>
      </trkpt>
      <trkpt lat="48.19083" lon="-0.65982">
        <ele>130.3</ele>
        <time>2011-09-10T07:08:50Z</time>
      </trkpt>
      <trkpt lat="48.19091" lon="-0.65984">
        <ele>129.3</ele>
        <time>2011-09-10T07:08:56Z</time>
      </trkpt>
      <trkpt lat="48.19099" lon="-0.65987">
        <ele>127.5</ele>
        <time>2011-09-10T07:09:05Z</time>
      </trkpt>
      <trkpt lat="48.191" lon="-0.65988">
        <ele>127.4</ele>
        <time>2011-09-10T07:09:06Z</time>
      </trkpt>
      <trkpt lat="48.19116" lon="-0.6599">
        <ele>128.8</ele>
        <time>2011-09-10T07:10:10Z</time>
      </trkpt>
      <trkpt lat="48.19117" lon="-0.65991">
        <ele>129</ele>
        <time>2011-09-10T07:10:11Z</time>
      </trkpt>
      <trkpt lat="48.19129" lon="-0.66005">
        <ele>126.5</ele>
        <time>2011-09-10T07:10:28Z</time>
      </trkpt>
      <trkpt lat="48.19136" lon="-0.66013">
        <ele>125.1</ele>
        <time>2011-09-10T07:10:36Z</time>
      </trkpt>
      <trkpt lat="48.19143" lon="-0.66021">
        <ele>124.5</ele>
        <time>2011-09-10T07:10:43Z</time>
      </trkpt>
      <trkpt lat="48.1915" lon="-0.66028">
        <ele>122.3</ele>
        <time>2011-09-10T07:10:48Z</time>
      </trkpt>
      <trkpt lat="48.19157" lon="-0.66035">
        <ele>120.8</ele>
        <time>2011-09-10T07:10:54Z</time>
      </trkpt>
      <trkpt lat="48.19163" lon="-0.66043">
        <ele>118.9</ele>
        <time>2011-09-10T07:10:59Z</time>
      </trkpt>
      <trkpt lat="48.1917" lon="-0.6605">
        <ele>118.5</ele>
        <time>2011-09-10T07:11:05Z</time>
      </trkpt>
      <trkpt lat="48.19176" lon="-0.66057">
        <ele>118.5</ele>
        <time>2011-09-10T07:11:12Z</time>
      </trkpt>
      <trkpt lat="48.19177" lon="-0.66059">
        <ele>119.1</ele>
        <time>2011-09-10T07:11:13Z</time>
      </trkpt>
      <trkpt lat="48.19188" lon="-0.66077">
        <ele>119.1</ele>
        <time>2011-09-10T07:11:25Z</time>
      </trkpt>
      <trkpt lat="48.19193" lon="-0.66086">
        <ele>119.4</ele>
        <time>2011-09-10T07:11:31Z</time>
      </trkpt>
      <trkpt lat="48.19199" lon="-0.66095">
        <ele>118.8</ele>
        <time>2011-09-10T07:11:37Z</time>
      </trkpt>
      <trkpt lat="48.19205" lon="-0.66104">
        <ele>118.8</ele>
        <time>2011-09-10T07:11:43Z</time>
      </trkpt>
      <trkpt lat="48.19211" lon="-0.66114">
        <ele>118</ele>
        <time>2011-09-10T07:11:50Z</time>
      </trkpt>
      <trkpt lat="48.19216" lon="-0.66123">
        <ele>117.6</ele>
        <time>2011-09-10T07:11:57Z</time>
      </trkpt>
      <trkpt lat="48.19222" lon="-0.66132">
        <ele>116.9</ele>
        <time>2011-09-10T07:12:03Z</time>
      </trkpt>
      <trkpt lat="48.19227" lon="-0.66142">
        <ele>116.5</ele>
        <time>2011-09-10T07:12:10Z</time>
      </trkpt>
      <trkpt lat="48.19231" lon="-0.66152">
        <ele>114.8</ele>
        <time>2011-09-10T07:12:16Z</time>
      </trkpt>
      <trkpt lat="48.19232" lon="-0.66153">
        <ele>115</ele>
        <time>2011-09-10T07:12:17Z</time>
      </trkpt>
      <trkpt lat="48.19241" lon="-0.6617">
        <ele>118</ele>
        <time>2011-09-10T07:12:31Z</time>
      </trkpt>
      <trkpt lat="48.19235" lon="-0.6616">
        <ele>118.5</ele>
        <time>2011-09-10T07:13:53Z</time>
      </trkpt>
      <trkpt lat="48.19234" lon="-0.66159">
        <ele>118.5</ele>
        <time>2011-09-10T07:13:54Z</time>
      </trkpt>
      <trkpt lat="48.19224" lon="-0.66139">
        <ele>120.8</ele>
        <time>2011-09-10T07:14:08Z</time>
      </trkpt>
      <trkpt lat="48.1922" lon="-0.66128">
        <ele>121.5</ele>
        <time>2011-09-10T07:14:14Z</time>
      </trkpt>
      <trkpt lat="48.19218" lon="-0.66117">
        <ele>123.3</ele>
        <time>2011-09-10T07:14:20Z</time>
      </trkpt>
      <trkpt lat="48.19214" lon="-0.66107">
        <ele>123.8</ele>
        <time>2011-09-10T07:14:27Z</time>
      </trkpt>
      <trkpt lat="48.19208" lon="-0.66097">
        <ele>124.5</ele>
        <time>2011-09-10T07:14:35Z</time>
      </trkpt>
      <trkpt lat="48.19202" lon="-0.66089">
        <ele>124.3</ele>
        <time>2011-09-10T07:14:43Z</time>
      </trkpt>
      <trkpt lat="48.19194" lon="-0.66082">
        <ele>124.1</ele>
        <time>2011-09-10T07:14:49Z</time>
      </trkpt>
      <trkpt lat="48.19189" lon="-0.66072">
        <ele>124</ele>
        <time>2011-09-10T07:14:56Z</time>
      </trkpt>
      <trkpt lat="48.19188" lon="-0.6607">
        <ele>123.9</ele>
        <time>2011-09-10T07:14:57Z</time>
      </trkpt>
      <trkpt lat="48.19193" lon="-0.66047">
        <ele>121.9</ele>
        <time>2011-09-10T07:15:11Z</time>
      </trkpt>
      <trkpt lat="48.19198" lon="-0.66036">
        <ele>122.5</ele>
        <time>2011-09-10T07:15:17Z</time>
      </trkpt>
      <trkpt lat="48.19203" lon="-0.66025">
        <ele>123.3</ele>
        <time>2011-09-10T07:15:24Z</time>
      </trkpt>
      <trkpt lat="48.19208" lon="-0.66014">
        <ele>123.4</ele>
        <time>2011-09-10T07:15:31Z</time>
      </trkpt>
      <trkpt lat="48.19206" lon="-0.66002">
        <ele>124.4</ele>
        <time>2011-09-10T07:15:40Z</time>
      </trkpt>
      <trkpt lat="48.19201" lon="-0.65992">
        <ele>123.5</ele>
        <time>2011-09-10T07:15:47Z</time>
      </trkpt>
      <trkpt lat="48.19198" lon="-0.6598">
        <ele>122.9</ele>
        <time>2011-09-10T07:15:56Z</time>
      </trkpt>
      <trkpt lat="48.19189" lon="-0.65978">
        <ele>121.8</ele>
        <time>2011-09-10T07:16:17Z</time>
      </trkpt>
      <trkpt lat="48.19189" lon="-0.65979">
        <ele>122</ele>
        <time>2011-09-10T07:16:18Z</time>
      </trkpt>
      <trkpt lat="48.19176" lon="-0.65995">
        <ele>121.9</ele>
        <time>2011-09-10T07:16:30Z</time>
      </trkpt>
      <trkpt lat="48.1917" lon="-0.66004">
        <ele>121.5</ele>
        <time>2011-09-10T07:16:37Z</time>
      </trkpt>
      <trkpt lat="48.19164" lon="-0.66013">
        <ele>121</ele>
        <time>2011-09-10T07:16:44Z</time>
      </trkpt>
      <trkpt lat="48.1916" lon="-0.66025">
        <ele>121</ele>
        <time>2011-09-10T07:17:04Z</time>
      </trkpt>
      <trkpt lat="48.19164" lon="-0.66037">
        <ele>121.6</ele>
        <time>2011-09-10T07:17:13Z</time>
      </trkpt>
      <trkpt lat="48.19171" lon="-0.66045">
        <ele>119.9</ele>
        <time>2011-09-10T07:17:22Z</time>
      </trkpt>
      <trkpt lat="48.19172" lon="-0.66046">
        <ele>120</ele>
        <time>2011-09-10T07:17:23Z</time>
      </trkpt>
      <trkpt lat="48.19185" lon="-0.6606">
        <ele>121.4</ele>
        <time>2011-09-10T07:17:34Z</time>
      </trkpt>
      <trkpt lat="48.19191" lon="-0.66069">
        <ele>121</ele>
        <time>2011-09-10T07:17:42Z</time>
      </trkpt>
      <trkpt lat="48.19197" lon="-0.6608">
        <ele>119.3</ele>
        <time>2011-09-10T07:17:49Z</time>
      </trkpt>
      <trkpt lat="48.19202" lon="-0.6609">
        <ele>120.6</ele>
        <time>2011-09-10T07:17:56Z</time>
      </trkpt>
      <trkpt lat="48.19207" lon="-0.66101">
        <ele>122.8</ele>
        <time>2011-09-10T07:18:02Z</time>
      </trkpt>
      <trkpt lat="48.19213" lon="-0.6611">
        <ele>124</ele>
        <time>2011-09-10T07:18:08Z</time>
      </trkpt>
      <trkpt lat="48.19217" lon="-0.6612">
        <ele>123.9</ele>
        <time>2011-09-10T07:18:14Z</time>
      </trkpt>
      <trkpt lat="48.19223" lon="-0.66129">
        <ele>124.1</ele>
        <time>2011-09-10T07:18:20Z</time>
      </trkpt>
      <trkpt lat="48.19228" lon="-0.66138">
        <ele>122.8</ele>
        <time>2011-09-10T07:18:26Z</time>
      </trkpt>
      <trkpt lat="48.19229" lon="-0.66139">
        <ele>122.5</ele>
        <time>2011-09-10T07:18:27Z</time>
      </trkpt>
      <trkpt lat="48.19238" lon="-0.66157">
        <ele>122.9</ele>
        <time>2011-09-10T07:18:40Z</time>
      </trkpt>
      <trkpt lat="48.19243" lon="-0.66166">
        <ele>122.3</ele>
        <time>2011-09-10T07:18:46Z</time>
      </trkpt>
      <trkpt lat="48.19248" lon="-0.66176">
        <ele>121.4</ele>
        <time>2011-09-10T07:18:51Z</time>
      </trkpt>
      <trkpt lat="48.19253" lon="-0.66186">
        <ele>122</ele>
        <time>2011-09-10T07:18:57Z</time>
      </trkpt>
      <trkpt lat="48.19258" lon="-0.66194">
        <ele>122.6</ele>
        <time>2011-09-10T07:19:02Z</time>
      </trkpt>
      <trkpt lat="48.19262" lon="-0.66204">
        <ele>122.9</ele>
        <time>2011-09-10T07:19:11Z</time>
      </trkpt>
      <trkpt lat="48.19267" lon="-0.66214">
        <ele>122.5</ele>
        <time>2011-09-10T07:19:17Z</time>
      </trkpt>
      <trkpt lat="48.19272" lon="-0.66224">
        <ele>123.4</ele>
        <time>2011-09-10T07:19:23Z</time>
      </trkpt>
      <trkpt lat="48.19277" lon="-0.66233">
        <ele>122.5</ele>
        <time>2011-09-10T07:19:28Z</time>
      </trkpt>
      <trkpt lat="48.19278" lon="-0.66234">
        <ele>122.4</ele>
        <time>2011-09-10T07:19:29Z</time>
      </trkpt>
      <trkpt lat="48.19288" lon="-0.6625">
        <ele>121.9</ele>
        <time>2011-09-10T07:19:39Z</time>
      </trkpt>
      <trkpt lat="48.19294" lon="-0.6626">
        <ele>122</ele>
        <time>2011-09-10T07:19:44Z</time>
      </trkpt>
      <trkpt lat="48.19298" lon="-0.6627">
        <ele>121.3</ele>
        <time>2011-09-10T07:19:50Z</time>
      </trkpt>
      <trkpt lat="48.19303" lon="-0.6628">
        <ele>120.5</ele>
        <time>2011-09-10T07:19:56Z</time>
      </trkpt>
      <trkpt lat="48.19307" lon="-0.66291">
        <ele>119.4</ele>
        <time>2011-09-10T07:20:02Z</time>
      </trkpt>
      <trkpt lat="48.19311" lon="-0.66302">
        <ele>118.9</ele>
        <time>2011-09-10T07:20:08Z</time>
      </trkpt>
      <trkpt lat="48.19315" lon="-0.66312">
        <ele>119.3</ele>
        <time>2011-09-10T07:20:14Z</time>
      </trkpt>
      <trkpt lat="48.19321" lon="-0.66322">
        <ele>120</ele>
        <time>2011-09-10T07:20:20Z</time>
      </trkpt>
      <trkpt lat="48.19326" lon="-0.66333">
        <ele>120.4</ele>
        <time>2011-09-10T07:20:26Z</time>
      </trkpt>
      <trkpt lat="48.1933" lon="-0.66342">
        <ele>121.5</ele>
        <time>2011-09-10T07:20:32Z</time>
      </trkpt>
      <trkpt lat="48.19331" lon="-0.66344">
        <ele>121.8</ele>
        <time>2011-09-10T07:20:33Z</time>
      </trkpt>
      <trkpt lat="48.19342" lon="-0.6636">
        <ele>122.1</ele>
        <time>2011-09-10T07:20:50Z</time>
      </trkpt>
      <trkpt lat="48.1935" lon="-0.6636">
        <ele>122</ele>
        <time>2011-09-10T07:21:03Z</time>
      </trkpt>
      <trkpt lat="48.19359" lon="-0.66358">
        <ele>122.6</ele>
        <time>2011-09-10T07:21:10Z</time>
      </trkpt>
      <trkpt lat="48.19367" lon="-0.66354">
        <ele>126</ele>
        <time>2011-09-10T07:21:30Z</time>
      </trkpt>
      <trkpt lat="48.19371" lon="-0.66345">
        <ele>126</ele>
        <time>2011-09-10T07:21:36Z</time>
      </trkpt>
      <trkpt lat="48.19372" lon="-0.66344">
        <ele>126.3</ele>
        <time>2011-09-10T07:21:37Z</time>
      </trkpt>
      <trkpt lat="48.19382" lon="-0.66326">
        <ele>125.1</ele>
        <time>2011-09-10T07:21:49Z</time>
      </trkpt>
      <trkpt lat="48.19387" lon="-0.66318">
        <ele>125.5</ele>
        <time>2011-09-10T07:21:56Z</time>
      </trkpt>
      <trkpt lat="48.19393" lon="-0.6631">
        <ele>126.3</ele>
        <time>2011-09-10T07:22:01Z</time>
      </trkpt>
      <trkpt lat="48.19399" lon="-0.663">
        <ele>126.5</ele>
        <time>2011-09-10T07:22:07Z</time>
      </trkpt>
      <trkpt lat="48.19405" lon="-0.66292">
        <ele>127.3</ele>
        <time>2011-09-10T07:22:14Z</time>
      </trkpt>
      <trkpt lat="48.1941" lon="-0.66283">
        <ele>126.4</ele>
        <time>2011-09-10T07:22:21Z</time>
      </trkpt>
      <trkpt lat="48.19417" lon="-0.66277">
        <ele>127</ele>
        <time>2011-09-10T07:22:27Z</time>
      </trkpt>
      <trkpt lat="48.19425" lon="-0.66271">
        <ele>129.5</ele>
        <time>2011-09-10T07:22:34Z</time>
      </trkpt>
      <trkpt lat="48.19433" lon="-0.66267">
        <ele>130.1</ele>
        <time>2011-09-10T07:22:41Z</time>
      </trkpt>
      <trkpt lat="48.19434" lon="-0.66266">
        <ele>130.1</ele>
        <time>2011-09-10T07:22:42Z</time>
      </trkpt>
      <trkpt lat="48.1945" lon="-0.66266">
        <ele>132.3</ele>
        <time>2011-09-10T07:22:56Z</time>
      </trkpt>
      <trkpt lat="48.19458" lon="-0.6627">
        <ele>133.3</ele>
        <time>2011-09-10T07:23:03Z</time>
      </trkpt>
      <trkpt lat="48.19466" lon="-0.66269">
        <ele>134.1</ele>
        <time>2011-09-10T07:23:10Z</time>
      </trkpt>
      <trkpt lat="48.19474" lon="-0.6627">
        <ele>135.6</ele>
        <time>2011-09-10T07:23:16Z</time>
      </trkpt>
      <trkpt lat="48.19483" lon="-0.66273">
        <ele>139.6</ele>
        <time>2011-09-10T07:23:25Z</time>
      </trkpt>
      <trkpt lat="48.19491" lon="-0.66274">
        <ele>142.3</ele>
        <time>2011-09-10T07:23:38Z</time>
      </trkpt>
      <trkpt lat="48.19499" lon="-0.66271">
        <ele>141.5</ele>
        <time>2011-09-10T07:23:44Z</time>
      </trkpt>
      <trkpt lat="48.19501" lon="-0.66271">
        <ele>141.1</ele>
        <time>2011-09-10T07:23:45Z</time>
      </trkpt>
      <trkpt lat="48.19515" lon="-0.66268">
        <ele>143.3</ele>
        <time>2011-09-10T07:23:57Z</time>
      </trkpt>
      <trkpt lat="48.19522" lon="-0.66262">
        <ele>141.3</ele>
        <time>2011-09-10T07:24:03Z</time>
      </trkpt>
      <trkpt lat="48.19529" lon="-0.66257">
        <ele>139.1</ele>
        <time>2011-09-10T07:24:10Z</time>
      </trkpt>
      <trkpt lat="48.19536" lon="-0.6625">
        <ele>137.1</ele>
        <time>2011-09-10T07:24:16Z</time>
      </trkpt>
      <trkpt lat="48.19544" lon="-0.66248">
        <ele>136.3</ele>
        <time>2011-09-10T07:24:22Z</time>
      </trkpt>
      <trkpt lat="48.19553" lon="-0.66245">
        <ele>135.3</ele>
        <time>2011-09-10T07:24:28Z</time>
      </trkpt>
      <trkpt lat="48.1956" lon="-0.6624">
        <ele>136.1</ele>
        <time>2011-09-10T07:24:38Z</time>
      </trkpt>
      <trkpt lat="48.19569" lon="-0.66236">
        <ele>137.8</ele>
        <time>2011-09-10T07:24:46Z</time>
      </trkpt>
      <trkpt lat="48.1957" lon="-0.66236">
        <ele>137.8</ele>
        <time>2011-09-10T07:24:47Z</time>
      </trkpt>
      <trkpt lat="48.19585" lon="-0.66233">
        <ele>139.1</ele>
        <time>2011-09-10T07:25:00Z</time>
      </trkpt>
      <trkpt lat="48.19594" lon="-0.66231">
        <ele>140.6</ele>
        <time>2011-09-10T07:25:07Z</time>
      </trkpt>
      <trkpt lat="48.19601" lon="-0.66227">
        <ele>141.1</ele>
        <time>2011-09-10T07:25:16Z</time>
      </trkpt>
      <trkpt lat="48.19609" lon="-0.66223">
        <ele>141.1</ele>
        <time>2011-09-10T07:25:25Z</time>
      </trkpt>
      <trkpt lat="48.19617" lon="-0.66221">
        <ele>139.6</ele>
        <time>2011-09-10T07:25:31Z</time>
      </trkpt>
      <trkpt lat="48.19625" lon="-0.66217">
        <ele>140.1</ele>
        <time>2011-09-10T07:25:37Z</time>
      </trkpt>
      <trkpt lat="48.19633" lon="-0.66212">
        <ele>138.5</ele>
        <time>2011-09-10T07:25:42Z</time>
      </trkpt>
      <trkpt lat="48.19641" lon="-0.66209">
        <ele>136</ele>
        <time>2011-09-10T07:25:47Z</time>
      </trkpt>
      <trkpt lat="48.19642" lon="-0.6621">
        <ele>136.3</ele>
        <time>2011-09-10T07:25:48Z</time>
      </trkpt>
      <trkpt lat="48.19656" lon="-0.66206">
        <ele>136.6</ele>
        <time>2011-09-10T07:25:58Z</time>
      </trkpt>
      <trkpt lat="48.19664" lon="-0.66202">
        <ele>137.1</ele>
        <time>2011-09-10T07:26:04Z</time>
      </trkpt>
      <trkpt lat="48.19671" lon="-0.66199">
        <ele>137</ele>
        <time>2011-09-10T07:26:09Z</time>
      </trkpt>
      <trkpt lat="48.19679" lon="-0.66195">
        <ele>137</ele>
        <time>2011-09-10T07:26:15Z</time>
      </trkpt>
      <trkpt lat="48.19687" lon="-0.66192">
        <ele>137.1</ele>
        <time>2011-09-10T07:26:21Z</time>
      </trkpt>
      <trkpt lat="48.19694" lon="-0.66188">
        <ele>138.1</ele>
        <time>2011-09-10T07:26:28Z</time>
      </trkpt>
      <trkpt lat="48.19702" lon="-0.66185">
        <ele>139.3</ele>
        <time>2011-09-10T07:26:35Z</time>
      </trkpt>
      <trkpt lat="48.19711" lon="-0.66181">
        <ele>141.3</ele>
        <time>2011-09-10T07:26:44Z</time>
      </trkpt>
      <trkpt lat="48.19719" lon="-0.6618">
        <ele>144.1</ele>
        <time>2011-09-10T07:26:52Z</time>
      </trkpt>
      <trkpt lat="48.1972" lon="-0.66179">
        <ele>144.5</ele>
        <time>2011-09-10T07:26:53Z</time>
      </trkpt>
      <trkpt lat="48.19735" lon="-0.66174">
        <ele>145</ele>
        <time>2011-09-10T07:27:08Z</time>
      </trkpt>
      <trkpt lat="48.19742" lon="-0.6617">
        <ele>143.8</ele>
        <time>2011-09-10T07:27:14Z</time>
      </trkpt>
      <trkpt lat="48.19751" lon="-0.66166">
        <ele>144.3</ele>
        <time>2011-09-10T07:27:21Z</time>
      </trkpt>
      <trkpt lat="48.19759" lon="-0.66162">
        <ele>143.6</ele>
        <time>2011-09-10T07:27:32Z</time>
      </trkpt>
      <trkpt lat="48.19766" lon="-0.66159">
        <ele>143.5</ele>
        <time>2011-09-10T07:27:37Z</time>
      </trkpt>
      <trkpt lat="48.19774" lon="-0.66154">
        <ele>143.1</ele>
        <time>2011-09-10T07:27:42Z</time>
      </trkpt>
      <trkpt lat="48.19782" lon="-0.66151">
        <ele>143.1</ele>
        <time>2011-09-10T07:27:48Z</time>
      </trkpt>
      <trkpt lat="48.19791" lon="-0.66149">
        <ele>143.8</ele>
        <time>2011-09-10T07:27:54Z</time>
      </trkpt>
      <trkpt lat="48.19792" lon="-0.66148">
        <ele>143.5</ele>
        <time>2011-09-10T07:27:55Z</time>
      </trkpt>
      <trkpt lat="48.19807" lon="-0.66144">
        <ele>142.6</ele>
        <time>2011-09-10T07:28:06Z</time>
      </trkpt>
      <trkpt lat="48.19815" lon="-0.66141">
        <ele>142.8</ele>
        <time>2011-09-10T07:28:12Z</time>
      </trkpt>
      <trkpt lat="48.19824" lon="-0.66136">
        <ele>139.6</ele>
        <time>2011-09-10T07:28:19Z</time>
      </trkpt>
      <trkpt lat="48.19831" lon="-0.66132">
        <ele>137.3</ele>
        <time>2011-09-10T07:28:25Z</time>
      </trkpt>
      <trkpt lat="48.19839" lon="-0.66128">
        <ele>138.1</ele>
        <time>2011-09-10T07:28:31Z</time>
      </trkpt>
      <trkpt lat="48.19847" lon="-0.66124">
        <ele>137.6</ele>
        <time>2011-09-10T07:28:39Z</time>
      </trkpt>
      <trkpt lat="48.19855" lon="-0.66122">
        <ele>137.3</ele>
        <time>2011-09-10T07:28:49Z</time>
      </trkpt>
      <trkpt lat="48.19864" lon="-0.66122">
        <ele>137.8</ele>
        <time>2011-09-10T07:28:56Z</time>
      </trkpt>
      <trkpt lat="48.19865" lon="-0.66122">
        <ele>137.8</ele>
        <time>2011-09-10T07:28:57Z</time>
      </trkpt>
      <trkpt lat="48.19881" lon="-0.66119">
        <ele>138.6</ele>
        <time>2011-09-10T07:29:11Z</time>
      </trkpt>
      <trkpt lat="48.19889" lon="-0.66117">
        <ele>139.6</ele>
        <time>2011-09-10T07:29:17Z</time>
      </trkpt>
      <trkpt lat="48.19897" lon="-0.66114">
        <ele>139.1</ele>
        <time>2011-09-10T07:29:23Z</time>
      </trkpt>
      <trkpt lat="48.19905" lon="-0.66112">
        <ele>139.8</ele>
        <time>2011-09-10T07:29:28Z</time>
      </trkpt>
      <trkpt lat="48.19912" lon="-0.6611">
        <ele>139.5</ele>
        <time>2011-09-10T07:29:33Z</time>
      </trkpt>
      <trkpt lat="48.1992" lon="-0.66107">
        <ele>140.3</ele>
        <time>2011-09-10T07:29:38Z</time>
      </trkpt>
      <trkpt lat="48.19928" lon="-0.66104">
        <ele>141</ele>
        <time>2011-09-10T07:29:44Z</time>
      </trkpt>
      <trkpt lat="48.19936" lon="-0.66101">
        <ele>141.6</ele>
        <time>2011-09-10T07:29:51Z</time>
      </trkpt>
      <trkpt lat="48.19944" lon="-0.66097">
        <ele>141.3</ele>
        <time>2011-09-10T07:29:57Z</time>
      </trkpt>
      <trkpt lat="48.19946" lon="-0.66096">
        <ele>141.5</ele>
        <time>2011-09-10T07:29:58Z</time>
      </trkpt>
      <trkpt lat="48.19961" lon="-0.6609">
        <ele>143.1</ele>
        <time>2011-09-10T07:30:09Z</time>
      </trkpt>
      <trkpt lat="48.19969" lon="-0.66087">
        <ele>143.3</ele>
        <time>2011-09-10T07:30:15Z</time>
      </trkpt>
      <trkpt lat="48.19977" lon="-0.66084">
        <ele>143.8</ele>
        <time>2011-09-10T07:30:21Z</time>
      </trkpt>
      <trkpt lat="48.19985" lon="-0.66081">
        <ele>143.6</ele>
        <time>2011-09-10T07:30:27Z</time>
      </trkpt>
      <trkpt lat="48.19993" lon="-0.66079">
        <ele>144.3</ele>
        <time>2011-09-10T07:30:34Z</time>
      </trkpt>
      <trkpt lat="48.20001" lon="-0.66079">
        <ele>145.1</ele>
        <time>2011-09-10T07:30:40Z</time>
      </trkpt>
      <trkpt lat="48.2001" lon="-0.66077">
        <ele>144.8</ele>
        <time>2011-09-10T07:30:47Z</time>
      </trkpt>
      <trkpt lat="48.20018" lon="-0.66077">
        <ele>145.1</ele>
        <time>2011-09-10T07:30:53Z</time>
      </trkpt>
      <trkpt lat="48.20026" lon="-0.66073">
        <ele>144.1</ele>
        <time>2011-09-10T07:30:59Z</time>
      </trkpt>
      <trkpt lat="48.20027" lon="-0.66072">
        <ele>143.8</ele>
        <time>2011-09-10T07:31:00Z</time>
      </trkpt>
      <trkpt lat="48.20042" lon="-0.66069">
        <ele>144.1</ele>
        <time>2011-09-10T07:31:12Z</time>
      </trkpt>
      <trkpt lat="48.2005" lon="-0.66068">
        <ele>144.3</ele>
        <time>2011-09-10T07:31:18Z</time>
      </trkpt>
      <trkpt lat="48.20059" lon="-0.66066">
        <ele>144.5</ele>
        <time>2011-09-10T07:31:25Z</time>
      </trkpt>
      <trkpt lat="48.20067" lon="-0.66062">
        <ele>143.5</ele>
        <time>2011-09-10T07:31:32Z</time>
      </trkpt>
      <trkpt lat="48.20075" lon="-0.66059">
        <ele>143.6</ele>
        <time>2011-09-10T07:31:38Z</time>
      </trkpt>
      <trkpt lat="48.20083" lon="-0.66055">
        <ele>144</ele>
        <time>2011-09-10T07:31:44Z</time>
      </trkpt>
      <trkpt lat="48.20091" lon="-0.66054">
        <ele>144</ele>
        <time>2011-09-10T07:31:51Z</time>
      </trkpt>
      <trkpt lat="48.20099" lon="-0.66055">
        <ele>143</ele>
        <time>2011-09-10T07:31:56Z</time>
      </trkpt>
      <trkpt lat="48.20107" lon="-0.66057">
        <ele>143.6</ele>
        <time>2011-09-10T07:32:01Z</time>
      </trkpt>
      <trkpt lat="48.20109" lon="-0.66057">
        <ele>143.3</ele>
        <time>2011-09-10T07:32:02Z</time>
      </trkpt>
      <trkpt lat="48.20124" lon="-0.66054">
        <ele>142.6</ele>
        <time>2011-09-10T07:32:13Z</time>
      </trkpt>
      <trkpt lat="48.20132" lon="-0.66052">
        <ele>127.5</ele>
        <time>2011-09-10T07:32:25Z</time>
      </trkpt>
      <trkpt lat="48.2014" lon="-0.66052">
        <ele>127.9</ele>
        <time>2011-09-10T07:32:30Z</time>
      </trkpt>
      <trkpt lat="48.20147" lon="-0.66054">
        <ele>128.8</ele>
        <time>2011-09-10T07:32:35Z</time>
      </trkpt>
      <trkpt lat="48.20155" lon="-0.66053">
        <ele>130.3</ele>
        <time>2011-09-10T07:32:45Z</time>
      </trkpt>
      <trkpt lat="48.20163" lon="-0.66048">
        <ele>131.6</ele>
        <time>2011-09-10T07:32:51Z</time>
      </trkpt>
      <trkpt lat="48.20171" lon="-0.66044">
        <ele>132.3</ele>
        <time>2011-09-10T07:32:57Z</time>
      </trkpt>
      <trkpt lat="48.20178" lon="-0.6604">
        <ele>132.8</ele>
        <time>2011-09-10T07:33:02Z</time>
      </trkpt>
      <trkpt lat="48.2018" lon="-0.6604">
        <ele>132.8</ele>
        <time>2011-09-10T07:33:03Z</time>
      </trkpt>
      <trkpt lat="48.20194" lon="-0.66033">
        <ele>133.6</ele>
        <time>2011-09-10T07:33:13Z</time>
      </trkpt>
      <trkpt lat="48.20202" lon="-0.6603">
        <ele>134.3</ele>
        <time>2011-09-10T07:33:19Z</time>
      </trkpt>
      <trkpt lat="48.2021" lon="-0.66027">
        <ele>135.1</ele>
        <time>2011-09-10T07:33:25Z</time>
      </trkpt>
      <trkpt lat="48.20218" lon="-0.66023">
        <ele>136.1</ele>
        <time>2011-09-10T07:33:31Z</time>
      </trkpt>
      <trkpt lat="48.20227" lon="-0.66021">
        <ele>137</ele>
        <time>2011-09-10T07:33:37Z</time>
      </trkpt>
      <trkpt lat="48.20234" lon="-0.66017">
        <ele>137.8</ele>
        <time>2011-09-10T07:33:43Z</time>
      </trkpt>
      <trkpt lat="48.20243" lon="-0.66014">
        <ele>138.8</ele>
        <time>2011-09-10T07:33:49Z</time>
      </trkpt>
      <trkpt lat="48.20251" lon="-0.66012">
        <ele>139.8</ele>
        <time>2011-09-10T07:33:55Z</time>
      </trkpt>
      <trkpt lat="48.2026" lon="-0.66009">
        <ele>140.3</ele>
        <time>2011-09-10T07:34:01Z</time>
      </trkpt>
      <trkpt lat="48.20268" lon="-0.66006">
        <ele>141.1</ele>
        <time>2011-09-10T07:34:07Z</time>
      </trkpt>
      <trkpt lat="48.20269" lon="-0.66005">
        <ele>141.3</ele>
        <time>2011-09-10T07:34:08Z</time>
      </trkpt>
      <trkpt lat="48.20283" lon="-0.65999">
        <ele>142.5</ele>
        <time>2011-09-10T07:34:20Z</time>
      </trkpt>
      <trkpt lat="48.20292" lon="-0.65999">
        <ele>143.3</ele>
        <time>2011-09-10T07:34:35Z</time>
      </trkpt>
      <trkpt lat="48.203" lon="-0.65997">
        <ele>142.6</ele>
        <time>2011-09-10T07:34:41Z</time>
      </trkpt>
      <trkpt lat="48.20308" lon="-0.65993">
        <ele>142.8</ele>
        <time>2011-09-10T07:34:47Z</time>
      </trkpt>
      <trkpt lat="48.20316" lon="-0.65991">
        <ele>142.3</ele>
        <time>2011-09-10T07:34:53Z</time>
      </trkpt>
      <trkpt lat="48.20324" lon="-0.65988">
        <ele>142.1</ele>
        <time>2011-09-10T07:34:59Z</time>
      </trkpt>
      <trkpt lat="48.20332" lon="-0.65984">
        <ele>143</ele>
        <time>2011-09-10T07:35:05Z</time>
      </trkpt>
      <trkpt lat="48.2034" lon="-0.65982">
        <ele>143.1</ele>
        <time>2011-09-10T07:35:11Z</time>
      </trkpt>
      <trkpt lat="48.20342" lon="-0.65981">
        <ele>143.3</ele>
        <time>2011-09-10T07:35:12Z</time>
      </trkpt>
      <trkpt lat="48.20356" lon="-0.65976">
        <ele>143</ele>
        <time>2011-09-10T07:35:22Z</time>
      </trkpt>
      <trkpt lat="48.20365" lon="-0.65973">
        <ele>143.1</ele>
        <time>2011-09-10T07:35:29Z</time>
      </trkpt>
      <trkpt lat="48.20374" lon="-0.65971">
        <ele>143.6</ele>
        <time>2011-09-10T07:35:36Z</time>
      </trkpt>
      <trkpt lat="48.20382" lon="-0.65968">
        <ele>145</ele>
        <time>2011-09-10T07:35:43Z</time>
      </trkpt>
      <trkpt lat="48.2039" lon="-0.65966">
        <ele>145.3</ele>
        <time>2011-09-10T07:35:49Z</time>
      </trkpt>
      <trkpt lat="48.20399" lon="-0.65963">
        <ele>145.5</ele>
        <time>2011-09-10T07:35:55Z</time>
      </trkpt>
      <trkpt lat="48.20406" lon="-0.65961">
        <ele>145</ele>
        <time>2011-09-10T07:36:01Z</time>
      </trkpt>
      <trkpt lat="48.20414" lon="-0.65958">
        <ele>144.6</ele>
        <time>2011-09-10T07:36:07Z</time>
      </trkpt>
      <trkpt lat="48.20422" lon="-0.65956">
        <ele>144.6</ele>
        <time>2011-09-10T07:36:13Z</time>
      </trkpt>
      <trkpt lat="48.20423" lon="-0.65955">
        <ele>144.1</ele>
        <time>2011-09-10T07:36:14Z</time>
      </trkpt>
      <trkpt lat="48.20437" lon="-0.6595">
        <ele>142.3</ele>
        <time>2011-09-10T07:36:25Z</time>
      </trkpt>
      <trkpt lat="48.20445" lon="-0.65947">
        <ele>142.8</ele>
        <time>2011-09-10T07:36:31Z</time>
      </trkpt>
      <trkpt lat="48.20453" lon="-0.65944">
        <ele>142.8</ele>
        <time>2011-09-10T07:36:38Z</time>
      </trkpt>
      <trkpt lat="48.20461" lon="-0.65941">
        <ele>143.5</ele>
        <time>2011-09-10T07:36:44Z</time>
      </trkpt>
      <trkpt lat="48.20469" lon="-0.6594">
        <ele>143</ele>
        <time>2011-09-10T07:36:50Z</time>
      </trkpt>
      <trkpt lat="48.20477" lon="-0.65937">
        <ele>142.5</ele>
        <time>2011-09-10T07:36:56Z</time>
      </trkpt>
      <trkpt lat="48.20485" lon="-0.65935">
        <ele>144</ele>
        <time>2011-09-10T07:37:02Z</time>
      </trkpt>
      <trkpt lat="48.20493" lon="-0.65933">
        <ele>144.5</ele>
        <time>2011-09-10T07:37:08Z</time>
      </trkpt>
      <trkpt lat="48.20501" lon="-0.6593">
        <ele>144.3</ele>
        <time>2011-09-10T07:37:26Z</time>
      </trkpt>
      <trkpt lat="48.20502" lon="-0.6593">
        <ele>144.3</ele>
        <time>2011-09-10T07:37:27Z</time>
      </trkpt>
      <trkpt lat="48.20516" lon="-0.6594">
        <ele>147</ele>
        <time>2011-09-10T07:37:59Z</time>
      </trkpt>
      <trkpt lat="48.20522" lon="-0.6595">
        <ele>149.3</ele>
        <time>2011-09-10T07:38:07Z</time>
      </trkpt>
      <trkpt lat="48.20522" lon="-0.65963">
        <ele>151.8</ele>
        <time>2011-09-10T07:38:14Z</time>
      </trkpt>
      <trkpt lat="48.20521" lon="-0.65976">
        <ele>152.8</ele>
        <time>2011-09-10T07:38:21Z</time>
      </trkpt>
      <trkpt lat="48.2052" lon="-0.65989">
        <ele>153.1</ele>
        <time>2011-09-10T07:38:28Z</time>
      </trkpt>
      <trkpt lat="48.20519" lon="-0.65991">
        <ele>153.1</ele>
        <time>2011-09-10T07:38:29Z</time>
      </trkpt>
      <trkpt lat="48.20516" lon="-0.66014">
        <ele>154</ele>
        <time>2011-09-10T07:38:42Z</time>
      </trkpt>
      <trkpt lat="48.20514" lon="-0.66026">
        <ele>154.3</ele>
        <time>2011-09-10T07:38:49Z</time>
      </trkpt>
      <trkpt lat="48.20512" lon="-0.66037">
        <ele>154.1</ele>
        <time>2011-09-10T07:38:55Z</time>
      </trkpt>
      <trkpt lat="48.20509" lon="-0.6605">
        <ele>155.1</ele>
        <time>2011-09-10T07:39:02Z</time>
      </trkpt>
      <trkpt lat="48.20507" lon="-0.66063">
        <ele>155.6</ele>
        <time>2011-09-10T07:39:10Z</time>
      </trkpt>
      <trkpt lat="48.20506" lon="-0.66075">
        <ele>156.3</ele>
        <time>2011-09-10T07:39:17Z</time>
      </trkpt>
      <trkpt lat="48.20504" lon="-0.66088">
        <ele>157.3</ele>
        <time>2011-09-10T07:39:24Z</time>
      </trkpt>
      <trkpt lat="48.20502" lon="-0.661">
        <ele>158.1</ele>
        <time>2011-09-10T07:39:31Z</time>
      </trkpt>
      <trkpt lat="48.20502" lon="-0.66102">
        <ele>158.3</ele>
        <time>2011-09-10T07:39:32Z</time>
      </trkpt>
      <trkpt lat="48.20498" lon="-0.66125">
        <ele>159.3</ele>
        <time>2011-09-10T07:39:44Z</time>
      </trkpt>
      <trkpt lat="48.20496" lon="-0.66137">
        <ele>159.1</ele>
        <time>2011-09-10T07:39:50Z</time>
      </trkpt>
      <trkpt lat="48.20494" lon="-0.66149">
        <ele>159.3</ele>
        <time>2011-09-10T07:39:57Z</time>
      </trkpt>
      <trkpt lat="48.2049" lon="-0.6616">
        <ele>160.1</ele>
        <time>2011-09-10T07:40:04Z</time>
      </trkpt>
      <trkpt lat="48.20488" lon="-0.66173">
        <ele>160.3</ele>
        <time>2011-09-10T07:40:11Z</time>
      </trkpt>
      <trkpt lat="48.20486" lon="-0.66185">
        <ele>160.1</ele>
        <time>2011-09-10T07:40:18Z</time>
      </trkpt>
      <trkpt lat="48.20485" lon="-0.66198">
        <ele>160</ele>
        <time>2011-09-10T07:40:26Z</time>
      </trkpt>
      <trkpt lat="48.20483" lon="-0.66209">
        <ele>160.1</ele>
        <time>2011-09-10T07:40:33Z</time>
      </trkpt>
      <trkpt lat="48.20483" lon="-0.66211">
        <ele>160.1</ele>
        <time>2011-09-10T07:40:34Z</time>
      </trkpt>
      <trkpt lat="48.20478" lon="-0.66233">
        <ele>160.8</ele>
        <time>2011-09-10T07:40:47Z</time>
      </trkpt>
      <trkpt lat="48.20474" lon="-0.66245">
        <ele>161.1</ele>
        <time>2011-09-10T07:40:54Z</time>
      </trkpt>
      <trkpt lat="48.20472" lon="-0.66256">
        <ele>161.6</ele>
        <time>2011-09-10T07:41:00Z</time>
      </trkpt>
      <trkpt lat="48.2047" lon="-0.66268">
        <ele>161.6</ele>
        <time>2011-09-10T07:41:06Z</time>
      </trkpt>
      <trkpt lat="48.20468" lon="-0.6628">
        <ele>161.1</ele>
        <time>2011-09-10T07:41:12Z</time>
      </trkpt>
      <trkpt lat="48.20466" lon="-0.66291">
        <ele>160.8</ele>
        <time>2011-09-10T07:41:18Z</time>
      </trkpt>
      <trkpt lat="48.20465" lon="-0.66303">
        <ele>161.3</ele>
        <time>2011-09-10T07:41:24Z</time>
      </trkpt>
      <trkpt lat="48.20463" lon="-0.66316">
        <ele>162.6</ele>
        <time>2011-09-10T07:41:31Z</time>
      </trkpt>
      <trkpt lat="48.20462" lon="-0.66329">
        <ele>161.6</ele>
        <time>2011-09-10T07:41:38Z</time>
      </trkpt>
      <trkpt lat="48.20462" lon="-0.66331">
        <ele>161.6</ele>
        <time>2011-09-10T07:41:39Z</time>
      </trkpt>
      <trkpt lat="48.20458" lon="-0.66354">
        <ele>161.6</ele>
        <time>2011-09-10T07:41:52Z</time>
      </trkpt>
      <trkpt lat="48.20454" lon="-0.66364">
        <ele>161.1</ele>
        <time>2011-09-10T07:42:18Z</time>
      </trkpt>
      <trkpt lat="48.20451" lon="-0.66375">
        <ele>161.1</ele>
        <time>2011-09-10T07:42:24Z</time>
      </trkpt>
      <trkpt lat="48.20447" lon="-0.66386">
        <ele>161.1</ele>
        <time>2011-09-10T07:42:31Z</time>
      </trkpt>
      <trkpt lat="48.20443" lon="-0.66398">
        <ele>161.6</ele>
        <time>2011-09-10T07:42:39Z</time>
      </trkpt>
      <trkpt lat="48.20443" lon="-0.66399">
        <ele>161.6</ele>
        <time>2011-09-10T07:42:40Z</time>
      </trkpt>
      <trkpt lat="48.20435" lon="-0.6642">
        <ele>163.3</ele>
        <time>2011-09-10T07:42:52Z</time>
      </trkpt>
      <trkpt lat="48.20431" lon="-0.66431">
        <ele>163.6</ele>
        <time>2011-09-10T07:42:59Z</time>
      </trkpt>
      <trkpt lat="48.20427" lon="-0.66442">
        <ele>163.6</ele>
        <time>2011-09-10T07:43:06Z</time>
      </trkpt>
      <trkpt lat="48.20422" lon="-0.66452">
        <ele>164</ele>
        <time>2011-09-10T07:43:13Z</time>
      </trkpt>
      <trkpt lat="48.20417" lon="-0.66462">
        <ele>163.1</ele>
        <time>2011-09-10T07:43:20Z</time>
      </trkpt>
      <trkpt lat="48.20413" lon="-0.66475">
        <ele>163.5</ele>
        <time>2011-09-10T07:43:32Z</time>
      </trkpt>
      <trkpt lat="48.20409" lon="-0.66485">
        <ele>163.1</ele>
        <time>2011-09-10T07:43:39Z</time>
      </trkpt>
      <trkpt lat="48.20403" lon="-0.66495">
        <ele>162.6</ele>
        <time>2011-09-10T07:43:46Z</time>
      </trkpt>
      <trkpt lat="48.20403" lon="-0.66496">
        <ele>162.6</ele>
        <time>2011-09-10T07:43:47Z</time>
      </trkpt>
      <trkpt lat="48.20395" lon="-0.66518">
        <ele>163.1</ele>
        <time>2011-09-10T07:43:59Z</time>
      </trkpt>
      <trkpt lat="48.20391" lon="-0.66528">
        <ele>163.1</ele>
        <time>2011-09-10T07:44:05Z</time>
      </trkpt>
      <trkpt lat="48.20386" lon="-0.66538">
        <ele>162.6</ele>
        <time>2011-09-10T07:44:11Z</time>
      </trkpt>
      <trkpt lat="48.20382" lon="-0.66549">
        <ele>162.3</ele>
        <time>2011-09-10T07:44:18Z</time>
      </trkpt>
      <trkpt lat="48.20378" lon="-0.6656">
        <ele>161.6</ele>
        <time>2011-09-10T07:44:26Z</time>
      </trkpt>
      <trkpt lat="48.20374" lon="-0.66571">
        <ele>162</ele>
        <time>2011-09-10T07:44:34Z</time>
      </trkpt>
      <trkpt lat="48.2037" lon="-0.66582">
        <ele>162.5</ele>
        <time>2011-09-10T07:44:42Z</time>
      </trkpt>
      <trkpt lat="48.20367" lon="-0.66593">
        <ele>162.1</ele>
        <time>2011-09-10T07:44:49Z</time>
      </trkpt>
      <trkpt lat="48.20366" lon="-0.66595">
        <ele>162</ele>
        <time>2011-09-10T07:44:50Z</time>
      </trkpt>
      <trkpt lat="48.20359" lon="-0.66615">
        <ele>162.5</ele>
        <time>2011-09-10T07:45:00Z</time>
      </trkpt>
      <trkpt lat="48.20356" lon="-0.66627">
        <ele>162.6</ele>
        <time>2011-09-10T07:45:06Z</time>
      </trkpt>
      <trkpt lat="48.20352" lon="-0.66639">
        <ele>162.8</ele>
        <time>2011-09-10T07:47:21Z</time>
      </trkpt>
      <trkpt lat="48.20352" lon="-0.6664">
        <ele>162.8</ele>
        <time>2011-09-10T07:47:22Z</time>
      </trkpt>
      <trkpt lat="48.20344" lon="-0.66661">
        <ele>164.5</ele>
        <time>2011-09-10T07:47:46Z</time>
      </trkpt>
      <trkpt lat="48.2034" lon="-0.66673">
        <ele>164.3</ele>
        <time>2011-09-10T07:47:53Z</time>
      </trkpt>
      <trkpt lat="48.20335" lon="-0.66684">
        <ele>164.5</ele>
        <time>2011-09-10T07:48:01Z</time>
      </trkpt>
      <trkpt lat="48.20332" lon="-0.66695">
        <ele>164.8</ele>
        <time>2011-09-10T07:48:08Z</time>
      </trkpt>
      <trkpt lat="48.20328" lon="-0.66706">
        <ele>165.3</ele>
        <time>2011-09-10T07:48:15Z</time>
      </trkpt>
      <trkpt lat="48.20324" lon="-0.66718">
        <ele>165.8</ele>
        <time>2011-09-10T07:48:21Z</time>
      </trkpt>
      <trkpt lat="48.20319" lon="-0.66729">
        <ele>165.5</ele>
        <time>2011-09-10T07:48:27Z</time>
      </trkpt>
      <trkpt lat="48.20318" lon="-0.66731">
        <ele>165.3</ele>
        <time>2011-09-10T07:48:28Z</time>
      </trkpt>
      <trkpt lat="48.20312" lon="-0.66751">
        <ele>165.6</ele>
        <time>2011-09-10T07:48:40Z</time>
      </trkpt>
      <trkpt lat="48.20308" lon="-0.66761">
        <ele>165.3</ele>
        <time>2011-09-10T07:48:47Z</time>
      </trkpt>
      <trkpt lat="48.20304" lon="-0.66772">
        <ele>166.6</ele>
        <time>2011-09-10T07:48:53Z</time>
      </trkpt>
      <trkpt lat="48.20301" lon="-0.66783">
        <ele>167.8</ele>
        <time>2011-09-10T07:48:59Z</time>
      </trkpt>
      <trkpt lat="48.20298" lon="-0.66794">
        <ele>167.8</ele>
        <time>2011-09-10T07:49:08Z</time>
      </trkpt>
      <trkpt lat="48.20295" lon="-0.66806">
        <ele>168</ele>
        <time>2011-09-10T07:49:15Z</time>
      </trkpt>
      <trkpt lat="48.20292" lon="-0.66817">
        <ele>167.6</ele>
        <time>2011-09-10T07:49:21Z</time>
      </trkpt>
      <trkpt lat="48.20288" lon="-0.66829">
        <ele>167.3</ele>
        <time>2011-09-10T07:49:27Z</time>
      </trkpt>
      <trkpt lat="48.20283" lon="-0.6684">
        <ele>164.8</ele>
        <time>2011-09-10T07:49:35Z</time>
      </trkpt>
      <trkpt lat="48.20283" lon="-0.66841">
        <ele>165.3</ele>
        <time>2011-09-10T07:49:36Z</time>
      </trkpt>
      <trkpt lat="48.20279" lon="-0.66864">
        <ele>164.6</ele>
        <time>2011-09-10T07:49:50Z</time>
      </trkpt>
      <trkpt lat="48.20275" lon="-0.66874">
        <ele>163.1</ele>
        <time>2011-09-10T07:49:57Z</time>
      </trkpt>
      <trkpt lat="48.20273" lon="-0.66887">
        <ele>161.8</ele>
        <time>2011-09-10T07:50:05Z</time>
      </trkpt>
      <trkpt lat="48.20268" lon="-0.66898">
        <ele>161.1</ele>
        <time>2011-09-10T07:50:13Z</time>
      </trkpt>
      <trkpt lat="48.20264" lon="-0.66908">
        <ele>160.5</ele>
        <time>2011-09-10T07:50:19Z</time>
      </trkpt>
      <trkpt lat="48.20261" lon="-0.66919">
        <ele>160.1</ele>
        <time>2011-09-10T07:50:27Z</time>
      </trkpt>
      <trkpt lat="48.20258" lon="-0.6693">
        <ele>161.1</ele>
        <time>2011-09-10T07:50:35Z</time>
      </trkpt>
      <trkpt lat="48.20254" lon="-0.66941">
        <ele>161.5</ele>
        <time>2011-09-10T07:50:40Z</time>
      </trkpt>
      <trkpt lat="48.20254" lon="-0.66943">
        <ele>161.3</ele>
        <time>2011-09-10T07:50:41Z</time>
      </trkpt>
      <trkpt lat="48.20249" lon="-0.66965">
        <ele>160.3</ele>
        <time>2011-09-10T07:50:52Z</time>
      </trkpt>
      <trkpt lat="48.20244" lon="-0.66975">
        <ele>160.3</ele>
        <time>2011-09-10T07:51:00Z</time>
      </trkpt>
      <trkpt lat="48.20238" lon="-0.66984">
        <ele>159.8</ele>
        <time>2011-09-10T07:51:08Z</time>
      </trkpt>
      <trkpt lat="48.20234" lon="-0.66995">
        <ele>158.6</ele>
        <time>2011-09-10T07:51:16Z</time>
      </trkpt>
      <trkpt lat="48.20229" lon="-0.67004">
        <ele>158.6</ele>
        <time>2011-09-10T07:51:25Z</time>
      </trkpt>
      <trkpt lat="48.20225" lon="-0.67015">
        <ele>157.8</ele>
        <time>2011-09-10T07:51:31Z</time>
      </trkpt>
      <trkpt lat="48.20221" lon="-0.67026">
        <ele>159.3</ele>
        <time>2011-09-10T07:51:38Z</time>
      </trkpt>
      <trkpt lat="48.20215" lon="-0.67036">
        <ele>158.1</ele>
        <time>2011-09-10T07:51:47Z</time>
      </trkpt>
      <trkpt lat="48.20214" lon="-0.67038">
        <ele>157.8</ele>
        <time>2011-09-10T07:51:48Z</time>
      </trkpt>
      <trkpt lat="48.2021" lon="-0.67059">
        <ele>159.3</ele>
        <time>2011-09-10T07:51:59Z</time>
      </trkpt>
      <trkpt lat="48.20208" lon="-0.6707">
        <ele>158</ele>
        <time>2011-09-10T07:52:04Z</time>
      </trkpt>
      <trkpt lat="48.20206" lon="-0.67082">
        <ele>155.1</ele>
        <time>2011-09-10T07:52:10Z</time>
      </trkpt>
      <trkpt lat="48.20203" lon="-0.67093">
        <ele>151.8</ele>
        <time>2011-09-10T07:52:16Z</time>
      </trkpt>
      <trkpt lat="48.202" lon="-0.67104">
        <ele>151.6</ele>
        <time>2011-09-10T07:52:22Z</time>
      </trkpt>
      <trkpt lat="48.20196" lon="-0.67115">
        <ele>152.6</ele>
        <time>2011-09-10T07:52:28Z</time>
      </trkpt>
      <trkpt lat="48.20193" lon="-0.67127">
        <ele>153.1</ele>
        <time>2011-09-10T07:52:34Z</time>
      </trkpt>
      <trkpt lat="48.20191" lon="-0.67138">
        <ele>153.3</ele>
        <time>2011-09-10T07:52:39Z</time>
      </trkpt>
      <trkpt lat="48.20188" lon="-0.6715">
        <ele>152.3</ele>
        <time>2011-09-10T07:52:45Z</time>
      </trkpt>
      <trkpt lat="48.20185" lon="-0.67162">
        <ele>152.1</ele>
        <time>2011-09-10T07:52:51Z</time>
      </trkpt>
      <trkpt lat="48.20184" lon="-0.67164">
        <ele>151.8</ele>
        <time>2011-09-10T07:52:52Z</time>
      </trkpt>
      <trkpt lat="48.20182" lon="-0.67185">
        <ele>151.5</ele>
        <time>2011-09-10T07:53:04Z</time>
      </trkpt>
      <trkpt lat="48.20179" lon="-0.67197">
        <ele>150.6</ele>
        <time>2011-09-10T07:53:11Z</time>
      </trkpt>
      <trkpt lat="48.20177" lon="-0.67209">
        <ele>150.3</ele>
        <time>2011-09-10T07:53:17Z</time>
      </trkpt>
      <trkpt lat="48.20175" lon="-0.67221">
        <ele>151</ele>
        <time>2011-09-10T07:53:24Z</time>
      </trkpt>
      <trkpt lat="48.20172" lon="-0.67231">
        <ele>151.6</ele>
        <time>2011-09-10T07:53:30Z</time>
      </trkpt>
      <trkpt lat="48.2017" lon="-0.67243">
        <ele>151.1</ele>
        <time>2011-09-10T07:53:36Z</time>
      </trkpt>
      <trkpt lat="48.20167" lon="-0.67253">
        <ele>151.1</ele>
        <time>2011-09-10T07:53:42Z</time>
      </trkpt>
      <trkpt lat="48.20164" lon="-0.67265">
        <ele>152.3</ele>
        <time>2011-09-10T07:53:48Z</time>
      </trkpt>
      <trkpt lat="48.20161" lon="-0.67277">
        <ele>152.6</ele>
        <time>2011-09-10T07:53:54Z</time>
      </trkpt>
      <trkpt lat="48.2016" lon="-0.67279">
        <ele>153.1</ele>
        <time>2011-09-10T07:53:55Z</time>
      </trkpt>
      <trkpt lat="48.20155" lon="-0.67301">
        <ele>152</ele>
        <time>2011-09-10T07:54:06Z</time>
      </trkpt>
      <trkpt lat="48.20153" lon="-0.67313">
        <ele>151.8</ele>
        <time>2011-09-10T07:54:13Z</time>
      </trkpt>
      <trkpt lat="48.20151" lon="-0.67326">
        <ele>152</ele>
        <time>2011-09-10T07:54:20Z</time>
      </trkpt>
      <trkpt lat="48.2015" lon="-0.6734">
        <ele>150.6</ele>
        <time>2011-09-10T07:54:26Z</time>
      </trkpt>
      <trkpt lat="48.20146" lon="-0.67351">
        <ele>150.3</ele>
        <time>2011-09-10T07:54:32Z</time>
      </trkpt>
      <trkpt lat="48.20143" lon="-0.67362">
        <ele>150.6</ele>
        <time>2011-09-10T07:54:39Z</time>
      </trkpt>
      <trkpt lat="48.20138" lon="-0.67373">
        <ele>150.5</ele>
        <time>2011-09-10T07:54:46Z</time>
      </trkpt>
      <trkpt lat="48.2013" lon="-0.67374">
        <ele>149.8</ele>
        <time>2011-09-10T07:54:55Z</time>
      </trkpt>
      <trkpt lat="48.20129" lon="-0.67373">
        <ele>150.1</ele>
        <time>2011-09-10T07:54:56Z</time>
      </trkpt>
      <trkpt lat="48.20118" lon="-0.67357">
        <ele>152.3</ele>
        <time>2011-09-10T07:55:15Z</time>
      </trkpt>
      <trkpt lat="48.20112" lon="-0.67349">
        <ele>153.6</ele>
        <time>2011-09-10T07:55:22Z</time>
      </trkpt>
      <trkpt lat="48.20107" lon="-0.67339">
        <ele>153.5</ele>
        <time>2011-09-10T07:55:28Z</time>
      </trkpt>
      <trkpt lat="48.20101" lon="-0.67329">
        <ele>154.1</ele>
        <time>2011-09-10T07:55:35Z</time>
      </trkpt>
      <trkpt lat="48.20097" lon="-0.6732">
        <ele>154.6</ele>
        <time>2011-09-10T07:55:41Z</time>
      </trkpt>
      <trkpt lat="48.20091" lon="-0.6731">
        <ele>154.1</ele>
        <time>2011-09-10T07:55:48Z</time>
      </trkpt>
      <trkpt lat="48.20086" lon="-0.67299">
        <ele>154.5</ele>
        <time>2011-09-10T07:55:55Z</time>
      </trkpt>
      <trkpt lat="48.20082" lon="-0.67289">
        <ele>155.3</ele>
        <time>2011-09-10T07:56:01Z</time>
      </trkpt>
      <trkpt lat="48.20081" lon="-0.67288">
        <ele>155.3</ele>
        <time>2011-09-10T07:56:02Z</time>
      </trkpt>
      <trkpt lat="48.2007" lon="-0.67271">
        <ele>156.5</ele>
        <time>2011-09-10T07:56:16Z</time>
      </trkpt>
      <trkpt lat="48.20064" lon="-0.6726">
        <ele>156.6</ele>
        <time>2011-09-10T07:56:23Z</time>
      </trkpt>
      <trkpt lat="48.20059" lon="-0.67251">
        <ele>157.6</ele>
        <time>2011-09-10T07:56:29Z</time>
      </trkpt>
      <trkpt lat="48.20054" lon="-0.67241">
        <ele>158.3</ele>
        <time>2011-09-10T07:56:35Z</time>
      </trkpt>
      <trkpt lat="48.20049" lon="-0.67231">
        <ele>158.8</ele>
        <time>2011-09-10T07:56:41Z</time>
      </trkpt>
      <trkpt lat="48.20043" lon="-0.67221">
        <ele>159.1</ele>
        <time>2011-09-10T07:56:48Z</time>
      </trkpt>
      <trkpt lat="48.20038" lon="-0.6721">
        <ele>159</ele>
        <time>2011-09-10T07:56:54Z</time>
      </trkpt>
      <trkpt lat="48.20035" lon="-0.672">
        <ele>158.6</ele>
        <time>2011-09-10T07:56:59Z</time>
      </trkpt>
      <trkpt lat="48.2003" lon="-0.67191">
        <ele>159.1</ele>
        <time>2011-09-10T07:57:04Z</time>
      </trkpt>
      <trkpt lat="48.20029" lon="-0.67189">
        <ele>159.3</ele>
        <time>2011-09-10T07:57:05Z</time>
      </trkpt>
      <trkpt lat="48.2002" lon="-0.67173">
        <ele>160</ele>
        <time>2011-09-10T07:57:14Z</time>
      </trkpt>
      <trkpt lat="48.20015" lon="-0.67162">
        <ele>160.3</ele>
        <time>2011-09-10T07:57:20Z</time>
      </trkpt>
      <trkpt lat="48.20011" lon="-0.67152">
        <ele>161</ele>
        <time>2011-09-10T07:57:26Z</time>
      </trkpt>
      <trkpt lat="48.20005" lon="-0.67142">
        <ele>162.5</ele>
        <time>2011-09-10T07:57:34Z</time>
      </trkpt>
      <trkpt lat="48.2" lon="-0.67131">
        <ele>163.3</ele>
        <time>2011-09-10T07:57:43Z</time>
      </trkpt>
      <trkpt lat="48.19995" lon="-0.67121">
        <ele>163.5</ele>
        <time>2011-09-10T07:57:50Z</time>
      </trkpt>
      <trkpt lat="48.19989" lon="-0.67112">
        <ele>165.3</ele>
        <time>2011-09-10T07:58:28Z</time>
      </trkpt>
      <trkpt lat="48.19988" lon="-0.67111">
        <ele>165.1</ele>
        <time>2011-09-10T07:58:29Z</time>
      </trkpt>
      <trkpt lat="48.19979" lon="-0.67094">
        <ele>163.6</ele>
        <time>2011-09-10T07:58:40Z</time>
      </trkpt>
      <trkpt lat="48.19973" lon="-0.67084">
        <ele>163.3</ele>
        <time>2011-09-10T07:58:47Z</time>
      </trkpt>
      <trkpt lat="48.19968" lon="-0.67074">
        <ele>164.3</ele>
        <time>2011-09-10T07:58:53Z</time>
      </trkpt>
      <trkpt lat="48.19962" lon="-0.67064">
        <ele>165.6</ele>
        <time>2011-09-10T07:58:59Z</time>
      </trkpt>
      <trkpt lat="48.19958" lon="-0.67055">
        <ele>165.1</ele>
        <time>2011-09-10T07:59:04Z</time>
      </trkpt>
      <trkpt lat="48.19952" lon="-0.67045">
        <ele>164.8</ele>
        <time>2011-09-10T07:59:10Z</time>
      </trkpt>
      <trkpt lat="48.19946" lon="-0.67035">
        <ele>164.6</ele>
        <time>2011-09-10T07:59:16Z</time>
      </trkpt>
      <trkpt lat="48.1994" lon="-0.67025">
        <ele>165.1</ele>
        <time>2011-09-10T07:59:23Z</time>
      </trkpt>
      <trkpt lat="48.19935" lon="-0.67015">
        <ele>165</ele>
        <time>2011-09-10T07:59:29Z</time>
      </trkpt>
      <trkpt lat="48.19934" lon="-0.67014">
        <ele>165</ele>
        <time>2011-09-10T07:59:30Z</time>
      </trkpt>
      <trkpt lat="48.19923" lon="-0.66998">
        <ele>165.1</ele>
        <time>2011-09-10T07:59:41Z</time>
      </trkpt>
      <trkpt lat="48.19916" lon="-0.66991">
        <ele>164.8</ele>
        <time>2011-09-10T07:59:48Z</time>
      </trkpt>
      <trkpt lat="48.1991" lon="-0.66982">
        <ele>164.6</ele>
        <time>2011-09-10T07:59:55Z</time>
      </trkpt>
      <trkpt lat="48.19904" lon="-0.66974">
        <ele>164.3</ele>
        <time>2011-09-10T08:00:01Z</time>
      </trkpt>
      <trkpt lat="48.19896" lon="-0.66976">
        <ele>163.8</ele>
        <time>2011-09-10T08:00:08Z</time>
      </trkpt>
      <trkpt lat="48.19889" lon="-0.66984">
        <ele>164</ele>
        <time>2011-09-10T08:00:14Z</time>
      </trkpt>
      <trkpt lat="48.19883" lon="-0.66992">
        <ele>163.1</ele>
        <time>2011-09-10T08:00:22Z</time>
      </trkpt>
      <trkpt lat="48.19876" lon="-0.66999">
        <ele>163</ele>
        <time>2011-09-10T08:00:29Z</time>
      </trkpt>
      <trkpt lat="48.1987" lon="-0.67007">
        <ele>163.1</ele>
        <time>2011-09-10T08:00:35Z</time>
      </trkpt>
      <trkpt lat="48.19869" lon="-0.67009">
        <ele>163.3</ele>
        <time>2011-09-10T08:00:36Z</time>
      </trkpt>
      <trkpt lat="48.19857" lon="-0.67023">
        <ele>162.8</ele>
        <time>2011-09-10T08:00:50Z</time>
      </trkpt>
      <trkpt lat="48.1985" lon="-0.6703">
        <ele>162.1</ele>
        <time>2011-09-10T08:00:58Z</time>
      </trkpt>
      <trkpt lat="48.19843" lon="-0.67038">
        <ele>161.3</ele>
        <time>2011-09-10T08:01:16Z</time>
      </trkpt>
      <trkpt lat="48.19837" lon="-0.67045">
        <ele>160.8</ele>
        <time>2011-09-10T08:01:23Z</time>
      </trkpt>
      <trkpt lat="48.1983" lon="-0.67053">
        <ele>159.6</ele>
        <time>2011-09-10T08:01:32Z</time>
      </trkpt>
      <trkpt lat="48.19823" lon="-0.6706">
        <ele>158.6</ele>
        <time>2011-09-10T08:01:38Z</time>
      </trkpt>
      <trkpt lat="48.19822" lon="-0.67061">
        <ele>158.5</ele>
        <time>2011-09-10T08:01:39Z</time>
      </trkpt>
      <trkpt lat="48.19807" lon="-0.67072">
        <ele>159.3</ele>
        <time>2011-09-10T08:01:51Z</time>
      </trkpt>
      <trkpt lat="48.198" lon="-0.67078">
        <ele>159.3</ele>
        <time>2011-09-10T08:01:57Z</time>
      </trkpt>
      <trkpt lat="48.19793" lon="-0.67085">
        <ele>157.6</ele>
        <time>2011-09-10T08:02:04Z</time>
      </trkpt>
      <trkpt lat="48.19786" lon="-0.67091">
        <ele>158.8</ele>
        <time>2011-09-10T08:02:10Z</time>
      </trkpt>
      <trkpt lat="48.19779" lon="-0.67095">
        <ele>157.3</ele>
        <time>2011-09-10T08:02:16Z</time>
      </trkpt>
      <trkpt lat="48.19773" lon="-0.67103">
        <ele>156.5</ele>
        <time>2011-09-10T08:02:25Z</time>
      </trkpt>
      <trkpt lat="48.19766" lon="-0.67111">
        <ele>155.8</ele>
        <time>2011-09-10T08:02:32Z</time>
      </trkpt>
      <trkpt lat="48.19758" lon="-0.67117">
        <ele>154.5</ele>
        <time>2011-09-10T08:02:40Z</time>
      </trkpt>
      <trkpt lat="48.19757" lon="-0.67119">
        <ele>154.5</ele>
        <time>2011-09-10T08:02:41Z</time>
      </trkpt>
      <trkpt lat="48.19748" lon="-0.67139">
        <ele>155.1</ele>
        <time>2011-09-10T08:03:13Z</time>
      </trkpt>
      <trkpt lat="48.19742" lon="-0.67147">
        <ele>154.3</ele>
        <time>2011-09-10T08:03:19Z</time>
      </trkpt>
      <trkpt lat="48.19735" lon="-0.67154">
        <ele>155.6</ele>
        <time>2011-09-10T08:03:27Z</time>
      </trkpt>
      <trkpt lat="48.19727" lon="-0.67152">
        <ele>153.1</ele>
        <time>2011-09-10T08:03:32Z</time>
      </trkpt>
      <trkpt lat="48.19719" lon="-0.67155">
        <ele>153.3</ele>
        <time>2011-09-10T08:03:38Z</time>
      </trkpt>
      <trkpt lat="48.19713" lon="-0.67163">
        <ele>151.3</ele>
        <time>2011-09-10T08:03:45Z</time>
      </trkpt>
      <trkpt lat="48.19712" lon="-0.67164">
        <ele>150.6</ele>
        <time>2011-09-10T08:03:46Z</time>
      </trkpt>
      <trkpt lat="48.19699" lon="-0.67172">
        <ele>150.3</ele>
        <time>2011-09-10T08:03:59Z</time>
      </trkpt>
      <trkpt lat="48.19691" lon="-0.67172">
        <ele>149.3</ele>
        <time>2011-09-10T08:04:06Z</time>
      </trkpt>
      <trkpt lat="48.19685" lon="-0.67181">
        <ele>151.1</ele>
        <time>2011-09-10T08:04:14Z</time>
      </trkpt>
      <trkpt lat="48.19678" lon="-0.67184">
        <ele>151</ele>
        <time>2011-09-10T08:04:17Z</time>
      </trkpt>
      <trkpt lat="48.1967" lon="-0.67192">
        <ele>152.5</ele>
        <time>2011-09-10T08:04:25Z</time>
      </trkpt>
      <trkpt lat="48.19663" lon="-0.67199">
        <ele>154.6</ele>
        <time>2011-09-10T08:04:34Z</time>
      </trkpt>
      <trkpt lat="48.19657" lon="-0.67205">
        <ele>155.3</ele>
        <time>2011-09-10T08:04:43Z</time>
      </trkpt>
      <trkpt lat="48.19648" lon="-0.67207">
        <ele>154.5</ele>
        <time>2011-09-10T08:04:48Z</time>
      </trkpt>
      <trkpt lat="48.19647" lon="-0.67207">
        <ele>154.1</ele>
        <time>2011-09-10T08:04:49Z</time>
      </trkpt>
      <trkpt lat="48.19631" lon="-0.67211">
        <ele>154.8</ele>
        <time>2011-09-10T08:05:07Z</time>
      </trkpt>
      <trkpt lat="48.19623" lon="-0.67208">
        <ele>153.8</ele>
        <time>2011-09-10T08:05:11Z</time>
      </trkpt>
      <trkpt lat="48.19616" lon="-0.67208">
        <ele>153</ele>
        <time>2011-09-10T08:05:15Z</time>
      </trkpt>
      <trkpt lat="48.19608" lon="-0.6721">
        <ele>153</ele>
        <time>2011-09-10T08:05:19Z</time>
      </trkpt>
      <trkpt lat="48.196" lon="-0.67212">
        <ele>152.1</ele>
        <time>2011-09-10T08:05:23Z</time>
      </trkpt>
      <trkpt lat="48.19593" lon="-0.67212">
        <ele>151.6</ele>
        <time>2011-09-10T08:05:33Z</time>
      </trkpt>
      <trkpt lat="48.19584" lon="-0.67213">
        <ele>150.3</ele>
        <time>2011-09-10T08:05:50Z</time>
      </trkpt>
      <trkpt lat="48.19583" lon="-0.67213">
        <ele>150.5</ele>
        <time>2011-09-10T08:05:51Z</time>
      </trkpt>
      <trkpt lat="48.19567" lon="-0.6722">
        <ele>147.8</ele>
        <time>2011-09-10T08:06:13Z</time>
      </trkpt>
      <trkpt lat="48.19559" lon="-0.67224">
        <ele>147.5</ele>
        <time>2011-09-10T08:06:18Z</time>
      </trkpt>
      <trkpt lat="48.19552" lon="-0.67228">
        <ele>147</ele>
        <time>2011-09-10T08:06:22Z</time>
      </trkpt>
      <trkpt lat="48.19545" lon="-0.67235">
        <ele>146</ele>
        <time>2011-09-10T08:06:28Z</time>
      </trkpt>
      <trkpt lat="48.19537" lon="-0.6724">
        <ele>146.6</ele>
        <time>2011-09-10T08:06:36Z</time>
      </trkpt>
      <trkpt lat="48.19529" lon="-0.67244">
        <ele>148.3</ele>
        <time>2011-09-10T08:06:56Z</time>
      </trkpt>
      <trkpt lat="48.19528" lon="-0.67245">
        <ele>148.6</ele>
        <time>2011-09-10T08:06:57Z</time>
      </trkpt>
      <trkpt lat="48.19516" lon="-0.67261">
        <ele>152.6</ele>
        <time>2011-09-10T08:07:12Z</time>
      </trkpt>
      <trkpt lat="48.19509" lon="-0.67268">
        <ele>154.6</ele>
        <time>2011-09-10T08:07:20Z</time>
      </trkpt>
      <trkpt lat="48.19501" lon="-0.67271">
        <ele>154.6</ele>
        <time>2011-09-10T08:07:24Z</time>
      </trkpt>
      <trkpt lat="48.19492" lon="-0.67275">
        <ele>155.8</ele>
        <time>2011-09-10T08:07:31Z</time>
      </trkpt>
      <trkpt lat="48.19486" lon="-0.67284">
        <ele>155.6</ele>
        <time>2011-09-10T08:07:39Z</time>
      </trkpt>
      <trkpt lat="48.19479" lon="-0.67291">
        <ele>155.5</ele>
        <time>2011-09-10T08:07:49Z</time>
      </trkpt>
      <trkpt lat="48.19472" lon="-0.67296">
        <ele>155</ele>
        <time>2011-09-10T08:07:54Z</time>
      </trkpt>
      <trkpt lat="48.19464" lon="-0.67298">
        <ele>154.6</ele>
        <time>2011-09-10T08:07:58Z</time>
      </trkpt>
      <trkpt lat="48.19463" lon="-0.67298">
        <ele>154.3</ele>
        <time>2011-09-10T08:07:59Z</time>
      </trkpt>
      <trkpt lat="48.19448" lon="-0.67309">
        <ele>155.8</ele>
        <time>2011-09-10T08:08:51Z</time>
      </trkpt>
      <trkpt lat="48.19447" lon="-0.67297">
        <ele>151.8</ele>
        <time>2011-09-10T08:11:53Z</time>
      </trkpt>
      <trkpt lat="48.19448" lon="-0.67295">
        <ele>151.8</ele>
        <time>2011-09-10T08:11:54Z</time>
      </trkpt>
      <trkpt lat="48.19459" lon="-0.67281">
        <ele>152.3</ele>
        <time>2011-09-10T08:12:09Z</time>
      </trkpt>
      <trkpt lat="48.19466" lon="-0.67276">
        <ele>153.8</ele>
        <time>2011-09-10T08:12:16Z</time>
      </trkpt>
      <trkpt lat="48.19474" lon="-0.6727">
        <ele>154.1</ele>
        <time>2011-09-10T08:12:25Z</time>
      </trkpt>
      <trkpt lat="48.19482" lon="-0.67265">
        <ele>155.6</ele>
        <time>2011-09-10T08:12:37Z</time>
      </trkpt>
      <trkpt lat="48.1949" lon="-0.67259">
        <ele>155.5</ele>
        <time>2011-09-10T08:12:43Z</time>
      </trkpt>
      <trkpt lat="48.19497" lon="-0.67254">
        <ele>155.8</ele>
        <time>2011-09-10T08:12:49Z</time>
      </trkpt>
      <trkpt lat="48.19505" lon="-0.6725">
        <ele>155.6</ele>
        <time>2011-09-10T08:12:56Z</time>
      </trkpt>
      <trkpt lat="48.19506" lon="-0.67249">
        <ele>155.8</ele>
        <time>2011-09-10T08:12:57Z</time>
      </trkpt>
      <trkpt lat="48.19521" lon="-0.6724">
        <ele>153.3</ele>
        <time>2011-09-10T08:13:09Z</time>
      </trkpt>
      <trkpt lat="48.19529" lon="-0.67235">
        <ele>151.6</ele>
        <time>2011-09-10T08:13:20Z</time>
      </trkpt>
      <trkpt lat="48.19537" lon="-0.6723">
        <ele>152</ele>
        <time>2011-09-10T08:13:45Z</time>
      </trkpt>
      <trkpt lat="48.19545" lon="-0.67225">
        <ele>152</ele>
        <time>2011-09-10T08:13:51Z</time>
      </trkpt>
      <trkpt lat="48.19553" lon="-0.67221">
        <ele>152.1</ele>
        <time>2011-09-10T08:13:57Z</time>
      </trkpt>
      <trkpt lat="48.19554" lon="-0.67221">
        <ele>152</ele>
        <time>2011-09-10T08:13:58Z</time>
      </trkpt>
      <trkpt lat="48.19569" lon="-0.67216">
        <ele>148.8</ele>
        <time>2011-09-10T08:14:16Z</time>
      </trkpt>
      <trkpt lat="48.19575" lon="-0.67224">
        <ele>149</ele>
        <time>2011-09-10T08:14:49Z</time>
      </trkpt>
      <trkpt lat="48.19581" lon="-0.67233">
        <ele>149</ele>
        <time>2011-09-10T08:15:02Z</time>
      </trkpt>
      <trkpt lat="48.19581" lon="-0.67234">
        <ele>149.1</ele>
        <time>2011-09-10T08:15:03Z</time>
      </trkpt>
      <trkpt lat="48.19593" lon="-0.67252">
        <ele>150.3</ele>
        <time>2011-09-10T08:15:18Z</time>
      </trkpt>
      <trkpt lat="48.19598" lon="-0.67261">
        <ele>150.6</ele>
        <time>2011-09-10T08:15:24Z</time>
      </trkpt>
      <trkpt lat="48.19602" lon="-0.6727">
        <ele>151.3</ele>
        <time>2011-09-10T08:15:29Z</time>
      </trkpt>
      <trkpt lat="48.19608" lon="-0.67279">
        <ele>150.8</ele>
        <time>2011-09-10T08:15:37Z</time>
      </trkpt>
      <trkpt lat="48.19615" lon="-0.67286">
        <ele>151</ele>
        <time>2011-09-10T08:15:44Z</time>
      </trkpt>
      <trkpt lat="48.19621" lon="-0.67295">
        <ele>150.8</ele>
        <time>2011-09-10T08:15:50Z</time>
      </trkpt>
      <trkpt lat="48.19627" lon="-0.67305">
        <ele>149.3</ele>
        <time>2011-09-10T08:15:58Z</time>
      </trkpt>
      <trkpt lat="48.19631" lon="-0.67316">
        <ele>149</ele>
        <time>2011-09-10T08:16:03Z</time>
      </trkpt>
      <trkpt lat="48.19631" lon="-0.67318">
        <ele>148.8</ele>
        <time>2011-09-10T08:16:04Z</time>
      </trkpt>
      <trkpt lat="48.19629" lon="-0.67341">
        <ele>149.3</ele>
        <time>2011-09-10T08:16:27Z</time>
      </trkpt>
      <trkpt lat="48.19628" lon="-0.67354">
        <ele>149.5</ele>
        <time>2011-09-10T08:16:34Z</time>
      </trkpt>
      <trkpt lat="48.19628" lon="-0.67367">
        <ele>150</ele>
        <time>2011-09-10T08:16:41Z</time>
      </trkpt>
      <trkpt lat="48.19627" lon="-0.6738">
        <ele>148</ele>
        <time>2011-09-10T08:16:48Z</time>
      </trkpt>
      <trkpt lat="48.19628" lon="-0.67393">
        <ele>147.6</ele>
        <time>2011-09-10T08:16:55Z</time>
      </trkpt>
      <trkpt lat="48.19626" lon="-0.67405">
        <ele>146.3</ele>
        <time>2011-09-10T08:17:04Z</time>
      </trkpt>
      <trkpt lat="48.19626" lon="-0.67407">
        <ele>145.8</ele>
        <time>2011-09-10T08:17:05Z</time>
      </trkpt>
      <trkpt lat="48.19629" lon="-0.6743">
        <ele>146.5</ele>
        <time>2011-09-10T08:17:23Z</time>
      </trkpt>
      <trkpt lat="48.19631" lon="-0.67441">
        <ele>146.1</ele>
        <time>2011-09-10T08:17:28Z</time>
      </trkpt>
      <trkpt lat="48.19634" lon="-0.67453">
        <ele>148.1</ele>
        <time>2011-09-10T08:17:40Z</time>
      </trkpt>
      <trkpt lat="48.19638" lon="-0.67464">
        <ele>147.8</ele>
        <time>2011-09-10T08:17:49Z</time>
      </trkpt>
      <trkpt lat="48.19641" lon="-0.67477">
        <ele>147.3</ele>
        <time>2011-09-10T08:17:56Z</time>
      </trkpt>
      <trkpt lat="48.19646" lon="-0.67487">
        <ele>148.3</ele>
        <time>2011-09-10T08:18:05Z</time>
      </trkpt>
      <trkpt lat="48.19647" lon="-0.67488">
        <ele>148.6</ele>
        <time>2011-09-10T08:18:06Z</time>
      </trkpt>
      <trkpt lat="48.19658" lon="-0.67505">
        <ele>148.1</ele>
        <time>2011-09-10T08:18:24Z</time>
      </trkpt>
      <trkpt lat="48.19664" lon="-0.67515">
        <ele>147.6</ele>
        <time>2011-09-10T08:18:32Z</time>
      </trkpt>
      <trkpt lat="48.19668" lon="-0.67523">
        <ele>147.1</ele>
        <time>2011-09-10T08:18:41Z</time>
      </trkpt>
      <trkpt lat="48.19674" lon="-0.67532">
        <ele>147.8</ele>
        <time>2011-09-10T08:18:48Z</time>
      </trkpt>
      <trkpt lat="48.19678" lon="-0.67543">
        <ele>148.8</ele>
        <time>2011-09-10T08:18:55Z</time>
      </trkpt>
      <trkpt lat="48.1968" lon="-0.67555">
        <ele>148.8</ele>
        <time>2011-09-10T08:19:01Z</time>
      </trkpt>
      <trkpt lat="48.19684" lon="-0.67566">
        <ele>148</ele>
        <time>2011-09-10T08:19:08Z</time>
      </trkpt>
      <trkpt lat="48.19684" lon="-0.67568">
        <ele>147.8</ele>
        <time>2011-09-10T08:19:09Z</time>
      </trkpt>
      <trkpt lat="48.19692" lon="-0.67589">
        <ele>148.6</ele>
        <time>2011-09-10T08:19:22Z</time>
      </trkpt>
      <trkpt lat="48.19697" lon="-0.676">
        <ele>148.8</ele>
        <time>2011-09-10T08:19:28Z</time>
      </trkpt>
      <trkpt lat="48.19702" lon="-0.67609">
        <ele>149</ele>
        <time>2011-09-10T08:19:42Z</time>
      </trkpt>
      <trkpt lat="48.19705" lon="-0.6762">
        <ele>147.8</ele>
        <time>2011-09-10T08:19:49Z</time>
      </trkpt>
      <trkpt lat="48.19709" lon="-0.6763">
        <ele>147.3</ele>
        <time>2011-09-10T08:19:55Z</time>
      </trkpt>
      <trkpt lat="48.19713" lon="-0.67641">
        <ele>146.8</ele>
        <time>2011-09-10T08:20:03Z</time>
      </trkpt>
      <trkpt lat="48.19717" lon="-0.67652">
        <ele>147.6</ele>
        <time>2011-09-10T08:20:10Z</time>
      </trkpt>
      <trkpt lat="48.19718" lon="-0.67654">
        <ele>147.6</ele>
        <time>2011-09-10T08:20:11Z</time>
      </trkpt>
      <trkpt lat="48.19724" lon="-0.67675">
        <ele>146.8</ele>
        <time>2011-09-10T08:20:23Z</time>
      </trkpt>
      <trkpt lat="48.19729" lon="-0.67685">
        <ele>145.6</ele>
        <time>2011-09-10T08:20:35Z</time>
      </trkpt>
      <trkpt lat="48.19733" lon="-0.67696">
        <ele>145.8</ele>
        <time>2011-09-10T08:20:43Z</time>
      </trkpt>
      <trkpt lat="48.19736" lon="-0.67708">
        <ele>146.8</ele>
        <time>2011-09-10T08:20:49Z</time>
      </trkpt>
      <trkpt lat="48.19739" lon="-0.6772">
        <ele>145.1</ele>
        <time>2011-09-10T08:20:56Z</time>
      </trkpt>
      <trkpt lat="48.1974" lon="-0.67733">
        <ele>145.5</ele>
        <time>2011-09-10T08:21:09Z</time>
      </trkpt>
      <trkpt lat="48.19739" lon="-0.67746">
        <ele>144.3</ele>
        <time>2011-09-10T08:21:16Z</time>
      </trkpt>
      <trkpt lat="48.19739" lon="-0.67748">
        <ele>144.1</ele>
        <time>2011-09-10T08:21:17Z</time>
      </trkpt>
      <trkpt lat="48.19737" lon="-0.6777">
        <ele>144.5</ele>
        <time>2011-09-10T08:21:27Z</time>
      </trkpt>
      <trkpt lat="48.19736" lon="-0.67783">
        <ele>143.8</ele>
        <time>2011-09-10T08:21:35Z</time>
      </trkpt>
      <trkpt lat="48.19734" lon="-0.67795">
        <ele>144.8</ele>
        <time>2011-09-10T08:21:43Z</time>
      </trkpt>
      <trkpt lat="48.19734" lon="-0.67809">
        <ele>145.3</ele>
        <time>2011-09-10T08:21:50Z</time>
      </trkpt>
      <trkpt lat="48.19731" lon="-0.6782">
        <ele>144.8</ele>
        <time>2011-09-10T08:22:01Z</time>
      </trkpt>
      <trkpt lat="48.19732" lon="-0.67832">
        <ele>145.8</ele>
        <time>2011-09-10T08:22:07Z</time>
      </trkpt>
      <trkpt lat="48.19732" lon="-0.67844">
        <ele>145.3</ele>
        <time>2011-09-10T08:22:13Z</time>
      </trkpt>
      <trkpt lat="48.19732" lon="-0.67857">
        <ele>145.8</ele>
        <time>2011-09-10T08:22:19Z</time>
      </trkpt>
      <trkpt lat="48.19732" lon="-0.67859">
        <ele>145.6</ele>
        <time>2011-09-10T08:22:20Z</time>
      </trkpt>
      <trkpt lat="48.19733" lon="-0.67883">
        <ele>145.8</ele>
        <time>2011-09-10T08:22:30Z</time>
      </trkpt>
      <trkpt lat="48.19734" lon="-0.67895">
        <ele>145.1</ele>
        <time>2011-09-10T08:22:38Z</time>
      </trkpt>
      <trkpt lat="48.19736" lon="-0.67907">
        <ele>147.6</ele>
        <time>2011-09-10T08:22:43Z</time>
      </trkpt>
      <trkpt lat="48.19739" lon="-0.67919">
        <ele>146.8</ele>
        <time>2011-09-10T08:22:52Z</time>
      </trkpt>
      <trkpt lat="48.19742" lon="-0.67932">
        <ele>146.8</ele>
        <time>2011-09-10T08:23:19Z</time>
      </trkpt>
      <trkpt lat="48.19746" lon="-0.67942">
        <ele>144.3</ele>
        <time>2011-09-10T08:23:28Z</time>
      </trkpt>
      <trkpt lat="48.19747" lon="-0.67944">
        <ele>144.1</ele>
        <time>2011-09-10T08:23:29Z</time>
      </trkpt>
      <trkpt lat="48.19754" lon="-0.67963">
        <ele>143.8</ele>
        <time>2011-09-10T08:23:40Z</time>
      </trkpt>
      <trkpt lat="48.19757" lon="-0.67974">
        <ele>144.1</ele>
        <time>2011-09-10T08:24:06Z</time>
      </trkpt>
      <trkpt lat="48.19762" lon="-0.67984">
        <ele>143.6</ele>
        <time>2011-09-10T08:24:12Z</time>
      </trkpt>
      <trkpt lat="48.19765" lon="-0.67995">
        <ele>143</ele>
        <time>2011-09-10T08:24:19Z</time>
      </trkpt>
      <trkpt lat="48.1977" lon="-0.68006">
        <ele>142.5</ele>
        <time>2011-09-10T08:24:27Z</time>
      </trkpt>
      <trkpt lat="48.19775" lon="-0.68016">
        <ele>142.8</ele>
        <time>2011-09-10T08:24:34Z</time>
      </trkpt>
      <trkpt lat="48.19775" lon="-0.68017">
        <ele>142.6</ele>
        <time>2011-09-10T08:24:35Z</time>
      </trkpt>
      <trkpt lat="48.1978" lon="-0.6804">
        <ele>143.5</ele>
        <time>2011-09-10T08:24:49Z</time>
      </trkpt>
      <trkpt lat="48.19784" lon="-0.68051">
        <ele>143.1</ele>
        <time>2011-09-10T08:24:54Z</time>
      </trkpt>
      <trkpt lat="48.19786" lon="-0.68062">
        <ele>145.3</ele>
        <time>2011-09-10T08:24:59Z</time>
      </trkpt>
      <trkpt lat="48.19787" lon="-0.68075">
        <ele>145.1</ele>
        <time>2011-09-10T08:25:05Z</time>
      </trkpt>
      <trkpt lat="48.19788" lon="-0.68087">
        <ele>144.8</ele>
        <time>2011-09-10T08:25:10Z</time>
      </trkpt>
      <trkpt lat="48.19786" lon="-0.681">
        <ele>145.8</ele>
        <time>2011-09-10T08:25:21Z</time>
      </trkpt>
      <trkpt lat="48.19784" lon="-0.68113">
        <ele>146</ele>
        <time>2011-09-10T08:25:28Z</time>
      </trkpt>
      <trkpt lat="48.19781" lon="-0.68125">
        <ele>145.1</ele>
        <time>2011-09-10T08:25:34Z</time>
      </trkpt>
      <trkpt lat="48.19776" lon="-0.68136">
        <ele>142.8</ele>
        <time>2011-09-10T08:25:40Z</time>
      </trkpt>
      <trkpt lat="48.19776" lon="-0.68138">
        <ele>142.5</ele>
        <time>2011-09-10T08:25:41Z</time>
      </trkpt>
      <trkpt lat="48.1977" lon="-0.68157">
        <ele>141.5</ele>
        <time>2011-09-10T08:25:52Z</time>
      </trkpt>
      <trkpt lat="48.19765" lon="-0.68168">
        <ele>139.3</ele>
        <time>2011-09-10T08:26:02Z</time>
      </trkpt>
      <trkpt lat="48.19761" lon="-0.68179">
        <ele>140.3</ele>
        <time>2011-09-10T08:26:15Z</time>
      </trkpt>
      <trkpt lat="48.19757" lon="-0.6819">
        <ele>140.1</ele>
        <time>2011-09-10T08:26:21Z</time>
      </trkpt>
      <trkpt lat="48.19754" lon="-0.68201">
        <ele>136.3</ele>
        <time>2011-09-10T08:26:28Z</time>
      </trkpt>
      <trkpt lat="48.19749" lon="-0.68209">
        <ele>134.6</ele>
        <time>2011-09-10T08:26:33Z</time>
      </trkpt>
      <trkpt lat="48.19743" lon="-0.68219">
        <ele>134.6</ele>
        <time>2011-09-10T08:26:43Z</time>
      </trkpt>
      <trkpt lat="48.19743" lon="-0.6822">
        <ele>134.3</ele>
        <time>2011-09-10T08:26:44Z</time>
      </trkpt>
      <trkpt lat="48.19735" lon="-0.6824">
        <ele>134.1</ele>
        <time>2011-09-10T08:26:55Z</time>
      </trkpt>
      <trkpt lat="48.19731" lon="-0.68251">
        <ele>133.8</ele>
        <time>2011-09-10T08:27:06Z</time>
      </trkpt>
      <trkpt lat="48.19727" lon="-0.6826">
        <ele>131.1</ele>
        <time>2011-09-10T08:27:11Z</time>
      </trkpt>
      <trkpt lat="48.19722" lon="-0.68271">
        <ele>130.5</ele>
        <time>2011-09-10T08:27:17Z</time>
      </trkpt>
      <trkpt lat="48.19718" lon="-0.68281">
        <ele>128.5</ele>
        <time>2011-09-10T08:27:27Z</time>
      </trkpt>
      <trkpt lat="48.19714" lon="-0.6829">
        <ele>128</ele>
        <time>2011-09-10T08:27:34Z</time>
      </trkpt>
      <trkpt lat="48.19709" lon="-0.68301">
        <ele>126.3</ele>
        <time>2011-09-10T08:27:39Z</time>
      </trkpt>
      <trkpt lat="48.19704" lon="-0.68312">
        <ele>125.6</ele>
        <time>2011-09-10T08:27:44Z</time>
      </trkpt>
      <trkpt lat="48.19703" lon="-0.68315">
        <ele>125.9</ele>
        <time>2011-09-10T08:27:45Z</time>
      </trkpt>
      <trkpt lat="48.19696" lon="-0.68334">
        <ele>126.6</ele>
        <time>2011-09-10T08:27:56Z</time>
      </trkpt>
      <trkpt lat="48.19693" lon="-0.68346">
        <ele>128.1</ele>
        <time>2011-09-10T08:28:02Z</time>
      </trkpt>
      <trkpt lat="48.19692" lon="-0.68359">
        <ele>127.6</ele>
        <time>2011-09-10T08:28:07Z</time>
      </trkpt>
      <trkpt lat="48.19695" lon="-0.6837">
        <ele>128.1</ele>
        <time>2011-09-10T08:28:22Z</time>
      </trkpt>
      <trkpt lat="48.19701" lon="-0.68378">
        <ele>126.5</ele>
        <time>2011-09-10T08:28:32Z</time>
      </trkpt>
      <trkpt lat="48.19707" lon="-0.68385">
        <ele>125.9</ele>
        <time>2011-09-10T08:28:46Z</time>
      </trkpt>
      <trkpt lat="48.19708" lon="-0.68387">
        <ele>125.5</ele>
        <time>2011-09-10T08:28:47Z</time>
      </trkpt>
      <trkpt lat="48.1972" lon="-0.684">
        <ele>124</ele>
        <time>2011-09-10T08:28:56Z</time>
      </trkpt>
      <trkpt lat="48.19726" lon="-0.68409">
        <ele>124.1</ele>
        <time>2011-09-10T08:29:01Z</time>
      </trkpt>
      <trkpt lat="48.19733" lon="-0.68417">
        <ele>123.5</ele>
        <time>2011-09-10T08:29:10Z</time>
      </trkpt>
      <trkpt lat="48.1974" lon="-0.68423">
        <ele>123.5</ele>
        <time>2011-09-10T08:29:20Z</time>
      </trkpt>
      <trkpt lat="48.19746" lon="-0.6843">
        <ele>123.6</ele>
        <time>2011-09-10T08:29:26Z</time>
      </trkpt>
      <trkpt lat="48.19753" lon="-0.68436">
        <ele>123.1</ele>
        <time>2011-09-10T08:29:34Z</time>
      </trkpt>
      <trkpt lat="48.19758" lon="-0.68445">
        <ele>122.5</ele>
        <time>2011-09-10T08:29:40Z</time>
      </trkpt>
      <trkpt lat="48.19765" lon="-0.68453">
        <ele>123.6</ele>
        <time>2011-09-10T08:29:45Z</time>
      </trkpt>
      <trkpt lat="48.1977" lon="-0.68462">
        <ele>125.9</ele>
        <time>2011-09-10T08:29:52Z</time>
      </trkpt>
      <trkpt lat="48.19771" lon="-0.68464">
        <ele>126</ele>
        <time>2011-09-10T08:29:53Z</time>
      </trkpt>
      <trkpt lat="48.1978" lon="-0.6848">
        <ele>126.8</ele>
        <time>2011-09-10T08:30:03Z</time>
      </trkpt>
      <trkpt lat="48.19787" lon="-0.68487">
        <ele>126.5</ele>
        <time>2011-09-10T08:30:11Z</time>
      </trkpt>
      <trkpt lat="48.19793" lon="-0.68494">
        <ele>126.1</ele>
        <time>2011-09-10T08:30:20Z</time>
      </trkpt>
      <trkpt lat="48.19799" lon="-0.68502">
        <ele>125.8</ele>
        <time>2011-09-10T08:30:28Z</time>
      </trkpt>
      <trkpt lat="48.19806" lon="-0.6851">
        <ele>125.5</ele>
        <time>2011-09-10T08:30:36Z</time>
      </trkpt>
      <trkpt lat="48.19812" lon="-0.68518">
        <ele>126.9</ele>
        <time>2011-09-10T08:30:42Z</time>
      </trkpt>
      <trkpt lat="48.19818" lon="-0.68525">
        <ele>127.3</ele>
        <time>2011-09-10T08:30:50Z</time>
      </trkpt>
      <trkpt lat="48.19825" lon="-0.68531">
        <ele>126</ele>
        <time>2011-09-10T08:30:56Z</time>
      </trkpt>
      <trkpt lat="48.19826" lon="-0.68533">
        <ele>125.4</ele>
        <time>2011-09-10T08:30:57Z</time>
      </trkpt>
      <trkpt lat="48.1984" lon="-0.68545">
        <ele>126.3</ele>
        <time>2011-09-10T08:31:17Z</time>
      </trkpt>
      <trkpt lat="48.19845" lon="-0.68555">
        <ele>128.1</ele>
        <time>2011-09-10T08:31:25Z</time>
      </trkpt>
      <trkpt lat="48.19845" lon="-0.68568">
        <ele>128.1</ele>
        <time>2011-09-10T08:31:31Z</time>
      </trkpt>
      <trkpt lat="48.19844" lon="-0.6858">
        <ele>130.3</ele>
        <time>2011-09-10T08:31:36Z</time>
      </trkpt>
      <trkpt lat="48.19842" lon="-0.68591">
        <ele>131.3</ele>
        <time>2011-09-10T08:31:41Z</time>
      </trkpt>
      <trkpt lat="48.1984" lon="-0.68602">
        <ele>132</ele>
        <time>2011-09-10T08:31:46Z</time>
      </trkpt>
      <trkpt lat="48.19836" lon="-0.68614">
        <ele>133</ele>
        <time>2011-09-10T08:31:52Z</time>
      </trkpt>
      <trkpt lat="48.19833" lon="-0.68626">
        <ele>135.1</ele>
        <time>2011-09-10T08:31:58Z</time>
      </trkpt>
      <trkpt lat="48.19832" lon="-0.68628">
        <ele>135.6</ele>
        <time>2011-09-10T08:31:59Z</time>
      </trkpt>
      <trkpt lat="48.19825" lon="-0.68647">
        <ele>135.8</ele>
        <time>2011-09-10T08:32:10Z</time>
      </trkpt>
      <trkpt lat="48.19821" lon="-0.68658">
        <ele>134.1</ele>
        <time>2011-09-10T08:32:16Z</time>
      </trkpt>
      <trkpt lat="48.19819" lon="-0.68669">
        <ele>133.8</ele>
        <time>2011-09-10T08:32:22Z</time>
      </trkpt>
      <trkpt lat="48.19819" lon="-0.68683">
        <ele>133.3</ele>
        <time>2011-09-10T08:32:45Z</time>
      </trkpt>
      <trkpt lat="48.19822" lon="-0.68695">
        <ele>134.3</ele>
        <time>2011-09-10T08:36:36Z</time>
      </trkpt>
      <trkpt lat="48.19822" lon="-0.68696">
        <ele>134.5</ele>
        <time>2011-09-10T08:36:37Z</time>
      </trkpt>
      <trkpt lat="48.19828" lon="-0.68718">
        <ele>136.1</ele>
        <time>2011-09-10T08:36:50Z</time>
      </trkpt>
      <trkpt lat="48.19831" lon="-0.6873">
        <ele>135.8</ele>
        <time>2011-09-10T08:36:56Z</time>
      </trkpt>
      <trkpt lat="48.19835" lon="-0.68741">
        <ele>134.6</ele>
        <time>2011-09-10T08:37:02Z</time>
      </trkpt>
      <trkpt lat="48.19838" lon="-0.68753">
        <ele>134.1</ele>
        <time>2011-09-10T08:37:09Z</time>
      </trkpt>
      <trkpt lat="48.19841" lon="-0.68765">
        <ele>134.1</ele>
        <time>2011-09-10T08:37:16Z</time>
      </trkpt>
      <trkpt lat="48.19844" lon="-0.68777">
        <ele>134.3</ele>
        <time>2011-09-10T08:37:22Z</time>
      </trkpt>
      <trkpt lat="48.19847" lon="-0.6879">
        <ele>134</ele>
        <time>2011-09-10T08:37:31Z</time>
      </trkpt>
      <trkpt lat="48.19851" lon="-0.68802">
        <ele>134.6</ele>
        <time>2011-09-10T08:37:37Z</time>
      </trkpt>
      <trkpt lat="48.19851" lon="-0.68804">
        <ele>134.6</ele>
        <time>2011-09-10T08:37:38Z</time>
      </trkpt>
      <trkpt lat="48.19856" lon="-0.68826">
        <ele>136.5</ele>
        <time>2011-09-10T08:37:49Z</time>
      </trkpt>
      <trkpt lat="48.19859" lon="-0.68839">
        <ele>137.3</ele>
        <time>2011-09-10T08:37:55Z</time>
      </trkpt>
      <trkpt lat="48.19862" lon="-0.68849">
        <ele>138</ele>
        <time>2011-09-10T08:38:00Z</time>
      </trkpt>
      <trkpt lat="48.19863" lon="-0.68862">
        <ele>138.1</ele>
        <time>2011-09-10T08:38:06Z</time>
      </trkpt>
      <trkpt lat="48.19866" lon="-0.68875">
        <ele>137.8</ele>
        <time>2011-09-10T08:38:12Z</time>
      </trkpt>
      <trkpt lat="48.19869" lon="-0.68887">
        <ele>137.6</ele>
        <time>2011-09-10T08:38:18Z</time>
      </trkpt>
      <trkpt lat="48.19873" lon="-0.68898">
        <ele>139.3</ele>
        <time>2011-09-10T08:38:25Z</time>
      </trkpt>
      <trkpt lat="48.19878" lon="-0.68908">
        <ele>138.8</ele>
        <time>2011-09-10T08:38:32Z</time>
      </trkpt>
      <trkpt lat="48.1988" lon="-0.6892">
        <ele>138.8</ele>
        <time>2011-09-10T08:38:38Z</time>
      </trkpt>
      <trkpt lat="48.19881" lon="-0.68921">
        <ele>138.8</ele>
        <time>2011-09-10T08:38:39Z</time>
      </trkpt>
      <trkpt lat="48.19888" lon="-0.68943">
        <ele>138.8</ele>
        <time>2011-09-10T08:38:51Z</time>
      </trkpt>
      <trkpt lat="48.1989" lon="-0.68955">
        <ele>138.6</ele>
        <time>2011-09-10T08:38:57Z</time>
      </trkpt>
      <trkpt lat="48.19891" lon="-0.68968">
        <ele>137.8</ele>
        <time>2011-09-10T08:39:05Z</time>
      </trkpt>
      <trkpt lat="48.19892" lon="-0.68981">
        <ele>138.1</ele>
        <time>2011-09-10T08:39:12Z</time>
      </trkpt>
      <trkpt lat="48.19894" lon="-0.68994">
        <ele>136.5</ele>
        <time>2011-09-10T08:39:18Z</time>
      </trkpt>
      <trkpt lat="48.19895" lon="-0.69005">
        <ele>135.3</ele>
        <time>2011-09-10T08:39:23Z</time>
      </trkpt>
      <trkpt lat="48.19897" lon="-0.69018">
        <ele>135.1</ele>
        <time>2011-09-10T08:39:29Z</time>
      </trkpt>
      <trkpt lat="48.19897" lon="-0.6903">
        <ele>134.1</ele>
        <time>2011-09-10T08:39:35Z</time>
      </trkpt>
      <trkpt lat="48.19897" lon="-0.69043">
        <ele>131.8</ele>
        <time>2011-09-10T08:39:41Z</time>
      </trkpt>
      <trkpt lat="48.19897" lon="-0.69045">
        <ele>131.6</ele>
        <time>2011-09-10T08:39:42Z</time>
      </trkpt>
      <trkpt lat="48.19898" lon="-0.69067">
        <ele>129.1</ele>
        <time>2011-09-10T08:39:52Z</time>
      </trkpt>
      <trkpt lat="48.19897" lon="-0.69079">
        <ele>129.8</ele>
        <time>2011-09-10T08:39:57Z</time>
      </trkpt>
      <trkpt lat="48.19897" lon="-0.69093">
        <ele>129.8</ele>
        <time>2011-09-10T08:40:03Z</time>
      </trkpt>
      <trkpt lat="48.19897" lon="-0.69106">
        <ele>128.3</ele>
        <time>2011-09-10T08:40:09Z</time>
      </trkpt>
      <trkpt lat="48.19896" lon="-0.69119">
        <ele>129.3</ele>
        <time>2011-09-10T08:40:16Z</time>
      </trkpt>
      <trkpt lat="48.19896" lon="-0.69132">
        <ele>128.1</ele>
        <time>2011-09-10T08:40:22Z</time>
      </trkpt>
      <trkpt lat="48.19896" lon="-0.69144">
        <ele>125.3</ele>
        <time>2011-09-10T08:40:29Z</time>
      </trkpt>
      <trkpt lat="48.19896" lon="-0.69156">
        <ele>123.6</ele>
        <time>2011-09-10T08:40:35Z</time>
      </trkpt>
      <trkpt lat="48.19896" lon="-0.69169">
        <ele>122.4</ele>
        <time>2011-09-10T08:40:42Z</time>
      </trkpt>
      <trkpt lat="48.19896" lon="-0.69171">
        <ele>122</ele>
        <time>2011-09-10T08:40:43Z</time>
      </trkpt>
      <trkpt lat="48.19893" lon="-0.69193">
        <ele>122.5</ele>
        <time>2011-09-10T08:40:53Z</time>
      </trkpt>
      <trkpt lat="48.19892" lon="-0.69205">
        <ele>121.5</ele>
        <time>2011-09-10T08:40:58Z</time>
      </trkpt>
      <trkpt lat="48.19892" lon="-0.69218">
        <ele>120</ele>
        <time>2011-09-10T08:41:04Z</time>
      </trkpt>
      <trkpt lat="48.19892" lon="-0.6923">
        <ele>119</ele>
        <time>2011-09-10T08:41:10Z</time>
      </trkpt>
      <trkpt lat="48.19891" lon="-0.69242">
        <ele>117.9</ele>
        <time>2011-09-10T08:41:17Z</time>
      </trkpt>
      <trkpt lat="48.19889" lon="-0.69255">
        <ele>118.5</ele>
        <time>2011-09-10T08:41:24Z</time>
      </trkpt>
      <trkpt lat="48.19888" lon="-0.69267">
        <ele>118.4</ele>
        <time>2011-09-10T08:41:30Z</time>
      </trkpt>
      <trkpt lat="48.19887" lon="-0.69279">
        <ele>118</ele>
        <time>2011-09-10T08:41:36Z</time>
      </trkpt>
      <trkpt lat="48.19887" lon="-0.69292">
        <ele>118.4</ele>
        <time>2011-09-10T08:41:43Z</time>
      </trkpt>
      <trkpt lat="48.19888" lon="-0.69294">
        <ele>118.4</ele>
        <time>2011-09-10T08:41:44Z</time>
      </trkpt>
      <trkpt lat="48.19885" lon="-0.69316">
        <ele>117.4</ele>
        <time>2011-09-10T08:41:56Z</time>
      </trkpt>
      <trkpt lat="48.19886" lon="-0.69328">
        <ele>116</ele>
        <time>2011-09-10T08:42:02Z</time>
      </trkpt>
      <trkpt lat="48.19886" lon="-0.69341">
        <ele>116</ele>
        <time>2011-09-10T08:42:08Z</time>
      </trkpt>
      <trkpt lat="48.19886" lon="-0.69354">
        <ele>115.6</ele>
        <time>2011-09-10T08:42:15Z</time>
      </trkpt>
      <trkpt lat="48.19886" lon="-0.69367">
        <ele>115.5</ele>
        <time>2011-09-10T08:42:21Z</time>
      </trkpt>
      <trkpt lat="48.19886" lon="-0.6938">
        <ele>115.3</ele>
        <time>2011-09-10T08:42:39Z</time>
      </trkpt>
      <trkpt lat="48.19887" lon="-0.69393">
        <ele>114.5</ele>
        <time>2011-09-10T08:42:45Z</time>
      </trkpt>
      <trkpt lat="48.19888" lon="-0.69395">
        <ele>114.3</ele>
        <time>2011-09-10T08:42:46Z</time>
      </trkpt>
      <trkpt lat="48.19888" lon="-0.69418">
        <ele>113.5</ele>
        <time>2011-09-10T08:42:58Z</time>
      </trkpt>
      <trkpt lat="48.19886" lon="-0.6943">
        <ele>112.5</ele>
        <time>2011-09-10T08:43:04Z</time>
      </trkpt>
      <trkpt lat="48.19884" lon="-0.69443">
        <ele>111.5</ele>
        <time>2011-09-10T08:43:10Z</time>
      </trkpt>
      <trkpt lat="48.19883" lon="-0.69455">
        <ele>110.5</ele>
        <time>2011-09-10T08:43:16Z</time>
      </trkpt>
      <trkpt lat="48.1988" lon="-0.69466">
        <ele>110.6</ele>
        <time>2011-09-10T08:43:21Z</time>
      </trkpt>
      <trkpt lat="48.19877" lon="-0.69477">
        <ele>110.4</ele>
        <time>2011-09-10T08:43:27Z</time>
      </trkpt>
      <trkpt lat="48.19875" lon="-0.6949">
        <ele>109.5</ele>
        <time>2011-09-10T08:43:34Z</time>
      </trkpt>
      <trkpt lat="48.19873" lon="-0.69501">
        <ele>109.1</ele>
        <time>2011-09-10T08:43:40Z</time>
      </trkpt>
      <trkpt lat="48.19871" lon="-0.69513">
        <ele>110.4</ele>
        <time>2011-09-10T08:43:46Z</time>
      </trkpt>
      <trkpt lat="48.1987" lon="-0.69515">
        <ele>110.6</ele>
        <time>2011-09-10T08:43:47Z</time>
      </trkpt>
      <trkpt lat="48.19866" lon="-0.69537">
        <ele>111.3</ele>
        <time>2011-09-10T08:43:59Z</time>
      </trkpt>
      <trkpt lat="48.19863" lon="-0.69549">
        <ele>112.4</ele>
        <time>2011-09-10T08:44:06Z</time>
      </trkpt>
      <trkpt lat="48.19862" lon="-0.69561">
        <ele>112</ele>
        <time>2011-09-10T08:44:12Z</time>
      </trkpt>
      <trkpt lat="48.19862" lon="-0.69574">
        <ele>112.5</ele>
        <time>2011-09-10T08:44:18Z</time>
      </trkpt>
      <trkpt lat="48.19861" lon="-0.69587">
        <ele>113.5</ele>
        <time>2011-09-10T08:44:25Z</time>
      </trkpt>
      <trkpt lat="48.19864" lon="-0.69599">
        <ele>114.8</ele>
        <time>2011-09-10T08:44:32Z</time>
      </trkpt>
      <trkpt lat="48.19867" lon="-0.69611">
        <ele>116.8</ele>
        <time>2011-09-10T08:45:26Z</time>
      </trkpt>
      <trkpt lat="48.19869" lon="-0.69612">
        <ele>116.6</ele>
        <time>2011-09-10T08:45:27Z</time>
      </trkpt>
      <trkpt lat="48.19875" lon="-0.69631">
        <ele>115.9</ele>
        <time>2011-09-10T08:46:02Z</time>
      </trkpt>
      <trkpt lat="48.19875" lon="-0.69643">
        <ele>115.6</ele>
        <time>2011-09-10T08:46:12Z</time>
      </trkpt>
      <trkpt lat="48.19874" lon="-0.69656">
        <ele>115.6</ele>
        <time>2011-09-10T08:46:18Z</time>
      </trkpt>
      <trkpt lat="48.19877" lon="-0.69667">
        <ele>116.1</ele>
        <time>2011-09-10T08:46:31Z</time>
      </trkpt>
      <trkpt lat="48.19877" lon="-0.69669">
        <ele>116</ele>
        <time>2011-09-10T08:46:32Z</time>
      </trkpt>
      <trkpt lat="48.19874" lon="-0.69691">
        <ele>115.9</ele>
        <time>2011-09-10T08:46:48Z</time>
      </trkpt>
      <trkpt lat="48.19871" lon="-0.69703">
        <ele>114.5</ele>
        <time>2011-09-10T08:46:56Z</time>
      </trkpt>
      <trkpt lat="48.19867" lon="-0.69714">
        <ele>113.9</ele>
        <time>2011-09-10T08:47:03Z</time>
      </trkpt>
      <trkpt lat="48.19865" lon="-0.69726">
        <ele>112.9</ele>
        <time>2011-09-10T08:47:11Z</time>
      </trkpt>
      <trkpt lat="48.19864" lon="-0.69739">
        <ele>112.6</ele>
        <time>2011-09-10T08:47:19Z</time>
      </trkpt>
      <trkpt lat="48.19862" lon="-0.69752">
        <ele>111</ele>
        <time>2011-09-10T08:47:28Z</time>
      </trkpt>
      <trkpt lat="48.19861" lon="-0.69764">
        <ele>110.5</ele>
        <time>2011-09-10T08:47:35Z</time>
      </trkpt>
      <trkpt lat="48.1986" lon="-0.69765">
        <ele>110.9</ele>
        <time>2011-09-10T08:47:36Z</time>
      </trkpt>
      <trkpt lat="48.19855" lon="-0.69788">
        <ele>111</ele>
        <time>2011-09-10T08:48:01Z</time>
      </trkpt>
      <trkpt lat="48.19852" lon="-0.69801">
        <ele>111</ele>
        <time>2011-09-10T08:48:09Z</time>
      </trkpt>
      <trkpt lat="48.19849" lon="-0.69812">
        <ele>111</ele>
        <time>2011-09-10T08:48:16Z</time>
      </trkpt>
      <trkpt lat="48.19846" lon="-0.69825">
        <ele>111.4</ele>
        <time>2011-09-10T08:48:23Z</time>
      </trkpt>
      <trkpt lat="48.19845" lon="-0.69838">
        <ele>112.5</ele>
        <time>2011-09-10T08:48:30Z</time>
      </trkpt>
      <trkpt lat="48.19844" lon="-0.69851">
        <ele>113</ele>
        <time>2011-09-10T08:48:37Z</time>
      </trkpt>
      <trkpt lat="48.19845" lon="-0.69853">
        <ele>113.3</ele>
        <time>2011-09-10T08:48:38Z</time>
      </trkpt>
      <trkpt lat="48.19847" lon="-0.69876">
        <ele>113</ele>
        <time>2011-09-10T08:48:51Z</time>
      </trkpt>
      <trkpt lat="48.19847" lon="-0.69888">
        <ele>113.1</ele>
        <time>2011-09-10T08:48:56Z</time>
      </trkpt>
      <trkpt lat="48.19847" lon="-0.69901">
        <ele>113.5</ele>
        <time>2011-09-10T08:49:03Z</time>
      </trkpt>
      <trkpt lat="48.19846" lon="-0.69913">
        <ele>113.9</ele>
        <time>2011-09-10T08:49:11Z</time>
      </trkpt>
      <trkpt lat="48.19846" lon="-0.69925">
        <ele>113.5</ele>
        <time>2011-09-10T08:49:18Z</time>
      </trkpt>
      <trkpt lat="48.19843" lon="-0.69936">
        <ele>113.5</ele>
        <time>2011-09-10T08:49:26Z</time>
      </trkpt>
      <trkpt lat="48.1984" lon="-0.69947">
        <ele>114</ele>
        <time>2011-09-10T08:49:32Z</time>
      </trkpt>
      <trkpt lat="48.19837" lon="-0.69959">
        <ele>115.3</ele>
        <time>2011-09-10T08:49:38Z</time>
      </trkpt>
      <trkpt lat="48.19836" lon="-0.69961">
        <ele>115</ele>
        <time>2011-09-10T08:49:39Z</time>
      </trkpt>
      <trkpt lat="48.19829" lon="-0.69982">
        <ele>116.1</ele>
        <time>2011-09-10T08:49:50Z</time>
      </trkpt>
      <trkpt lat="48.19827" lon="-0.69993">
        <ele>115.9</ele>
        <time>2011-09-10T08:49:57Z</time>
      </trkpt>
      <trkpt lat="48.19824" lon="-0.70004">
        <ele>116.5</ele>
        <time>2011-09-10T08:50:04Z</time>
      </trkpt>
      <trkpt lat="48.1982" lon="-0.70016">
        <ele>116.8</ele>
        <time>2011-09-10T08:50:11Z</time>
      </trkpt>
      <trkpt lat="48.19816" lon="-0.70027">
        <ele>114.8</ele>
        <time>2011-09-10T08:50:23Z</time>
      </trkpt>
      <trkpt lat="48.1981" lon="-0.70035">
        <ele>114.6</ele>
        <time>2011-09-10T08:50:29Z</time>
      </trkpt>
      <trkpt lat="48.19803" lon="-0.70043">
        <ele>112.8</ele>
        <time>2011-09-10T08:50:38Z</time>
      </trkpt>
      <trkpt lat="48.19796" lon="-0.70047">
        <ele>111.8</ele>
        <time>2011-09-10T08:50:44Z</time>
      </trkpt>
      <trkpt lat="48.19795" lon="-0.70048">
        <ele>112</ele>
        <time>2011-09-10T08:50:45Z</time>
      </trkpt>
      <trkpt lat="48.19783" lon="-0.7006">
        <ele>111.8</ele>
        <time>2011-09-10T08:50:58Z</time>
      </trkpt>
      <trkpt lat="48.19777" lon="-0.70069">
        <ele>112.3</ele>
        <time>2011-09-10T08:51:03Z</time>
      </trkpt>
      <trkpt lat="48.1977" lon="-0.70076">
        <ele>113.3</ele>
        <time>2011-09-10T08:51:09Z</time>
      </trkpt>
      <trkpt lat="48.19763" lon="-0.70082">
        <ele>112.4</ele>
        <time>2011-09-10T08:51:15Z</time>
      </trkpt>
      <trkpt lat="48.19756" lon="-0.70089">
        <ele>113.9</ele>
        <time>2011-09-10T08:51:21Z</time>
      </trkpt>
      <trkpt lat="48.1975" lon="-0.70097">
        <ele>113.4</ele>
        <time>2011-09-10T08:51:28Z</time>
      </trkpt>
      <trkpt lat="48.19743" lon="-0.70105">
        <ele>111.6</ele>
        <time>2011-09-10T08:51:37Z</time>
      </trkpt>
      <trkpt lat="48.19736" lon="-0.70112">
        <ele>112.5</ele>
        <time>2011-09-10T08:51:43Z</time>
      </trkpt>
      <trkpt lat="48.1973" lon="-0.70119">
        <ele>113</ele>
        <time>2011-09-10T08:51:49Z</time>
      </trkpt>
      <trkpt lat="48.19728" lon="-0.7012">
        <ele>113.5</ele>
        <time>2011-09-10T08:51:50Z</time>
      </trkpt>
      <trkpt lat="48.19715" lon="-0.70131">
        <ele>113.9</ele>
        <time>2011-09-10T08:52:10Z</time>
      </trkpt>
      <trkpt lat="48.19708" lon="-0.70136">
        <ele>113</ele>
        <time>2011-09-10T08:52:18Z</time>
      </trkpt>
      <trkpt lat="48.19701" lon="-0.70144">
        <ele>113</ele>
        <time>2011-09-10T08:52:23Z</time>
      </trkpt>
      <trkpt lat="48.19695" lon="-0.7015">
        <ele>112</ele>
        <time>2011-09-10T08:52:33Z</time>
      </trkpt>
      <trkpt lat="48.19689" lon="-0.70158">
        <ele>112.3</ele>
        <time>2011-09-10T08:52:39Z</time>
      </trkpt>
      <trkpt lat="48.19682" lon="-0.70165">
        <ele>111.5</ele>
        <time>2011-09-10T08:52:47Z</time>
      </trkpt>
      <trkpt lat="48.19674" lon="-0.70171">
        <ele>110</ele>
        <time>2011-09-10T08:52:53Z</time>
      </trkpt>
      <trkpt lat="48.19673" lon="-0.70173">
        <ele>110.1</ele>
        <time>2011-09-10T08:52:54Z</time>
      </trkpt>
      <trkpt lat="48.19659" lon="-0.70184">
        <ele>110.1</ele>
        <time>2011-09-10T08:53:05Z</time>
      </trkpt>
      <trkpt lat="48.19652" lon="-0.70191">
        <ele>111</ele>
        <time>2011-09-10T08:53:11Z</time>
      </trkpt>
      <trkpt lat="48.19645" lon="-0.70197">
        <ele>108.8</ele>
        <time>2011-09-10T08:53:19Z</time>
      </trkpt>
      <trkpt lat="48.19637" lon="-0.70204">
        <ele>108.3</ele>
        <time>2011-09-10T08:53:26Z</time>
      </trkpt>
      <trkpt lat="48.19629" lon="-0.70208">
        <ele>108.6</ele>
        <time>2011-09-10T08:53:32Z</time>
      </trkpt>
      <trkpt lat="48.19622" lon="-0.70214">
        <ele>108</ele>
        <time>2011-09-10T08:53:46Z</time>
      </trkpt>
      <trkpt lat="48.19614" lon="-0.70215">
        <ele>107.4</ele>
        <time>2011-09-10T08:53:52Z</time>
      </trkpt>
      <trkpt lat="48.19605" lon="-0.70214">
        <ele>106.1</ele>
        <time>2011-09-10T08:53:58Z</time>
      </trkpt>
      <trkpt lat="48.19604" lon="-0.70213">
        <ele>106.1</ele>
        <time>2011-09-10T08:53:59Z</time>
      </trkpt>
      <trkpt lat="48.19589" lon="-0.70215">
        <ele>105.9</ele>
        <time>2011-09-10T08:54:17Z</time>
      </trkpt>
      <trkpt lat="48.19584" lon="-0.70227">
        <ele>105.8</ele>
        <time>2011-09-10T08:59:21Z</time>
      </trkpt>
      <trkpt lat="48.19584" lon="-0.70228">
        <ele>105.9</ele>
        <time>2011-09-10T08:59:22Z</time>
      </trkpt>
      <trkpt lat="48.19585" lon="-0.70228">
        <ele>106.3</ele>
        <time>2011-09-10T09:01:34Z</time>
      </trkpt>
      <trkpt lat="48.19583" lon="-0.70227">
        <ele>106.4</ele>
        <time>2011-09-10T09:01:35Z</time>
      </trkpt>
      <trkpt lat="48.19599" lon="-0.70239">
        <ele>103.5</ele>
        <time>2011-09-10T09:02:28Z</time>
      </trkpt>
      <trkpt lat="48.19607" lon="-0.70242">
        <ele>105</ele>
        <time>2011-09-10T09:02:37Z</time>
      </trkpt>
      <trkpt lat="48.19608" lon="-0.70243">
        <ele>104.9</ele>
        <time>2011-09-10T09:02:38Z</time>
      </trkpt>
      <trkpt lat="48.19622" lon="-0.70252">
        <ele>105.3</ele>
        <time>2011-09-10T09:02:52Z</time>
      </trkpt>
      <trkpt lat="48.19629" lon="-0.70256">
        <ele>105.6</ele>
        <time>2011-09-10T09:02:59Z</time>
      </trkpt>
      <trkpt lat="48.19637" lon="-0.70261">
        <ele>105.5</ele>
        <time>2011-09-10T09:03:09Z</time>
      </trkpt>
      <trkpt lat="48.19644" lon="-0.70266">
        <ele>105.4</ele>
        <time>2011-09-10T09:03:16Z</time>
      </trkpt>
      <trkpt lat="48.19652" lon="-0.70271">
        <ele>105.5</ele>
        <time>2011-09-10T09:03:23Z</time>
      </trkpt>
      <trkpt lat="48.19659" lon="-0.70277">
        <ele>106</ele>
        <time>2011-09-10T09:03:32Z</time>
      </trkpt>
      <trkpt lat="48.19666" lon="-0.70282">
        <ele>106.9</ele>
        <time>2011-09-10T09:03:42Z</time>
      </trkpt>
      <trkpt lat="48.19667" lon="-0.70283">
        <ele>107</ele>
        <time>2011-09-10T09:03:43Z</time>
      </trkpt>
      <trkpt lat="48.19682" lon="-0.70293">
        <ele>108</ele>
        <time>2011-09-10T09:03:58Z</time>
      </trkpt>
      <trkpt lat="48.19691" lon="-0.70298">
        <ele>108.8</ele>
        <time>2011-09-10T09:04:05Z</time>
      </trkpt>
      <trkpt lat="48.19698" lon="-0.70303">
        <ele>108.5</ele>
        <time>2011-09-10T09:04:11Z</time>
      </trkpt>
      <trkpt lat="48.19704" lon="-0.7031">
        <ele>107.9</ele>
        <time>2011-09-10T09:04:17Z</time>
      </trkpt>
      <trkpt lat="48.19711" lon="-0.70316">
        <ele>106.5</ele>
        <time>2011-09-10T09:04:23Z</time>
      </trkpt>
      <trkpt lat="48.19718" lon="-0.70323">
        <ele>106.8</ele>
        <time>2011-09-10T09:04:29Z</time>
      </trkpt>
      <trkpt lat="48.19724" lon="-0.70331">
        <ele>107.8</ele>
        <time>2011-09-10T09:04:36Z</time>
      </trkpt>
      <trkpt lat="48.19731" lon="-0.70339">
        <ele>108.4</ele>
        <time>2011-09-10T09:04:45Z</time>
      </trkpt>
      <trkpt lat="48.19732" lon="-0.70341">
        <ele>108.5</ele>
        <time>2011-09-10T09:04:46Z</time>
      </trkpt>
      <trkpt lat="48.19739" lon="-0.7036">
        <ele>109.1</ele>
        <time>2011-09-10T09:04:58Z</time>
      </trkpt>
      <trkpt lat="48.19736" lon="-0.70371">
        <ele>109.1</ele>
        <time>2011-09-10T09:05:05Z</time>
      </trkpt>
      <trkpt lat="48.19734" lon="-0.70384">
        <ele>108.9</ele>
        <time>2011-09-10T09:05:12Z</time>
      </trkpt>
      <trkpt lat="48.19731" lon="-0.70395">
        <ele>109.4</ele>
        <time>2011-09-10T09:05:19Z</time>
      </trkpt>
      <trkpt lat="48.19729" lon="-0.70408">
        <ele>109.6</ele>
        <time>2011-09-10T09:05:26Z</time>
      </trkpt>
      <trkpt lat="48.19725" lon="-0.70419">
        <ele>110.4</ele>
        <time>2011-09-10T09:05:33Z</time>
      </trkpt>
      <trkpt lat="48.19721" lon="-0.70428">
        <ele>108.6</ele>
        <time>2011-09-10T09:05:39Z</time>
      </trkpt>
      <trkpt lat="48.19715" lon="-0.70439">
        <ele>107</ele>
        <time>2011-09-10T09:05:46Z</time>
      </trkpt>
      <trkpt lat="48.19715" lon="-0.70441">
        <ele>106.8</ele>
        <time>2011-09-10T09:05:47Z</time>
      </trkpt>
      <trkpt lat="48.19706" lon="-0.70461">
        <ele>106.3</ele>
        <time>2011-09-10T09:06:00Z</time>
      </trkpt>
      <trkpt lat="48.197" lon="-0.7047">
        <ele>106.3</ele>
        <time>2011-09-10T09:06:15Z</time>
      </trkpt>
      <trkpt lat="48.19692" lon="-0.70467">
        <ele>106</ele>
        <time>2011-09-10T09:06:22Z</time>
      </trkpt>
      <trkpt lat="48.19683" lon="-0.70465">
        <ele>105.6</ele>
        <time>2011-09-10T09:06:30Z</time>
      </trkpt>
      <trkpt lat="48.19678" lon="-0.70476">
        <ele>105.3</ele>
        <time>2011-09-10T09:06:37Z</time>
      </trkpt>
      <trkpt lat="48.19673" lon="-0.70486">
        <ele>104.5</ele>
        <time>2011-09-10T09:06:47Z</time>
      </trkpt>
      <trkpt lat="48.19672" lon="-0.70487">
        <ele>105</ele>
        <time>2011-09-10T09:06:48Z</time>
      </trkpt>
      <trkpt lat="48.19665" lon="-0.70508">
        <ele>103.5</ele>
        <time>2011-09-10T09:07:00Z</time>
      </trkpt>
      <trkpt lat="48.19661" lon="-0.70518">
        <ele>102.5</ele>
        <time>2011-09-10T09:07:06Z</time>
      </trkpt>
      <trkpt lat="48.19657" lon="-0.70528">
        <ele>102.8</ele>
        <time>2011-09-10T09:07:13Z</time>
      </trkpt>
      <trkpt lat="48.19652" lon="-0.70539">
        <ele>102.8</ele>
        <time>2011-09-10T09:07:20Z</time>
      </trkpt>
      <trkpt lat="48.19649" lon="-0.7055">
        <ele>101.5</ele>
        <time>2011-09-10T09:07:27Z</time>
      </trkpt>
      <trkpt lat="48.19645" lon="-0.70562">
        <ele>100.1</ele>
        <time>2011-09-10T09:07:34Z</time>
      </trkpt>
      <trkpt lat="48.19642" lon="-0.70572">
        <ele>99</ele>
        <time>2011-09-10T09:07:59Z</time>
      </trkpt>
      <trkpt lat="48.19641" lon="-0.70574">
        <ele>99.3</ele>
        <time>2011-09-10T09:08:00Z</time>
      </trkpt>
      <trkpt lat="48.19654" lon="-0.7059">
        <ele>101.1</ele>
        <time>2011-09-10T09:09:15Z</time>
      </trkpt>
      <trkpt lat="48.19655" lon="-0.70591">
        <ele>101.3</ele>
        <time>2011-09-10T09:09:16Z</time>
      </trkpt>
      <trkpt lat="48.19668" lon="-0.70599">
        <ele>101.6</ele>
        <time>2011-09-10T09:09:33Z</time>
      </trkpt>
      <trkpt lat="48.19675" lon="-0.70604">
        <ele>101.5</ele>
        <time>2011-09-10T09:09:37Z</time>
      </trkpt>
      <trkpt lat="48.19682" lon="-0.70611">
        <ele>101.4</ele>
        <time>2011-09-10T09:09:47Z</time>
      </trkpt>
      <trkpt lat="48.19683" lon="-0.70623">
        <ele>100.8</ele>
        <time>2011-09-10T09:09:52Z</time>
      </trkpt>
      <trkpt lat="48.19692" lon="-0.70625">
        <ele>101.4</ele>
        <time>2011-09-10T09:10:09Z</time>
      </trkpt>
      <trkpt lat="48.19698" lon="-0.70616">
        <ele>100.4</ele>
        <time>2011-09-10T09:10:17Z</time>
      </trkpt>
      <trkpt lat="48.19699" lon="-0.70615">
        <ele>100</ele>
        <time>2011-09-10T09:10:18Z</time>
      </trkpt>
      <trkpt lat="48.19708" lon="-0.70598">
        <ele>100.4</ele>
        <time>2011-09-10T09:10:31Z</time>
      </trkpt>
      <trkpt lat="48.19714" lon="-0.70591">
        <ele>100.5</ele>
        <time>2011-09-10T09:10:38Z</time>
      </trkpt>
      <trkpt lat="48.19721" lon="-0.70582">
        <ele>101.3</ele>
        <time>2011-09-10T09:10:46Z</time>
      </trkpt>
      <trkpt lat="48.19725" lon="-0.70572">
        <ele>102</ele>
        <time>2011-09-10T09:10:52Z</time>
      </trkpt>
      <trkpt lat="48.19732" lon="-0.70563">
        <ele>102.6</ele>
        <time>2011-09-10T09:11:00Z</time>
      </trkpt>
      <trkpt lat="48.19738" lon="-0.70556">
        <ele>103.5</ele>
        <time>2011-09-10T09:11:08Z</time>
      </trkpt>
      <trkpt lat="48.19744" lon="-0.70565">
        <ele>102</ele>
        <time>2011-09-10T09:11:30Z</time>
      </trkpt>
      <trkpt lat="48.19745" lon="-0.70565">
        <ele>102</ele>
        <time>2011-09-10T09:11:31Z</time>
      </trkpt>
      <trkpt lat="48.19747" lon="-0.7059">
        <ele>102.9</ele>
        <time>2011-09-10T09:13:19Z</time>
      </trkpt>
      <trkpt lat="48.19748" lon="-0.70591">
        <ele>102.1</ele>
        <time>2011-09-10T09:13:20Z</time>
      </trkpt>
      <trkpt lat="48.19748" lon="-0.70616">
        <ele>105.6</ele>
        <time>2011-09-10T09:13:45Z</time>
      </trkpt>
      <trkpt lat="48.19748" lon="-0.70629">
        <ele>106.3</ele>
        <time>2011-09-10T09:13:54Z</time>
      </trkpt>
      <trkpt lat="48.19751" lon="-0.7064">
        <ele>107.5</ele>
        <time>2011-09-10T09:13:59Z</time>
      </trkpt>
      <trkpt lat="48.19752" lon="-0.70652">
        <ele>107.1</ele>
        <time>2011-09-10T09:14:04Z</time>
      </trkpt>
      <trkpt lat="48.19754" lon="-0.70663">
        <ele>107</ele>
        <time>2011-09-10T09:14:08Z</time>
      </trkpt>
      <trkpt lat="48.1976" lon="-0.70673">
        <ele>107.5</ele>
        <time>2011-09-10T09:14:11Z</time>
      </trkpt>
      <trkpt lat="48.19763" lon="-0.70683">
        <ele>107</ele>
        <time>2011-09-10T09:14:16Z</time>
      </trkpt>
      <trkpt lat="48.19766" lon="-0.70695">
        <ele>106</ele>
        <time>2011-09-10T09:14:24Z</time>
      </trkpt>
      <trkpt lat="48.19766" lon="-0.70697">
        <ele>106.4</ele>
        <time>2011-09-10T09:14:25Z</time>
      </trkpt>
      <trkpt lat="48.19771" lon="-0.70706">
        <ele>105.9</ele>
        <time>2011-09-10T09:15:57Z</time>
      </trkpt>
      <trkpt lat="48.19781" lon="-0.70704">
        <ele>104.1</ele>
        <time>2011-09-10T09:16:58Z</time>
      </trkpt>
      <trkpt lat="48.19796" lon="-0.70703">
        <ele>104.8</ele>
        <time>2011-09-10T09:17:20Z</time>
      </trkpt>
      <trkpt lat="48.19805" lon="-0.70704">
        <ele>103.5</ele>
        <time>2011-09-10T09:17:26Z</time>
      </trkpt>
      <trkpt lat="48.19813" lon="-0.70705">
        <ele>107.3</ele>
        <time>2011-09-10T09:17:36Z</time>
      </trkpt>
      <trkpt lat="48.19822" lon="-0.70702">
        <ele>106.9</ele>
        <time>2011-09-10T09:17:43Z</time>
      </trkpt>
      <trkpt lat="48.1983" lon="-0.70703">
        <ele>105.5</ele>
        <time>2011-09-10T09:20:36Z</time>
      </trkpt>
      <trkpt lat="48.19831" lon="-0.70703">
        <ele>105.8</ele>
        <time>2011-09-10T09:20:37Z</time>
      </trkpt>
      <trkpt lat="48.19847" lon="-0.70699">
        <ele>102</ele>
        <time>2011-09-10T09:20:52Z</time>
      </trkpt>
      <trkpt lat="48.19855" lon="-0.70697">
        <ele>102.5</ele>
        <time>2011-09-10T09:20:58Z</time>
      </trkpt>
      <trkpt lat="48.19863" lon="-0.70696">
        <ele>100.4</ele>
        <time>2011-09-10T09:21:04Z</time>
      </trkpt>
      <trkpt lat="48.19872" lon="-0.70693">
        <ele>98.4</ele>
        <time>2011-09-10T09:21:10Z</time>
      </trkpt>
      <trkpt lat="48.19879" lon="-0.70691">
        <ele>97.3</ele>
        <time>2011-09-10T09:21:15Z</time>
      </trkpt>
      <trkpt lat="48.19887" lon="-0.70687">
        <ele>97.5</ele>
        <time>2011-09-10T09:21:20Z</time>
      </trkpt>
      <trkpt lat="48.19895" lon="-0.70683">
        <ele>95.8</ele>
        <time>2011-09-10T09:21:26Z</time>
      </trkpt>
      <trkpt lat="48.19903" lon="-0.70681">
        <ele>94.5</ele>
        <time>2011-09-10T09:21:32Z</time>
      </trkpt>
      <trkpt lat="48.19911" lon="-0.7068">
        <ele>94.9</ele>
        <time>2011-09-10T09:21:38Z</time>
      </trkpt>
      <trkpt lat="48.19912" lon="-0.70679">
        <ele>94.5</ele>
        <time>2011-09-10T09:21:39Z</time>
      </trkpt>
      <trkpt lat="48.19928" lon="-0.70672">
        <ele>94.1</ele>
        <time>2011-09-10T09:21:53Z</time>
      </trkpt>
      <trkpt lat="48.19936" lon="-0.70668">
        <ele>94.6</ele>
        <time>2011-09-10T09:21:59Z</time>
      </trkpt>
      <trkpt lat="48.19945" lon="-0.70666">
        <ele>94.8</ele>
        <time>2011-09-10T09:22:06Z</time>
      </trkpt>
      <trkpt lat="48.19953" lon="-0.70662">
        <ele>94.8</ele>
        <time>2011-09-10T09:22:12Z</time>
      </trkpt>
      <trkpt lat="48.19961" lon="-0.70659">
        <ele>94.5</ele>
        <time>2011-09-10T09:22:17Z</time>
      </trkpt>
      <trkpt lat="48.19968" lon="-0.70655">
        <ele>93.5</ele>
        <time>2011-09-10T09:22:23Z</time>
      </trkpt>
      <trkpt lat="48.19976" lon="-0.70653">
        <ele>93.1</ele>
        <time>2011-09-10T09:22:28Z</time>
      </trkpt>
      <trkpt lat="48.19984" lon="-0.70649">
        <ele>94.4</ele>
        <time>2011-09-10T09:22:35Z</time>
      </trkpt>
      <trkpt lat="48.1999" lon="-0.70644">
        <ele>95</ele>
        <time>2011-09-10T09:22:43Z</time>
      </trkpt>
      <trkpt lat="48.19992" lon="-0.70643">
        <ele>95</ele>
        <time>2011-09-10T09:22:44Z</time>
      </trkpt>
      <trkpt lat="48.20007" lon="-0.70638">
        <ele>93.9</ele>
        <time>2011-09-10T09:22:54Z</time>
      </trkpt>
      <trkpt lat="48.20015" lon="-0.70635">
        <ele>94.5</ele>
        <time>2011-09-10T09:23:01Z</time>
      </trkpt>
      <trkpt lat="48.20024" lon="-0.70634">
        <ele>95</ele>
        <time>2011-09-10T09:23:10Z</time>
      </trkpt>
      <trkpt lat="48.20032" lon="-0.70632">
        <ele>95.6</ele>
        <time>2011-09-10T09:23:18Z</time>
      </trkpt>
      <trkpt lat="48.2004" lon="-0.7063">
        <ele>96.1</ele>
        <time>2011-09-10T09:23:24Z</time>
      </trkpt>
      <trkpt lat="48.20048" lon="-0.70629">
        <ele>95.6</ele>
        <time>2011-09-10T09:23:31Z</time>
      </trkpt>
      <trkpt lat="48.20056" lon="-0.70631">
        <ele>96</ele>
        <time>2011-09-10T09:23:37Z</time>
      </trkpt>
      <trkpt lat="48.20064" lon="-0.70634">
        <ele>95.5</ele>
        <time>2011-09-10T09:23:42Z</time>
      </trkpt>
      <trkpt lat="48.20071" lon="-0.70637">
        <ele>95.5</ele>
        <time>2011-09-10T09:23:47Z</time>
      </trkpt>
      <trkpt lat="48.20073" lon="-0.70638">
        <ele>95.9</ele>
        <time>2011-09-10T09:23:48Z</time>
      </trkpt>
      <trkpt lat="48.20088" lon="-0.70646">
        <ele>97.1</ele>
        <time>2011-09-10T09:23:59Z</time>
      </trkpt>
      <trkpt lat="48.20096" lon="-0.70646">
        <ele>96.5</ele>
        <time>2011-09-10T09:24:05Z</time>
      </trkpt>
      <trkpt lat="48.20104" lon="-0.70651">
        <ele>99.1</ele>
        <time>2011-09-10T09:24:13Z</time>
      </trkpt>
      <trkpt lat="48.20112" lon="-0.70656">
        <ele>98.9</ele>
        <time>2011-09-10T09:24:20Z</time>
      </trkpt>
      <trkpt lat="48.20119" lon="-0.7066">
        <ele>99.5</ele>
        <time>2011-09-10T09:24:27Z</time>
      </trkpt>
      <trkpt lat="48.20127" lon="-0.70664">
        <ele>100.1</ele>
        <time>2011-09-10T09:24:33Z</time>
      </trkpt>
      <trkpt lat="48.20135" lon="-0.70666">
        <ele>99.6</ele>
        <time>2011-09-10T09:24:40Z</time>
      </trkpt>
      <trkpt lat="48.20143" lon="-0.70671">
        <ele>99.9</ele>
        <time>2011-09-10T09:24:49Z</time>
      </trkpt>
      <trkpt lat="48.20144" lon="-0.70671">
        <ele>100.4</ele>
        <time>2011-09-10T09:24:50Z</time>
      </trkpt>
      <trkpt lat="48.20158" lon="-0.70672">
        <ele>99.3</ele>
        <time>2011-09-10T09:25:01Z</time>
      </trkpt>
      <trkpt lat="48.20166" lon="-0.70674">
        <ele>98</ele>
        <time>2011-09-10T09:25:07Z</time>
      </trkpt>
      <trkpt lat="48.20174" lon="-0.70676">
        <ele>97.3</ele>
        <time>2011-09-10T09:25:13Z</time>
      </trkpt>
      <trkpt lat="48.20181" lon="-0.7068">
        <ele>98</ele>
        <time>2011-09-10T09:25:19Z</time>
      </trkpt>
      <trkpt lat="48.2019" lon="-0.70682">
        <ele>97.9</ele>
        <time>2011-09-10T09:25:26Z</time>
      </trkpt>
      <trkpt lat="48.20197" lon="-0.70685">
        <ele>97.1</ele>
        <time>2011-09-10T09:25:31Z</time>
      </trkpt>
      <trkpt lat="48.20206" lon="-0.70688">
        <ele>96.6</ele>
        <time>2011-09-10T09:25:38Z</time>
      </trkpt>
      <trkpt lat="48.20213" lon="-0.70693">
        <ele>95.5</ele>
        <time>2011-09-10T09:25:47Z</time>
      </trkpt>
      <trkpt lat="48.20222" lon="-0.70695">
        <ele>96</ele>
        <time>2011-09-10T09:25:54Z</time>
      </trkpt>
      <trkpt lat="48.20223" lon="-0.70695">
        <ele>96.5</ele>
        <time>2011-09-10T09:25:55Z</time>
      </trkpt>
      <trkpt lat="48.20239" lon="-0.707">
        <ele>94.6</ele>
        <time>2011-09-10T09:26:10Z</time>
      </trkpt>
      <trkpt lat="48.20247" lon="-0.707">
        <ele>96.1</ele>
        <time>2011-09-10T09:26:17Z</time>
      </trkpt>
      <trkpt lat="48.20254" lon="-0.70701">
        <ele>96.4</ele>
        <time>2011-09-10T09:26:23Z</time>
      </trkpt>
      <trkpt lat="48.20263" lon="-0.70702">
        <ele>96.4</ele>
        <time>2011-09-10T09:26:28Z</time>
      </trkpt>
      <trkpt lat="48.20271" lon="-0.70701">
        <ele>96.1</ele>
        <time>2011-09-10T09:26:36Z</time>
      </trkpt>
      <trkpt lat="48.2028" lon="-0.70701">
        <ele>95.4</ele>
        <time>2011-09-10T09:26:43Z</time>
      </trkpt>
      <trkpt lat="48.20288" lon="-0.70702">
        <ele>96.4</ele>
        <time>2011-09-10T09:26:49Z</time>
      </trkpt>
      <trkpt lat="48.20297" lon="-0.707">
        <ele>96.9</ele>
        <time>2011-09-10T09:26:56Z</time>
      </trkpt>
      <trkpt lat="48.20298" lon="-0.707">
        <ele>97.3</ele>
        <time>2011-09-10T09:26:57Z</time>
      </trkpt>
      <trkpt lat="48.20313" lon="-0.70694">
        <ele>96.5</ele>
        <time>2011-09-10T09:27:07Z</time>
      </trkpt>
      <trkpt lat="48.20321" lon="-0.70691">
        <ele>96.4</ele>
        <time>2011-09-10T09:27:13Z</time>
      </trkpt>
      <trkpt lat="48.20328" lon="-0.70684">
        <ele>96.9</ele>
        <time>2011-09-10T09:27:19Z</time>
      </trkpt>
      <trkpt lat="48.20335" lon="-0.70679">
        <ele>97.6</ele>
        <time>2011-09-10T09:27:26Z</time>
      </trkpt>
      <trkpt lat="48.20343" lon="-0.70675">
        <ele>96.9</ele>
        <time>2011-09-10T09:27:32Z</time>
      </trkpt>
      <trkpt lat="48.20351" lon="-0.7067">
        <ele>98.5</ele>
        <time>2011-09-10T09:27:39Z</time>
      </trkpt>
      <trkpt lat="48.20359" lon="-0.70664">
        <ele>98.5</ele>
        <time>2011-09-10T09:27:45Z</time>
      </trkpt>
      <trkpt lat="48.20368" lon="-0.70661">
        <ele>99</ele>
        <time>2011-09-10T09:27:50Z</time>
      </trkpt>
      <trkpt lat="48.20375" lon="-0.70654">
        <ele>99</ele>
        <time>2011-09-10T09:27:57Z</time>
      </trkpt>
      <trkpt lat="48.20377" lon="-0.70653">
        <ele>99.4</ele>
        <time>2011-09-10T09:27:58Z</time>
      </trkpt>
      <trkpt lat="48.20388" lon="-0.70644">
        <ele>100.4</ele>
        <time>2011-09-10T09:28:08Z</time>
      </trkpt>
      <trkpt lat="48.20395" lon="-0.7064">
        <ele>100.5</ele>
        <time>2011-09-10T09:28:13Z</time>
      </trkpt>
      <trkpt lat="48.20403" lon="-0.70637">
        <ele>101</ele>
        <time>2011-09-10T09:28:18Z</time>
      </trkpt>
      <trkpt lat="48.20411" lon="-0.70634">
        <ele>101.3</ele>
        <time>2011-09-10T09:28:23Z</time>
      </trkpt>
      <trkpt lat="48.20418" lon="-0.7063">
        <ele>101.6</ele>
        <time>2011-09-10T09:28:29Z</time>
      </trkpt>
      <trkpt lat="48.20426" lon="-0.70627">
        <ele>101.9</ele>
        <time>2011-09-10T09:28:34Z</time>
      </trkpt>
      <trkpt lat="48.20434" lon="-0.70623">
        <ele>102</ele>
        <time>2011-09-10T09:28:39Z</time>
      </trkpt>
      <trkpt lat="48.20441" lon="-0.70619">
        <ele>103</ele>
        <time>2011-09-10T09:28:44Z</time>
      </trkpt>
      <trkpt lat="48.20449" lon="-0.70612">
        <ele>103</ele>
        <time>2011-09-10T09:28:52Z</time>
      </trkpt>
      <trkpt lat="48.20457" lon="-0.70609">
        <ele>103.5</ele>
        <time>2011-09-10T09:28:58Z</time>
      </trkpt>
      <trkpt lat="48.20458" lon="-0.70609">
        <ele>103.5</ele>
        <time>2011-09-10T09:28:59Z</time>
      </trkpt>
      <trkpt lat="48.20472" lon="-0.70602">
        <ele>102.5</ele>
        <time>2011-09-10T09:29:11Z</time>
      </trkpt>
      <trkpt lat="48.2048" lon="-0.70597">
        <ele>102.3</ele>
        <time>2011-09-10T09:29:19Z</time>
      </trkpt>
      <trkpt lat="48.20488" lon="-0.70594">
        <ele>102.5</ele>
        <time>2011-09-10T09:29:25Z</time>
      </trkpt>
      <trkpt lat="48.20496" lon="-0.7059">
        <ele>101.4</ele>
        <time>2011-09-10T09:29:33Z</time>
      </trkpt>
      <trkpt lat="48.20504" lon="-0.70588">
        <ele>100.9</ele>
        <time>2011-09-10T09:29:39Z</time>
      </trkpt>
      <trkpt lat="48.20512" lon="-0.70586">
        <ele>100.6</ele>
        <time>2011-09-10T09:29:44Z</time>
      </trkpt>
      <trkpt lat="48.20519" lon="-0.70583">
        <ele>100.6</ele>
        <time>2011-09-10T09:29:49Z</time>
      </trkpt>
      <trkpt lat="48.20527" lon="-0.7058">
        <ele>100.5</ele>
        <time>2011-09-10T09:29:54Z</time>
      </trkpt>
      <trkpt lat="48.20535" lon="-0.70577">
        <ele>101</ele>
        <time>2011-09-10T09:29:59Z</time>
      </trkpt>
      <trkpt lat="48.20536" lon="-0.70576">
        <ele>101.3</ele>
        <time>2011-09-10T09:30:00Z</time>
      </trkpt>
      <trkpt lat="48.20552" lon="-0.7057">
        <ele>97.5</ele>
        <time>2011-09-10T09:30:22Z</time>
      </trkpt>
      <trkpt lat="48.20559" lon="-0.70565">
        <ele>97.1</ele>
        <time>2011-09-10T09:30:31Z</time>
      </trkpt>
      <trkpt lat="48.20567" lon="-0.70561">
        <ele>98</ele>
        <time>2011-09-10T09:30:40Z</time>
      </trkpt>
      <trkpt lat="48.20576" lon="-0.70559">
        <ele>97.6</ele>
        <time>2011-09-10T09:30:45Z</time>
      </trkpt>
      <trkpt lat="48.20583" lon="-0.70552">
        <ele>98</ele>
        <time>2011-09-10T09:30:54Z</time>
      </trkpt>
      <trkpt lat="48.2059" lon="-0.70545">
        <ele>97.4</ele>
        <time>2011-09-10T09:31:02Z</time>
      </trkpt>
      <trkpt lat="48.20591" lon="-0.70544">
        <ele>97.6</ele>
        <time>2011-09-10T09:31:03Z</time>
      </trkpt>
      <trkpt lat="48.20602" lon="-0.70529">
        <ele>99</ele>
        <time>2011-09-10T09:31:18Z</time>
      </trkpt>
      <trkpt lat="48.2061" lon="-0.70523">
        <ele>98.3</ele>
        <time>2011-09-10T09:31:23Z</time>
      </trkpt>
      <trkpt lat="48.20616" lon="-0.70514">
        <ele>97.8</ele>
        <time>2011-09-10T09:31:29Z</time>
      </trkpt>
      <trkpt lat="48.20623" lon="-0.70507">
        <ele>96</ele>
        <time>2011-09-10T09:31:36Z</time>
      </trkpt>
      <trkpt lat="48.20631" lon="-0.70504">
        <ele>95</ele>
        <time>2011-09-10T09:31:46Z</time>
      </trkpt>
      <trkpt lat="48.2064" lon="-0.70504">
        <ele>94.1</ele>
        <time>2011-09-10T09:32:03Z</time>
      </trkpt>
      <trkpt lat="48.2064" lon="-0.70504">
        <ele>94.1</ele>
        <time>2011-09-10T09:32:04Z</time>
      </trkpt>
      <trkpt lat="48.20656" lon="-0.70501">
        <ele>92</ele>
        <time>2011-09-10T09:32:21Z</time>
      </trkpt>
      <trkpt lat="48.20665" lon="-0.70498">
        <ele>91.3</ele>
        <time>2011-09-10T09:32:29Z</time>
      </trkpt>
      <trkpt lat="48.20672" lon="-0.70494">
        <ele>91.5</ele>
        <time>2011-09-10T09:32:36Z</time>
      </trkpt>
      <trkpt lat="48.2068" lon="-0.70492">
        <ele>91.6</ele>
        <time>2011-09-10T09:32:42Z</time>
      </trkpt>
      <trkpt lat="48.20688" lon="-0.70488">
        <ele>91.6</ele>
        <time>2011-09-10T09:32:48Z</time>
      </trkpt>
      <trkpt lat="48.20696" lon="-0.70486">
        <ele>91.9</ele>
        <time>2011-09-10T09:32:55Z</time>
      </trkpt>
      <trkpt lat="48.20704" lon="-0.70481">
        <ele>92.4</ele>
        <time>2011-09-10T09:33:02Z</time>
      </trkpt>
      <trkpt lat="48.20712" lon="-0.70476">
        <ele>93.4</ele>
        <time>2011-09-10T09:33:09Z</time>
      </trkpt>
      <trkpt lat="48.20712" lon="-0.70475">
        <ele>92.6</ele>
        <time>2011-09-10T09:33:10Z</time>
      </trkpt>
      <trkpt lat="48.20726" lon="-0.70462">
        <ele>92.3</ele>
        <time>2011-09-10T09:33:27Z</time>
      </trkpt>
      <trkpt lat="48.20732" lon="-0.70455">
        <ele>92.1</ele>
        <time>2011-09-10T09:33:33Z</time>
      </trkpt>
      <trkpt lat="48.20739" lon="-0.70449">
        <ele>91.3</ele>
        <time>2011-09-10T09:33:39Z</time>
      </trkpt>
      <trkpt lat="48.20746" lon="-0.70441">
        <ele>90.3</ele>
        <time>2011-09-10T09:33:46Z</time>
      </trkpt>
      <trkpt lat="48.20752" lon="-0.70433">
        <ele>90.6</ele>
        <time>2011-09-10T09:33:57Z</time>
      </trkpt>
      <trkpt lat="48.20759" lon="-0.70428">
        <ele>91.1</ele>
        <time>2011-09-10T09:34:03Z</time>
      </trkpt>
      <trkpt lat="48.20766" lon="-0.70423">
        <ele>90.9</ele>
        <time>2011-09-10T09:34:09Z</time>
      </trkpt>
      <trkpt lat="48.20774" lon="-0.70416">
        <ele>90.3</ele>
        <time>2011-09-10T09:34:16Z</time>
      </trkpt>
      <trkpt lat="48.20775" lon="-0.70415">
        <ele>90.3</ele>
        <time>2011-09-10T09:34:17Z</time>
      </trkpt>
      <trkpt lat="48.20789" lon="-0.70407">
        <ele>91.5</ele>
        <time>2011-09-10T09:34:30Z</time>
      </trkpt>
      <trkpt lat="48.20797" lon="-0.70402">
        <ele>91.8</ele>
        <time>2011-09-10T09:34:37Z</time>
      </trkpt>
      <trkpt lat="48.20804" lon="-0.70399">
        <ele>92.4</ele>
        <time>2011-09-10T09:34:43Z</time>
      </trkpt>
      <trkpt lat="48.20812" lon="-0.70396">
        <ele>91.9</ele>
        <time>2011-09-10T09:34:50Z</time>
      </trkpt>
      <trkpt lat="48.20821" lon="-0.70395">
        <ele>91.1</ele>
        <time>2011-09-10T09:38:31Z</time>
      </trkpt>
      <trkpt lat="48.20822" lon="-0.70396">
        <ele>91.1</ele>
        <time>2011-09-10T09:38:32Z</time>
      </trkpt>
      <trkpt lat="48.20832" lon="-0.70414">
        <ele>91.5</ele>
        <time>2011-09-10T09:38:47Z</time>
      </trkpt>
      <trkpt lat="48.20838" lon="-0.70423">
        <ele>90.4</ele>
        <time>2011-09-10T09:38:55Z</time>
      </trkpt>
      <trkpt lat="48.20844" lon="-0.70432">
        <ele>89</ele>
        <time>2011-09-10T09:39:03Z</time>
      </trkpt>
      <trkpt lat="48.20852" lon="-0.70439">
        <ele>88.6</ele>
        <time>2011-09-10T09:39:11Z</time>
      </trkpt>
      <trkpt lat="48.20859" lon="-0.70445">
        <ele>89.5</ele>
        <time>2011-09-10T09:39:18Z</time>
      </trkpt>
      <trkpt lat="48.20867" lon="-0.70449">
        <ele>90.8</ele>
        <time>2011-09-10T09:39:52Z</time>
      </trkpt>
      <trkpt lat="48.20869" lon="-0.7045">
        <ele>91</ele>
        <time>2011-09-10T09:39:53Z</time>
      </trkpt>
      <trkpt lat="48.20883" lon="-0.70457">
        <ele>93.4</ele>
        <time>2011-09-10T09:40:05Z</time>
      </trkpt>
      <trkpt lat="48.2089" lon="-0.70459">
        <ele>93.6</ele>
        <time>2011-09-10T09:40:10Z</time>
      </trkpt>
      <trkpt lat="48.20899" lon="-0.70461">
        <ele>93.9</ele>
        <time>2011-09-10T09:40:16Z</time>
      </trkpt>
      <trkpt lat="48.20907" lon="-0.70463">
        <ele>94.3</ele>
        <time>2011-09-10T09:40:24Z</time>
      </trkpt>
      <trkpt lat="48.20914" lon="-0.70464">
        <ele>93.9</ele>
        <time>2011-09-10T09:40:28Z</time>
      </trkpt>
      <trkpt lat="48.20923" lon="-0.70463">
        <ele>94.8</ele>
        <time>2011-09-10T09:40:35Z</time>
      </trkpt>
      <trkpt lat="48.20931" lon="-0.70464">
        <ele>95.3</ele>
        <time>2011-09-10T09:40:42Z</time>
      </trkpt>
      <trkpt lat="48.20939" lon="-0.70462">
        <ele>96.9</ele>
        <time>2011-09-10T09:40:49Z</time>
      </trkpt>
      <trkpt lat="48.20947" lon="-0.70462">
        <ele>97.1</ele>
        <time>2011-09-10T09:40:56Z</time>
      </trkpt>
      <trkpt lat="48.20949" lon="-0.70461">
        <ele>97.5</ele>
        <time>2011-09-10T09:40:57Z</time>
      </trkpt>
      <trkpt lat="48.20962" lon="-0.70457">
        <ele>99</ele>
        <time>2011-09-10T09:41:07Z</time>
      </trkpt>
      <trkpt lat="48.20969" lon="-0.70456">
        <ele>98.9</ele>
        <time>2011-09-10T09:41:12Z</time>
      </trkpt>
      <trkpt lat="48.20977" lon="-0.70455">
        <ele>98.8</ele>
        <time>2011-09-10T09:41:20Z</time>
      </trkpt>
      <trkpt lat="48.20984" lon="-0.70452">
        <ele>99.5</ele>
        <time>2011-09-10T09:41:24Z</time>
      </trkpt>
      <trkpt lat="48.20992" lon="-0.70449">
        <ele>98.5</ele>
        <time>2011-09-10T09:41:30Z</time>
      </trkpt>
      <trkpt lat="48.21" lon="-0.70446">
        <ele>98.8</ele>
        <time>2011-09-10T09:41:36Z</time>
      </trkpt>
      <trkpt lat="48.21008" lon="-0.70443">
        <ele>99</ele>
        <time>2011-09-10T09:41:42Z</time>
      </trkpt>
      <trkpt lat="48.21016" lon="-0.7044">
        <ele>98.6</ele>
        <time>2011-09-10T09:41:46Z</time>
      </trkpt>
      <trkpt lat="48.21024" lon="-0.70439">
        <ele>97.9</ele>
        <time>2011-09-10T09:41:51Z</time>
      </trkpt>
      <trkpt lat="48.21032" lon="-0.70437">
        <ele>96.9</ele>
        <time>2011-09-10T09:41:56Z</time>
      </trkpt>
      <trkpt lat="48.21039" lon="-0.70435">
        <ele>95.5</ele>
        <time>2011-09-10T09:42:00Z</time>
      </trkpt>
      <trkpt lat="48.21041" lon="-0.70434">
        <ele>95.4</ele>
        <time>2011-09-10T09:42:01Z</time>
      </trkpt>
      <trkpt lat="48.21056" lon="-0.70429">
        <ele>93.5</ele>
        <time>2011-09-10T09:42:12Z</time>
      </trkpt>
      <trkpt lat="48.21063" lon="-0.70425">
        <ele>91.4</ele>
        <time>2011-09-10T09:42:19Z</time>
      </trkpt>
      <trkpt lat="48.21071" lon="-0.70425">
        <ele>89.1</ele>
        <time>2011-09-10T09:42:27Z</time>
      </trkpt>
      <trkpt lat="48.2108" lon="-0.70425">
        <ele>88.5</ele>
        <time>2011-09-10T09:42:34Z</time>
      </trkpt>
      <trkpt lat="48.21088" lon="-0.70424">
        <ele>88</ele>
        <time>2011-09-10T09:42:41Z</time>
      </trkpt>
      <trkpt lat="48.21095" lon="-0.70422">
        <ele>86.6</ele>
        <time>2011-09-10T09:42:47Z</time>
      </trkpt>
      <trkpt lat="48.21104" lon="-0.7042">
        <ele>85.6</ele>
        <time>2011-09-10T09:42:53Z</time>
      </trkpt>
      <trkpt lat="48.21112" lon="-0.70418">
        <ele>85.5</ele>
        <time>2011-09-10T09:42:59Z</time>
      </trkpt>
      <trkpt lat="48.2112" lon="-0.70416">
        <ele>84.5</ele>
        <time>2011-09-10T09:43:05Z</time>
      </trkpt>
      <trkpt lat="48.21121" lon="-0.70416">
        <ele>84.4</ele>
        <time>2011-09-10T09:43:06Z</time>
      </trkpt>
      <trkpt lat="48.21136" lon="-0.70409">
        <ele>83.5</ele>
        <time>2011-09-10T09:43:18Z</time>
      </trkpt>
      <trkpt lat="48.21145" lon="-0.70409">
        <ele>81</ele>
        <time>2011-09-10T09:43:40Z</time>
      </trkpt>
      <trkpt lat="48.21152" lon="-0.70406">
        <ele>80.9</ele>
        <time>2011-09-10T09:43:44Z</time>
      </trkpt>
      <trkpt lat="48.2116" lon="-0.70405">
        <ele>79.5</ele>
        <time>2011-09-10T09:43:53Z</time>
      </trkpt>
      <trkpt lat="48.21168" lon="-0.70404">
        <ele>79</ele>
        <time>2011-09-10T09:44:00Z</time>
      </trkpt>
      <trkpt lat="48.21176" lon="-0.70406">
        <ele>78.5</ele>
        <time>2011-09-10T09:44:05Z</time>
      </trkpt>
      <trkpt lat="48.21184" lon="-0.70407">
        <ele>79</ele>
        <time>2011-09-10T09:44:11Z</time>
      </trkpt>
      <trkpt lat="48.21185" lon="-0.70407">
        <ele>79.1</ele>
        <time>2011-09-10T09:44:12Z</time>
      </trkpt>
      <trkpt lat="48.21201" lon="-0.70408">
        <ele>76.5</ele>
        <time>2011-09-10T09:44:48Z</time>
      </trkpt>
      <trkpt lat="48.21208" lon="-0.70417">
        <ele>76</ele>
        <time>2011-09-10T09:45:12Z</time>
      </trkpt>
      <trkpt lat="48.21208" lon="-0.70404">
        <ele>74.9</ele>
        <time>2011-09-10T09:46:12Z</time>
      </trkpt>
      <trkpt lat="48.21209" lon="-0.70402">
        <ele>74.9</ele>
        <time>2011-09-10T09:46:13Z</time>
      </trkpt>
      <trkpt lat="48.21221" lon="-0.70387">
        <ele>75.3</ele>
        <time>2011-09-10T09:46:24Z</time>
      </trkpt>
      <trkpt lat="48.21228" lon="-0.70379">
        <ele>75.4</ele>
        <time>2011-09-10T09:46:30Z</time>
      </trkpt>
      <trkpt lat="48.21235" lon="-0.70373">
        <ele>75</ele>
        <time>2011-09-10T09:46:34Z</time>
      </trkpt>
      <trkpt lat="48.21242" lon="-0.70365">
        <ele>75</ele>
        <time>2011-09-10T09:46:39Z</time>
      </trkpt>
      <trkpt lat="48.21249" lon="-0.70357">
        <ele>75.8</ele>
        <time>2011-09-10T09:46:44Z</time>
      </trkpt>
      <trkpt lat="48.21255" lon="-0.7035">
        <ele>76</ele>
        <time>2011-09-10T09:46:49Z</time>
      </trkpt>
      <trkpt lat="48.21262" lon="-0.70341">
        <ele>76.1</ele>
        <time>2011-09-10T09:46:57Z</time>
      </trkpt>
      <trkpt lat="48.21268" lon="-0.70331">
        <ele>76.6</ele>
        <time>2011-09-10T09:47:06Z</time>
      </trkpt>
      <trkpt lat="48.21269" lon="-0.7032">
        <ele>72.4</ele>
        <time>2011-09-10T09:49:34Z</time>
      </trkpt>
      <trkpt lat="48.2127" lon="-0.70318">
        <ele>72.4</ele>
        <time>2011-09-10T09:49:35Z</time>
      </trkpt>
      <trkpt lat="48.21281" lon="-0.70303">
        <ele>71</ele>
        <time>2011-09-10T09:49:52Z</time>
      </trkpt>
      <trkpt lat="48.21288" lon="-0.70295">
        <ele>70.1</ele>
        <time>2011-09-10T09:49:58Z</time>
      </trkpt>
      <trkpt lat="48.21293" lon="-0.70287">
        <ele>70.1</ele>
        <time>2011-09-10T09:50:04Z</time>
      </trkpt>
      <trkpt lat="48.21301" lon="-0.70281">
        <ele>72.3</ele>
        <time>2011-09-10T09:50:10Z</time>
      </trkpt>
      <trkpt lat="48.21307" lon="-0.70271">
        <ele>75.1</ele>
        <time>2011-09-10T09:52:56Z</time>
      </trkpt>
      <trkpt lat="48.21307" lon="-0.70271">
        <ele>75</ele>
        <time>2011-09-10T09:52:57Z</time>
      </trkpt>
      <trkpt lat="48.21316" lon="-0.70262">
        <ele>75.1</ele>
        <time>2011-09-10T09:55:22Z</time>
      </trkpt>
      <trkpt lat="48.21329" lon="-0.70252">
        <ele>76.3</ele>
        <time>2011-09-10T09:55:41Z</time>
      </trkpt>
      <trkpt lat="48.21335" lon="-0.70243">
        <ele>76.5</ele>
        <time>2011-09-10T09:56:36Z</time>
      </trkpt>
      <trkpt lat="48.21336" lon="-0.70242">
        <ele>76.4</ele>
        <time>2011-09-10T09:56:37Z</time>
      </trkpt>
      <trkpt lat="48.21351" lon="-0.70234">
        <ele>75.3</ele>
        <time>2011-09-10T09:56:53Z</time>
      </trkpt>
      <trkpt lat="48.21358" lon="-0.70227">
        <ele>75.6</ele>
        <time>2011-09-10T09:57:04Z</time>
      </trkpt>
      <trkpt lat="48.21364" lon="-0.70219">
        <ele>74.5</ele>
        <time>2011-09-10T09:57:17Z</time>
      </trkpt>
      <trkpt lat="48.2137" lon="-0.70212">
        <ele>74.5</ele>
        <time>2011-09-10T09:57:23Z</time>
      </trkpt>
      <trkpt lat="48.21362" lon="-0.70212">
        <ele>72.9</ele>
        <time>2011-09-10T09:58:20Z</time>
      </trkpt>
      <trkpt lat="48.21361" lon="-0.70213">
        <ele>72.5</ele>
        <time>2011-09-10T09:58:21Z</time>
      </trkpt>
      <trkpt lat="48.21348" lon="-0.70227">
        <ele>72.1</ele>
        <time>2011-09-10T09:58:37Z</time>
      </trkpt>
      <trkpt lat="48.21342" lon="-0.70232">
        <ele>71.9</ele>
        <time>2011-09-10T09:58:44Z</time>
      </trkpt>
      <trkpt lat="48.21334" lon="-0.70236">
        <ele>71.4</ele>
        <time>2011-09-10T09:58:51Z</time>
      </trkpt>
      <trkpt lat="48.21327" lon="-0.70244">
        <ele>71.3</ele>
        <time>2011-09-10T09:59:07Z</time>
      </trkpt>
      <trkpt lat="48.21321" lon="-0.7025">
        <ele>72</ele>
        <time>2011-09-10T09:59:13Z</time>
      </trkpt>
      <trkpt lat="48.21313" lon="-0.70244">
        <ele>71.3</ele>
        <time>2011-09-10T09:59:29Z</time>
      </trkpt>
      <trkpt lat="48.21313" lon="-0.70242">
        <ele>71</ele>
        <time>2011-09-10T09:59:30Z</time>
      </trkpt>
      <trkpt lat="48.21288" lon="-0.70259">
        <ele>52.2</ele>
        <time>2011-09-10T10:01:43Z</time>
      </trkpt>
      <trkpt lat="48.21292" lon="-0.70255">
        <ele>57.4</ele>
        <time>2011-09-10T10:24:09Z</time>
      </trkpt>
      <trkpt lat="48.21274" lon="-0.70197">
        <ele>125.4</ele>
        <time>2011-09-10T10:24:10Z</time>
      </trkpt>
      <trkpt lat="48.21275" lon="-0.70198">
        <ele>124.3</ele>
        <time>2011-09-10T10:24:12Z</time>
      </trkpt>
      <trkpt lat="48.21291" lon="-0.70231">
        <ele>69.6</ele>
        <time>2011-09-10T10:24:13Z</time>
      </trkpt>
      <trkpt lat="48.21291" lon="-0.7024">
        <ele>61.9</ele>
        <time>2011-09-10T10:24:15Z</time>
      </trkpt>
      <trkpt lat="48.21319" lon="-0.70273">
        <ele>-5.1</ele>
        <time>2011-09-10T10:24:16Z</time>
      </trkpt>
      <trkpt lat="48.21324" lon="-0.70281">
        <ele>30.7</ele>
        <time>2011-09-10T10:35:36Z</time>
      </trkpt>
      <trkpt lat="48.21342" lon="-0.704">
        <ele>30.7</ele>
        <time>2011-09-10T10:35:37Z</time>
      </trkpt>
      <trkpt lat="48.2131" lon="-0.70315">
        <ele>30.7</ele>
        <time>2011-09-10T10:35:38Z</time>
      </trkpt>
      <trkpt lat="48.21332" lon="-0.70326">
        <ele>30.7</ele>
        <time>2011-09-10T10:35:39Z</time>
      </trkpt>
      <trkpt lat="48.21271" lon="-0.702">
        <ele>193.3</ele>
        <time>2011-09-10T10:35:40Z</time>
      </trkpt>
      <trkpt lat="48.21272" lon="-0.70224">
        <ele>127.6</ele>
        <time>2011-09-10T10:35:41Z</time>
      </trkpt>
      <trkpt lat="48.21279" lon="-0.70233">
        <ele>92.3</ele>
        <time>2011-09-10T10:39:12Z</time>
      </trkpt>
      <trkpt lat="48.21279" lon="-0.70233">
        <ele>92</ele>
        <time>2011-09-10T10:39:13Z</time>
      </trkpt>
      <trkpt lat="48.21285" lon="-0.70244">
        <ele>80.5</ele>
        <time>2011-09-10T11:09:57Z</time>
      </trkpt>
      <trkpt lat="48.21287" lon="-0.70256">
        <ele>80.1</ele>
        <time>2011-09-10T11:14:32Z</time>
      </trkpt>
      <trkpt lat="48.21283" lon="-0.70269">
        <ele>81.3</ele>
        <time>2011-09-10T11:16:58Z</time>
      </trkpt>
      <trkpt lat="48.21274" lon="-0.70288">
        <ele>78.5</ele>
        <time>2011-09-10T11:17:20Z</time>
      </trkpt>
      <trkpt lat="48.21269" lon="-0.70297">
        <ele>79.5</ele>
        <time>2011-09-10T11:17:26Z</time>
      </trkpt>
      <trkpt lat="48.21263" lon="-0.70307">
        <ele>79.9</ele>
        <time>2011-09-10T11:17:33Z</time>
      </trkpt>
      <trkpt lat="48.21257" lon="-0.70317">
        <ele>79.9</ele>
        <time>2011-09-10T11:17:40Z</time>
      </trkpt>
      <trkpt lat="48.21253" lon="-0.70326">
        <ele>79.4</ele>
        <time>2011-09-10T11:17:46Z</time>
      </trkpt>
      <trkpt lat="48.21249" lon="-0.70338">
        <ele>78.3</ele>
        <time>2011-09-10T11:17:53Z</time>
      </trkpt>
      <trkpt lat="48.21246" lon="-0.70349">
        <ele>77</ele>
        <time>2011-09-10T11:17:59Z</time>
      </trkpt>
      <trkpt lat="48.21245" lon="-0.7035">
        <ele>76.8</ele>
        <time>2011-09-10T11:18:00Z</time>
      </trkpt>
      <trkpt lat="48.21236" lon="-0.70369">
        <ele>74</ele>
        <time>2011-09-10T11:18:15Z</time>
      </trkpt>
      <trkpt lat="48.2123" lon="-0.70377">
        <ele>73.1</ele>
        <time>2011-09-10T11:18:21Z</time>
      </trkpt>
      <trkpt lat="48.21224" lon="-0.70386">
        <ele>72</ele>
        <time>2011-09-10T11:18:27Z</time>
      </trkpt>
      <trkpt lat="48.2122" lon="-0.70397">
        <ele>71.5</ele>
        <time>2011-09-10T11:19:15Z</time>
      </trkpt>
      <trkpt lat="48.21219" lon="-0.70399">
        <ele>71.5</ele>
        <time>2011-09-10T11:19:16Z</time>
      </trkpt>
      <trkpt lat="48.21209" lon="-0.70415">
        <ele>71.9</ele>
        <time>2011-09-10T11:19:39Z</time>
      </trkpt>
      <trkpt lat="48.21203" lon="-0.70424">
        <ele>71</ele>
        <time>2011-09-10T11:19:44Z</time>
      </trkpt>
      <trkpt lat="48.21197" lon="-0.70434">
        <ele>72.1</ele>
        <time>2011-09-10T11:19:50Z</time>
      </trkpt>
      <trkpt lat="48.21192" lon="-0.70444">
        <ele>73</ele>
        <time>2011-09-10T11:19:56Z</time>
      </trkpt>
      <trkpt lat="48.21186" lon="-0.70453">
        <ele>72.8</ele>
        <time>2011-09-10T11:20:03Z</time>
      </trkpt>
      <trkpt lat="48.21182" lon="-0.70464">
        <ele>72.8</ele>
        <time>2011-09-10T11:20:10Z</time>
      </trkpt>
      <trkpt lat="48.21177" lon="-0.70473">
        <ele>72.4</ele>
        <time>2011-09-10T11:20:16Z</time>
      </trkpt>
      <trkpt lat="48.2117" lon="-0.70481">
        <ele>72.9</ele>
        <time>2011-09-10T11:20:23Z</time>
      </trkpt>
      <trkpt lat="48.2117" lon="-0.70482">
        <ele>71.9</ele>
        <time>2011-09-10T11:20:24Z</time>
      </trkpt>
      <trkpt lat="48.21161" lon="-0.70501">
        <ele>73</ele>
        <time>2011-09-10T11:20:38Z</time>
      </trkpt>
      <trkpt lat="48.21156" lon="-0.70511">
        <ele>73.5</ele>
        <time>2011-09-10T11:20:46Z</time>
      </trkpt>
      <trkpt lat="48.21149" lon="-0.70519">
        <ele>73.5</ele>
        <time>2011-09-10T11:20:54Z</time>
      </trkpt>
      <trkpt lat="48.21142" lon="-0.70526">
        <ele>73.1</ele>
        <time>2011-09-10T11:21:00Z</time>
      </trkpt>
      <trkpt lat="48.21138" lon="-0.70537">
        <ele>72.9</ele>
        <time>2011-09-10T11:21:06Z</time>
      </trkpt>
      <trkpt lat="48.21136" lon="-0.70549">
        <ele>73.3</ele>
        <time>2011-09-10T11:21:13Z</time>
      </trkpt>
      <trkpt lat="48.21136" lon="-0.70562">
        <ele>73.9</ele>
        <time>2011-09-10T11:21:22Z</time>
      </trkpt>
      <trkpt lat="48.21135" lon="-0.70574">
        <ele>74.6</ele>
        <time>2011-09-10T11:21:30Z</time>
      </trkpt>
      <trkpt lat="48.21134" lon="-0.70576">
        <ele>74.5</ele>
        <time>2011-09-10T11:21:31Z</time>
      </trkpt>
      <trkpt lat="48.21132" lon="-0.70598">
        <ele>74.5</ele>
        <time>2011-09-10T11:21:44Z</time>
      </trkpt>
      <trkpt lat="48.21132" lon="-0.70611">
        <ele>74.9</ele>
        <time>2011-09-10T11:21:51Z</time>
      </trkpt>
      <trkpt lat="48.21126" lon="-0.70621">
        <ele>71.3</ele>
        <time>2011-09-10T11:21:56Z</time>
      </trkpt>
      <trkpt lat="48.21121" lon="-0.7063">
        <ele>70.5</ele>
        <time>2011-09-10T11:22:00Z</time>
      </trkpt>
      <trkpt lat="48.21115" lon="-0.70639">
        <ele>70</ele>
        <time>2011-09-10T11:22:05Z</time>
      </trkpt>
      <trkpt lat="48.21111" lon="-0.70649">
        <ele>69.1</ele>
        <time>2011-09-10T11:22:11Z</time>
      </trkpt>
      <trkpt lat="48.21105" lon="-0.7066">
        <ele>69.5</ele>
        <time>2011-09-10T11:22:17Z</time>
      </trkpt>
      <trkpt lat="48.21099" lon="-0.70669">
        <ele>70.3</ele>
        <time>2011-09-10T11:22:24Z</time>
      </trkpt>
      <trkpt lat="48.21094" lon="-0.70679">
        <ele>70.6</ele>
        <time>2011-09-10T11:22:30Z</time>
      </trkpt>
      <trkpt lat="48.2109" lon="-0.70689">
        <ele>72.4</ele>
        <time>2011-09-10T11:22:36Z</time>
      </trkpt>
      <trkpt lat="48.21089" lon="-0.70691">
        <ele>72.1</ele>
        <time>2011-09-10T11:22:37Z</time>
      </trkpt>
      <trkpt lat="48.21082" lon="-0.70711">
        <ele>71.5</ele>
        <time>2011-09-10T11:22:49Z</time>
      </trkpt>
      <trkpt lat="48.21077" lon="-0.70721">
        <ele>71.4</ele>
        <time>2011-09-10T11:22:55Z</time>
      </trkpt>
      <trkpt lat="48.21073" lon="-0.70732">
        <ele>72.5</ele>
        <time>2011-09-10T11:23:03Z</time>
      </trkpt>
      <trkpt lat="48.21067" lon="-0.70741">
        <ele>71.6</ele>
        <time>2011-09-10T11:23:11Z</time>
      </trkpt>
      <trkpt lat="48.21062" lon="-0.70752">
        <ele>74.3</ele>
        <time>2011-09-10T11:23:19Z</time>
      </trkpt>
      <trkpt lat="48.21059" lon="-0.70764">
        <ele>73.3</ele>
        <time>2011-09-10T11:23:29Z</time>
      </trkpt>
      <trkpt lat="48.21054" lon="-0.70775">
        <ele>73.1</ele>
        <time>2011-09-10T11:23:36Z</time>
      </trkpt>
      <trkpt lat="48.21048" lon="-0.70784">
        <ele>73.4</ele>
        <time>2011-09-10T11:23:42Z</time>
      </trkpt>
      <trkpt lat="48.21047" lon="-0.70786">
        <ele>73</ele>
        <time>2011-09-10T11:23:43Z</time>
      </trkpt>
      <trkpt lat="48.21038" lon="-0.70804">
        <ele>74</ele>
        <time>2011-09-10T11:23:55Z</time>
      </trkpt>
      <trkpt lat="48.21032" lon="-0.70813">
        <ele>74.4</ele>
        <time>2011-09-10T11:24:00Z</time>
      </trkpt>
      <trkpt lat="48.21025" lon="-0.7082">
        <ele>73.6</ele>
        <time>2011-09-10T11:24:05Z</time>
      </trkpt>
      <trkpt lat="48.21018" lon="-0.70828">
        <ele>73.5</ele>
        <time>2011-09-10T11:24:11Z</time>
      </trkpt>
      <trkpt lat="48.21013" lon="-0.70836">
        <ele>75.6</ele>
        <time>2011-09-10T11:24:23Z</time>
      </trkpt>
      <trkpt lat="48.21007" lon="-0.70843">
        <ele>74.5</ele>
        <time>2011-09-10T11:24:28Z</time>
      </trkpt>
      <trkpt lat="48.21001" lon="-0.7085">
        <ele>74.9</ele>
        <time>2011-09-10T11:24:33Z</time>
      </trkpt>
      <trkpt lat="48.20994" lon="-0.70857">
        <ele>76</ele>
        <time>2011-09-10T11:24:40Z</time>
      </trkpt>
      <trkpt lat="48.20988" lon="-0.70864">
        <ele>75.6</ele>
        <time>2011-09-10T11:24:45Z</time>
      </trkpt>
      <trkpt lat="48.20987" lon="-0.70865">
        <ele>75</ele>
        <time>2011-09-10T11:24:46Z</time>
      </trkpt>
      <trkpt lat="48.20974" lon="-0.70877">
        <ele>75.1</ele>
        <time>2011-09-10T11:24:57Z</time>
      </trkpt>
      <trkpt lat="48.20967" lon="-0.70882">
        <ele>75.5</ele>
        <time>2011-09-10T11:25:03Z</time>
      </trkpt>
      <trkpt lat="48.20959" lon="-0.70887">
        <ele>75.5</ele>
        <time>2011-09-10T11:25:10Z</time>
      </trkpt>
      <trkpt lat="48.20951" lon="-0.70892">
        <ele>75.8</ele>
        <time>2011-09-10T11:25:17Z</time>
      </trkpt>
      <trkpt lat="48.20944" lon="-0.70897">
        <ele>74.8</ele>
        <time>2011-09-10T11:25:23Z</time>
      </trkpt>
      <trkpt lat="48.20936" lon="-0.70902">
        <ele>74.8</ele>
        <time>2011-09-10T11:25:29Z</time>
      </trkpt>
      <trkpt lat="48.20928" lon="-0.70906">
        <ele>74.5</ele>
        <time>2011-09-10T11:25:35Z</time>
      </trkpt>
      <trkpt lat="48.2092" lon="-0.70909">
        <ele>75.5</ele>
        <time>2011-09-10T11:25:41Z</time>
      </trkpt>
      <trkpt lat="48.20912" lon="-0.70912">
        <ele>76</ele>
        <time>2011-09-10T11:25:47Z</time>
      </trkpt>
      <trkpt lat="48.2091" lon="-0.70913">
        <ele>76</ele>
        <time>2011-09-10T11:25:48Z</time>
      </trkpt>
      <trkpt lat="48.20896" lon="-0.70919">
        <ele>76.5</ele>
        <time>2011-09-10T11:26:00Z</time>
      </trkpt>
      <trkpt lat="48.20888" lon="-0.70924">
        <ele>76.8</ele>
        <time>2011-09-10T11:26:07Z</time>
      </trkpt>
      <trkpt lat="48.2088" lon="-0.70928">
        <ele>78</ele>
        <time>2011-09-10T11:26:15Z</time>
      </trkpt>
      <trkpt lat="48.20872" lon="-0.70931">
        <ele>76</ele>
        <time>2011-09-10T11:26:23Z</time>
      </trkpt>
      <trkpt lat="48.20865" lon="-0.70937">
        <ele>75.6</ele>
        <time>2011-09-10T11:27:06Z</time>
      </trkpt>
      <trkpt lat="48.20864" lon="-0.70937">
        <ele>75.5</ele>
        <time>2011-09-10T11:27:07Z</time>
      </trkpt>
      <trkpt lat="48.20849" lon="-0.70943">
        <ele>74.9</ele>
        <time>2011-09-10T11:27:25Z</time>
      </trkpt>
      <trkpt lat="48.20841" lon="-0.7095">
        <ele>74.9</ele>
        <time>2011-09-10T11:27:38Z</time>
      </trkpt>
      <trkpt lat="48.20833" lon="-0.7095">
        <ele>74.8</ele>
        <time>2011-09-10T11:28:18Z</time>
      </trkpt>
      <trkpt lat="48.20832" lon="-0.7095">
        <ele>74.5</ele>
        <time>2011-09-10T11:28:19Z</time>
      </trkpt>
      <trkpt lat="48.20817" lon="-0.70955">
        <ele>70</ele>
        <time>2011-09-10T11:28:38Z</time>
      </trkpt>
      <trkpt lat="48.20809" lon="-0.70957">
        <ele>71.1</ele>
        <time>2011-09-10T11:28:57Z</time>
      </trkpt>
      <trkpt lat="48.208" lon="-0.70957">
        <ele>72.3</ele>
        <time>2011-09-10T11:29:04Z</time>
      </trkpt>
      <trkpt lat="48.20791" lon="-0.70959">
        <ele>71.5</ele>
        <time>2011-09-10T11:29:11Z</time>
      </trkpt>
      <trkpt lat="48.20783" lon="-0.70962">
        <ele>71.5</ele>
        <time>2011-09-10T11:29:18Z</time>
      </trkpt>
      <trkpt lat="48.20775" lon="-0.70965">
        <ele>72.8</ele>
        <time>2011-09-10T11:29:25Z</time>
      </trkpt>
      <trkpt lat="48.20774" lon="-0.70966">
        <ele>72.6</ele>
        <time>2011-09-10T11:29:26Z</time>
      </trkpt>
      <trkpt lat="48.20758" lon="-0.70972">
        <ele>75</ele>
        <time>2011-09-10T11:29:39Z</time>
      </trkpt>
      <trkpt lat="48.2075" lon="-0.70974">
        <ele>75.3</ele>
        <time>2011-09-10T11:29:46Z</time>
      </trkpt>
      <trkpt lat="48.20741" lon="-0.70974">
        <ele>74.5</ele>
        <time>2011-09-10T11:29:55Z</time>
      </trkpt>
      <trkpt lat="48.20733" lon="-0.70975">
        <ele>75.6</ele>
        <time>2011-09-10T11:30:02Z</time>
      </trkpt>
      <trkpt lat="48.20725" lon="-0.70976">
        <ele>74.8</ele>
        <time>2011-09-10T11:30:08Z</time>
      </trkpt>
      <trkpt lat="48.20718" lon="-0.7098">
        <ele>74</ele>
        <time>2011-09-10T11:30:15Z</time>
      </trkpt>
      <trkpt lat="48.20709" lon="-0.70982">
        <ele>72</ele>
        <time>2011-09-10T11:30:23Z</time>
      </trkpt>
      <trkpt lat="48.20701" lon="-0.70986">
        <ele>72.5</ele>
        <time>2011-09-10T11:30:30Z</time>
      </trkpt>
      <trkpt lat="48.20699" lon="-0.70987">
        <ele>72.3</ele>
        <time>2011-09-10T11:30:31Z</time>
      </trkpt>
      <trkpt lat="48.20684" lon="-0.70991">
        <ele>74.3</ele>
        <time>2011-09-10T11:30:46Z</time>
      </trkpt>
      <trkpt lat="48.20675" lon="-0.70992">
        <ele>73.8</ele>
        <time>2011-09-10T11:30:53Z</time>
      </trkpt>
      <trkpt lat="48.20667" lon="-0.70993">
        <ele>72.6</ele>
        <time>2011-09-10T11:30:59Z</time>
      </trkpt>
      <trkpt lat="48.20659" lon="-0.70996">
        <ele>71.8</ele>
        <time>2011-09-10T11:31:11Z</time>
      </trkpt>
      <trkpt lat="48.20651" lon="-0.70998">
        <ele>70.3</ele>
        <time>2011-09-10T11:31:23Z</time>
      </trkpt>
      <trkpt lat="48.20644" lon="-0.71001">
        <ele>69.4</ele>
        <time>2011-09-10T11:31:28Z</time>
      </trkpt>
      <trkpt lat="48.20635" lon="-0.71002">
        <ele>69.4</ele>
        <time>2011-09-10T11:31:34Z</time>
      </trkpt>
      <trkpt lat="48.20633" lon="-0.71002">
        <ele>69.6</ele>
        <time>2011-09-10T11:31:35Z</time>
      </trkpt>
      <trkpt lat="48.20619" lon="-0.71008">
        <ele>67.8</ele>
        <time>2011-09-10T11:31:51Z</time>
      </trkpt>
      <trkpt lat="48.20611" lon="-0.71012">
        <ele>68.1</ele>
        <time>2011-09-10T11:31:57Z</time>
      </trkpt>
      <trkpt lat="48.20603" lon="-0.71015">
        <ele>68.1</ele>
        <time>2011-09-10T11:32:02Z</time>
      </trkpt>
      <trkpt lat="48.20595" lon="-0.7102">
        <ele>69.1</ele>
        <time>2011-09-10T11:32:09Z</time>
      </trkpt>
      <trkpt lat="48.20586" lon="-0.71023">
        <ele>70.3</ele>
        <time>2011-09-10T11:32:15Z</time>
      </trkpt>
      <trkpt lat="48.20578" lon="-0.71027">
        <ele>71.4</ele>
        <time>2011-09-10T11:32:27Z</time>
      </trkpt>
      <trkpt lat="48.2057" lon="-0.71031">
        <ele>72.1</ele>
        <time>2011-09-10T11:32:34Z</time>
      </trkpt>
      <trkpt lat="48.20563" lon="-0.71035">
        <ele>72.8</ele>
        <time>2011-09-10T11:32:38Z</time>
      </trkpt>
      <trkpt lat="48.20562" lon="-0.71037">
        <ele>72.9</ele>
        <time>2011-09-10T11:32:39Z</time>
      </trkpt>
      <trkpt lat="48.20547" lon="-0.71043">
        <ele>73.3</ele>
        <time>2011-09-10T11:32:49Z</time>
      </trkpt>
      <trkpt lat="48.20539" lon="-0.71047">
        <ele>75.4</ele>
        <time>2011-09-10T11:32:54Z</time>
      </trkpt>
      <trkpt lat="48.20532" lon="-0.71052">
        <ele>74.3</ele>
        <time>2011-09-10T11:32:59Z</time>
      </trkpt>
      <trkpt lat="48.20523" lon="-0.71056">
        <ele>74</ele>
        <time>2011-09-10T11:33:05Z</time>
      </trkpt>
      <trkpt lat="48.20515" lon="-0.71061">
        <ele>75.1</ele>
        <time>2011-09-10T11:33:12Z</time>
      </trkpt>
      <trkpt lat="48.20507" lon="-0.71064">
        <ele>74</ele>
        <time>2011-09-10T11:33:18Z</time>
      </trkpt>
      <trkpt lat="48.20499" lon="-0.71068">
        <ele>71.9</ele>
        <time>2011-09-10T11:33:23Z</time>
      </trkpt>
      <trkpt lat="48.2049" lon="-0.71071">
        <ele>69.5</ele>
        <time>2011-09-10T11:33:35Z</time>
      </trkpt>
      <trkpt lat="48.20482" lon="-0.71075">
        <ele>69.5</ele>
        <time>2011-09-10T11:33:47Z</time>
      </trkpt>
      <trkpt lat="48.20482" lon="-0.71076">
        <ele>69.6</ele>
        <time>2011-09-10T11:33:48Z</time>
      </trkpt>
      <trkpt lat="48.20468" lon="-0.71083">
        <ele>66.8</ele>
        <time>2011-09-10T11:33:57Z</time>
      </trkpt>
      <trkpt lat="48.20459" lon="-0.71086">
        <ele>66.3</ele>
        <time>2011-09-10T11:34:03Z</time>
      </trkpt>
      <trkpt lat="48.20452" lon="-0.71089">
        <ele>67.5</ele>
        <time>2011-09-10T11:34:09Z</time>
      </trkpt>
      <trkpt lat="48.20444" lon="-0.71094">
        <ele>67.4</ele>
        <time>2011-09-10T11:34:16Z</time>
      </trkpt>
      <trkpt lat="48.20437" lon="-0.71096">
        <ele>67.9</ele>
        <time>2011-09-10T11:34:21Z</time>
      </trkpt>
      <trkpt lat="48.2043" lon="-0.71098">
        <ele>68.3</ele>
        <time>2011-09-10T11:34:26Z</time>
      </trkpt>
      <trkpt lat="48.20422" lon="-0.71101">
        <ele>67.8</ele>
        <time>2011-09-10T11:34:32Z</time>
      </trkpt>
      <trkpt lat="48.20413" lon="-0.71103">
        <ele>68.4</ele>
        <time>2011-09-10T11:34:38Z</time>
      </trkpt>
      <trkpt lat="48.20405" lon="-0.71106">
        <ele>69</ele>
        <time>2011-09-10T11:34:45Z</time>
      </trkpt>
      <trkpt lat="48.20397" lon="-0.7111">
        <ele>69.5</ele>
        <time>2011-09-10T11:34:52Z</time>
      </trkpt>
      <trkpt lat="48.20396" lon="-0.71111">
        <ele>69.4</ele>
        <time>2011-09-10T11:34:53Z</time>
      </trkpt>
      <trkpt lat="48.20382" lon="-0.71118">
        <ele>68.4</ele>
        <time>2011-09-10T11:35:04Z</time>
      </trkpt>
      <trkpt lat="48.20374" lon="-0.7112">
        <ele>69.5</ele>
        <time>2011-09-10T11:35:10Z</time>
      </trkpt>
      <trkpt lat="48.20367" lon="-0.7112">
        <ele>69.1</ele>
        <time>2011-09-10T11:35:19Z</time>
      </trkpt>
      <trkpt lat="48.20359" lon="-0.7112">
        <ele>69.5</ele>
        <time>2011-09-10T11:35:27Z</time>
      </trkpt>
      <trkpt lat="48.20351" lon="-0.71123">
        <ele>69</ele>
        <time>2011-09-10T11:35:33Z</time>
      </trkpt>
      <trkpt lat="48.20343" lon="-0.71123">
        <ele>68.3</ele>
        <time>2011-09-10T11:35:38Z</time>
      </trkpt>
      <trkpt lat="48.20335" lon="-0.71126">
        <ele>66.8</ele>
        <time>2011-09-10T11:35:45Z</time>
      </trkpt>
      <trkpt lat="48.20327" lon="-0.71127">
        <ele>66.1</ele>
        <time>2011-09-10T11:35:51Z</time>
      </trkpt>
      <trkpt lat="48.20319" lon="-0.71127">
        <ele>65.3</ele>
        <time>2011-09-10T11:35:57Z</time>
      </trkpt>
      <trkpt lat="48.20317" lon="-0.71126">
        <ele>65.5</ele>
        <time>2011-09-10T11:35:58Z</time>
      </trkpt>
      <trkpt lat="48.20303" lon="-0.71128">
        <ele>65</ele>
        <time>2011-09-10T11:36:09Z</time>
      </trkpt>
      <trkpt lat="48.20295" lon="-0.71126">
        <ele>65.3</ele>
        <time>2011-09-10T11:36:14Z</time>
      </trkpt>
      <trkpt lat="48.20287" lon="-0.71128">
        <ele>64</ele>
        <time>2011-09-10T11:36:27Z</time>
      </trkpt>
      <trkpt lat="48.20278" lon="-0.71128">
        <ele>63.7</ele>
        <time>2011-09-10T11:36:33Z</time>
      </trkpt>
      <trkpt lat="48.2027" lon="-0.71127">
        <ele>63.5</ele>
        <time>2011-09-10T11:36:41Z</time>
      </trkpt>
      <trkpt lat="48.20262" lon="-0.71125">
        <ele>63</ele>
        <time>2011-09-10T11:36:46Z</time>
      </trkpt>
      <trkpt lat="48.20254" lon="-0.71125">
        <ele>62.7</ele>
        <time>2011-09-10T11:36:56Z</time>
      </trkpt>
      <trkpt lat="48.20247" lon="-0.71123">
        <ele>63.9</ele>
        <time>2011-09-10T11:37:02Z</time>
      </trkpt>
      <trkpt lat="48.20245" lon="-0.71123">
        <ele>63.9</ele>
        <time>2011-09-10T11:37:03Z</time>
      </trkpt>
      <trkpt lat="48.20231" lon="-0.71122">
        <ele>65</ele>
        <time>2011-09-10T11:37:12Z</time>
      </trkpt>
      <trkpt lat="48.20223" lon="-0.71122">
        <ele>64.9</ele>
        <time>2011-09-10T11:37:18Z</time>
      </trkpt>
      <trkpt lat="48.20215" lon="-0.71121">
        <ele>63.5</ele>
        <time>2011-09-10T11:37:27Z</time>
      </trkpt>
      <trkpt lat="48.20207" lon="-0.71123">
        <ele>62.7</ele>
        <time>2011-09-10T11:37:33Z</time>
      </trkpt>
      <trkpt lat="48.20199" lon="-0.71122">
        <ele>63.7</ele>
        <time>2011-09-10T11:37:38Z</time>
      </trkpt>
      <trkpt lat="48.20191" lon="-0.71122">
        <ele>63</ele>
        <time>2011-09-10T11:37:48Z</time>
      </trkpt>
      <trkpt lat="48.20183" lon="-0.71123">
        <ele>64.4</ele>
        <time>2011-09-10T11:37:53Z</time>
      </trkpt>
      <trkpt lat="48.20175" lon="-0.71124">
        <ele>64.3</ele>
        <time>2011-09-10T11:38:06Z</time>
      </trkpt>
      <trkpt lat="48.20173" lon="-0.71125">
        <ele>64.4</ele>
        <time>2011-09-10T11:38:07Z</time>
      </trkpt>
      <trkpt lat="48.20158" lon="-0.71122">
        <ele>65.4</ele>
        <time>2011-09-10T11:38:29Z</time>
      </trkpt>
      <trkpt lat="48.20149" lon="-0.71121">
        <ele>65.1</ele>
        <time>2011-09-10T11:38:37Z</time>
      </trkpt>
      <trkpt lat="48.20141" lon="-0.71118">
        <ele>65.8</ele>
        <time>2011-09-10T11:38:46Z</time>
      </trkpt>
      <trkpt lat="48.20132" lon="-0.71117">
        <ele>66.8</ele>
        <time>2011-09-10T11:39:21Z</time>
      </trkpt>
      <trkpt lat="48.20131" lon="-0.71117">
        <ele>67</ele>
        <time>2011-09-10T11:39:22Z</time>
      </trkpt>
      <trkpt lat="48.20116" lon="-0.71113">
        <ele>67.3</ele>
        <time>2011-09-10T11:39:43Z</time>
      </trkpt>
      <trkpt lat="48.20107" lon="-0.7111">
        <ele>67</ele>
        <time>2011-09-10T11:39:49Z</time>
      </trkpt>
      <trkpt lat="48.20099" lon="-0.71109">
        <ele>66.6</ele>
        <time>2011-09-10T11:39:55Z</time>
      </trkpt>
      <trkpt lat="48.2009" lon="-0.71107">
        <ele>67.4</ele>
        <time>2011-09-10T11:40:01Z</time>
      </trkpt>
      <trkpt lat="48.20083" lon="-0.71107">
        <ele>67.9</ele>
        <time>2011-09-10T11:40:13Z</time>
      </trkpt>
      <trkpt lat="48.20075" lon="-0.71104">
        <ele>68.5</ele>
        <time>2011-09-10T11:40:19Z</time>
      </trkpt>
      <trkpt lat="48.20067" lon="-0.71105">
        <ele>69.1</ele>
        <time>2011-09-10T11:40:26Z</time>
      </trkpt>
      <trkpt lat="48.20066" lon="-0.71105">
        <ele>69.5</ele>
        <time>2011-09-10T11:40:27Z</time>
      </trkpt>
      <trkpt lat="48.20051" lon="-0.7111">
        <ele>71.1</ele>
        <time>2011-09-10T11:40:50Z</time>
      </trkpt>
      <trkpt lat="48.20043" lon="-0.71112">
        <ele>71</ele>
        <time>2011-09-10T11:40:56Z</time>
      </trkpt>
      <trkpt lat="48.20035" lon="-0.71116">
        <ele>71.1</ele>
        <time>2011-09-10T11:41:00Z</time>
      </trkpt>
      <trkpt lat="48.20026" lon="-0.71119">
        <ele>71.3</ele>
        <time>2011-09-10T11:41:05Z</time>
      </trkpt>
      <trkpt lat="48.20019" lon="-0.71122">
        <ele>71.5</ele>
        <time>2011-09-10T11:41:09Z</time>
      </trkpt>
      <trkpt lat="48.20011" lon="-0.71125">
        <ele>72.1</ele>
        <time>2011-09-10T11:41:14Z</time>
      </trkpt>
      <trkpt lat="48.20003" lon="-0.71131">
        <ele>72.9</ele>
        <time>2011-09-10T11:41:24Z</time>
      </trkpt>
      <trkpt lat="48.19997" lon="-0.71136">
        <ele>73.3</ele>
        <time>2011-09-10T11:41:30Z</time>
      </trkpt>
      <trkpt lat="48.19995" lon="-0.71138">
        <ele>73.3</ele>
        <time>2011-09-10T11:41:31Z</time>
      </trkpt>
      <trkpt lat="48.19983" lon="-0.71148">
        <ele>74.1</ele>
        <time>2011-09-10T11:41:42Z</time>
      </trkpt>
      <trkpt lat="48.19976" lon="-0.71155">
        <ele>74.8</ele>
        <time>2011-09-10T11:41:47Z</time>
      </trkpt>
      <trkpt lat="48.19968" lon="-0.71161">
        <ele>74.5</ele>
        <time>2011-09-10T11:41:52Z</time>
      </trkpt>
      <trkpt lat="48.1996" lon="-0.71167">
        <ele>76</ele>
        <time>2011-09-10T11:41:58Z</time>
      </trkpt>
      <trkpt lat="48.19954" lon="-0.71174">
        <ele>77.5</ele>
        <time>2011-09-10T11:42:05Z</time>
      </trkpt>
      <trkpt lat="48.19948" lon="-0.71184">
        <ele>78</ele>
        <time>2011-09-10T11:42:11Z</time>
      </trkpt>
      <trkpt lat="48.19944" lon="-0.71195">
        <ele>78</ele>
        <time>2011-09-10T11:42:19Z</time>
      </trkpt>
      <trkpt lat="48.1994" lon="-0.71205">
        <ele>78.5</ele>
        <time>2011-09-10T11:42:27Z</time>
      </trkpt>
      <trkpt lat="48.19936" lon="-0.71216">
        <ele>78.5</ele>
        <time>2011-09-10T11:42:36Z</time>
      </trkpt>
      <trkpt lat="48.19937" lon="-0.71218">
        <ele>78</ele>
        <time>2011-09-10T11:42:37Z</time>
      </trkpt>
      <trkpt lat="48.19929" lon="-0.71238">
        <ele>78.3</ele>
        <time>2011-09-10T11:42:53Z</time>
      </trkpt>
      <trkpt lat="48.1993" lon="-0.71251">
        <ele>79</ele>
        <time>2011-09-10T11:43:02Z</time>
      </trkpt>
      <trkpt lat="48.19928" lon="-0.71262">
        <ele>79</ele>
        <time>2011-09-10T11:43:08Z</time>
      </trkpt>
      <trkpt lat="48.19921" lon="-0.71271">
        <ele>79.5</ele>
        <time>2011-09-10T11:43:21Z</time>
      </trkpt>
      <trkpt lat="48.19917" lon="-0.71281">
        <ele>80.9</ele>
        <time>2011-09-10T11:43:26Z</time>
      </trkpt>
      <trkpt lat="48.19913" lon="-0.71293">
        <ele>81.4</ele>
        <time>2011-09-10T11:43:32Z</time>
      </trkpt>
      <trkpt lat="48.19907" lon="-0.71302">
        <ele>82</ele>
        <time>2011-09-10T11:43:41Z</time>
      </trkpt>
      <trkpt lat="48.19906" lon="-0.71303">
        <ele>82.1</ele>
        <time>2011-09-10T11:43:42Z</time>
      </trkpt>
      <trkpt lat="48.19901" lon="-0.71324">
        <ele>85.5</ele>
        <time>2011-09-10T11:43:53Z</time>
      </trkpt>
      <trkpt lat="48.19899" lon="-0.71337">
        <ele>87.8</ele>
        <time>2011-09-10T11:44:04Z</time>
      </trkpt>
      <trkpt lat="48.19891" lon="-0.7134">
        <ele>88.3</ele>
        <time>2011-09-10T11:44:09Z</time>
      </trkpt>
      <trkpt lat="48.1989" lon="-0.71352">
        <ele>90</ele>
        <time>2011-09-10T11:44:16Z</time>
      </trkpt>
      <trkpt lat="48.19894" lon="-0.71365">
        <ele>90.6</ele>
        <time>2011-09-10T11:44:24Z</time>
      </trkpt>
      <trkpt lat="48.19891" lon="-0.71377">
        <ele>92.1</ele>
        <time>2011-09-10T11:44:35Z</time>
      </trkpt>
      <trkpt lat="48.19888" lon="-0.71389">
        <ele>92.5</ele>
        <time>2011-09-10T11:44:42Z</time>
      </trkpt>
      <trkpt lat="48.19886" lon="-0.71401">
        <ele>94.3</ele>
        <time>2011-09-10T11:44:46Z</time>
      </trkpt>
      <trkpt lat="48.19886" lon="-0.71404">
        <ele>94.4</ele>
        <time>2011-09-10T11:44:47Z</time>
      </trkpt>
      <trkpt lat="48.19882" lon="-0.71424">
        <ele>96.6</ele>
        <time>2011-09-10T11:44:57Z</time>
      </trkpt>
      <trkpt lat="48.19876" lon="-0.71433">
        <ele>97.1</ele>
        <time>2011-09-10T11:45:02Z</time>
      </trkpt>
      <trkpt lat="48.19873" lon="-0.71445">
        <ele>97.3</ele>
        <time>2011-09-10T11:45:07Z</time>
      </trkpt>
      <trkpt lat="48.19866" lon="-0.71454">
        <ele>97.6</ele>
        <time>2011-09-10T11:45:11Z</time>
      </trkpt>
      <trkpt lat="48.19861" lon="-0.71465">
        <ele>98.5</ele>
        <time>2011-09-10T11:45:24Z</time>
      </trkpt>
      <trkpt lat="48.19854" lon="-0.71471">
        <ele>96.5</ele>
        <time>2011-09-10T11:45:28Z</time>
      </trkpt>
      <trkpt lat="48.1985" lon="-0.71483">
        <ele>95.9</ele>
        <time>2011-09-10T11:45:32Z</time>
      </trkpt>
      <trkpt lat="48.19847" lon="-0.71494">
        <ele>99</ele>
        <time>2011-09-10T11:45:38Z</time>
      </trkpt>
      <trkpt lat="48.19841" lon="-0.71504">
        <ele>103.3</ele>
        <time>2011-09-10T11:45:43Z</time>
      </trkpt>
      <trkpt lat="48.19837" lon="-0.71514">
        <ele>105.5</ele>
        <time>2011-09-10T11:45:51Z</time>
      </trkpt>
      <trkpt lat="48.19836" lon="-0.71515">
        <ele>106</ele>
        <time>2011-09-10T11:45:52Z</time>
      </trkpt>
      <trkpt lat="48.19821" lon="-0.71527">
        <ele>106.1</ele>
        <time>2011-09-10T11:46:02Z</time>
      </trkpt>
      <trkpt lat="48.19814" lon="-0.71534">
        <ele>104</ele>
        <time>2011-09-10T11:46:16Z</time>
      </trkpt>
      <trkpt lat="48.19806" lon="-0.71539">
        <ele>101.9</ele>
        <time>2011-09-10T11:47:31Z</time>
      </trkpt>
      <trkpt lat="48.19805" lon="-0.71539">
        <ele>102</ele>
        <time>2011-09-10T11:47:32Z</time>
      </trkpt>
      <trkpt lat="48.19789" lon="-0.71533">
        <ele>102.1</ele>
        <time>2011-09-10T11:47:42Z</time>
      </trkpt>
      <trkpt lat="48.19781" lon="-0.7153">
        <ele>101.8</ele>
        <time>2011-09-10T11:47:50Z</time>
      </trkpt>
      <trkpt lat="48.19774" lon="-0.71531">
        <ele>101.5</ele>
        <time>2011-09-10T11:47:54Z</time>
      </trkpt>
      <trkpt lat="48.19768" lon="-0.71525">
        <ele>99.6</ele>
        <time>2011-09-10T11:48:04Z</time>
      </trkpt>
      <trkpt lat="48.1976" lon="-0.71521">
        <ele>99</ele>
        <time>2011-09-10T11:48:11Z</time>
      </trkpt>
      <trkpt lat="48.19752" lon="-0.71516">
        <ele>98.5</ele>
        <time>2011-09-10T11:48:17Z</time>
      </trkpt>
      <trkpt lat="48.19746" lon="-0.71513">
        <ele>95.8</ele>
        <time>2011-09-10T11:48:20Z</time>
      </trkpt>
      <trkpt lat="48.19739" lon="-0.7151">
        <ele>95.9</ele>
        <time>2011-09-10T11:48:22Z</time>
      </trkpt>
      <trkpt lat="48.19732" lon="-0.71507">
        <ele>96.3</ele>
        <time>2011-09-10T11:48:28Z</time>
      </trkpt>
      <trkpt lat="48.19726" lon="-0.71504">
        <ele>94.8</ele>
        <time>2011-09-10T11:48:31Z</time>
      </trkpt>
      <trkpt lat="48.19719" lon="-0.71501">
        <ele>95.4</ele>
        <time>2011-09-10T11:48:33Z</time>
      </trkpt>
      <trkpt lat="48.19716" lon="-0.715">
        <ele>95.6</ele>
        <time>2011-09-10T11:48:34Z</time>
      </trkpt>
      <trkpt lat="48.19704" lon="-0.71495">
        <ele>96</ele>
        <time>2011-09-10T11:48:39Z</time>
      </trkpt>
      <trkpt lat="48.19698" lon="-0.71487">
        <ele>97</ele>
        <time>2011-09-10T11:48:50Z</time>
      </trkpt>
      <trkpt lat="48.19691" lon="-0.7148">
        <ele>95.4</ele>
        <time>2011-09-10T11:48:56Z</time>
      </trkpt>
      <trkpt lat="48.19684" lon="-0.71476">
        <ele>94.9</ele>
        <time>2011-09-10T11:49:00Z</time>
      </trkpt>
      <trkpt lat="48.19678" lon="-0.71474">
        <ele>95.6</ele>
        <time>2011-09-10T11:49:03Z</time>
      </trkpt>
      <trkpt lat="48.19669" lon="-0.71472">
        <ele>96.1</ele>
        <time>2011-09-10T11:49:09Z</time>
      </trkpt>
      <trkpt lat="48.19663" lon="-0.71469">
        <ele>97.5</ele>
        <time>2011-09-10T11:49:15Z</time>
      </trkpt>
      <trkpt lat="48.19655" lon="-0.71467">
        <ele>97.1</ele>
        <time>2011-09-10T11:49:20Z</time>
      </trkpt>
      <trkpt lat="48.19648" lon="-0.71462">
        <ele>98.5</ele>
        <time>2011-09-10T11:49:24Z</time>
      </trkpt>
      <trkpt lat="48.19639" lon="-0.71461">
        <ele>98.3</ele>
        <time>2011-09-10T11:49:28Z</time>
      </trkpt>
      <trkpt lat="48.19632" lon="-0.71452">
        <ele>99</ele>
        <time>2011-09-10T11:49:42Z</time>
      </trkpt>
      <trkpt lat="48.19632" lon="-0.71452">
        <ele>100.5</ele>
        <time>2011-09-10T11:49:43Z</time>
      </trkpt>
      <trkpt lat="48.19617" lon="-0.71443">
        <ele>100.8</ele>
        <time>2011-09-10T11:49:52Z</time>
      </trkpt>
      <trkpt lat="48.19609" lon="-0.71438">
        <ele>100.5</ele>
        <time>2011-09-10T11:50:02Z</time>
      </trkpt>
      <trkpt lat="48.19602" lon="-0.71432">
        <ele>102.5</ele>
        <time>2011-09-10T11:50:07Z</time>
      </trkpt>
      <trkpt lat="48.19595" lon="-0.71431">
        <ele>101.6</ele>
        <time>2011-09-10T11:50:13Z</time>
      </trkpt>
      <trkpt lat="48.19586" lon="-0.71427">
        <ele>98.5</ele>
        <time>2011-09-10T11:50:17Z</time>
      </trkpt>
      <trkpt lat="48.19578" lon="-0.71425">
        <ele>97.4</ele>
        <time>2011-09-10T11:50:22Z</time>
      </trkpt>
      <trkpt lat="48.19569" lon="-0.71428">
        <ele>96.5</ele>
        <time>2011-09-10T11:50:26Z</time>
      </trkpt>
      <trkpt lat="48.19561" lon="-0.7143">
        <ele>93.9</ele>
        <time>2011-09-10T11:50:36Z</time>
      </trkpt>
      <trkpt lat="48.19552" lon="-0.71426">
        <ele>93.9</ele>
        <time>2011-09-10T11:50:43Z</time>
      </trkpt>
      <trkpt lat="48.1955" lon="-0.71427">
        <ele>93.9</ele>
        <time>2011-09-10T11:50:44Z</time>
      </trkpt>
      <trkpt lat="48.19537" lon="-0.71421">
        <ele>96.9</ele>
        <time>2011-09-10T11:50:51Z</time>
      </trkpt>
      <trkpt lat="48.19529" lon="-0.71417">
        <ele>97</ele>
        <time>2011-09-10T11:51:00Z</time>
      </trkpt>
      <trkpt lat="48.19522" lon="-0.71411">
        <ele>94.8</ele>
        <time>2011-09-10T11:51:11Z</time>
      </trkpt>
      <trkpt lat="48.19514" lon="-0.7141">
        <ele>94.9</ele>
        <time>2011-09-10T11:51:16Z</time>
      </trkpt>
      <trkpt lat="48.19505" lon="-0.71407">
        <ele>95.5</ele>
        <time>2011-09-10T11:51:25Z</time>
      </trkpt>
      <trkpt lat="48.195" lon="-0.71403">
        <ele>95</ele>
        <time>2011-09-10T11:51:28Z</time>
      </trkpt>
      <trkpt lat="48.19492" lon="-0.71402">
        <ele>94.6</ele>
        <time>2011-09-10T11:51:32Z</time>
      </trkpt>
      <trkpt lat="48.19484" lon="-0.71398">
        <ele>93.3</ele>
        <time>2011-09-10T11:51:41Z</time>
      </trkpt>
      <trkpt lat="48.19477" lon="-0.71395">
        <ele>94</ele>
        <time>2011-09-10T11:51:45Z</time>
      </trkpt>
      <trkpt lat="48.19474" lon="-0.71394">
        <ele>93</ele>
        <time>2011-09-10T11:51:46Z</time>
      </trkpt>
      <trkpt lat="48.19461" lon="-0.71389">
        <ele>91.5</ele>
        <time>2011-09-10T11:51:58Z</time>
      </trkpt>
      <trkpt lat="48.19455" lon="-0.71386">
        <ele>91.5</ele>
        <time>2011-09-10T11:52:06Z</time>
      </trkpt>
      <trkpt lat="48.19449" lon="-0.71378">
        <ele>91.5</ele>
        <time>2011-09-10T11:52:21Z</time>
      </trkpt>
      <trkpt lat="48.19444" lon="-0.71369">
        <ele>92.5</ele>
        <time>2011-09-10T11:52:31Z</time>
      </trkpt>
      <trkpt lat="48.19436" lon="-0.71362">
        <ele>92.1</ele>
        <time>2011-09-10T11:52:36Z</time>
      </trkpt>
      <trkpt lat="48.19433" lon="-0.7135">
        <ele>93.1</ele>
        <time>2011-09-10T11:52:48Z</time>
      </trkpt>
      <trkpt lat="48.19432" lon="-0.71348">
        <ele>93</ele>
        <time>2011-09-10T11:52:49Z</time>
      </trkpt>
      <trkpt lat="48.19428" lon="-0.71327">
        <ele>92.9</ele>
        <time>2011-09-10T11:53:03Z</time>
      </trkpt>
      <trkpt lat="48.19424" lon="-0.71315">
        <ele>94.4</ele>
        <time>2011-09-10T11:53:26Z</time>
      </trkpt>
      <trkpt lat="48.19421" lon="-0.71304">
        <ele>95</ele>
        <time>2011-09-10T11:53:31Z</time>
      </trkpt>
      <trkpt lat="48.19423" lon="-0.71291">
        <ele>92</ele>
        <time>2011-09-10T11:53:37Z</time>
      </trkpt>
      <trkpt lat="48.19421" lon="-0.7128">
        <ele>90.3</ele>
        <time>2011-09-10T11:53:50Z</time>
      </trkpt>
      <trkpt lat="48.1942" lon="-0.71278">
        <ele>89.5</ele>
        <time>2011-09-10T11:53:51Z</time>
      </trkpt>
      <trkpt lat="48.19414" lon="-0.71256">
        <ele>87.3</ele>
        <time>2011-09-10T11:54:01Z</time>
      </trkpt>
      <trkpt lat="48.1941" lon="-0.71245">
        <ele>87.3</ele>
        <time>2011-09-10T11:54:06Z</time>
      </trkpt>
      <trkpt lat="48.19411" lon="-0.71232">
        <ele>87.9</ele>
        <time>2011-09-10T11:54:12Z</time>
      </trkpt>
      <trkpt lat="48.19411" lon="-0.7122">
        <ele>87.9</ele>
        <time>2011-09-10T11:54:19Z</time>
      </trkpt>
      <trkpt lat="48.19407" lon="-0.71209">
        <ele>89.3</ele>
        <time>2011-09-10T11:54:24Z</time>
      </trkpt>
      <trkpt lat="48.19406" lon="-0.71196">
        <ele>88.9</ele>
        <time>2011-09-10T11:54:30Z</time>
      </trkpt>
      <trkpt lat="48.19405" lon="-0.71184">
        <ele>88.5</ele>
        <time>2011-09-10T11:54:35Z</time>
      </trkpt>
      <trkpt lat="48.19401" lon="-0.71173">
        <ele>87</ele>
        <time>2011-09-10T11:54:42Z</time>
      </trkpt>
      <trkpt lat="48.19405" lon="-0.71164">
        <ele>86.4</ele>
        <time>2011-09-10T11:54:46Z</time>
      </trkpt>
      <trkpt lat="48.19408" lon="-0.71153">
        <ele>87.4</ele>
        <time>2011-09-10T11:54:54Z</time>
      </trkpt>
      <trkpt lat="48.19408" lon="-0.71151">
        <ele>88.6</ele>
        <time>2011-09-10T11:54:55Z</time>
      </trkpt>
      <trkpt lat="48.19411" lon="-0.71129">
        <ele>92.5</ele>
        <time>2011-09-10T11:55:07Z</time>
      </trkpt>
      <trkpt lat="48.19412" lon="-0.71116">
        <ele>93.3</ele>
        <time>2011-09-10T11:55:14Z</time>
      </trkpt>
      <trkpt lat="48.19414" lon="-0.71104">
        <ele>94.4</ele>
        <time>2011-09-10T11:55:22Z</time>
      </trkpt>
      <trkpt lat="48.19417" lon="-0.71092">
        <ele>95.8</ele>
        <time>2011-09-10T11:55:31Z</time>
      </trkpt>
      <trkpt lat="48.19419" lon="-0.71079">
        <ele>97.3</ele>
        <time>2011-09-10T11:55:39Z</time>
      </trkpt>
      <trkpt lat="48.19422" lon="-0.71067">
        <ele>99</ele>
        <time>2011-09-10T11:55:48Z</time>
      </trkpt>
      <trkpt lat="48.19426" lon="-0.71057">
        <ele>99</ele>
        <time>2011-09-10T11:55:53Z</time>
      </trkpt>
      <trkpt lat="48.19432" lon="-0.71049">
        <ele>98.9</ele>
        <time>2011-09-10T11:56:00Z</time>
      </trkpt>
      <trkpt lat="48.19433" lon="-0.71047">
        <ele>98.8</ele>
        <time>2011-09-10T11:56:01Z</time>
      </trkpt>
      <trkpt lat="48.19442" lon="-0.7103">
        <ele>96.9</ele>
        <time>2011-09-10T11:56:13Z</time>
      </trkpt>
      <trkpt lat="48.19447" lon="-0.71021">
        <ele>95.9</ele>
        <time>2011-09-10T11:56:19Z</time>
      </trkpt>
      <trkpt lat="48.19455" lon="-0.71016">
        <ele>95.4</ele>
        <time>2011-09-10T11:56:24Z</time>
      </trkpt>
      <trkpt lat="48.19461" lon="-0.71008">
        <ele>94</ele>
        <time>2011-09-10T11:56:29Z</time>
      </trkpt>
      <trkpt lat="48.19468" lon="-0.71001">
        <ele>93.8</ele>
        <time>2011-09-10T11:56:36Z</time>
      </trkpt>
      <trkpt lat="48.19475" lon="-0.70995">
        <ele>93.6</ele>
        <time>2011-09-10T11:56:43Z</time>
      </trkpt>
      <trkpt lat="48.19482" lon="-0.70989">
        <ele>96.5</ele>
        <time>2011-09-10T11:56:58Z</time>
      </trkpt>
      <trkpt lat="48.19477" lon="-0.70978">
        <ele>98</ele>
        <time>2011-09-10T11:57:17Z</time>
      </trkpt>
      <trkpt lat="48.19476" lon="-0.70977">
        <ele>98</ele>
        <time>2011-09-10T11:57:18Z</time>
      </trkpt>
      <trkpt lat="48.19476" lon="-0.70965">
        <ele>97.1</ele>
        <time>2011-09-10T11:57:33Z</time>
      </trkpt>
      <trkpt lat="48.19468" lon="-0.70958">
        <ele>96.1</ele>
        <time>2011-09-10T11:57:51Z</time>
      </trkpt>
      <trkpt lat="48.19461" lon="-0.70956">
        <ele>97.4</ele>
        <time>2011-09-10T11:58:10Z</time>
      </trkpt>
      <trkpt lat="48.19454" lon="-0.70959">
        <ele>98.4</ele>
        <time>2011-09-10T11:58:21Z</time>
      </trkpt>
      <trkpt lat="48.19452" lon="-0.70959">
        <ele>98.6</ele>
        <time>2011-09-10T11:58:22Z</time>
      </trkpt>
      <trkpt lat="48.19441" lon="-0.70947">
        <ele>99.5</ele>
        <time>2011-09-10T11:58:45Z</time>
      </trkpt>
      <trkpt lat="48.19434" lon="-0.70944">
        <ele>99.1</ele>
        <time>2011-09-10T11:58:52Z</time>
      </trkpt>
      <trkpt lat="48.19427" lon="-0.70937">
        <ele>97.6</ele>
        <time>2011-09-10T11:58:56Z</time>
      </trkpt>
      <trkpt lat="48.1942" lon="-0.70932">
        <ele>96.5</ele>
        <time>2011-09-10T11:59:03Z</time>
      </trkpt>
      <trkpt lat="48.19414" lon="-0.70923">
        <ele>94</ele>
        <time>2011-09-10T11:59:13Z</time>
      </trkpt>
      <trkpt lat="48.19409" lon="-0.70912">
        <ele>93.5</ele>
        <time>2011-09-10T11:59:23Z</time>
      </trkpt>
      <trkpt lat="48.19408" lon="-0.7091">
        <ele>93.5</ele>
        <time>2011-09-10T11:59:24Z</time>
      </trkpt>
      <trkpt lat="48.19399" lon="-0.70893">
        <ele>94.1</ele>
        <time>2011-09-10T11:59:32Z</time>
      </trkpt>
      <trkpt lat="48.19395" lon="-0.70882">
        <ele>95.3</ele>
        <time>2011-09-10T11:59:37Z</time>
      </trkpt>
      <trkpt lat="48.1939" lon="-0.70871">
        <ele>95</ele>
        <time>2011-09-10T11:59:42Z</time>
      </trkpt>
      <trkpt lat="48.19386" lon="-0.7086">
        <ele>94.4</ele>
        <time>2011-09-10T11:59:50Z</time>
      </trkpt>
      <trkpt lat="48.19382" lon="-0.70849">
        <ele>93.5</ele>
        <time>2011-09-10T11:59:56Z</time>
      </trkpt>
      <trkpt lat="48.19378" lon="-0.70839">
        <ele>91.9</ele>
        <time>2011-09-10T12:00:05Z</time>
      </trkpt>
      <trkpt lat="48.19374" lon="-0.70828">
        <ele>91.1</ele>
        <time>2011-09-10T12:00:10Z</time>
      </trkpt>
      <trkpt lat="48.19369" lon="-0.70818">
        <ele>91</ele>
        <time>2011-09-10T12:00:15Z</time>
      </trkpt>
      <trkpt lat="48.19364" lon="-0.70809">
        <ele>90.5</ele>
        <time>2011-09-10T12:00:20Z</time>
      </trkpt>
      <trkpt lat="48.1936" lon="-0.70798">
        <ele>90</ele>
        <time>2011-09-10T12:00:29Z</time>
      </trkpt>
      <trkpt lat="48.1936" lon="-0.70797">
        <ele>90</ele>
        <time>2011-09-10T12:00:30Z</time>
      </trkpt>
      <trkpt lat="48.19351" lon="-0.70776">
        <ele>88.4</ele>
        <time>2011-09-10T12:00:45Z</time>
      </trkpt>
      <trkpt lat="48.19347" lon="-0.70765">
        <ele>88.5</ele>
        <time>2011-09-10T12:00:52Z</time>
      </trkpt>
      <trkpt lat="48.19343" lon="-0.70754">
        <ele>88</ele>
        <time>2011-09-10T12:01:06Z</time>
      </trkpt>
      <trkpt lat="48.19338" lon="-0.70743">
        <ele>88.5</ele>
        <time>2011-09-10T12:01:15Z</time>
      </trkpt>
      <trkpt lat="48.19334" lon="-0.70733">
        <ele>88.5</ele>
        <time>2011-09-10T12:01:20Z</time>
      </trkpt>
      <trkpt lat="48.1933" lon="-0.70724">
        <ele>89</ele>
        <time>2011-09-10T12:01:24Z</time>
      </trkpt>
      <trkpt lat="48.19326" lon="-0.70714">
        <ele>90</ele>
        <time>2011-09-10T12:01:30Z</time>
      </trkpt>
      <trkpt lat="48.19325" lon="-0.70712">
        <ele>89.6</ele>
        <time>2011-09-10T12:01:31Z</time>
      </trkpt>
      <trkpt lat="48.19316" lon="-0.70692">
        <ele>91.1</ele>
        <time>2011-09-10T12:01:42Z</time>
      </trkpt>
      <trkpt lat="48.19311" lon="-0.7068">
        <ele>92</ele>
        <time>2011-09-10T12:01:51Z</time>
      </trkpt>
      <trkpt lat="48.19306" lon="-0.70671">
        <ele>92</ele>
        <time>2011-09-10T12:01:59Z</time>
      </trkpt>
      <trkpt lat="48.193" lon="-0.70663">
        <ele>91.5</ele>
        <time>2011-09-10T12:02:05Z</time>
      </trkpt>
      <trkpt lat="48.19294" lon="-0.70654">
        <ele>91.3</ele>
        <time>2011-09-10T12:02:10Z</time>
      </trkpt>
      <trkpt lat="48.19288" lon="-0.70645">
        <ele>91.6</ele>
        <time>2011-09-10T12:02:15Z</time>
      </trkpt>
      <trkpt lat="48.19282" lon="-0.70635">
        <ele>93.3</ele>
        <time>2011-09-10T12:02:25Z</time>
      </trkpt>
      <trkpt lat="48.19277" lon="-0.70626">
        <ele>94.8</ele>
        <time>2011-09-10T12:02:31Z</time>
      </trkpt>
      <trkpt lat="48.19276" lon="-0.70625">
        <ele>95</ele>
        <time>2011-09-10T12:02:32Z</time>
      </trkpt>
      <trkpt lat="48.19265" lon="-0.70608">
        <ele>97.1</ele>
        <time>2011-09-10T12:03:18Z</time>
      </trkpt>
      <trkpt lat="48.19261" lon="-0.70597">
        <ele>98.4</ele>
        <time>2011-09-10T12:05:33Z</time>
      </trkpt>
      <trkpt lat="48.1926" lon="-0.70595">
        <ele>98.3</ele>
        <time>2011-09-10T12:05:34Z</time>
      </trkpt>
      <trkpt lat="48.19252" lon="-0.70575">
        <ele>98</ele>
        <time>2011-09-10T12:05:46Z</time>
      </trkpt>
      <trkpt lat="48.19248" lon="-0.70565">
        <ele>97.1</ele>
        <time>2011-09-10T12:05:55Z</time>
      </trkpt>
      <trkpt lat="48.19246" lon="-0.70553">
        <ele>97.6</ele>
        <time>2011-09-10T12:06:01Z</time>
      </trkpt>
      <trkpt lat="48.19244" lon="-0.70542">
        <ele>98.4</ele>
        <time>2011-09-10T12:06:07Z</time>
      </trkpt>
      <trkpt lat="48.19241" lon="-0.7053">
        <ele>98.8</ele>
        <time>2011-09-10T12:06:13Z</time>
      </trkpt>
      <trkpt lat="48.19239" lon="-0.70517">
        <ele>100.6</ele>
        <time>2011-09-10T12:06:20Z</time>
      </trkpt>
      <trkpt lat="48.19236" lon="-0.70504">
        <ele>101.5</ele>
        <time>2011-09-10T12:06:30Z</time>
      </trkpt>
      <trkpt lat="48.19234" lon="-0.70494">
        <ele>100.3</ele>
        <time>2011-09-10T12:06:35Z</time>
      </trkpt>
      <trkpt lat="48.19233" lon="-0.70492">
        <ele>100.5</ele>
        <time>2011-09-10T12:06:36Z</time>
      </trkpt>
      <trkpt lat="48.19223" lon="-0.70473">
        <ele>102.6</ele>
        <time>2011-09-10T12:06:50Z</time>
      </trkpt>
      <trkpt lat="48.19216" lon="-0.70466">
        <ele>103.5</ele>
        <time>2011-09-10T12:07:00Z</time>
      </trkpt>
      <trkpt lat="48.19209" lon="-0.70459">
        <ele>104.1</ele>
        <time>2011-09-10T12:07:05Z</time>
      </trkpt>
      <trkpt lat="48.19202" lon="-0.70454">
        <ele>103.9</ele>
        <time>2011-09-10T12:07:11Z</time>
      </trkpt>
      <trkpt lat="48.19194" lon="-0.7045">
        <ele>103.9</ele>
        <time>2011-09-10T12:07:20Z</time>
      </trkpt>
      <trkpt lat="48.19187" lon="-0.70445">
        <ele>103.8</ele>
        <time>2011-09-10T12:07:28Z</time>
      </trkpt>
      <trkpt lat="48.19179" lon="-0.7044">
        <ele>102.8</ele>
        <time>2011-09-10T12:07:36Z</time>
      </trkpt>
      <trkpt lat="48.19178" lon="-0.70439">
        <ele>102.4</ele>
        <time>2011-09-10T12:07:37Z</time>
      </trkpt>
      <trkpt lat="48.19164" lon="-0.70432">
        <ele>100.5</ele>
        <time>2011-09-10T12:07:47Z</time>
      </trkpt>
      <trkpt lat="48.19156" lon="-0.70429">
        <ele>99</ele>
        <time>2011-09-10T12:07:52Z</time>
      </trkpt>
      <trkpt lat="48.19148" lon="-0.70425">
        <ele>98.6</ele>
        <time>2011-09-10T12:07:57Z</time>
      </trkpt>
      <trkpt lat="48.1914" lon="-0.70422">
        <ele>99</ele>
        <time>2011-09-10T12:08:02Z</time>
      </trkpt>
      <trkpt lat="48.19132" lon="-0.70419">
        <ele>98.8</ele>
        <time>2011-09-10T12:08:08Z</time>
      </trkpt>
      <trkpt lat="48.19124" lon="-0.70414">
        <ele>99</ele>
        <time>2011-09-10T12:08:14Z</time>
      </trkpt>
      <trkpt lat="48.19117" lon="-0.70409">
        <ele>98.5</ele>
        <time>2011-09-10T12:08:21Z</time>
      </trkpt>
      <trkpt lat="48.19112" lon="-0.70399">
        <ele>97.1</ele>
        <time>2011-09-10T12:09:14Z</time>
      </trkpt>
      <trkpt lat="48.19112" lon="-0.70397">
        <ele>97</ele>
        <time>2011-09-10T12:09:15Z</time>
      </trkpt>
      <trkpt lat="48.19111" lon="-0.70375">
        <ele>97.5</ele>
        <time>2011-09-10T12:09:29Z</time>
      </trkpt>
      <trkpt lat="48.19109" lon="-0.70362">
        <ele>98.3</ele>
        <time>2011-09-10T12:09:45Z</time>
      </trkpt>
      <trkpt lat="48.19109" lon="-0.7035">
        <ele>97.5</ele>
        <time>2011-09-10T12:09:52Z</time>
      </trkpt>
      <trkpt lat="48.19109" lon="-0.70337">
        <ele>97.4</ele>
        <time>2011-09-10T12:09:59Z</time>
      </trkpt>
      <trkpt lat="48.1911" lon="-0.70324">
        <ele>97.3</ele>
        <time>2011-09-10T12:10:06Z</time>
      </trkpt>
      <trkpt lat="48.19107" lon="-0.70313">
        <ele>97.3</ele>
        <time>2011-09-10T12:10:13Z</time>
      </trkpt>
      <trkpt lat="48.19101" lon="-0.70303">
        <ele>98.5</ele>
        <time>2011-09-10T12:10:32Z</time>
      </trkpt>
      <trkpt lat="48.19101" lon="-0.70303">
        <ele>98.8</ele>
        <time>2011-09-10T12:10:33Z</time>
      </trkpt>
      <trkpt lat="48.19084" lon="-0.70297">
        <ele>97.5</ele>
        <time>2011-09-10T12:10:47Z</time>
      </trkpt>
      <trkpt lat="48.19077" lon="-0.70293">
        <ele>98.6</ele>
        <time>2011-09-10T12:10:56Z</time>
      </trkpt>
      <trkpt lat="48.19069" lon="-0.7029">
        <ele>99</ele>
        <time>2011-09-10T12:11:02Z</time>
      </trkpt>
      <trkpt lat="48.19061" lon="-0.70288">
        <ele>100</ele>
        <time>2011-09-10T12:11:08Z</time>
      </trkpt>
      <trkpt lat="48.19053" lon="-0.70286">
        <ele>100.1</ele>
        <time>2011-09-10T12:11:14Z</time>
      </trkpt>
      <trkpt lat="48.19045" lon="-0.70282">
        <ele>99.8</ele>
        <time>2011-09-10T12:11:20Z</time>
      </trkpt>
      <trkpt lat="48.19037" lon="-0.7028">
        <ele>98</ele>
        <time>2011-09-10T12:11:25Z</time>
      </trkpt>
      <trkpt lat="48.1903" lon="-0.70276">
        <ele>98.1</ele>
        <time>2011-09-10T12:11:30Z</time>
      </trkpt>
      <trkpt lat="48.19022" lon="-0.70272">
        <ele>98.5</ele>
        <time>2011-09-10T12:11:36Z</time>
      </trkpt>
      <trkpt lat="48.19021" lon="-0.70272">
        <ele>98.3</ele>
        <time>2011-09-10T12:11:37Z</time>
      </trkpt>
      <trkpt lat="48.19006" lon="-0.70272">
        <ele>99.1</ele>
        <time>2011-09-10T12:12:02Z</time>
      </trkpt>
      <trkpt lat="48.19" lon="-0.70282">
        <ele>98.9</ele>
        <time>2011-09-10T12:12:09Z</time>
      </trkpt>
      <trkpt lat="48.18994" lon="-0.70292">
        <ele>99.5</ele>
        <time>2011-09-10T12:12:17Z</time>
      </trkpt>
      <trkpt lat="48.18989" lon="-0.703">
        <ele>100</ele>
        <time>2011-09-10T12:12:23Z</time>
      </trkpt>
      <trkpt lat="48.18983" lon="-0.70308">
        <ele>100.5</ele>
        <time>2011-09-10T12:12:29Z</time>
      </trkpt>
      <trkpt lat="48.18976" lon="-0.70315">
        <ele>99.3</ele>
        <time>2011-09-10T12:12:36Z</time>
      </trkpt>
      <trkpt lat="48.18969" lon="-0.7032">
        <ele>99.1</ele>
        <time>2011-09-10T12:12:42Z</time>
      </trkpt>
      <trkpt lat="48.18968" lon="-0.70321">
        <ele>99</ele>
        <time>2011-09-10T12:12:43Z</time>
      </trkpt>
      <trkpt lat="48.18952" lon="-0.70323">
        <ele>99.1</ele>
        <time>2011-09-10T12:12:56Z</time>
      </trkpt>
      <trkpt lat="48.18944" lon="-0.70323">
        <ele>99.1</ele>
        <time>2011-09-10T12:13:02Z</time>
      </trkpt>
      <trkpt lat="48.18937" lon="-0.70322">
        <ele>99.5</ele>
        <time>2011-09-10T12:13:08Z</time>
      </trkpt>
      <trkpt lat="48.18928" lon="-0.7032">
        <ele>99.5</ele>
        <time>2011-09-10T12:13:16Z</time>
      </trkpt>
      <trkpt lat="48.18919" lon="-0.70318">
        <ele>99.8</ele>
        <time>2011-09-10T12:13:24Z</time>
      </trkpt>
      <trkpt lat="48.18911" lon="-0.70317">
        <ele>99.6</ele>
        <time>2011-09-10T12:13:30Z</time>
      </trkpt>
      <trkpt lat="48.18904" lon="-0.70316">
        <ele>99.6</ele>
        <time>2011-09-10T12:13:36Z</time>
      </trkpt>
      <trkpt lat="48.18896" lon="-0.70314">
        <ele>100.5</ele>
        <time>2011-09-10T12:13:45Z</time>
      </trkpt>
      <trkpt lat="48.18894" lon="-0.70314">
        <ele>100.3</ele>
        <time>2011-09-10T12:13:46Z</time>
      </trkpt>
      <trkpt lat="48.1888" lon="-0.70315">
        <ele>99.5</ele>
        <time>2011-09-10T12:14:00Z</time>
      </trkpt>
      <trkpt lat="48.18872" lon="-0.70314">
        <ele>100.1</ele>
        <time>2011-09-10T12:14:07Z</time>
      </trkpt>
      <trkpt lat="48.18864" lon="-0.70312">
        <ele>100.1</ele>
        <time>2011-09-10T12:14:13Z</time>
      </trkpt>
      <trkpt lat="48.18856" lon="-0.70311">
        <ele>99.8</ele>
        <time>2011-09-10T12:14:21Z</time>
      </trkpt>
      <trkpt lat="48.18847" lon="-0.70311">
        <ele>98.8</ele>
        <time>2011-09-10T12:14:29Z</time>
      </trkpt>
      <trkpt lat="48.18839" lon="-0.70311">
        <ele>99.8</ele>
        <time>2011-09-10T12:14:44Z</time>
      </trkpt>
      <trkpt lat="48.18831" lon="-0.70309">
        <ele>100.5</ele>
        <time>2011-09-10T12:14:50Z</time>
      </trkpt>
      <trkpt lat="48.1883" lon="-0.70309">
        <ele>100.5</ele>
        <time>2011-09-10T12:14:51Z</time>
      </trkpt>
      <trkpt lat="48.18815" lon="-0.70307">
        <ele>100.4</ele>
        <time>2011-09-10T12:15:02Z</time>
      </trkpt>
      <trkpt lat="48.18806" lon="-0.70309">
        <ele>100.1</ele>
        <time>2011-09-10T12:15:08Z</time>
      </trkpt>
      <trkpt lat="48.188" lon="-0.70317">
        <ele>100.9</ele>
        <time>2011-09-10T12:15:14Z</time>
      </trkpt>
      <trkpt lat="48.18796" lon="-0.70327">
        <ele>100.3</ele>
        <time>2011-09-10T12:15:20Z</time>
      </trkpt>
      <trkpt lat="48.18794" lon="-0.70339">
        <ele>99.1</ele>
        <time>2011-09-10T12:15:26Z</time>
      </trkpt>
      <trkpt lat="48.18791" lon="-0.70351">
        <ele>99</ele>
        <time>2011-09-10T12:15:33Z</time>
      </trkpt>
      <trkpt lat="48.18788" lon="-0.70363">
        <ele>98.9</ele>
        <time>2011-09-10T12:15:43Z</time>
      </trkpt>
      <trkpt lat="48.18787" lon="-0.70375">
        <ele>98.1</ele>
        <time>2011-09-10T12:15:49Z</time>
      </trkpt>
      <trkpt lat="48.18786" lon="-0.70388">
        <ele>97.5</ele>
        <time>2011-09-10T12:15:57Z</time>
      </trkpt>
      <trkpt lat="48.18786" lon="-0.7039">
        <ele>97.8</ele>
        <time>2011-09-10T12:15:58Z</time>
      </trkpt>
      <trkpt lat="48.18786" lon="-0.70413">
        <ele>98.6</ele>
        <time>2011-09-10T12:16:21Z</time>
      </trkpt>
      <trkpt lat="48.18783" lon="-0.70426">
        <ele>99</ele>
        <time>2011-09-10T12:16:28Z</time>
      </trkpt>
      <trkpt lat="48.18781" lon="-0.70439">
        <ele>99</ele>
        <time>2011-09-10T12:16:34Z</time>
      </trkpt>
      <trkpt lat="48.18779" lon="-0.70452">
        <ele>99.4</ele>
        <time>2011-09-10T12:16:40Z</time>
      </trkpt>
      <trkpt lat="48.18779" lon="-0.70465">
        <ele>99.6</ele>
        <time>2011-09-10T12:16:46Z</time>
      </trkpt>
      <trkpt lat="48.18777" lon="-0.70476">
        <ele>100</ele>
        <time>2011-09-10T12:16:52Z</time>
      </trkpt>
      <trkpt lat="48.18775" lon="-0.70488">
        <ele>100</ele>
        <time>2011-09-10T12:16:57Z</time>
      </trkpt>
      <trkpt lat="48.18773" lon="-0.70499">
        <ele>100.6</ele>
        <time>2011-09-10T12:17:02Z</time>
      </trkpt>
      <trkpt lat="48.18773" lon="-0.70502">
        <ele>100.9</ele>
        <time>2011-09-10T12:17:03Z</time>
      </trkpt>
      <trkpt lat="48.18769" lon="-0.70523">
        <ele>101.9</ele>
        <time>2011-09-10T12:17:12Z</time>
      </trkpt>
      <trkpt lat="48.18766" lon="-0.70533">
        <ele>101.5</ele>
        <time>2011-09-10T12:17:17Z</time>
      </trkpt>
      <trkpt lat="48.18764" lon="-0.70545">
        <ele>101.9</ele>
        <time>2011-09-10T12:17:22Z</time>
      </trkpt>
      <trkpt lat="48.18761" lon="-0.70556">
        <ele>102.6</ele>
        <time>2011-09-10T12:17:27Z</time>
      </trkpt>
      <trkpt lat="48.18758" lon="-0.70568">
        <ele>103.4</ele>
        <time>2011-09-10T12:17:33Z</time>
      </trkpt>
      <trkpt lat="48.18755" lon="-0.7058">
        <ele>104.5</ele>
        <time>2011-09-10T12:17:40Z</time>
      </trkpt>
      <trkpt lat="48.1875" lon="-0.70589">
        <ele>104.8</ele>
        <time>2011-09-10T12:17:46Z</time>
      </trkpt>
      <trkpt lat="48.18746" lon="-0.70601">
        <ele>105.1</ele>
        <time>2011-09-10T12:17:53Z</time>
      </trkpt>
      <trkpt lat="48.18742" lon="-0.70611">
        <ele>106</ele>
        <time>2011-09-10T12:18:00Z</time>
      </trkpt>
      <trkpt lat="48.18739" lon="-0.70622">
        <ele>106.1</ele>
        <time>2011-09-10T12:18:06Z</time>
      </trkpt>
      <trkpt lat="48.18739" lon="-0.70624">
        <ele>106.3</ele>
        <time>2011-09-10T12:18:07Z</time>
      </trkpt>
      <trkpt lat="48.18733" lon="-0.70644">
        <ele>105.5</ele>
        <time>2011-09-10T12:18:18Z</time>
      </trkpt>
      <trkpt lat="48.1873" lon="-0.70656">
        <ele>105.5</ele>
        <time>2011-09-10T12:18:25Z</time>
      </trkpt>
      <trkpt lat="48.18728" lon="-0.70668">
        <ele>106.4</ele>
        <time>2011-09-10T12:18:32Z</time>
      </trkpt>
      <trkpt lat="48.18725" lon="-0.7068">
        <ele>106.3</ele>
        <time>2011-09-10T12:18:39Z</time>
      </trkpt>
      <trkpt lat="48.18721" lon="-0.70692">
        <ele>107</ele>
        <time>2011-09-10T12:18:46Z</time>
      </trkpt>
      <trkpt lat="48.18717" lon="-0.70704">
        <ele>107.4</ele>
        <time>2011-09-10T12:18:53Z</time>
      </trkpt>
      <trkpt lat="48.18715" lon="-0.70715">
        <ele>107.6</ele>
        <time>2011-09-10T12:18:59Z</time>
      </trkpt>
      <trkpt lat="48.18711" lon="-0.70727">
        <ele>108.5</ele>
        <time>2011-09-10T12:19:07Z</time>
      </trkpt>
      <trkpt lat="48.1871" lon="-0.70729">
        <ele>108.5</ele>
        <time>2011-09-10T12:19:08Z</time>
      </trkpt>
      <trkpt lat="48.18705" lon="-0.7075">
        <ele>109</ele>
        <time>2011-09-10T12:19:20Z</time>
      </trkpt>
      <trkpt lat="48.18702" lon="-0.70763">
        <ele>108.5</ele>
        <time>2011-09-10T12:19:27Z</time>
      </trkpt>
      <trkpt lat="48.18699" lon="-0.70774">
        <ele>108.5</ele>
        <time>2011-09-10T12:19:33Z</time>
      </trkpt>
      <trkpt lat="48.18695" lon="-0.70786">
        <ele>109</ele>
        <time>2011-09-10T12:19:43Z</time>
      </trkpt>
      <trkpt lat="48.18692" lon="-0.70797">
        <ele>108.6</ele>
        <time>2011-09-10T12:19:49Z</time>
      </trkpt>
      <trkpt lat="48.18689" lon="-0.7081">
        <ele>108.1</ele>
        <time>2011-09-10T12:19:56Z</time>
      </trkpt>
      <trkpt lat="48.18685" lon="-0.70821">
        <ele>107.1</ele>
        <time>2011-09-10T12:20:02Z</time>
      </trkpt>
      <trkpt lat="48.18683" lon="-0.70832">
        <ele>106.5</ele>
        <time>2011-09-10T12:20:08Z</time>
      </trkpt>
      <trkpt lat="48.18683" lon="-0.70834">
        <ele>106.6</ele>
        <time>2011-09-10T12:20:09Z</time>
      </trkpt>
      <trkpt lat="48.18676" lon="-0.70855">
        <ele>106.4</ele>
        <time>2011-09-10T12:20:21Z</time>
      </trkpt>
      <trkpt lat="48.18674" lon="-0.70866">
        <ele>106.1</ele>
        <time>2011-09-10T12:20:27Z</time>
      </trkpt>
      <trkpt lat="48.1867" lon="-0.70878">
        <ele>105.8</ele>
        <time>2011-09-10T12:20:33Z</time>
      </trkpt>
      <trkpt lat="48.18667" lon="-0.70891">
        <ele>105.5</ele>
        <time>2011-09-10T12:20:40Z</time>
      </trkpt>
      <trkpt lat="48.18663" lon="-0.70902">
        <ele>104.4</ele>
        <time>2011-09-10T12:20:47Z</time>
      </trkpt>
      <trkpt lat="48.1866" lon="-0.70913">
        <ele>103.5</ele>
        <time>2011-09-10T12:20:53Z</time>
      </trkpt>
      <trkpt lat="48.18656" lon="-0.70924">
        <ele>103.6</ele>
        <time>2011-09-10T12:20:59Z</time>
      </trkpt>
      <trkpt lat="48.18653" lon="-0.70935">
        <ele>102.8</ele>
        <time>2011-09-10T12:21:06Z</time>
      </trkpt>
      <trkpt lat="48.18648" lon="-0.70947">
        <ele>103.8</ele>
        <time>2011-09-10T12:21:13Z</time>
      </trkpt>
      <trkpt lat="48.18647" lon="-0.70948">
        <ele>103.6</ele>
        <time>2011-09-10T12:21:14Z</time>
      </trkpt>
      <trkpt lat="48.18638" lon="-0.70966">
        <ele>103.8</ele>
        <time>2011-09-10T12:21:26Z</time>
      </trkpt>
      <trkpt lat="48.18631" lon="-0.70974">
        <ele>103.5</ele>
        <time>2011-09-10T12:21:35Z</time>
      </trkpt>
      <trkpt lat="48.18626" lon="-0.70984">
        <ele>103.8</ele>
        <time>2011-09-10T12:21:41Z</time>
      </trkpt>
      <trkpt lat="48.18621" lon="-0.70993">
        <ele>104.4</ele>
        <time>2011-09-10T12:21:47Z</time>
      </trkpt>
      <trkpt lat="48.18616" lon="-0.71003">
        <ele>104.9</ele>
        <time>2011-09-10T12:21:53Z</time>
      </trkpt>
      <trkpt lat="48.18611" lon="-0.71012">
        <ele>105</ele>
        <time>2011-09-10T12:21:59Z</time>
      </trkpt>
      <trkpt lat="48.18607" lon="-0.71023">
        <ele>104.6</ele>
        <time>2011-09-10T12:22:06Z</time>
      </trkpt>
      <trkpt lat="48.18602" lon="-0.71034">
        <ele>104.3</ele>
        <time>2011-09-10T12:22:13Z</time>
      </trkpt>
      <trkpt lat="48.18598" lon="-0.71045">
        <ele>104.3</ele>
        <time>2011-09-10T12:22:20Z</time>
      </trkpt>
      <trkpt lat="48.18598" lon="-0.71047">
        <ele>104.3</ele>
        <time>2011-09-10T12:22:21Z</time>
      </trkpt>
      <trkpt lat="48.1859" lon="-0.71069">
        <ele>104</ele>
        <time>2011-09-10T12:22:39Z</time>
      </trkpt>
      <trkpt lat="48.18588" lon="-0.71081">
        <ele>103.8</ele>
        <time>2011-09-10T12:22:45Z</time>
      </trkpt>
      <trkpt lat="48.18585" lon="-0.71093">
        <ele>103</ele>
        <time>2011-09-10T12:22:51Z</time>
      </trkpt>
      <trkpt lat="48.18581" lon="-0.71104">
        <ele>102.8</ele>
        <time>2011-09-10T12:22:58Z</time>
      </trkpt>
      <trkpt lat="48.18579" lon="-0.71115">
        <ele>102.9</ele>
        <time>2011-09-10T12:23:04Z</time>
      </trkpt>
      <trkpt lat="48.18575" lon="-0.71127">
        <ele>104</ele>
        <time>2011-09-10T12:23:11Z</time>
      </trkpt>
      <trkpt lat="48.18573" lon="-0.71139">
        <ele>104.6</ele>
        <time>2011-09-10T12:23:17Z</time>
      </trkpt>
      <trkpt lat="48.1857" lon="-0.7115">
        <ele>105.1</ele>
        <time>2011-09-10T12:23:23Z</time>
      </trkpt>
      <trkpt lat="48.18569" lon="-0.71152">
        <ele>104.9</ele>
        <time>2011-09-10T12:23:24Z</time>
      </trkpt>
      <trkpt lat="48.18564" lon="-0.71175">
        <ele>105.5</ele>
        <time>2011-09-10T12:23:36Z</time>
      </trkpt>
      <trkpt lat="48.18563" lon="-0.71186">
        <ele>105.6</ele>
        <time>2011-09-10T12:23:42Z</time>
      </trkpt>
      <trkpt lat="48.18562" lon="-0.71199">
        <ele>106.3</ele>
        <time>2011-09-10T12:23:49Z</time>
      </trkpt>
      <trkpt lat="48.18562" lon="-0.71211">
        <ele>106.4</ele>
        <time>2011-09-10T12:23:55Z</time>
      </trkpt>
      <trkpt lat="48.18563" lon="-0.71222">
        <ele>106.6</ele>
        <time>2011-09-10T12:24:01Z</time>
      </trkpt>
      <trkpt lat="48.18563" lon="-0.71235">
        <ele>107.5</ele>
        <time>2011-09-10T12:24:09Z</time>
      </trkpt>
      <trkpt lat="48.18561" lon="-0.71247">
        <ele>109</ele>
        <time>2011-09-10T12:24:16Z</time>
      </trkpt>
      <trkpt lat="48.18562" lon="-0.71259">
        <ele>109.5</ele>
        <time>2011-09-10T12:24:22Z</time>
      </trkpt>
      <trkpt lat="48.18562" lon="-0.71272">
        <ele>111</ele>
        <time>2011-09-10T12:24:29Z</time>
      </trkpt>
      <trkpt lat="48.18563" lon="-0.71273">
        <ele>111.3</ele>
        <time>2011-09-10T12:24:30Z</time>
      </trkpt>
      <trkpt lat="48.18568" lon="-0.71296">
        <ele>113.4</ele>
        <time>2011-09-10T12:24:43Z</time>
      </trkpt>
      <trkpt lat="48.18572" lon="-0.71306">
        <ele>114</ele>
        <time>2011-09-10T12:24:49Z</time>
      </trkpt>
      <trkpt lat="48.18578" lon="-0.71316">
        <ele>114.5</ele>
        <time>2011-09-10T12:24:59Z</time>
      </trkpt>
      <trkpt lat="48.18577" lon="-0.71328">
        <ele>116.1</ele>
        <time>2011-09-10T12:25:11Z</time>
      </trkpt>
      <trkpt lat="48.18571" lon="-0.71336">
        <ele>116.5</ele>
        <time>2011-09-10T12:25:19Z</time>
      </trkpt>
      <trkpt lat="48.18566" lon="-0.71345">
        <ele>116.8</ele>
        <time>2011-09-10T12:25:30Z</time>
      </trkpt>
      <trkpt lat="48.18565" lon="-0.71346">
        <ele>116.5</ele>
        <time>2011-09-10T12:25:31Z</time>
      </trkpt>
      <trkpt lat="48.18554" lon="-0.71356">
        <ele>116.5</ele>
        <time>2011-09-10T12:25:41Z</time>
      </trkpt>
      <trkpt lat="48.18547" lon="-0.71358">
        <ele>116.5</ele>
        <time>2011-09-10T12:25:44Z</time>
      </trkpt>
      <trkpt lat="48.18538" lon="-0.71357">
        <ele>117.4</ele>
        <time>2011-09-10T12:25:48Z</time>
      </trkpt>
      <trkpt lat="48.1853" lon="-0.71355">
        <ele>117.8</ele>
        <time>2011-09-10T12:25:51Z</time>
      </trkpt>
      <trkpt lat="48.18522" lon="-0.71355">
        <ele>118</ele>
        <time>2011-09-10T12:25:57Z</time>
      </trkpt>
      <trkpt lat="48.18515" lon="-0.71347">
        <ele>119.5</ele>
        <time>2011-09-10T12:26:44Z</time>
      </trkpt>
      <trkpt lat="48.18514" lon="-0.71346">
        <ele>119.4</ele>
        <time>2011-09-10T12:26:45Z</time>
      </trkpt>
      <trkpt lat="48.18524" lon="-0.71339">
        <ele>121.1</ele>
        <time>2011-09-10T12:27:46Z</time>
      </trkpt>
      <trkpt lat="48.18515" lon="-0.71338">
        <ele>125.5</ele>
        <time>2011-09-10T12:32:32Z</time>
      </trkpt>
      <trkpt lat="48.18508" lon="-0.71361">
        <ele>127.5</ele>
        <time>2011-09-10T12:33:24Z</time>
      </trkpt>
      <trkpt lat="48.18501" lon="-0.71368">
        <ele>127</ele>
        <time>2011-09-10T12:33:33Z</time>
      </trkpt>
      <trkpt lat="48.18499" lon="-0.71369">
        <ele>126.9</ele>
        <time>2011-09-10T12:33:34Z</time>
      </trkpt>
      <trkpt lat="48.18491" lon="-0.71387">
        <ele>126.4</ele>
        <time>2011-09-10T12:33:49Z</time>
      </trkpt>
      <trkpt lat="48.18483" lon="-0.71392">
        <ele>131.1</ele>
        <time>2011-09-10T12:33:56Z</time>
      </trkpt>
      <trkpt lat="48.18476" lon="-0.71396">
        <ele>133.1</ele>
        <time>2011-09-10T12:34:02Z</time>
      </trkpt>
      <trkpt lat="48.18468" lon="-0.714">
        <ele>132.5</ele>
        <time>2011-09-10T12:34:07Z</time>
      </trkpt>
      <trkpt lat="48.18461" lon="-0.71405">
        <ele>130.6</ele>
        <time>2011-09-10T12:34:13Z</time>
      </trkpt>
      <trkpt lat="48.18455" lon="-0.71413">
        <ele>128.1</ele>
        <time>2011-09-10T12:34:20Z</time>
      </trkpt>
      <trkpt lat="48.1845" lon="-0.71423">
        <ele>124.3</ele>
        <time>2011-09-10T12:34:27Z</time>
      </trkpt>
      <trkpt lat="48.18446" lon="-0.71433">
        <ele>120.8</ele>
        <time>2011-09-10T12:34:34Z</time>
      </trkpt>
      <trkpt lat="48.18445" lon="-0.71435">
        <ele>120.4</ele>
        <time>2011-09-10T12:34:35Z</time>
      </trkpt>
      <trkpt lat="48.18437" lon="-0.71455">
        <ele>117.9</ele>
        <time>2011-09-10T12:34:48Z</time>
      </trkpt>
      <trkpt lat="48.18432" lon="-0.71463">
        <ele>117</ele>
        <time>2011-09-10T12:34:54Z</time>
      </trkpt>
      <trkpt lat="48.18426" lon="-0.71473">
        <ele>117.4</ele>
        <time>2011-09-10T12:35:01Z</time>
      </trkpt>
      <trkpt lat="48.1842" lon="-0.71482">
        <ele>117.5</ele>
        <time>2011-09-10T12:35:10Z</time>
      </trkpt>
      <trkpt lat="48.18414" lon="-0.71489">
        <ele>117.1</ele>
        <time>2011-09-10T12:35:15Z</time>
      </trkpt>
      <trkpt lat="48.18408" lon="-0.71496">
        <ele>115.1</ele>
        <time>2011-09-10T12:35:20Z</time>
      </trkpt>
      <trkpt lat="48.18403" lon="-0.71504">
        <ele>113</ele>
        <time>2011-09-10T12:35:25Z</time>
      </trkpt>
      <trkpt lat="48.18396" lon="-0.71511">
        <ele>110.8</ele>
        <time>2011-09-10T12:35:31Z</time>
      </trkpt>
      <trkpt lat="48.18389" lon="-0.7152">
        <ele>109</ele>
        <time>2011-09-10T12:35:38Z</time>
      </trkpt>
      <trkpt lat="48.18388" lon="-0.71521">
        <ele>109</ele>
        <time>2011-09-10T12:35:39Z</time>
      </trkpt>
      <trkpt lat="48.18378" lon="-0.71536">
        <ele>107.5</ele>
        <time>2011-09-10T12:35:54Z</time>
      </trkpt>
      <trkpt lat="48.1837" lon="-0.71541">
        <ele>106.4</ele>
        <time>2011-09-10T12:36:01Z</time>
      </trkpt>
      <trkpt lat="48.18362" lon="-0.71541">
        <ele>105.8</ele>
        <time>2011-09-10T12:36:08Z</time>
      </trkpt>
      <trkpt lat="48.18353" lon="-0.71539">
        <ele>105.5</ele>
        <time>2011-09-10T12:36:15Z</time>
      </trkpt>
      <trkpt lat="48.18345" lon="-0.71536">
        <ele>105.9</ele>
        <time>2011-09-10T12:36:25Z</time>
      </trkpt>
      <trkpt lat="48.18338" lon="-0.71531">
        <ele>106.5</ele>
        <time>2011-09-10T12:36:32Z</time>
      </trkpt>
      <trkpt lat="48.18331" lon="-0.71524">
        <ele>106.9</ele>
        <time>2011-09-10T12:36:39Z</time>
      </trkpt>
      <trkpt lat="48.1833" lon="-0.71524">
        <ele>107</ele>
        <time>2011-09-10T12:36:40Z</time>
      </trkpt>
      <trkpt lat="48.18316" lon="-0.71516">
        <ele>107.4</ele>
        <time>2011-09-10T12:36:53Z</time>
      </trkpt>
      <trkpt lat="48.18309" lon="-0.7151">
        <ele>107.3</ele>
        <time>2011-09-10T12:37:00Z</time>
      </trkpt>
      <trkpt lat="48.183" lon="-0.71507">
        <ele>107.3</ele>
        <time>2011-09-10T12:37:08Z</time>
      </trkpt>
      <trkpt lat="48.18292" lon="-0.71506">
        <ele>106.3</ele>
        <time>2011-09-10T12:37:14Z</time>
      </trkpt>
      <trkpt lat="48.18284" lon="-0.71506">
        <ele>105.3</ele>
        <time>2011-09-10T12:37:20Z</time>
      </trkpt>
      <trkpt lat="48.18276" lon="-0.71509">
        <ele>104</ele>
        <time>2011-09-10T12:37:26Z</time>
      </trkpt>
      <trkpt lat="48.18268" lon="-0.71511">
        <ele>103.1</ele>
        <time>2011-09-10T12:37:32Z</time>
      </trkpt>
      <trkpt lat="48.1826" lon="-0.71512">
        <ele>103.5</ele>
        <time>2011-09-10T12:37:41Z</time>
      </trkpt>
      <trkpt lat="48.18258" lon="-0.71513">
        <ele>103.4</ele>
        <time>2011-09-10T12:37:42Z</time>
      </trkpt>
      <trkpt lat="48.18245" lon="-0.71526">
        <ele>101.3</ele>
        <time>2011-09-10T12:37:55Z</time>
      </trkpt>
      <trkpt lat="48.18238" lon="-0.7153">
        <ele>100.8</ele>
        <time>2011-09-10T12:38:01Z</time>
      </trkpt>
      <trkpt lat="48.1823" lon="-0.71536">
        <ele>101.1</ele>
        <time>2011-09-10T12:38:08Z</time>
      </trkpt>
      <trkpt lat="48.18222" lon="-0.7154">
        <ele>100.8</ele>
        <time>2011-09-10T12:38:14Z</time>
      </trkpt>
      <trkpt lat="48.18215" lon="-0.71543">
        <ele>100.5</ele>
        <time>2011-09-10T12:38:21Z</time>
      </trkpt>
      <trkpt lat="48.18207" lon="-0.71546">
        <ele>100.6</ele>
        <time>2011-09-10T12:38:27Z</time>
      </trkpt>
      <trkpt lat="48.18198" lon="-0.71547">
        <ele>100</ele>
        <time>2011-09-10T12:38:33Z</time>
      </trkpt>
      <trkpt lat="48.1819" lon="-0.71547">
        <ele>100.4</ele>
        <time>2011-09-10T12:38:39Z</time>
      </trkpt>
      <trkpt lat="48.18182" lon="-0.71548">
        <ele>100.1</ele>
        <time>2011-09-10T12:38:47Z</time>
      </trkpt>
      <trkpt lat="48.18181" lon="-0.71548">
        <ele>99.9</ele>
        <time>2011-09-10T12:38:48Z</time>
      </trkpt>
      <trkpt lat="48.18166" lon="-0.7154">
        <ele>100.1</ele>
        <time>2011-09-10T12:39:04Z</time>
      </trkpt>
      <trkpt lat="48.18158" lon="-0.71536">
        <ele>99.1</ele>
        <time>2011-09-10T12:39:10Z</time>
      </trkpt>
      <trkpt lat="48.18151" lon="-0.71531">
        <ele>99.4</ele>
        <time>2011-09-10T12:39:16Z</time>
      </trkpt>
      <trkpt lat="48.18143" lon="-0.71525">
        <ele>99.3</ele>
        <time>2011-09-10T12:39:22Z</time>
      </trkpt>
      <trkpt lat="48.18136" lon="-0.7152">
        <ele>98.5</ele>
        <time>2011-09-10T12:39:30Z</time>
      </trkpt>
      <trkpt lat="48.18129" lon="-0.71513">
        <ele>98.5</ele>
        <time>2011-09-10T12:39:37Z</time>
      </trkpt>
      <trkpt lat="48.18123" lon="-0.71506">
        <ele>99.1</ele>
        <time>2011-09-10T12:39:44Z</time>
      </trkpt>
      <trkpt lat="48.18116" lon="-0.71499">
        <ele>98.5</ele>
        <time>2011-09-10T12:39:51Z</time>
      </trkpt>
      <trkpt lat="48.18115" lon="-0.71498">
        <ele>98.5</ele>
        <time>2011-09-10T12:39:52Z</time>
      </trkpt>
      <trkpt lat="48.18102" lon="-0.71484">
        <ele>99.4</ele>
        <time>2011-09-10T12:40:07Z</time>
      </trkpt>
      <trkpt lat="48.18095" lon="-0.71479">
        <ele>100.3</ele>
        <time>2011-09-10T12:40:17Z</time>
      </trkpt>
      <trkpt lat="48.18087" lon="-0.71471">
        <ele>100.6</ele>
        <time>2011-09-10T12:40:27Z</time>
      </trkpt>
      <trkpt lat="48.18081" lon="-0.71467">
        <ele>99.9</ele>
        <time>2011-09-10T12:40:32Z</time>
      </trkpt>
      <trkpt lat="48.18073" lon="-0.71462">
        <ele>99.9</ele>
        <time>2011-09-10T12:40:37Z</time>
      </trkpt>
      <trkpt lat="48.18065" lon="-0.71457">
        <ele>101.8</ele>
        <time>2011-09-10T12:40:45Z</time>
      </trkpt>
      <trkpt lat="48.18057" lon="-0.71453">
        <ele>102.4</ele>
        <time>2011-09-10T12:40:54Z</time>
      </trkpt>
      <trkpt lat="48.18056" lon="-0.71452">
        <ele>102.5</ele>
        <time>2011-09-10T12:40:55Z</time>
      </trkpt>
      <trkpt lat="48.18043" lon="-0.71439">
        <ele>102.4</ele>
        <time>2011-09-10T12:41:10Z</time>
      </trkpt>
      <trkpt lat="48.18036" lon="-0.71431">
        <ele>104.6</ele>
        <time>2011-09-10T12:41:23Z</time>
      </trkpt>
      <trkpt lat="48.18031" lon="-0.71421">
        <ele>105</ele>
        <time>2011-09-10T12:41:31Z</time>
      </trkpt>
      <trkpt lat="48.18024" lon="-0.71414">
        <ele>104.5</ele>
        <time>2011-09-10T12:41:37Z</time>
      </trkpt>
      <trkpt lat="48.18016" lon="-0.71408">
        <ele>103.9</ele>
        <time>2011-09-10T12:41:43Z</time>
      </trkpt>
      <trkpt lat="48.18009" lon="-0.71403">
        <ele>103.5</ele>
        <time>2011-09-10T12:41:49Z</time>
      </trkpt>
      <trkpt lat="48.18001" lon="-0.71399">
        <ele>102.5</ele>
        <time>2011-09-10T12:41:56Z</time>
      </trkpt>
      <trkpt lat="48.17999" lon="-0.71399">
        <ele>101.5</ele>
        <time>2011-09-10T12:41:57Z</time>
      </trkpt>
      <trkpt lat="48.17985" lon="-0.71392">
        <ele>101.8</ele>
        <time>2011-09-10T12:42:07Z</time>
      </trkpt>
      <trkpt lat="48.17977" lon="-0.71388">
        <ele>102.1</ele>
        <time>2011-09-10T12:42:16Z</time>
      </trkpt>
      <trkpt lat="48.17968" lon="-0.71386">
        <ele>100.4</ele>
        <time>2011-09-10T12:42:22Z</time>
      </trkpt>
      <trkpt lat="48.17959" lon="-0.71384">
        <ele>100.6</ele>
        <time>2011-09-10T12:42:33Z</time>
      </trkpt>
      <trkpt lat="48.17952" lon="-0.71381">
        <ele>99.6</ele>
        <time>2011-09-10T12:42:40Z</time>
      </trkpt>
      <trkpt lat="48.17943" lon="-0.71378">
        <ele>99.6</ele>
        <time>2011-09-10T12:42:48Z</time>
      </trkpt>
      <trkpt lat="48.17935" lon="-0.71376">
        <ele>100</ele>
        <time>2011-09-10T12:42:53Z</time>
      </trkpt>
      <trkpt lat="48.17928" lon="-0.71375">
        <ele>99.8</ele>
        <time>2011-09-10T12:42:58Z</time>
      </trkpt>
      <trkpt lat="48.17926" lon="-0.71375">
        <ele>99.6</ele>
        <time>2011-09-10T12:42:59Z</time>
      </trkpt>
      <trkpt lat="48.17912" lon="-0.71373">
        <ele>102</ele>
        <time>2011-09-10T12:43:18Z</time>
      </trkpt>
      <trkpt lat="48.17903" lon="-0.71373">
        <ele>101.8</ele>
        <time>2011-09-10T12:43:28Z</time>
      </trkpt>
      <trkpt lat="48.17895" lon="-0.71374">
        <ele>103.1</ele>
        <time>2011-09-10T12:43:42Z</time>
      </trkpt>
      <trkpt lat="48.17886" lon="-0.71376">
        <ele>102.6</ele>
        <time>2011-09-10T12:43:50Z</time>
      </trkpt>
      <trkpt lat="48.17878" lon="-0.71376">
        <ele>101.6</ele>
        <time>2011-09-10T12:44:02Z</time>
      </trkpt>
      <trkpt lat="48.17876" lon="-0.71377">
        <ele>101.3</ele>
        <time>2011-09-10T12:44:03Z</time>
      </trkpt>
      <trkpt lat="48.17861" lon="-0.71376">
        <ele>101.5</ele>
        <time>2011-09-10T12:44:21Z</time>
      </trkpt>
      <trkpt lat="48.17854" lon="-0.71374">
        <ele>101.6</ele>
        <time>2011-09-10T12:44:25Z</time>
      </trkpt>
      <trkpt lat="48.17846" lon="-0.71371">
        <ele>101.5</ele>
        <time>2011-09-10T12:44:32Z</time>
      </trkpt>
      <trkpt lat="48.17838" lon="-0.71367">
        <ele>103</ele>
        <time>2011-09-10T12:44:42Z</time>
      </trkpt>
      <trkpt lat="48.1783" lon="-0.71362">
        <ele>108.5</ele>
        <time>2011-09-10T12:44:52Z</time>
      </trkpt>
      <trkpt lat="48.17822" lon="-0.71356">
        <ele>111.1</ele>
        <time>2011-09-10T12:44:57Z</time>
      </trkpt>
      <trkpt lat="48.17815" lon="-0.71351">
        <ele>111.1</ele>
        <time>2011-09-10T12:45:02Z</time>
      </trkpt>
      <trkpt lat="48.17808" lon="-0.71346">
        <ele>110.5</ele>
        <time>2011-09-10T12:45:06Z</time>
      </trkpt>
      <trkpt lat="48.17806" lon="-0.71345">
        <ele>110.5</ele>
        <time>2011-09-10T12:45:07Z</time>
      </trkpt>
      <trkpt lat="48.17793" lon="-0.7134">
        <ele>106.3</ele>
        <time>2011-09-10T12:45:15Z</time>
      </trkpt>
      <trkpt lat="48.17785" lon="-0.71336">
        <ele>104.4</ele>
        <time>2011-09-10T12:45:23Z</time>
      </trkpt>
      <trkpt lat="48.17777" lon="-0.71333">
        <ele>103.1</ele>
        <time>2011-09-10T12:45:28Z</time>
      </trkpt>
      <trkpt lat="48.17769" lon="-0.71329">
        <ele>102.5</ele>
        <time>2011-09-10T12:45:35Z</time>
      </trkpt>
      <trkpt lat="48.17761" lon="-0.71324">
        <ele>102</ele>
        <time>2011-09-10T12:45:43Z</time>
      </trkpt>
      <trkpt lat="48.17753" lon="-0.71321">
        <ele>102.5</ele>
        <time>2011-09-10T12:45:48Z</time>
      </trkpt>
      <trkpt lat="48.17744" lon="-0.71319">
        <ele>102.8</ele>
        <time>2011-09-10T12:45:54Z</time>
      </trkpt>
      <trkpt lat="48.17736" lon="-0.71318">
        <ele>101</ele>
        <time>2011-09-10T12:45:59Z</time>
      </trkpt>
      <trkpt lat="48.17727" lon="-0.71317">
        <ele>100.9</ele>
        <time>2011-09-10T12:46:05Z</time>
      </trkpt>
      <trkpt lat="48.17719" lon="-0.71315">
        <ele>100.5</ele>
        <time>2011-09-10T12:48:11Z</time>
      </trkpt>
      <trkpt lat="48.17718" lon="-0.71315">
        <ele>100.4</ele>
        <time>2011-09-10T12:48:12Z</time>
      </trkpt>
      <trkpt lat="48.17703" lon="-0.7131">
        <ele>100.5</ele>
        <time>2011-09-10T12:48:49Z</time>
      </trkpt>
      <trkpt lat="48.17694" lon="-0.71308">
        <ele>100.1</ele>
        <time>2011-09-10T12:48:55Z</time>
      </trkpt>
      <trkpt lat="48.17686" lon="-0.71307">
        <ele>99.6</ele>
        <time>2011-09-10T12:49:02Z</time>
      </trkpt>
      <trkpt lat="48.17678" lon="-0.71306">
        <ele>98</ele>
        <time>2011-09-10T12:49:08Z</time>
      </trkpt>
      <trkpt lat="48.17671" lon="-0.71303">
        <ele>97</ele>
        <time>2011-09-10T12:49:14Z</time>
      </trkpt>
      <trkpt lat="48.17669" lon="-0.71303">
        <ele>96.6</ele>
        <time>2011-09-10T12:49:15Z</time>
      </trkpt>
      <trkpt lat="48.17655" lon="-0.71297">
        <ele>95.9</ele>
        <time>2011-09-10T12:49:27Z</time>
      </trkpt>
      <trkpt lat="48.17646" lon="-0.71294">
        <ele>96</ele>
        <time>2011-09-10T12:49:34Z</time>
      </trkpt>
      <trkpt lat="48.17638" lon="-0.71293">
        <ele>96.4</ele>
        <time>2011-09-10T12:49:41Z</time>
      </trkpt>
      <trkpt lat="48.17629" lon="-0.71291">
        <ele>95.6</ele>
        <time>2011-09-10T12:49:48Z</time>
      </trkpt>
      <trkpt lat="48.17622" lon="-0.71288">
        <ele>96.3</ele>
        <time>2011-09-10T12:49:54Z</time>
      </trkpt>
      <trkpt lat="48.17613" lon="-0.71284">
        <ele>96.4</ele>
        <time>2011-09-10T12:50:01Z</time>
      </trkpt>
      <trkpt lat="48.17606" lon="-0.7128">
        <ele>95.9</ele>
        <time>2011-09-10T12:50:07Z</time>
      </trkpt>
      <trkpt lat="48.17598" lon="-0.71277">
        <ele>94.4</ele>
        <time>2011-09-10T12:50:13Z</time>
      </trkpt>
      <trkpt lat="48.1759" lon="-0.71274">
        <ele>94.6</ele>
        <time>2011-09-10T12:50:22Z</time>
      </trkpt>
      <trkpt lat="48.17589" lon="-0.71273">
        <ele>94.5</ele>
        <time>2011-09-10T12:50:23Z</time>
      </trkpt>
      <trkpt lat="48.17574" lon="-0.71265">
        <ele>92.9</ele>
        <time>2011-09-10T12:50:34Z</time>
      </trkpt>
      <trkpt lat="48.17567" lon="-0.7126">
        <ele>93.8</ele>
        <time>2011-09-10T12:50:40Z</time>
      </trkpt>
      <trkpt lat="48.17559" lon="-0.71255">
        <ele>94.4</ele>
        <time>2011-09-10T12:50:46Z</time>
      </trkpt>
      <trkpt lat="48.17551" lon="-0.7125">
        <ele>93.9</ele>
        <time>2011-09-10T12:50:53Z</time>
      </trkpt>
      <trkpt lat="48.17543" lon="-0.71248">
        <ele>93.3</ele>
        <time>2011-09-10T12:50:59Z</time>
      </trkpt>
      <trkpt lat="48.17536" lon="-0.71243">
        <ele>94.8</ele>
        <time>2011-09-10T12:51:05Z</time>
      </trkpt>
      <trkpt lat="48.17528" lon="-0.71238">
        <ele>95.9</ele>
        <time>2011-09-10T12:51:14Z</time>
      </trkpt>
      <trkpt lat="48.1752" lon="-0.71235">
        <ele>97.6</ele>
        <time>2011-09-10T12:51:21Z</time>
      </trkpt>
      <trkpt lat="48.17512" lon="-0.71231">
        <ele>97.8</ele>
        <time>2011-09-10T12:51:28Z</time>
      </trkpt>
      <trkpt lat="48.17511" lon="-0.71231">
        <ele>97.9</ele>
        <time>2011-09-10T12:51:29Z</time>
      </trkpt>
      <trkpt lat="48.17495" lon="-0.71222">
        <ele>100.8</ele>
        <time>2011-09-10T12:51:43Z</time>
      </trkpt>
      <trkpt lat="48.17488" lon="-0.71218">
        <ele>101.3</ele>
        <time>2011-09-10T12:51:49Z</time>
      </trkpt>
      <trkpt lat="48.1748" lon="-0.71213">
        <ele>101.5</ele>
        <time>2011-09-10T12:51:55Z</time>
      </trkpt>
      <trkpt lat="48.17472" lon="-0.71209">
        <ele>101.8</ele>
        <time>2011-09-10T12:52:01Z</time>
      </trkpt>
      <trkpt lat="48.17466" lon="-0.71203">
        <ele>102</ele>
        <time>2011-09-10T12:52:07Z</time>
      </trkpt>
      <trkpt lat="48.17461" lon="-0.71193">
        <ele>101.6</ele>
        <time>2011-09-10T12:52:17Z</time>
      </trkpt>
      <trkpt lat="48.17459" lon="-0.7118">
        <ele>103.6</ele>
        <time>2011-09-10T12:52:44Z</time>
      </trkpt>
      <trkpt lat="48.17459" lon="-0.71178">
        <ele>104</ele>
        <time>2011-09-10T12:52:45Z</time>
      </trkpt>
      <trkpt lat="48.17462" lon="-0.71156">
        <ele>106.1</ele>
        <time>2011-09-10T12:53:00Z</time>
      </trkpt>
      <trkpt lat="48.17464" lon="-0.71143">
        <ele>107</ele>
        <time>2011-09-10T12:53:08Z</time>
      </trkpt>
      <trkpt lat="48.17466" lon="-0.71131">
        <ele>107.3</ele>
        <time>2011-09-10T12:53:15Z</time>
      </trkpt>
      <trkpt lat="48.17467" lon="-0.71119">
        <ele>108.6</ele>
        <time>2011-09-10T12:53:22Z</time>
      </trkpt>
      <trkpt lat="48.17468" lon="-0.71106">
        <ele>109.4</ele>
        <time>2011-09-10T12:53:29Z</time>
      </trkpt>
      <trkpt lat="48.17469" lon="-0.71094">
        <ele>109</ele>
        <time>2011-09-10T12:53:35Z</time>
      </trkpt>
      <trkpt lat="48.17471" lon="-0.71081">
        <ele>109.1</ele>
        <time>2011-09-10T12:53:41Z</time>
      </trkpt>
      <trkpt lat="48.17472" lon="-0.71069">
        <ele>110.8</ele>
        <time>2011-09-10T12:53:48Z</time>
      </trkpt>
      <trkpt lat="48.17472" lon="-0.71067">
        <ele>110.6</ele>
        <time>2011-09-10T12:53:49Z</time>
      </trkpt>
      <trkpt lat="48.17475" lon="-0.71044">
        <ele>111.6</ele>
        <time>2011-09-10T12:54:01Z</time>
      </trkpt>
      <trkpt lat="48.17476" lon="-0.71033">
        <ele>112.1</ele>
        <time>2011-09-10T12:54:07Z</time>
      </trkpt>
      <trkpt lat="48.17479" lon="-0.71021">
        <ele>112.8</ele>
        <time>2011-09-10T12:54:13Z</time>
      </trkpt>
      <trkpt lat="48.17481" lon="-0.71008">
        <ele>114.1</ele>
        <time>2011-09-10T12:54:21Z</time>
      </trkpt>
      <trkpt lat="48.17484" lon="-0.70995">
        <ele>115.3</ele>
        <time>2011-09-10T12:54:28Z</time>
      </trkpt>
      <trkpt lat="48.17486" lon="-0.70984">
        <ele>115</ele>
        <time>2011-09-10T12:54:34Z</time>
      </trkpt>
      <trkpt lat="48.17489" lon="-0.70973">
        <ele>115.9</ele>
        <time>2011-09-10T12:54:40Z</time>
      </trkpt>
      <trkpt lat="48.1749" lon="-0.70961">
        <ele>116</ele>
        <time>2011-09-10T12:54:46Z</time>
      </trkpt>
      <trkpt lat="48.17493" lon="-0.70949">
        <ele>115.9</ele>
        <time>2011-09-10T12:54:53Z</time>
      </trkpt>
      <trkpt lat="48.17493" lon="-0.70947">
        <ele>115.8</ele>
        <time>2011-09-10T12:54:54Z</time>
      </trkpt>
      <trkpt lat="48.17497" lon="-0.70925">
        <ele>115.4</ele>
        <time>2011-09-10T12:55:06Z</time>
      </trkpt>
      <trkpt lat="48.175" lon="-0.70914">
        <ele>115</ele>
        <time>2011-09-10T12:55:12Z</time>
      </trkpt>
      <trkpt lat="48.17502" lon="-0.70902">
        <ele>115.4</ele>
        <time>2011-09-10T12:55:18Z</time>
      </trkpt>
      <trkpt lat="48.17505" lon="-0.7089">
        <ele>114.9</ele>
        <time>2011-09-10T12:55:25Z</time>
      </trkpt>
      <trkpt lat="48.17507" lon="-0.70879">
        <ele>115</ele>
        <time>2011-09-10T12:55:31Z</time>
      </trkpt>
      <trkpt lat="48.1751" lon="-0.70867">
        <ele>115.4</ele>
        <time>2011-09-10T12:55:38Z</time>
      </trkpt>
      <trkpt lat="48.17512" lon="-0.70855">
        <ele>116</ele>
        <time>2011-09-10T12:55:45Z</time>
      </trkpt>
      <trkpt lat="48.17514" lon="-0.70843">
        <ele>115.6</ele>
        <time>2011-09-10T12:55:52Z</time>
      </trkpt>
      <trkpt lat="48.17517" lon="-0.7083">
        <ele>116</ele>
        <time>2011-09-10T12:55:59Z</time>
      </trkpt>
      <trkpt lat="48.17517" lon="-0.70828">
        <ele>116</ele>
        <time>2011-09-10T12:56:00Z</time>
      </trkpt>
      <trkpt lat="48.17522" lon="-0.70807">
        <ele>115.4</ele>
        <time>2011-09-10T12:56:12Z</time>
      </trkpt>
      <trkpt lat="48.17524" lon="-0.70796">
        <ele>114.8</ele>
        <time>2011-09-10T12:56:18Z</time>
      </trkpt>
      <trkpt lat="48.17527" lon="-0.70784">
        <ele>114</ele>
        <time>2011-09-10T12:56:26Z</time>
      </trkpt>
      <trkpt lat="48.1753" lon="-0.70772">
        <ele>113</ele>
        <time>2011-09-10T12:56:51Z</time>
      </trkpt>
      <trkpt lat="48.17531" lon="-0.70761">
        <ele>112.5</ele>
        <time>2011-09-10T12:56:57Z</time>
      </trkpt>
      <trkpt lat="48.17533" lon="-0.70748">
        <ele>112.1</ele>
        <time>2011-09-10T12:57:04Z</time>
      </trkpt>
      <trkpt lat="48.17533" lon="-0.70746">
        <ele>112.1</ele>
        <time>2011-09-10T12:57:05Z</time>
      </trkpt>
      <trkpt lat="48.17537" lon="-0.70724">
        <ele>111.8</ele>
        <time>2011-09-10T12:57:17Z</time>
      </trkpt>
      <trkpt lat="48.17539" lon="-0.70713">
        <ele>111</ele>
        <time>2011-09-10T12:57:23Z</time>
      </trkpt>
      <trkpt lat="48.17541" lon="-0.70701">
        <ele>110.5</ele>
        <time>2011-09-10T12:57:29Z</time>
      </trkpt>
      <trkpt lat="48.17544" lon="-0.70689">
        <ele>110</ele>
        <time>2011-09-10T12:57:35Z</time>
      </trkpt>
      <trkpt lat="48.17547" lon="-0.70678">
        <ele>109.1</ele>
        <time>2011-09-10T12:57:41Z</time>
      </trkpt>
      <trkpt lat="48.17549" lon="-0.70665">
        <ele>109.8</ele>
        <time>2011-09-10T12:57:48Z</time>
      </trkpt>
      <trkpt lat="48.17551" lon="-0.70652">
        <ele>108.9</ele>
        <time>2011-09-10T12:57:54Z</time>
      </trkpt>
      <trkpt lat="48.17554" lon="-0.7064">
        <ele>107.9</ele>
        <time>2011-09-10T12:58:00Z</time>
      </trkpt>
      <trkpt lat="48.17556" lon="-0.70628">
        <ele>106.5</ele>
        <time>2011-09-10T12:58:06Z</time>
      </trkpt>
      <trkpt lat="48.17556" lon="-0.70626">
        <ele>106.1</ele>
        <time>2011-09-10T12:58:07Z</time>
      </trkpt>
      <trkpt lat="48.17561" lon="-0.70604">
        <ele>104.6</ele>
        <time>2011-09-10T12:58:18Z</time>
      </trkpt>
      <trkpt lat="48.17563" lon="-0.70592">
        <ele>103.4</ele>
        <time>2011-09-10T12:58:24Z</time>
      </trkpt>
      <trkpt lat="48.17565" lon="-0.70581">
        <ele>103.4</ele>
        <time>2011-09-10T12:58:30Z</time>
      </trkpt>
      <trkpt lat="48.17568" lon="-0.70569">
        <ele>103.5</ele>
        <time>2011-09-10T12:58:36Z</time>
      </trkpt>
      <trkpt lat="48.1757" lon="-0.70558">
        <ele>103.4</ele>
        <time>2011-09-10T12:58:42Z</time>
      </trkpt>
      <trkpt lat="48.17573" lon="-0.70545">
        <ele>103.5</ele>
        <time>2011-09-10T12:58:48Z</time>
      </trkpt>
      <trkpt lat="48.17575" lon="-0.70533">
        <ele>102.6</ele>
        <time>2011-09-10T12:58:54Z</time>
      </trkpt>
      <trkpt lat="48.17577" lon="-0.7052">
        <ele>102.5</ele>
        <time>2011-09-10T12:59:01Z</time>
      </trkpt>
      <trkpt lat="48.1758" lon="-0.70509">
        <ele>102.5</ele>
        <time>2011-09-10T12:59:07Z</time>
      </trkpt>
      <trkpt lat="48.17581" lon="-0.70507">
        <ele>102.5</ele>
        <time>2011-09-10T12:59:08Z</time>
      </trkpt>
      <trkpt lat="48.17585" lon="-0.70484">
        <ele>101.9</ele>
        <time>2011-09-10T12:59:24Z</time>
      </trkpt>
      <trkpt lat="48.17587" lon="-0.70472">
        <ele>102.1</ele>
        <time>2011-09-10T12:59:30Z</time>
      </trkpt>
      <trkpt lat="48.1759" lon="-0.7046">
        <ele>102.9</ele>
        <time>2011-09-10T12:59:39Z</time>
      </trkpt>
      <trkpt lat="48.17593" lon="-0.70449">
        <ele>103.3</ele>
        <time>2011-09-10T12:59:45Z</time>
      </trkpt>
      <trkpt lat="48.17595" lon="-0.70437">
        <ele>103.4</ele>
        <time>2011-09-10T12:59:51Z</time>
      </trkpt>
      <trkpt lat="48.17597" lon="-0.70424">
        <ele>102.5</ele>
        <time>2011-09-10T12:59:57Z</time>
      </trkpt>
      <trkpt lat="48.17601" lon="-0.70414">
        <ele>102.4</ele>
        <time>2011-09-10T13:00:03Z</time>
      </trkpt>
      <trkpt lat="48.17604" lon="-0.70403">
        <ele>102</ele>
        <time>2011-09-10T13:00:36Z</time>
      </trkpt>
      <trkpt lat="48.17604" lon="-0.70401">
        <ele>102</ele>
        <time>2011-09-10T13:00:37Z</time>
      </trkpt>
      <trkpt lat="48.17609" lon="-0.70379">
        <ele>102.9</ele>
        <time>2011-09-10T13:00:50Z</time>
      </trkpt>
      <trkpt lat="48.17611" lon="-0.70366">
        <ele>103</ele>
        <time>2011-09-10T13:00:58Z</time>
      </trkpt>
      <trkpt lat="48.17614" lon="-0.70354">
        <ele>102.3</ele>
        <time>2011-09-10T13:01:04Z</time>
      </trkpt>
      <trkpt lat="48.17619" lon="-0.70343">
        <ele>103</ele>
        <time>2011-09-10T13:01:20Z</time>
      </trkpt>
      <trkpt lat="48.17623" lon="-0.70332">
        <ele>103</ele>
        <time>2011-09-10T13:01:34Z</time>
      </trkpt>
      <trkpt lat="48.17626" lon="-0.7032">
        <ele>103.6</ele>
        <time>2011-09-10T13:01:49Z</time>
      </trkpt>
      <trkpt lat="48.17627" lon="-0.70318">
        <ele>104</ele>
        <time>2011-09-10T13:01:50Z</time>
      </trkpt>
      <trkpt lat="48.17634" lon="-0.70296">
        <ele>103</ele>
        <time>2011-09-10T13:02:05Z</time>
      </trkpt>
      <trkpt lat="48.17638" lon="-0.70284">
        <ele>102.5</ele>
        <time>2011-09-10T13:02:12Z</time>
      </trkpt>
      <trkpt lat="48.17641" lon="-0.70273">
        <ele>102.9</ele>
        <time>2011-09-10T13:02:19Z</time>
      </trkpt>
      <trkpt lat="48.17646" lon="-0.70263">
        <ele>102.4</ele>
        <time>2011-09-10T13:02:41Z</time>
      </trkpt>
      <trkpt lat="48.17651" lon="-0.70252">
        <ele>103.1</ele>
        <time>2011-09-10T13:02:48Z</time>
      </trkpt>
      <trkpt lat="48.17655" lon="-0.70241">
        <ele>103.4</ele>
        <time>2011-09-10T13:02:55Z</time>
      </trkpt>
      <trkpt lat="48.17655" lon="-0.7024">
        <ele>103.1</ele>
        <time>2011-09-10T13:02:56Z</time>
      </trkpt>
      <trkpt lat="48.17661" lon="-0.70218">
        <ele>103</ele>
        <time>2011-09-10T13:03:22Z</time>
      </trkpt>
      <trkpt lat="48.17664" lon="-0.70207">
        <ele>103.5</ele>
        <time>2011-09-10T13:03:28Z</time>
      </trkpt>
      <trkpt lat="48.17668" lon="-0.70196">
        <ele>103.6</ele>
        <time>2011-09-10T13:03:34Z</time>
      </trkpt>
      <trkpt lat="48.17672" lon="-0.70184">
        <ele>104.5</ele>
        <time>2011-09-10T13:03:41Z</time>
      </trkpt>
      <trkpt lat="48.17676" lon="-0.70174">
        <ele>104.8</ele>
        <time>2011-09-10T13:03:47Z</time>
      </trkpt>
      <trkpt lat="48.17679" lon="-0.70162">
        <ele>104.4</ele>
        <time>2011-09-10T13:03:54Z</time>
      </trkpt>
      <trkpt lat="48.17684" lon="-0.70152">
        <ele>105</ele>
        <time>2011-09-10T13:04:00Z</time>
      </trkpt>
      <trkpt lat="48.17684" lon="-0.7015">
        <ele>104.9</ele>
        <time>2011-09-10T13:04:01Z</time>
      </trkpt>
      <trkpt lat="48.17691" lon="-0.70128">
        <ele>104.9</ele>
        <time>2011-09-10T13:04:17Z</time>
      </trkpt>
      <trkpt lat="48.17694" lon="-0.70116">
        <ele>105.1</ele>
        <time>2011-09-10T13:04:28Z</time>
      </trkpt>
      <trkpt lat="48.17696" lon="-0.70103">
        <ele>105.5</ele>
        <time>2011-09-10T13:04:50Z</time>
      </trkpt>
      <trkpt lat="48.17697" lon="-0.70091">
        <ele>106</ele>
        <time>2011-09-10T13:04:57Z</time>
      </trkpt>
      <trkpt lat="48.17698" lon="-0.70079">
        <ele>106</ele>
        <time>2011-09-10T13:05:03Z</time>
      </trkpt>
      <trkpt lat="48.17698" lon="-0.70077">
        <ele>105.8</ele>
        <time>2011-09-10T13:05:04Z</time>
      </trkpt>
      <trkpt lat="48.17701" lon="-0.70055">
        <ele>105.3</ele>
        <time>2011-09-10T13:05:15Z</time>
      </trkpt>
      <trkpt lat="48.17702" lon="-0.70042">
        <ele>105</ele>
        <time>2011-09-10T13:05:22Z</time>
      </trkpt>
      <trkpt lat="48.17704" lon="-0.70029">
        <ele>104.9</ele>
        <time>2011-09-10T13:05:29Z</time>
      </trkpt>
      <trkpt lat="48.17704" lon="-0.70017">
        <ele>104.6</ele>
        <time>2011-09-10T13:05:35Z</time>
      </trkpt>
      <trkpt lat="48.17705" lon="-0.70005">
        <ele>104.5</ele>
        <time>2011-09-10T13:05:41Z</time>
      </trkpt>
      <trkpt lat="48.17706" lon="-0.69992">
        <ele>104.5</ele>
        <time>2011-09-10T13:05:48Z</time>
      </trkpt>
      <trkpt lat="48.17708" lon="-0.69979">
        <ele>105.6</ele>
        <time>2011-09-10T13:05:55Z</time>
      </trkpt>
      <trkpt lat="48.17711" lon="-0.69967">
        <ele>107</ele>
        <time>2011-09-10T13:06:02Z</time>
      </trkpt>
      <trkpt lat="48.17713" lon="-0.69954">
        <ele>107</ele>
        <time>2011-09-10T13:06:08Z</time>
      </trkpt>
      <trkpt lat="48.17714" lon="-0.69952">
        <ele>107</ele>
        <time>2011-09-10T13:06:09Z</time>
      </trkpt>
      <trkpt lat="48.1772" lon="-0.69932">
        <ele>107</ele>
        <time>2011-09-10T13:06:20Z</time>
      </trkpt>
      <trkpt lat="48.17723" lon="-0.69919">
        <ele>107.8</ele>
        <time>2011-09-10T13:06:27Z</time>
      </trkpt>
      <trkpt lat="48.17725" lon="-0.69908">
        <ele>107</ele>
        <time>2011-09-10T13:06:33Z</time>
      </trkpt>
      <trkpt lat="48.17728" lon="-0.69896">
        <ele>107.6</ele>
        <time>2011-09-10T13:06:40Z</time>
      </trkpt>
      <trkpt lat="48.17731" lon="-0.69884">
        <ele>107.4</ele>
        <time>2011-09-10T13:06:46Z</time>
      </trkpt>
      <trkpt lat="48.17734" lon="-0.69874">
        <ele>107.4</ele>
        <time>2011-09-10T13:06:52Z</time>
      </trkpt>
      <trkpt lat="48.17737" lon="-0.69861">
        <ele>108.1</ele>
        <time>2011-09-10T13:06:59Z</time>
      </trkpt>
      <trkpt lat="48.1774" lon="-0.69851">
        <ele>108.6</ele>
        <time>2011-09-10T13:07:05Z</time>
      </trkpt>
      <trkpt lat="48.17743" lon="-0.69839">
        <ele>108.5</ele>
        <time>2011-09-10T13:07:11Z</time>
      </trkpt>
      <trkpt lat="48.17744" lon="-0.69837">
        <ele>108.9</ele>
        <time>2011-09-10T13:07:12Z</time>
      </trkpt>
      <trkpt lat="48.17749" lon="-0.69814">
        <ele>109</ele>
        <time>2011-09-10T13:07:25Z</time>
      </trkpt>
      <trkpt lat="48.17752" lon="-0.69802">
        <ele>108.9</ele>
        <time>2011-09-10T13:07:32Z</time>
      </trkpt>
      <trkpt lat="48.17756" lon="-0.69791">
        <ele>109.5</ele>
        <time>2011-09-10T13:07:39Z</time>
      </trkpt>
      <trkpt lat="48.1776" lon="-0.69779">
        <ele>109.3</ele>
        <time>2011-09-10T13:07:46Z</time>
      </trkpt>
      <trkpt lat="48.17764" lon="-0.69767">
        <ele>111</ele>
        <time>2011-09-10T13:07:53Z</time>
      </trkpt>
      <trkpt lat="48.17767" lon="-0.69755">
        <ele>112.1</ele>
        <time>2011-09-10T13:08:00Z</time>
      </trkpt>
      <trkpt lat="48.1777" lon="-0.69742">
        <ele>113.1</ele>
        <time>2011-09-10T13:08:07Z</time>
      </trkpt>
      <trkpt lat="48.17773" lon="-0.69729">
        <ele>112.8</ele>
        <time>2011-09-10T13:08:26Z</time>
      </trkpt>
      <trkpt lat="48.17773" lon="-0.69727">
        <ele>112.6</ele>
        <time>2011-09-10T13:08:27Z</time>
      </trkpt>
      <trkpt lat="48.17779" lon="-0.69705">
        <ele>113.3</ele>
        <time>2011-09-10T13:08:39Z</time>
      </trkpt>
      <trkpt lat="48.17783" lon="-0.69694">
        <ele>113</ele>
        <time>2011-09-10T13:08:45Z</time>
      </trkpt>
      <trkpt lat="48.17786" lon="-0.69683">
        <ele>112.9</ele>
        <time>2011-09-10T13:08:51Z</time>
      </trkpt>
      <trkpt lat="48.1779" lon="-0.69671">
        <ele>112.9</ele>
        <time>2011-09-10T13:08:58Z</time>
      </trkpt>
      <trkpt lat="48.17793" lon="-0.6966">
        <ele>113.5</ele>
        <time>2011-09-10T13:09:04Z</time>
      </trkpt>
      <trkpt lat="48.17797" lon="-0.6965">
        <ele>114.9</ele>
        <time>2011-09-10T13:09:10Z</time>
      </trkpt>
      <trkpt lat="48.17802" lon="-0.6964">
        <ele>115.5</ele>
        <time>2011-09-10T13:09:16Z</time>
      </trkpt>
      <trkpt lat="48.17806" lon="-0.6963">
        <ele>115.5</ele>
        <time>2011-09-10T13:09:22Z</time>
      </trkpt>
      <trkpt lat="48.17811" lon="-0.6962">
        <ele>116</ele>
        <time>2011-09-10T13:09:28Z</time>
      </trkpt>
      <trkpt lat="48.17812" lon="-0.69618">
        <ele>116</ele>
        <time>2011-09-10T13:09:29Z</time>
      </trkpt>
      <trkpt lat="48.17822" lon="-0.696">
        <ele>117</ele>
        <time>2011-09-10T13:09:40Z</time>
      </trkpt>
      <trkpt lat="48.17827" lon="-0.6959">
        <ele>116.9</ele>
        <time>2011-09-10T13:09:46Z</time>
      </trkpt>
      <trkpt lat="48.17832" lon="-0.69581">
        <ele>117.8</ele>
        <time>2011-09-10T13:09:52Z</time>
      </trkpt>
      <trkpt lat="48.17837" lon="-0.6957">
        <ele>119</ele>
        <time>2011-09-10T13:09:59Z</time>
      </trkpt>
      <trkpt lat="48.17842" lon="-0.69559">
        <ele>119.9</ele>
        <time>2011-09-10T13:10:08Z</time>
      </trkpt>
      <trkpt lat="48.17847" lon="-0.69548">
        <ele>119.8</ele>
        <time>2011-09-10T13:10:39Z</time>
      </trkpt>
      <trkpt lat="48.17847" lon="-0.69546">
        <ele>119.5</ele>
        <time>2011-09-10T13:10:40Z</time>
      </trkpt>
      <trkpt lat="48.17856" lon="-0.69526">
        <ele>119.5</ele>
        <time>2011-09-10T13:10:54Z</time>
      </trkpt>
      <trkpt lat="48.17861" lon="-0.69516">
        <ele>119.4</ele>
        <time>2011-09-10T13:11:50Z</time>
      </trkpt>
      <trkpt lat="48.17862" lon="-0.69515">
        <ele>119</ele>
        <time>2011-09-10T13:11:51Z</time>
      </trkpt>
      <trkpt lat="48.17871" lon="-0.69495">
        <ele>118.3</ele>
        <time>2011-09-10T13:12:04Z</time>
      </trkpt>
      <trkpt lat="48.17876" lon="-0.69484">
        <ele>118.1</ele>
        <time>2011-09-10T13:12:11Z</time>
      </trkpt>
      <trkpt lat="48.17881" lon="-0.69474">
        <ele>118.4</ele>
        <time>2011-09-10T13:12:18Z</time>
      </trkpt>
      <trkpt lat="48.17886" lon="-0.69463">
        <ele>118</ele>
        <time>2011-09-10T13:12:25Z</time>
      </trkpt>
      <trkpt lat="48.17892" lon="-0.69453">
        <ele>118.4</ele>
        <time>2011-09-10T13:12:32Z</time>
      </trkpt>
      <trkpt lat="48.17896" lon="-0.69442">
        <ele>117.5</ele>
        <time>2011-09-10T13:12:39Z</time>
      </trkpt>
      <trkpt lat="48.17901" lon="-0.69432">
        <ele>117.8</ele>
        <time>2011-09-10T13:12:46Z</time>
      </trkpt>
      <trkpt lat="48.17906" lon="-0.69422">
        <ele>117.3</ele>
        <time>2011-09-10T13:12:53Z</time>
      </trkpt>
      <trkpt lat="48.17907" lon="-0.6942">
        <ele>117.1</ele>
        <time>2011-09-10T13:12:54Z</time>
      </trkpt>
      <trkpt lat="48.17916" lon="-0.694">
        <ele>117.5</ele>
        <time>2011-09-10T13:13:07Z</time>
      </trkpt>
      <trkpt lat="48.1792" lon="-0.6939">
        <ele>117.6</ele>
        <time>2011-09-10T13:13:14Z</time>
      </trkpt>
      <trkpt lat="48.17925" lon="-0.69378">
        <ele>118.1</ele>
        <time>2011-09-10T13:13:29Z</time>
      </trkpt>
      <trkpt lat="48.17928" lon="-0.69367">
        <ele>117.9</ele>
        <time>2011-09-10T13:13:36Z</time>
      </trkpt>
      <trkpt lat="48.17931" lon="-0.69355">
        <ele>118</ele>
        <time>2011-09-10T13:13:56Z</time>
      </trkpt>
      <trkpt lat="48.17931" lon="-0.69353">
        <ele>118</ele>
        <time>2011-09-10T13:13:57Z</time>
      </trkpt>
      <trkpt lat="48.17932" lon="-0.6933">
        <ele>116.9</ele>
        <time>2011-09-10T13:14:10Z</time>
      </trkpt>
      <trkpt lat="48.17931" lon="-0.6932">
        <ele>117</ele>
        <time>2011-09-10T13:14:15Z</time>
      </trkpt>
      <trkpt lat="48.17931" lon="-0.69308">
        <ele>116.8</ele>
        <time>2011-09-10T13:14:20Z</time>
      </trkpt>
      <trkpt lat="48.1793" lon="-0.69294">
        <ele>115.9</ele>
        <time>2011-09-10T13:14:26Z</time>
      </trkpt>
      <trkpt lat="48.1793" lon="-0.69282">
        <ele>115.5</ele>
        <time>2011-09-10T13:14:32Z</time>
      </trkpt>
      <trkpt lat="48.17934" lon="-0.6927">
        <ele>115.1</ele>
        <time>2011-09-10T13:15:46Z</time>
      </trkpt>
      <trkpt lat="48.17934" lon="-0.6927">
        <ele>115.1</ele>
        <time>2011-09-10T13:15:47Z</time>
      </trkpt>
      <trkpt lat="48.17934" lon="-0.69245">
        <ele>112</ele>
        <time>2011-09-10T13:16:18Z</time>
      </trkpt>
      <trkpt lat="48.17938" lon="-0.69232">
        <ele>111.1</ele>
        <time>2011-09-10T13:16:31Z</time>
      </trkpt>
      <trkpt lat="48.17939" lon="-0.6922">
        <ele>110.5</ele>
        <time>2011-09-10T13:16:39Z</time>
      </trkpt>
      <trkpt lat="48.17943" lon="-0.69208">
        <ele>110.5</ele>
        <time>2011-09-10T13:16:46Z</time>
      </trkpt>
      <trkpt lat="48.17947" lon="-0.69196">
        <ele>109.5</ele>
        <time>2011-09-10T13:16:52Z</time>
      </trkpt>
      <trkpt lat="48.17948" lon="-0.69195">
        <ele>109.6</ele>
        <time>2011-09-10T13:16:53Z</time>
      </trkpt>
      <trkpt lat="48.17953" lon="-0.69171">
        <ele>109</ele>
        <time>2011-09-10T13:17:16Z</time>
      </trkpt>
      <trkpt lat="48.17954" lon="-0.69159">
        <ele>108</ele>
        <time>2011-09-10T13:17:25Z</time>
      </trkpt>
      <trkpt lat="48.17958" lon="-0.69148">
        <ele>110.1</ele>
        <time>2011-09-10T13:17:33Z</time>
      </trkpt>
      <trkpt lat="48.17963" lon="-0.69139">
        <ele>113.6</ele>
        <time>2011-09-10T13:17:42Z</time>
      </trkpt>
      <trkpt lat="48.17967" lon="-0.69129">
        <ele>115.3</ele>
        <time>2011-09-10T13:17:48Z</time>
      </trkpt>
      <trkpt lat="48.17971" lon="-0.69118">
        <ele>114.9</ele>
        <time>2011-09-10T13:17:54Z</time>
      </trkpt>
      <trkpt lat="48.17972" lon="-0.69117">
        <ele>114.9</ele>
        <time>2011-09-10T13:17:55Z</time>
      </trkpt>
      <trkpt lat="48.17979" lon="-0.69097">
        <ele>112.6</ele>
        <time>2011-09-10T13:18:06Z</time>
      </trkpt>
      <trkpt lat="48.17984" lon="-0.69086">
        <ele>112.4</ele>
        <time>2011-09-10T13:18:12Z</time>
      </trkpt>
      <trkpt lat="48.1799" lon="-0.69076">
        <ele>112.4</ele>
        <time>2011-09-10T13:18:18Z</time>
      </trkpt>
      <trkpt lat="48.17995" lon="-0.69067">
        <ele>112</ele>
        <time>2011-09-10T13:18:24Z</time>
      </trkpt>
      <trkpt lat="48.18" lon="-0.69057">
        <ele>113.8</ele>
        <time>2011-09-10T13:18:30Z</time>
      </trkpt>
      <trkpt lat="48.18004" lon="-0.69046">
        <ele>115.1</ele>
        <time>2011-09-10T13:18:37Z</time>
      </trkpt>
      <trkpt lat="48.18002" lon="-0.69033">
        <ele>114.9</ele>
        <time>2011-09-10T13:18:46Z</time>
      </trkpt>
      <trkpt lat="48.17996" lon="-0.69025">
        <ele>115.4</ele>
        <time>2011-09-10T13:18:55Z</time>
      </trkpt>
      <trkpt lat="48.17995" lon="-0.69024">
        <ele>115.4</ele>
        <time>2011-09-10T13:18:56Z</time>
      </trkpt>
      <trkpt lat="48.17983" lon="-0.69009">
        <ele>116.6</ele>
        <time>2011-09-10T13:19:14Z</time>
      </trkpt>
      <trkpt lat="48.17976" lon="-0.69002">
        <ele>116.9</ele>
        <time>2011-09-10T13:19:23Z</time>
      </trkpt>
      <trkpt lat="48.1797" lon="-0.68994">
        <ele>115.3</ele>
        <time>2011-09-10T13:19:30Z</time>
      </trkpt>
      <trkpt lat="48.17967" lon="-0.68982">
        <ele>114.5</ele>
        <time>2011-09-10T13:19:37Z</time>
      </trkpt>
      <trkpt lat="48.17964" lon="-0.68971">
        <ele>113.9</ele>
        <time>2011-09-10T13:19:44Z</time>
      </trkpt>
      <trkpt lat="48.17963" lon="-0.68958">
        <ele>114.8</ele>
        <time>2011-09-10T13:19:51Z</time>
      </trkpt>
      <trkpt lat="48.17962" lon="-0.68946">
        <ele>115.3</ele>
        <time>2011-09-10T13:19:58Z</time>
      </trkpt>
      <trkpt lat="48.17962" lon="-0.68944">
        <ele>115.3</ele>
        <time>2011-09-10T13:19:59Z</time>
      </trkpt>
      <trkpt lat="48.1796" lon="-0.6892">
        <ele>116.3</ele>
        <time>2011-09-10T13:20:13Z</time>
      </trkpt>
      <trkpt lat="48.17957" lon="-0.68908">
        <ele>115.9</ele>
        <time>2011-09-10T13:20:20Z</time>
      </trkpt>
      <trkpt lat="48.17952" lon="-0.68897">
        <ele>115.1</ele>
        <time>2011-09-10T13:20:28Z</time>
      </trkpt>
      <trkpt lat="48.1795" lon="-0.68885">
        <ele>115.6</ele>
        <time>2011-09-10T13:20:37Z</time>
      </trkpt>
      <trkpt lat="48.17947" lon="-0.68872">
        <ele>117</ele>
        <time>2011-09-10T13:22:25Z</time>
      </trkpt>
      <trkpt lat="48.17945" lon="-0.68872">
        <ele>117.1</ele>
        <time>2011-09-10T13:22:26Z</time>
      </trkpt>
      <trkpt lat="48.1793" lon="-0.68867">
        <ele>118</ele>
        <time>2011-09-10T13:22:40Z</time>
      </trkpt>
      <trkpt lat="48.17921" lon="-0.68863">
        <ele>118.6</ele>
        <time>2011-09-10T13:22:48Z</time>
      </trkpt>
      <trkpt lat="48.17913" lon="-0.68861">
        <ele>119</ele>
        <time>2011-09-10T13:22:56Z</time>
      </trkpt>
      <trkpt lat="48.17906" lon="-0.6886">
        <ele>118.8</ele>
        <time>2011-09-10T13:23:02Z</time>
      </trkpt>
      <trkpt lat="48.17898" lon="-0.68857">
        <ele>118</ele>
        <time>2011-09-10T13:23:08Z</time>
      </trkpt>
      <trkpt lat="48.17889" lon="-0.68854">
        <ele>118</ele>
        <time>2011-09-10T13:23:15Z</time>
      </trkpt>
      <trkpt lat="48.17881" lon="-0.6885">
        <ele>117</ele>
        <time>2011-09-10T13:23:22Z</time>
      </trkpt>
      <trkpt lat="48.17873" lon="-0.68846">
        <ele>117</ele>
        <time>2011-09-10T13:23:29Z</time>
      </trkpt>
      <trkpt lat="48.17872" lon="-0.68845">
        <ele>117</ele>
        <time>2011-09-10T13:23:30Z</time>
      </trkpt>
      <trkpt lat="48.17858" lon="-0.68838">
        <ele>116.5</ele>
        <time>2011-09-10T13:23:42Z</time>
      </trkpt>
      <trkpt lat="48.17849" lon="-0.68836">
        <ele>115.9</ele>
        <time>2011-09-10T13:23:49Z</time>
      </trkpt>
      <trkpt lat="48.17841" lon="-0.68833">
        <ele>116.1</ele>
        <time>2011-09-10T13:23:56Z</time>
      </trkpt>
      <trkpt lat="48.17833" lon="-0.68829">
        <ele>115.6</ele>
        <time>2011-09-10T13:24:03Z</time>
      </trkpt>
      <trkpt lat="48.17825" lon="-0.68825">
        <ele>116</ele>
        <time>2011-09-10T13:24:10Z</time>
      </trkpt>
      <trkpt lat="48.17817" lon="-0.68823">
        <ele>115.6</ele>
        <time>2011-09-10T13:24:16Z</time>
      </trkpt>
      <trkpt lat="48.17809" lon="-0.6882">
        <ele>116</ele>
        <time>2011-09-10T13:24:23Z</time>
      </trkpt>
      <trkpt lat="48.17801" lon="-0.68817">
        <ele>116.4</ele>
        <time>2011-09-10T13:24:29Z</time>
      </trkpt>
      <trkpt lat="48.17792" lon="-0.68814">
        <ele>117.4</ele>
        <time>2011-09-10T13:24:36Z</time>
      </trkpt>
      <trkpt lat="48.17791" lon="-0.68813">
        <ele>117.5</ele>
        <time>2011-09-10T13:24:37Z</time>
      </trkpt>
      <trkpt lat="48.17777" lon="-0.68807">
        <ele>118.4</ele>
        <time>2011-09-10T13:24:49Z</time>
      </trkpt>
      <trkpt lat="48.17769" lon="-0.68805">
        <ele>117.4</ele>
        <time>2011-09-10T13:24:56Z</time>
      </trkpt>
      <trkpt lat="48.17762" lon="-0.68802">
        <ele>117.8</ele>
        <time>2011-09-10T13:25:03Z</time>
      </trkpt>
      <trkpt lat="48.17753" lon="-0.688">
        <ele>119.9</ele>
        <time>2011-09-10T13:25:11Z</time>
      </trkpt>
      <trkpt lat="48.17761" lon="-0.68804">
        <ele>125.4</ele>
        <time>2011-09-10T13:26:39Z</time>
      </trkpt>
      <trkpt lat="48.17762" lon="-0.68804">
        <ele>125.5</ele>
        <time>2011-09-10T13:26:40Z</time>
      </trkpt>
      <trkpt lat="48.17778" lon="-0.68809">
        <ele>125.3</ele>
        <time>2011-09-10T13:26:52Z</time>
      </trkpt>
      <trkpt lat="48.17786" lon="-0.6881">
        <ele>126</ele>
        <time>2011-09-10T13:26:59Z</time>
      </trkpt>
      <trkpt lat="48.17794" lon="-0.68811">
        <ele>126.1</ele>
        <time>2011-09-10T13:27:05Z</time>
      </trkpt>
      <trkpt lat="48.17802" lon="-0.68816">
        <ele>124.5</ele>
        <time>2011-09-10T13:27:10Z</time>
      </trkpt>
      <trkpt lat="48.1781" lon="-0.6882">
        <ele>123</ele>
        <time>2011-09-10T13:27:16Z</time>
      </trkpt>
      <trkpt lat="48.17818" lon="-0.68824">
        <ele>122</ele>
        <time>2011-09-10T13:27:22Z</time>
      </trkpt>
      <trkpt lat="48.17827" lon="-0.68826">
        <ele>122.1</ele>
        <time>2011-09-10T13:27:28Z</time>
      </trkpt>
      <trkpt lat="48.17835" lon="-0.68831">
        <ele>121.3</ele>
        <time>2011-09-10T13:27:37Z</time>
      </trkpt>
      <trkpt lat="48.17843" lon="-0.68834">
        <ele>121</ele>
        <time>2011-09-10T13:27:44Z</time>
      </trkpt>
      <trkpt lat="48.17844" lon="-0.68835">
        <ele>121</ele>
        <time>2011-09-10T13:27:45Z</time>
      </trkpt>
      <trkpt lat="48.17859" lon="-0.68841">
        <ele>118.9</ele>
        <time>2011-09-10T13:27:57Z</time>
      </trkpt>
      <trkpt lat="48.17867" lon="-0.68845">
        <ele>118.5</ele>
        <time>2011-09-10T13:28:02Z</time>
      </trkpt>
      <trkpt lat="48.17875" lon="-0.68849">
        <ele>118.1</ele>
        <time>2011-09-10T13:28:08Z</time>
      </trkpt>
      <trkpt lat="48.17883" lon="-0.68852">
        <ele>117.8</ele>
        <time>2011-09-10T13:28:14Z</time>
      </trkpt>
      <trkpt lat="48.17892" lon="-0.68855">
        <ele>117</ele>
        <time>2011-09-10T13:28:20Z</time>
      </trkpt>
      <trkpt lat="48.179" lon="-0.68857">
        <ele>115.5</ele>
        <time>2011-09-10T13:28:26Z</time>
      </trkpt>
      <trkpt lat="48.17909" lon="-0.68859">
        <ele>114.9</ele>
        <time>2011-09-10T13:28:33Z</time>
      </trkpt>
      <trkpt lat="48.17917" lon="-0.68863">
        <ele>114.1</ele>
        <time>2011-09-10T13:28:39Z</time>
      </trkpt>
      <trkpt lat="48.17925" lon="-0.68865">
        <ele>113.8</ele>
        <time>2011-09-10T13:28:45Z</time>
      </trkpt>
      <trkpt lat="48.17927" lon="-0.68865">
        <ele>113.5</ele>
        <time>2011-09-10T13:28:46Z</time>
      </trkpt>
      <trkpt lat="48.17943" lon="-0.68869">
        <ele>111.5</ele>
        <time>2011-09-10T13:28:58Z</time>
      </trkpt>
      <trkpt lat="48.1795" lon="-0.68865">
        <ele>110.8</ele>
        <time>2011-09-10T13:29:05Z</time>
      </trkpt>
      <trkpt lat="48.17953" lon="-0.68852">
        <ele>112.3</ele>
        <time>2011-09-10T13:29:18Z</time>
      </trkpt>
      <trkpt lat="48.17956" lon="-0.68841">
        <ele>114</ele>
        <time>2011-09-10T13:29:33Z</time>
      </trkpt>
      <trkpt lat="48.17959" lon="-0.6883">
        <ele>114.4</ele>
        <time>2011-09-10T13:29:41Z</time>
      </trkpt>
      <trkpt lat="48.17963" lon="-0.68818">
        <ele>113.8</ele>
        <time>2011-09-10T13:29:48Z</time>
      </trkpt>
      <trkpt lat="48.17964" lon="-0.68817">
        <ele>114.1</ele>
        <time>2011-09-10T13:29:49Z</time>
      </trkpt>
      <trkpt lat="48.17969" lon="-0.68795">
        <ele>114.8</ele>
        <time>2011-09-10T13:30:02Z</time>
      </trkpt>
      <trkpt lat="48.17969" lon="-0.68784">
        <ele>114.4</ele>
        <time>2011-09-10T13:30:09Z</time>
      </trkpt>
      <trkpt lat="48.17968" lon="-0.68771">
        <ele>114.1</ele>
        <time>2011-09-10T13:30:16Z</time>
      </trkpt>
      <trkpt lat="48.17965" lon="-0.68759">
        <ele>114.5</ele>
        <time>2011-09-10T13:30:23Z</time>
      </trkpt>
      <trkpt lat="48.17962" lon="-0.68747">
        <ele>114</ele>
        <time>2011-09-10T13:30:30Z</time>
      </trkpt>
      <trkpt lat="48.17959" lon="-0.68735">
        <ele>113.9</ele>
        <time>2011-09-10T13:30:36Z</time>
      </trkpt>
      <trkpt lat="48.17957" lon="-0.68724">
        <ele>113.8</ele>
        <time>2011-09-10T13:30:42Z</time>
      </trkpt>
      <trkpt lat="48.17956" lon="-0.68712">
        <ele>114.1</ele>
        <time>2011-09-10T13:30:48Z</time>
      </trkpt>
      <trkpt lat="48.17954" lon="-0.68699">
        <ele>114.9</ele>
        <time>2011-09-10T13:30:55Z</time>
      </trkpt>
      <trkpt lat="48.17954" lon="-0.68697">
        <ele>115.1</ele>
        <time>2011-09-10T13:30:56Z</time>
      </trkpt>
      <trkpt lat="48.17951" lon="-0.68674">
        <ele>116</ele>
        <time>2011-09-10T13:31:11Z</time>
      </trkpt>
      <trkpt lat="48.17951" lon="-0.68661">
        <ele>117</ele>
        <time>2011-09-10T13:31:38Z</time>
      </trkpt>
      <trkpt lat="48.1795" lon="-0.68649">
        <ele>117.8</ele>
        <time>2011-09-10T13:31:46Z</time>
      </trkpt>
      <trkpt lat="48.17949" lon="-0.68637">
        <ele>119.8</ele>
        <time>2011-09-10T13:32:04Z</time>
      </trkpt>
      <trkpt lat="48.17949" lon="-0.68635">
        <ele>119.9</ele>
        <time>2011-09-10T13:32:05Z</time>
      </trkpt>
      <trkpt lat="48.17946" lon="-0.68611">
        <ele>118.5</ele>
        <time>2011-09-10T13:32:18Z</time>
      </trkpt>
      <trkpt lat="48.17945" lon="-0.68598">
        <ele>118</ele>
        <time>2011-09-10T13:32:25Z</time>
      </trkpt>
      <trkpt lat="48.17944" lon="-0.68585">
        <ele>117.9</ele>
        <time>2011-09-10T13:32:32Z</time>
      </trkpt>
      <trkpt lat="48.17944" lon="-0.68572">
        <ele>117.5</ele>
        <time>2011-09-10T13:32:39Z</time>
      </trkpt>
      <trkpt lat="48.17944" lon="-0.68559">
        <ele>118.4</ele>
        <time>2011-09-10T13:32:46Z</time>
      </trkpt>
      <trkpt lat="48.17944" lon="-0.68547">
        <ele>118.4</ele>
        <time>2011-09-10T13:32:53Z</time>
      </trkpt>
      <trkpt lat="48.17946" lon="-0.68535">
        <ele>118</ele>
        <time>2011-09-10T13:33:00Z</time>
      </trkpt>
      <trkpt lat="48.17948" lon="-0.68521">
        <ele>118</ele>
        <time>2011-09-10T13:33:07Z</time>
      </trkpt>
      <trkpt lat="48.17948" lon="-0.68519">
        <ele>118</ele>
        <time>2011-09-10T13:33:08Z</time>
      </trkpt>
      <trkpt lat="48.17949" lon="-0.68497">
        <ele>117.5</ele>
        <time>2011-09-10T13:33:20Z</time>
      </trkpt>
      <trkpt lat="48.17951" lon="-0.68484">
        <ele>115.6</ele>
        <time>2011-09-10T13:33:26Z</time>
      </trkpt>
      <trkpt lat="48.17951" lon="-0.68472">
        <ele>116.3</ele>
        <time>2011-09-10T13:33:40Z</time>
      </trkpt>
      <trkpt lat="48.17952" lon="-0.68459">
        <ele>116.4</ele>
        <time>2011-09-10T13:33:47Z</time>
      </trkpt>
      <trkpt lat="48.17955" lon="-0.68447">
        <ele>115.6</ele>
        <time>2011-09-10T13:33:53Z</time>
      </trkpt>
      <trkpt lat="48.17957" lon="-0.68435">
        <ele>115.1</ele>
        <time>2011-09-10T13:34:02Z</time>
      </trkpt>
      <trkpt lat="48.17959" lon="-0.68423">
        <ele>115.8</ele>
        <time>2011-09-10T13:34:10Z</time>
      </trkpt>
      <trkpt lat="48.17959" lon="-0.68421">
        <ele>116.3</ele>
        <time>2011-09-10T13:34:11Z</time>
      </trkpt>
      <trkpt lat="48.17966" lon="-0.684">
        <ele>117</ele>
        <time>2011-09-10T13:34:22Z</time>
      </trkpt>
      <trkpt lat="48.17969" lon="-0.68388">
        <ele>117.4</ele>
        <time>2011-09-10T13:34:28Z</time>
      </trkpt>
      <trkpt lat="48.17971" lon="-0.68375">
        <ele>118.4</ele>
        <time>2011-09-10T13:34:35Z</time>
      </trkpt>
      <trkpt lat="48.17974" lon="-0.68364">
        <ele>118.8</ele>
        <time>2011-09-10T13:34:41Z</time>
      </trkpt>
      <trkpt lat="48.17977" lon="-0.68351">
        <ele>118.8</ele>
        <time>2011-09-10T13:34:48Z</time>
      </trkpt>
      <trkpt lat="48.17973" lon="-0.6834">
        <ele>121</ele>
        <time>2011-09-10T13:35:04Z</time>
      </trkpt>
      <trkpt lat="48.17966" lon="-0.68335">
        <ele>121.6</ele>
        <time>2011-09-10T13:35:10Z</time>
      </trkpt>
      <trkpt lat="48.17958" lon="-0.68331">
        <ele>120.1</ele>
        <time>2011-09-10T13:35:19Z</time>
      </trkpt>
      <trkpt lat="48.17957" lon="-0.6833">
        <ele>120.1</ele>
        <time>2011-09-10T13:35:20Z</time>
      </trkpt>
      <trkpt lat="48.17946" lon="-0.68314">
        <ele>120.4</ele>
        <time>2011-09-10T13:35:36Z</time>
      </trkpt>
      <trkpt lat="48.17947" lon="-0.68301">
        <ele>119</ele>
        <time>2011-09-10T13:35:43Z</time>
      </trkpt>
      <trkpt lat="48.17949" lon="-0.68289">
        <ele>118.8</ele>
        <time>2011-09-10T13:35:49Z</time>
      </trkpt>
      <trkpt lat="48.1795" lon="-0.68277">
        <ele>120</ele>
        <time>2011-09-10T13:35:55Z</time>
      </trkpt>
      <trkpt lat="48.17953" lon="-0.68265">
        <ele>119.5</ele>
        <time>2011-09-10T13:36:01Z</time>
      </trkpt>
      <trkpt lat="48.17954" lon="-0.68254">
        <ele>119.3</ele>
        <time>2011-09-10T13:36:07Z</time>
      </trkpt>
      <trkpt lat="48.17956" lon="-0.68241">
        <ele>118.5</ele>
        <time>2011-09-10T13:36:14Z</time>
      </trkpt>
      <trkpt lat="48.17957" lon="-0.68229">
        <ele>117.5</ele>
        <time>2011-09-10T13:36:21Z</time>
      </trkpt>
      <trkpt lat="48.17957" lon="-0.68227">
        <ele>117.3</ele>
        <time>2011-09-10T13:36:22Z</time>
      </trkpt>
      <trkpt lat="48.17961" lon="-0.68204">
        <ele>117.3</ele>
        <time>2011-09-10T13:36:34Z</time>
      </trkpt>
      <trkpt lat="48.17962" lon="-0.68191">
        <ele>118.5</ele>
        <time>2011-09-10T13:36:41Z</time>
      </trkpt>
      <trkpt lat="48.17965" lon="-0.68179">
        <ele>119</ele>
        <time>2011-09-10T13:36:47Z</time>
      </trkpt>
      <trkpt lat="48.17965" lon="-0.68167">
        <ele>119.9</ele>
        <time>2011-09-10T13:36:53Z</time>
      </trkpt>
      <trkpt lat="48.17959" lon="-0.68158">
        <ele>120.5</ele>
        <time>2011-09-10T13:37:00Z</time>
      </trkpt>
      <trkpt lat="48.17952" lon="-0.6815">
        <ele>121.5</ele>
        <time>2011-09-10T13:37:15Z</time>
      </trkpt>
      <trkpt lat="48.17946" lon="-0.68142">
        <ele>121.8</ele>
        <time>2011-09-10T13:37:31Z</time>
      </trkpt>
      <trkpt lat="48.17944" lon="-0.68141">
        <ele>122</ele>
        <time>2011-09-10T13:37:32Z</time>
      </trkpt>
      <trkpt lat="48.1793" lon="-0.68135">
        <ele>122.6</ele>
        <time>2011-09-10T13:37:44Z</time>
      </trkpt>
      <trkpt lat="48.17922" lon="-0.68131">
        <ele>123.8</ele>
        <time>2011-09-10T13:37:51Z</time>
      </trkpt>
      <trkpt lat="48.17913" lon="-0.68128">
        <ele>124.8</ele>
        <time>2011-09-10T13:37:58Z</time>
      </trkpt>
      <trkpt lat="48.17905" lon="-0.68126">
        <ele>125.3</ele>
        <time>2011-09-10T13:38:06Z</time>
      </trkpt>
      <trkpt lat="48.17897" lon="-0.68122">
        <ele>124.8</ele>
        <time>2011-09-10T13:38:12Z</time>
      </trkpt>
      <trkpt lat="48.17889" lon="-0.68119">
        <ele>124.5</ele>
        <time>2011-09-10T13:38:19Z</time>
      </trkpt>
      <trkpt lat="48.17881" lon="-0.68116">
        <ele>124</ele>
        <time>2011-09-10T13:38:25Z</time>
      </trkpt>
      <trkpt lat="48.17873" lon="-0.68117">
        <ele>123.5</ele>
        <time>2011-09-10T13:39:05Z</time>
      </trkpt>
      <trkpt lat="48.17871" lon="-0.68117">
        <ele>123.8</ele>
        <time>2011-09-10T13:39:06Z</time>
      </trkpt>
      <trkpt lat="48.17856" lon="-0.68112">
        <ele>124</ele>
        <time>2011-09-10T13:39:17Z</time>
      </trkpt>
      <trkpt lat="48.17849" lon="-0.6811">
        <ele>123.5</ele>
        <time>2011-09-10T13:39:23Z</time>
      </trkpt>
      <trkpt lat="48.17841" lon="-0.68108">
        <ele>123.4</ele>
        <time>2011-09-10T13:39:29Z</time>
      </trkpt>
      <trkpt lat="48.17832" lon="-0.68105">
        <ele>123.5</ele>
        <time>2011-09-10T13:39:36Z</time>
      </trkpt>
      <trkpt lat="48.17824" lon="-0.68102">
        <ele>123.9</ele>
        <time>2011-09-10T13:39:43Z</time>
      </trkpt>
      <trkpt lat="48.17816" lon="-0.68099">
        <ele>124</ele>
        <time>2011-09-10T13:39:49Z</time>
      </trkpt>
      <trkpt lat="48.17807" lon="-0.68096">
        <ele>123.5</ele>
        <time>2011-09-10T13:39:55Z</time>
      </trkpt>
      <trkpt lat="48.17799" lon="-0.68093">
        <ele>123.4</ele>
        <time>2011-09-10T13:40:01Z</time>
      </trkpt>
      <trkpt lat="48.17791" lon="-0.68091">
        <ele>123.3</ele>
        <time>2011-09-10T13:40:07Z</time>
      </trkpt>
      <trkpt lat="48.1779" lon="-0.6809">
        <ele>123.3</ele>
        <time>2011-09-10T13:40:08Z</time>
      </trkpt>
      <trkpt lat="48.17775" lon="-0.68086">
        <ele>123.3</ele>
        <time>2011-09-10T13:40:21Z</time>
      </trkpt>
      <trkpt lat="48.17766" lon="-0.68084">
        <ele>122.8</ele>
        <time>2011-09-10T13:40:27Z</time>
      </trkpt>
      <trkpt lat="48.17758" lon="-0.68081">
        <ele>122.6</ele>
        <time>2011-09-10T13:40:33Z</time>
      </trkpt>
      <trkpt lat="48.1775" lon="-0.68079">
        <ele>122</ele>
        <time>2011-09-10T13:40:40Z</time>
      </trkpt>
      <trkpt lat="48.17742" lon="-0.68077">
        <ele>122.4</ele>
        <time>2011-09-10T13:40:46Z</time>
      </trkpt>
      <trkpt lat="48.17734" lon="-0.68074">
        <ele>121.9</ele>
        <time>2011-09-10T13:40:52Z</time>
      </trkpt>
      <trkpt lat="48.17726" lon="-0.68071">
        <ele>120.8</ele>
        <time>2011-09-10T13:40:58Z</time>
      </trkpt>
      <trkpt lat="48.17717" lon="-0.68068">
        <ele>120.3</ele>
        <time>2011-09-10T13:41:05Z</time>
      </trkpt>
      <trkpt lat="48.17709" lon="-0.68067">
        <ele>119.5</ele>
        <time>2011-09-10T13:41:12Z</time>
      </trkpt>
      <trkpt lat="48.17708" lon="-0.68066">
        <ele>119.3</ele>
        <time>2011-09-10T13:41:13Z</time>
      </trkpt>
      <trkpt lat="48.177" lon="-0.68049">
        <ele>120.9</ele>
        <time>2011-09-10T13:41:46Z</time>
      </trkpt>
      <trkpt lat="48.17699" lon="-0.68036">
        <ele>121</ele>
        <time>2011-09-10T13:41:52Z</time>
      </trkpt>
      <trkpt lat="48.17699" lon="-0.68024">
        <ele>121.3</ele>
        <time>2011-09-10T13:41:59Z</time>
      </trkpt>
      <trkpt lat="48.17698" lon="-0.68012">
        <ele>121.4</ele>
        <time>2011-09-10T13:42:05Z</time>
      </trkpt>
      <trkpt lat="48.17697" lon="-0.68">
        <ele>121.1</ele>
        <time>2011-09-10T13:42:11Z</time>
      </trkpt>
      <trkpt lat="48.17695" lon="-0.67987">
        <ele>121.6</ele>
        <time>2011-09-10T13:42:17Z</time>
      </trkpt>
      <trkpt lat="48.17695" lon="-0.67985">
        <ele>121.6</ele>
        <time>2011-09-10T13:42:18Z</time>
      </trkpt>
      <trkpt lat="48.17693" lon="-0.67963">
        <ele>122.5</ele>
        <time>2011-09-10T13:42:29Z</time>
      </trkpt>
      <trkpt lat="48.1769" lon="-0.67951">
        <ele>123.5</ele>
        <time>2011-09-10T13:42:36Z</time>
      </trkpt>
      <trkpt lat="48.17684" lon="-0.67944">
        <ele>125.3</ele>
        <time>2011-09-10T13:42:43Z</time>
      </trkpt>
      <trkpt lat="48.17678" lon="-0.67936">
        <ele>125.3</ele>
        <time>2011-09-10T13:42:49Z</time>
      </trkpt>
      <trkpt lat="48.1767" lon="-0.67937">
        <ele>124.9</ele>
        <time>2011-09-10T13:42:55Z</time>
      </trkpt>
      <trkpt lat="48.17662" lon="-0.67939">
        <ele>123.8</ele>
        <time>2011-09-10T13:43:01Z</time>
      </trkpt>
      <trkpt lat="48.17654" lon="-0.67942">
        <ele>123.1</ele>
        <time>2011-09-10T13:43:07Z</time>
      </trkpt>
      <trkpt lat="48.17646" lon="-0.67945">
        <ele>122.1</ele>
        <time>2011-09-10T13:43:13Z</time>
      </trkpt>
      <trkpt lat="48.17637" lon="-0.67947">
        <ele>121</ele>
        <time>2011-09-10T13:43:19Z</time>
      </trkpt>
      <trkpt lat="48.17635" lon="-0.67948">
        <ele>121.1</ele>
        <time>2011-09-10T13:43:20Z</time>
      </trkpt>
      <trkpt lat="48.17622" lon="-0.67953">
        <ele>119.9</ele>
        <time>2011-09-10T13:43:30Z</time>
      </trkpt>
      <trkpt lat="48.17613" lon="-0.67956">
        <ele>119.6</ele>
        <time>2011-09-10T13:43:36Z</time>
      </trkpt>
      <trkpt lat="48.17605" lon="-0.67958">
        <ele>119.1</ele>
        <time>2011-09-10T13:43:42Z</time>
      </trkpt>
      <trkpt lat="48.17598" lon="-0.67962">
        <ele>119.6</ele>
        <time>2011-09-10T13:43:48Z</time>
      </trkpt>
      <trkpt lat="48.17589" lon="-0.67963">
        <ele>120.5</ele>
        <time>2011-09-10T13:43:56Z</time>
      </trkpt>
      <trkpt lat="48.17581" lon="-0.67967">
        <ele>119.5</ele>
        <time>2011-09-10T13:44:02Z</time>
      </trkpt>
      <trkpt lat="48.17573" lon="-0.67969">
        <ele>118.5</ele>
        <time>2011-09-10T13:44:07Z</time>
      </trkpt>
      <trkpt lat="48.17564" lon="-0.67972">
        <ele>117.6</ele>
        <time>2011-09-10T13:44:13Z</time>
      </trkpt>
      <trkpt lat="48.17556" lon="-0.67973">
        <ele>117.4</ele>
        <time>2011-09-10T13:44:18Z</time>
      </trkpt>
      <trkpt lat="48.17548" lon="-0.67976">
        <ele>117.4</ele>
        <time>2011-09-10T13:44:24Z</time>
      </trkpt>
      <trkpt lat="48.17547" lon="-0.67976">
        <ele>117.3</ele>
        <time>2011-09-10T13:44:25Z</time>
      </trkpt>
      <trkpt lat="48.17532" lon="-0.67981">
        <ele>118.3</ele>
        <time>2011-09-10T13:44:50Z</time>
      </trkpt>
      <trkpt lat="48.17524" lon="-0.67984">
        <ele>118.4</ele>
        <time>2011-09-10T13:44:56Z</time>
      </trkpt>
      <trkpt lat="48.17516" lon="-0.67987">
        <ele>119</ele>
        <time>2011-09-10T13:45:02Z</time>
      </trkpt>
      <trkpt lat="48.17509" lon="-0.67979">
        <ele>120</ele>
        <time>2011-09-10T13:45:37Z</time>
      </trkpt>
      <trkpt lat="48.17508" lon="-0.67978">
        <ele>120</ele>
        <time>2011-09-10T13:45:38Z</time>
      </trkpt>
      <trkpt lat="48.17498" lon="-0.67963">
        <ele>121.8</ele>
        <time>2011-09-10T13:45:53Z</time>
      </trkpt>
      <trkpt lat="48.17495" lon="-0.67951">
        <ele>122.9</ele>
        <time>2011-09-10T13:46:00Z</time>
      </trkpt>
      <trkpt lat="48.17491" lon="-0.67939">
        <ele>123</ele>
        <time>2011-09-10T13:46:06Z</time>
      </trkpt>
      <trkpt lat="48.17487" lon="-0.67928">
        <ele>122.4</ele>
        <time>2011-09-10T13:46:12Z</time>
      </trkpt>
      <trkpt lat="48.17484" lon="-0.67916">
        <ele>122.6</ele>
        <time>2011-09-10T13:46:18Z</time>
      </trkpt>
      <trkpt lat="48.17481" lon="-0.67905">
        <ele>123</ele>
        <time>2011-09-10T13:46:24Z</time>
      </trkpt>
      <trkpt lat="48.17479" lon="-0.67894">
        <ele>123.6</ele>
        <time>2011-09-10T13:46:30Z</time>
      </trkpt>
      <trkpt lat="48.17476" lon="-0.67882">
        <ele>124.1</ele>
        <time>2011-09-10T13:46:36Z</time>
      </trkpt>
      <trkpt lat="48.17474" lon="-0.6787">
        <ele>124.4</ele>
        <time>2011-09-10T13:46:42Z</time>
      </trkpt>
      <trkpt lat="48.17473" lon="-0.67868">
        <ele>124</ele>
        <time>2011-09-10T13:46:43Z</time>
      </trkpt>
      <trkpt lat="48.17466" lon="-0.67847">
        <ele>124.9</ele>
        <time>2011-09-10T13:46:54Z</time>
      </trkpt>
      <trkpt lat="48.17462" lon="-0.67835">
        <ele>125.1</ele>
        <time>2011-09-10T13:47:00Z</time>
      </trkpt>
      <trkpt lat="48.17459" lon="-0.67824">
        <ele>126</ele>
        <time>2011-09-10T13:47:06Z</time>
      </trkpt>
      <trkpt lat="48.17456" lon="-0.67813">
        <ele>125.6</ele>
        <time>2011-09-10T13:47:12Z</time>
      </trkpt>
      <trkpt lat="48.17452" lon="-0.67803">
        <ele>127</ele>
        <time>2011-09-10T13:47:18Z</time>
      </trkpt>
      <trkpt lat="48.1745" lon="-0.67792">
        <ele>127.4</ele>
        <time>2011-09-10T13:47:24Z</time>
      </trkpt>
      <trkpt lat="48.17448" lon="-0.6778">
        <ele>127.5</ele>
        <time>2011-09-10T13:47:30Z</time>
      </trkpt>
      <trkpt lat="48.17444" lon="-0.67769">
        <ele>127.5</ele>
        <time>2011-09-10T13:47:37Z</time>
      </trkpt>
      <trkpt lat="48.17442" lon="-0.67756">
        <ele>128.1</ele>
        <time>2011-09-10T13:47:45Z</time>
      </trkpt>
      <trkpt lat="48.17442" lon="-0.67755">
        <ele>128.1</ele>
        <time>2011-09-10T13:47:46Z</time>
      </trkpt>
      <trkpt lat="48.17452" lon="-0.67739">
        <ele>128.1</ele>
        <time>2011-09-10T13:48:05Z</time>
      </trkpt>
      <trkpt lat="48.1746" lon="-0.67736">
        <ele>127.3</ele>
        <time>2011-09-10T13:48:12Z</time>
      </trkpt>
      <trkpt lat="48.17468" lon="-0.67736">
        <ele>126.4</ele>
        <time>2011-09-10T13:48:18Z</time>
      </trkpt>
      <trkpt lat="48.17476" lon="-0.67733">
        <ele>125</ele>
        <time>2011-09-10T13:48:24Z</time>
      </trkpt>
      <trkpt lat="48.17485" lon="-0.67731">
        <ele>124.3</ele>
        <time>2011-09-10T13:48:32Z</time>
      </trkpt>
      <trkpt lat="48.17492" lon="-0.67726">
        <ele>123.3</ele>
        <time>2011-09-10T13:48:38Z</time>
      </trkpt>
      <trkpt lat="48.17499" lon="-0.67718">
        <ele>123.3</ele>
        <time>2011-09-10T13:48:58Z</time>
      </trkpt>
      <trkpt lat="48.17499" lon="-0.67716">
        <ele>123.4</ele>
        <time>2011-09-10T13:48:59Z</time>
      </trkpt>
      <trkpt lat="48.17502" lon="-0.67694">
        <ele>125</ele>
        <time>2011-09-10T13:49:11Z</time>
      </trkpt>
      <trkpt lat="48.17502" lon="-0.67682">
        <ele>124.5</ele>
        <time>2011-09-10T13:49:17Z</time>
      </trkpt>
      <trkpt lat="48.17504" lon="-0.6767">
        <ele>124.9</ele>
        <time>2011-09-10T13:49:23Z</time>
      </trkpt>
      <trkpt lat="48.17504" lon="-0.67657">
        <ele>126</ele>
        <time>2011-09-10T13:49:31Z</time>
      </trkpt>
      <trkpt lat="48.17509" lon="-0.67667">
        <ele>122.1</ele>
        <time>2011-09-10T13:50:07Z</time>
      </trkpt>
      <trkpt lat="48.1751" lon="-0.67669">
        <ele>121.9</ele>
        <time>2011-09-10T13:50:08Z</time>
      </trkpt>
      <trkpt lat="48.17505" lon="-0.67692">
        <ele>121.9</ele>
        <time>2011-09-10T13:50:25Z</time>
      </trkpt>
      <trkpt lat="48.17502" lon="-0.67705">
        <ele>122</ele>
        <time>2011-09-10T13:50:33Z</time>
      </trkpt>
      <trkpt lat="48.175" lon="-0.67717">
        <ele>122.9</ele>
        <time>2011-09-10T13:50:42Z</time>
      </trkpt>
      <trkpt lat="48.17494" lon="-0.67725">
        <ele>122</ele>
        <time>2011-09-10T13:50:51Z</time>
      </trkpt>
      <trkpt lat="48.17486" lon="-0.67729">
        <ele>120.5</ele>
        <time>2011-09-10T13:50:59Z</time>
      </trkpt>
      <trkpt lat="48.17478" lon="-0.67732">
        <ele>120</ele>
        <time>2011-09-10T13:51:06Z</time>
      </trkpt>
      <trkpt lat="48.1747" lon="-0.67734">
        <ele>119.6</ele>
        <time>2011-09-10T13:51:13Z</time>
      </trkpt>
      <trkpt lat="48.17469" lon="-0.67734">
        <ele>119.5</ele>
        <time>2011-09-10T13:51:14Z</time>
      </trkpt>
      <trkpt lat="48.17454" lon="-0.67737">
        <ele>118.1</ele>
        <time>2011-09-10T13:51:27Z</time>
      </trkpt>
      <trkpt lat="48.17446" lon="-0.67741">
        <ele>117</ele>
        <time>2011-09-10T13:51:34Z</time>
      </trkpt>
      <trkpt lat="48.17444" lon="-0.67754">
        <ele>117.4</ele>
        <time>2011-09-10T13:51:42Z</time>
      </trkpt>
      <trkpt lat="48.17445" lon="-0.67766">
        <ele>117.9</ele>
        <time>2011-09-10T13:51:49Z</time>
      </trkpt>
      <trkpt lat="48.17447" lon="-0.67778">
        <ele>117.8</ele>
        <time>2011-09-10T13:51:56Z</time>
      </trkpt>
      <trkpt lat="48.17452" lon="-0.67789">
        <ele>118.5</ele>
        <time>2011-09-10T13:52:03Z</time>
      </trkpt>
      <trkpt lat="48.17455" lon="-0.67801">
        <ele>119.5</ele>
        <time>2011-09-10T13:52:11Z</time>
      </trkpt>
      <trkpt lat="48.1746" lon="-0.67813">
        <ele>119.4</ele>
        <time>2011-09-10T13:52:19Z</time>
      </trkpt>
      <trkpt lat="48.1746" lon="-0.67815">
        <ele>119</ele>
        <time>2011-09-10T13:52:20Z</time>
      </trkpt>
      <trkpt lat="48.17466" lon="-0.67836">
        <ele>118.6</ele>
        <time>2011-09-10T13:52:34Z</time>
      </trkpt>
      <trkpt lat="48.17469" lon="-0.67847">
        <ele>118.8</ele>
        <time>2011-09-10T13:52:41Z</time>
      </trkpt>
      <trkpt lat="48.17473" lon="-0.67859">
        <ele>117.6</ele>
        <time>2011-09-10T13:52:48Z</time>
      </trkpt>
      <trkpt lat="48.17477" lon="-0.67869">
        <ele>117.6</ele>
        <time>2011-09-10T13:52:55Z</time>
      </trkpt>
      <trkpt lat="48.1748" lon="-0.67881">
        <ele>116.6</ele>
        <time>2011-09-10T13:53:02Z</time>
      </trkpt>
      <trkpt lat="48.17483" lon="-0.67893">
        <ele>115</ele>
        <time>2011-09-10T13:53:09Z</time>
      </trkpt>
      <trkpt lat="48.17486" lon="-0.67905">
        <ele>114.6</ele>
        <time>2011-09-10T13:53:16Z</time>
      </trkpt>
      <trkpt lat="48.17489" lon="-0.67916">
        <ele>114</ele>
        <time>2011-09-10T13:53:22Z</time>
      </trkpt>
      <trkpt lat="48.17489" lon="-0.67918">
        <ele>113.6</ele>
        <time>2011-09-10T13:53:23Z</time>
      </trkpt>
      <trkpt lat="48.17494" lon="-0.67939">
        <ele>115</ele>
        <time>2011-09-10T13:53:36Z</time>
      </trkpt>
      <trkpt lat="48.17496" lon="-0.67951">
        <ele>115.4</ele>
        <time>2011-09-10T13:53:45Z</time>
      </trkpt>
      <trkpt lat="48.17499" lon="-0.67963">
        <ele>115</ele>
        <time>2011-09-10T13:53:52Z</time>
      </trkpt>
      <trkpt lat="48.17505" lon="-0.67973">
        <ele>114.8</ele>
        <time>2011-09-10T13:54:00Z</time>
      </trkpt>
      <trkpt lat="48.17512" lon="-0.67981">
        <ele>114</ele>
        <time>2011-09-10T13:54:07Z</time>
      </trkpt>
      <trkpt lat="48.17519" lon="-0.67984">
        <ele>115.4</ele>
        <time>2011-09-10T13:54:13Z</time>
      </trkpt>
      <trkpt lat="48.17528" lon="-0.67983">
        <ele>115.8</ele>
        <time>2011-09-10T13:54:22Z</time>
      </trkpt>
      <trkpt lat="48.17536" lon="-0.67981">
        <ele>116.1</ele>
        <time>2011-09-10T13:54:28Z</time>
      </trkpt>
      <trkpt lat="48.17537" lon="-0.6798">
        <ele>116.1</ele>
        <time>2011-09-10T13:54:29Z</time>
      </trkpt>
      <trkpt lat="48.17552" lon="-0.67974">
        <ele>117.8</ele>
        <time>2011-09-10T13:54:42Z</time>
      </trkpt>
      <trkpt lat="48.17561" lon="-0.67972">
        <ele>117.5</ele>
        <time>2011-09-10T13:54:49Z</time>
      </trkpt>
      <trkpt lat="48.17568" lon="-0.67976">
        <ele>117.4</ele>
        <time>2011-09-10T13:54:56Z</time>
      </trkpt>
      <trkpt lat="48.17576" lon="-0.67978">
        <ele>117.1</ele>
        <time>2011-09-10T13:55:02Z</time>
      </trkpt>
      <trkpt lat="48.17585" lon="-0.67978">
        <ele>117.4</ele>
        <time>2011-09-10T13:55:07Z</time>
      </trkpt>
      <trkpt lat="48.17593" lon="-0.67975">
        <ele>118</ele>
        <time>2011-09-10T13:55:13Z</time>
      </trkpt>
      <trkpt lat="48.176" lon="-0.67972">
        <ele>117.6</ele>
        <time>2011-09-10T13:55:18Z</time>
      </trkpt>
      <trkpt lat="48.17608" lon="-0.67971">
        <ele>118.5</ele>
        <time>2011-09-10T13:55:23Z</time>
      </trkpt>
      <trkpt lat="48.17616" lon="-0.67968">
        <ele>118.6</ele>
        <time>2011-09-10T13:55:28Z</time>
      </trkpt>
      <trkpt lat="48.17624" lon="-0.67966">
        <ele>119</ele>
        <time>2011-09-10T13:55:33Z</time>
      </trkpt>
      <trkpt lat="48.17626" lon="-0.67965">
        <ele>118.9</ele>
        <time>2011-09-10T13:55:34Z</time>
      </trkpt>
      <trkpt lat="48.17641" lon="-0.6796">
        <ele>119</ele>
        <time>2011-09-10T13:55:43Z</time>
      </trkpt>
      <trkpt lat="48.17649" lon="-0.67958">
        <ele>119.4</ele>
        <time>2011-09-10T13:55:48Z</time>
      </trkpt>
      <trkpt lat="48.17657" lon="-0.67955">
        <ele>120.1</ele>
        <time>2011-09-10T13:55:53Z</time>
      </trkpt>
      <trkpt lat="48.17664" lon="-0.67952">
        <ele>120.9</ele>
        <time>2011-09-10T13:55:58Z</time>
      </trkpt>
      <trkpt lat="48.17672" lon="-0.67949">
        <ele>121.1</ele>
        <time>2011-09-10T13:56:03Z</time>
      </trkpt>
      <trkpt lat="48.17679" lon="-0.67947">
        <ele>122.1</ele>
        <time>2011-09-10T13:56:08Z</time>
      </trkpt>
      <trkpt lat="48.17688" lon="-0.67948">
        <ele>122.3</ele>
        <time>2011-09-10T13:56:26Z</time>
      </trkpt>
      <trkpt lat="48.17696" lon="-0.67946">
        <ele>121</ele>
        <time>2011-09-10T13:56:33Z</time>
      </trkpt>
      <trkpt lat="48.17704" lon="-0.67942">
        <ele>121</ele>
        <time>2011-09-10T13:56:39Z</time>
      </trkpt>
      <trkpt lat="48.17706" lon="-0.67942">
        <ele>120.9</ele>
        <time>2011-09-10T13:56:40Z</time>
      </trkpt>
      <trkpt lat="48.1772" lon="-0.67938">
        <ele>120.4</ele>
        <time>2011-09-10T13:56:50Z</time>
      </trkpt>
      <trkpt lat="48.17729" lon="-0.67935">
        <ele>119.8</ele>
        <time>2011-09-10T13:56:56Z</time>
      </trkpt>
      <trkpt lat="48.17737" lon="-0.67933">
        <ele>119.1</ele>
        <time>2011-09-10T13:57:02Z</time>
      </trkpt>
      <trkpt lat="48.17746" lon="-0.67929">
        <ele>118.9</ele>
        <time>2011-09-10T13:57:10Z</time>
      </trkpt>
      <trkpt lat="48.17753" lon="-0.67925">
        <ele>119.9</ele>
        <time>2011-09-10T13:57:17Z</time>
      </trkpt>
      <trkpt lat="48.17762" lon="-0.67922">
        <ele>120.3</ele>
        <time>2011-09-10T13:57:23Z</time>
      </trkpt>
      <trkpt lat="48.1777" lon="-0.67916">
        <ele>121</ele>
        <time>2011-09-10T13:57:30Z</time>
      </trkpt>
      <trkpt lat="48.17778" lon="-0.67912">
        <ele>121.9</ele>
        <time>2011-09-10T13:57:37Z</time>
      </trkpt>
      <trkpt lat="48.17786" lon="-0.67906">
        <ele>122.8</ele>
        <time>2011-09-10T13:57:44Z</time>
      </trkpt>
      <trkpt lat="48.17788" lon="-0.67905">
        <ele>122.9</ele>
        <time>2011-09-10T13:57:45Z</time>
      </trkpt>
      <trkpt lat="48.17802" lon="-0.67896">
        <ele>123.4</ele>
        <time>2011-09-10T13:57:56Z</time>
      </trkpt>
      <trkpt lat="48.1781" lon="-0.67892">
        <ele>123.3</ele>
        <time>2011-09-10T13:58:02Z</time>
      </trkpt>
      <trkpt lat="48.17817" lon="-0.67887">
        <ele>123</ele>
        <time>2011-09-10T13:58:08Z</time>
      </trkpt>
      <trkpt lat="48.17825" lon="-0.67881">
        <ele>123</ele>
        <time>2011-09-10T13:58:14Z</time>
      </trkpt>
      <trkpt lat="48.17833" lon="-0.67875">
        <ele>123.5</ele>
        <time>2011-09-10T13:58:20Z</time>
      </trkpt>
      <trkpt lat="48.1784" lon="-0.6787">
        <ele>123.6</ele>
        <time>2011-09-10T13:58:26Z</time>
      </trkpt>
      <trkpt lat="48.17848" lon="-0.67864">
        <ele>124</ele>
        <time>2011-09-10T13:58:32Z</time>
      </trkpt>
      <trkpt lat="48.17856" lon="-0.67859">
        <ele>123.5</ele>
        <time>2011-09-10T13:58:39Z</time>
      </trkpt>
      <trkpt lat="48.17864" lon="-0.67853">
        <ele>123.5</ele>
        <time>2011-09-10T13:58:45Z</time>
      </trkpt>
      <trkpt lat="48.17872" lon="-0.67848">
        <ele>122.9</ele>
        <time>2011-09-10T13:58:51Z</time>
      </trkpt>
      <trkpt lat="48.17873" lon="-0.67847">
        <ele>122.8</ele>
        <time>2011-09-10T13:58:52Z</time>
      </trkpt>
      <trkpt lat="48.17887" lon="-0.67836">
        <ele>122.1</ele>
        <time>2011-09-10T13:59:05Z</time>
      </trkpt>
      <trkpt lat="48.17895" lon="-0.6783">
        <ele>122.3</ele>
        <time>2011-09-10T13:59:10Z</time>
      </trkpt>
      <trkpt lat="48.17903" lon="-0.67825">
        <ele>122</ele>
        <time>2011-09-10T13:59:16Z</time>
      </trkpt>
      <trkpt lat="48.17911" lon="-0.67819">
        <ele>121.5</ele>
        <time>2011-09-10T13:59:22Z</time>
      </trkpt>
      <trkpt lat="48.17919" lon="-0.67813">
        <ele>121.5</ele>
        <time>2011-09-10T13:59:28Z</time>
      </trkpt>
      <trkpt lat="48.17925" lon="-0.67808">
        <ele>121.1</ele>
        <time>2011-09-10T13:59:33Z</time>
      </trkpt>
      <trkpt lat="48.17933" lon="-0.67804">
        <ele>120.8</ele>
        <time>2011-09-10T13:59:38Z</time>
      </trkpt>
      <trkpt lat="48.1794" lon="-0.67799">
        <ele>120.3</ele>
        <time>2011-09-10T13:59:43Z</time>
      </trkpt>
      <trkpt lat="48.17948" lon="-0.67793">
        <ele>120.1</ele>
        <time>2011-09-10T13:59:49Z</time>
      </trkpt>
      <trkpt lat="48.17956" lon="-0.67787">
        <ele>119.5</ele>
        <time>2011-09-10T13:59:55Z</time>
      </trkpt>
      <trkpt lat="48.17957" lon="-0.67786">
        <ele>119.9</ele>
        <time>2011-09-10T13:59:56Z</time>
      </trkpt>
      <trkpt lat="48.1797" lon="-0.67776">
        <ele>119.5</ele>
        <time>2011-09-10T14:00:06Z</time>
      </trkpt>
      <trkpt lat="48.17977" lon="-0.67772">
        <ele>119.1</ele>
        <time>2011-09-10T14:00:11Z</time>
      </trkpt>
      <trkpt lat="48.17984" lon="-0.67767">
        <ele>119.4</ele>
        <time>2011-09-10T14:00:16Z</time>
      </trkpt>
      <trkpt lat="48.17991" lon="-0.67762">
        <ele>119</ele>
        <time>2011-09-10T14:00:21Z</time>
      </trkpt>
      <trkpt lat="48.17998" lon="-0.67757">
        <ele>119.5</ele>
        <time>2011-09-10T14:00:26Z</time>
      </trkpt>
      <trkpt lat="48.18005" lon="-0.67752">
        <ele>119.9</ele>
        <time>2011-09-10T14:00:31Z</time>
      </trkpt>
      <trkpt lat="48.18012" lon="-0.67747">
        <ele>119.4</ele>
        <time>2011-09-10T14:00:36Z</time>
      </trkpt>
      <trkpt lat="48.18019" lon="-0.67742">
        <ele>119.3</ele>
        <time>2011-09-10T14:00:41Z</time>
      </trkpt>
      <trkpt lat="48.18027" lon="-0.67736">
        <ele>118.6</ele>
        <time>2011-09-10T14:00:47Z</time>
      </trkpt>
      <trkpt lat="48.18034" lon="-0.67731">
        <ele>118.5</ele>
        <time>2011-09-10T14:00:52Z</time>
      </trkpt>
      <trkpt lat="48.18042" lon="-0.67725">
        <ele>118.3</ele>
        <time>2011-09-10T14:00:58Z</time>
      </trkpt>
      <trkpt lat="48.18043" lon="-0.67725">
        <ele>118.1</ele>
        <time>2011-09-10T14:00:59Z</time>
      </trkpt>
      <trkpt lat="48.18056" lon="-0.67714">
        <ele>117.6</ele>
        <time>2011-09-10T14:01:09Z</time>
      </trkpt>
      <trkpt lat="48.18064" lon="-0.67707">
        <ele>117.5</ele>
        <time>2011-09-10T14:01:15Z</time>
      </trkpt>
      <trkpt lat="48.18072" lon="-0.67701">
        <ele>118.9</ele>
        <time>2011-09-10T14:01:21Z</time>
      </trkpt>
      <trkpt lat="48.18079" lon="-0.67697">
        <ele>119.5</ele>
        <time>2011-09-10T14:01:26Z</time>
      </trkpt>
      <trkpt lat="48.18085" lon="-0.67692">
        <ele>119.8</ele>
        <time>2011-09-10T14:01:31Z</time>
      </trkpt>
      <trkpt lat="48.18092" lon="-0.67688">
        <ele>119.5</ele>
        <time>2011-09-10T14:01:36Z</time>
      </trkpt>
      <trkpt lat="48.18099" lon="-0.67683">
        <ele>119.4</ele>
        <time>2011-09-10T14:01:41Z</time>
      </trkpt>
      <trkpt lat="48.18107" lon="-0.67677">
        <ele>118.8</ele>
        <time>2011-09-10T14:01:46Z</time>
      </trkpt>
      <trkpt lat="48.18115" lon="-0.67672">
        <ele>117.5</ele>
        <time>2011-09-10T14:01:52Z</time>
      </trkpt>
      <trkpt lat="48.18122" lon="-0.67667">
        <ele>117</ele>
        <time>2011-09-10T14:01:57Z</time>
      </trkpt>
      <trkpt lat="48.18129" lon="-0.67662">
        <ele>116.8</ele>
        <time>2011-09-10T14:02:02Z</time>
      </trkpt>
      <trkpt lat="48.18131" lon="-0.67661">
        <ele>116.8</ele>
        <time>2011-09-10T14:02:03Z</time>
      </trkpt>
      <trkpt lat="48.18144" lon="-0.67651">
        <ele>118</ele>
        <time>2011-09-10T14:02:12Z</time>
      </trkpt>
      <trkpt lat="48.1815" lon="-0.67645">
        <ele>118.4</ele>
        <time>2011-09-10T14:02:17Z</time>
      </trkpt>
      <trkpt lat="48.18159" lon="-0.6764">
        <ele>118</ele>
        <time>2011-09-10T14:02:23Z</time>
      </trkpt>
      <trkpt lat="48.18167" lon="-0.67634">
        <ele>117.3</ele>
        <time>2011-09-10T14:02:29Z</time>
      </trkpt>
      <trkpt lat="48.18174" lon="-0.67629">
        <ele>118</ele>
        <time>2011-09-10T14:02:35Z</time>
      </trkpt>
      <trkpt lat="48.18182" lon="-0.67621">
        <ele>120</ele>
        <time>2011-09-10T14:02:41Z</time>
      </trkpt>
      <trkpt lat="48.1819" lon="-0.67617">
        <ele>120</ele>
        <time>2011-09-10T14:02:47Z</time>
      </trkpt>
      <trkpt lat="48.18199" lon="-0.67621">
        <ele>120.8</ele>
        <time>2011-09-10T14:02:56Z</time>
      </trkpt>
      <trkpt lat="48.18202" lon="-0.67633">
        <ele>121</ele>
        <time>2011-09-10T14:03:02Z</time>
      </trkpt>
      <trkpt lat="48.18206" lon="-0.67644">
        <ele>120.5</ele>
        <time>2011-09-10T14:03:08Z</time>
      </trkpt>
      <trkpt lat="48.18206" lon="-0.67646">
        <ele>120.6</ele>
        <time>2011-09-10T14:03:09Z</time>
      </trkpt>
      <trkpt lat="48.18209" lon="-0.6767">
        <ele>122.8</ele>
        <time>2011-09-10T14:04:54Z</time>
      </trkpt>
      <trkpt lat="48.1821" lon="-0.67671">
        <ele>123.1</ele>
        <time>2011-09-10T14:04:55Z</time>
      </trkpt>
      <trkpt lat="48.18209" lon="-0.67694">
        <ele>124.5</ele>
        <time>2011-09-10T14:05:21Z</time>
      </trkpt>
      <trkpt lat="48.18208" lon="-0.67706">
        <ele>125.1</ele>
        <time>2011-09-10T14:05:28Z</time>
      </trkpt>
      <trkpt lat="48.18207" lon="-0.67718">
        <ele>126</ele>
        <time>2011-09-10T14:05:34Z</time>
      </trkpt>
      <trkpt lat="48.18207" lon="-0.67731">
        <ele>125.6</ele>
        <time>2011-09-10T14:05:41Z</time>
      </trkpt>
      <trkpt lat="48.18205" lon="-0.67744">
        <ele>126.3</ele>
        <time>2011-09-10T14:05:51Z</time>
      </trkpt>
      <trkpt lat="48.18203" lon="-0.67755">
        <ele>128.1</ele>
        <time>2011-09-10T14:20:20Z</time>
      </trkpt>
      <trkpt lat="48.18202" lon="-0.67757">
        <ele>128.1</ele>
        <time>2011-09-10T14:20:21Z</time>
      </trkpt>
      <trkpt lat="48.18195" lon="-0.67778">
        <ele>128.8</ele>
        <time>2011-09-10T14:20:34Z</time>
      </trkpt>
      <trkpt lat="48.1819" lon="-0.67787">
        <ele>129.3</ele>
        <time>2011-09-10T14:20:40Z</time>
      </trkpt>
      <trkpt lat="48.18186" lon="-0.67799">
        <ele>129.6</ele>
        <time>2011-09-10T14:20:47Z</time>
      </trkpt>
      <trkpt lat="48.18183" lon="-0.67811">
        <ele>129.3</ele>
        <time>2011-09-10T14:20:54Z</time>
      </trkpt>
      <trkpt lat="48.18181" lon="-0.67822">
        <ele>129.1</ele>
        <time>2011-09-10T14:21:00Z</time>
      </trkpt>
      <trkpt lat="48.1818" lon="-0.67836">
        <ele>128.6</ele>
        <time>2011-09-10T14:21:07Z</time>
      </trkpt>
      <trkpt lat="48.18179" lon="-0.67848">
        <ele>127.5</ele>
        <time>2011-09-10T14:21:14Z</time>
      </trkpt>
      <trkpt lat="48.18178" lon="-0.67861">
        <ele>127</ele>
        <time>2011-09-10T14:21:21Z</time>
      </trkpt>
      <trkpt lat="48.18178" lon="-0.67862">
        <ele>127.1</ele>
        <time>2011-09-10T14:21:22Z</time>
      </trkpt>
      <trkpt lat="48.18184" lon="-0.67882">
        <ele>127.9</ele>
        <time>2011-09-10T14:21:36Z</time>
      </trkpt>
      <trkpt lat="48.18193" lon="-0.67886">
        <ele>129.3</ele>
        <time>2011-09-10T14:21:44Z</time>
      </trkpt>
      <trkpt lat="48.18201" lon="-0.6789">
        <ele>130.5</ele>
        <time>2011-09-10T14:21:51Z</time>
      </trkpt>
      <trkpt lat="48.18209" lon="-0.67895">
        <ele>130</ele>
        <time>2011-09-10T14:21:58Z</time>
      </trkpt>
      <trkpt lat="48.18217" lon="-0.67898">
        <ele>130.8</ele>
        <time>2011-09-10T14:22:06Z</time>
      </trkpt>
      <trkpt lat="48.18225" lon="-0.67901">
        <ele>130.3</ele>
        <time>2011-09-10T14:22:14Z</time>
      </trkpt>
      <trkpt lat="48.18233" lon="-0.67905">
        <ele>129.8</ele>
        <time>2011-09-10T14:22:21Z</time>
      </trkpt>
      <trkpt lat="48.18241" lon="-0.67909">
        <ele>130.8</ele>
        <time>2011-09-10T14:22:29Z</time>
      </trkpt>
      <trkpt lat="48.18242" lon="-0.6791">
        <ele>130.8</ele>
        <time>2011-09-10T14:22:30Z</time>
      </trkpt>
      <trkpt lat="48.18256" lon="-0.67921">
        <ele>131.3</ele>
        <time>2011-09-10T14:22:45Z</time>
      </trkpt>
      <trkpt lat="48.18263" lon="-0.67929">
        <ele>131.1</ele>
        <time>2011-09-10T14:22:52Z</time>
      </trkpt>
      <trkpt lat="48.1827" lon="-0.67934">
        <ele>130.6</ele>
        <time>2011-09-10T14:22:58Z</time>
      </trkpt>
      <trkpt lat="48.18278" lon="-0.67937">
        <ele>130.5</ele>
        <time>2011-09-10T14:23:05Z</time>
      </trkpt>
      <trkpt lat="48.18286" lon="-0.67943">
        <ele>129.3</ele>
        <time>2011-09-10T14:23:19Z</time>
      </trkpt>
      <trkpt lat="48.18293" lon="-0.67948">
        <ele>129.3</ele>
        <time>2011-09-10T14:23:36Z</time>
      </trkpt>
      <trkpt lat="48.18295" lon="-0.67948">
        <ele>129.1</ele>
        <time>2011-09-10T14:23:37Z</time>
      </trkpt>
      <trkpt lat="48.1831" lon="-0.67957">
        <ele>129</ele>
        <time>2011-09-10T14:23:50Z</time>
      </trkpt>
      <trkpt lat="48.18316" lon="-0.67965">
        <ele>128.3</ele>
        <time>2011-09-10T14:23:58Z</time>
      </trkpt>
      <trkpt lat="48.18324" lon="-0.67972">
        <ele>126.8</ele>
        <time>2011-09-10T14:24:06Z</time>
      </trkpt>
      <trkpt lat="48.18329" lon="-0.67982">
        <ele>125.9</ele>
        <time>2011-09-10T14:24:13Z</time>
      </trkpt>
      <trkpt lat="48.18334" lon="-0.67991">
        <ele>125.9</ele>
        <time>2011-09-10T14:24:21Z</time>
      </trkpt>
      <trkpt lat="48.18339" lon="-0.68">
        <ele>125.5</ele>
        <time>2011-09-10T14:24:27Z</time>
      </trkpt>
      <trkpt lat="48.18344" lon="-0.68009">
        <ele>124.5</ele>
        <time>2011-09-10T14:24:32Z</time>
      </trkpt>
      <trkpt lat="48.18349" lon="-0.68018">
        <ele>123.3</ele>
        <time>2011-09-10T14:24:38Z</time>
      </trkpt>
      <trkpt lat="48.1835" lon="-0.6802">
        <ele>123.3</ele>
        <time>2011-09-10T14:24:39Z</time>
      </trkpt>
      <trkpt lat="48.18361" lon="-0.68033">
        <ele>119.8</ele>
        <time>2011-09-10T14:24:55Z</time>
      </trkpt>
      <trkpt lat="48.18369" lon="-0.68037">
        <ele>120.1</ele>
        <time>2011-09-10T14:25:02Z</time>
      </trkpt>
      <trkpt lat="48.18376" lon="-0.68042">
        <ele>118.5</ele>
        <time>2011-09-10T14:25:10Z</time>
      </trkpt>
      <trkpt lat="48.18384" lon="-0.68044">
        <ele>117.5</ele>
        <time>2011-09-10T14:25:17Z</time>
      </trkpt>
      <trkpt lat="48.18392" lon="-0.68047">
        <ele>116.5</ele>
        <time>2011-09-10T14:25:23Z</time>
      </trkpt>
      <trkpt lat="48.184" lon="-0.68046">
        <ele>115</ele>
        <time>2011-09-10T14:25:27Z</time>
      </trkpt>
      <trkpt lat="48.18408" lon="-0.68042">
        <ele>114</ele>
        <time>2011-09-10T14:25:34Z</time>
      </trkpt>
      <trkpt lat="48.18414" lon="-0.68033">
        <ele>113.1</ele>
        <time>2011-09-10T14:25:48Z</time>
      </trkpt>
      <trkpt lat="48.18415" lon="-0.68033">
        <ele>113</ele>
        <time>2011-09-10T14:25:49Z</time>
      </trkpt>
      <trkpt lat="48.18431" lon="-0.68037">
        <ele>112</ele>
        <time>2011-09-10T14:26:03Z</time>
      </trkpt>
      <trkpt lat="48.1844" lon="-0.68036">
        <ele>111.8</ele>
        <time>2011-09-10T14:26:14Z</time>
      </trkpt>
      <trkpt lat="48.18448" lon="-0.68034">
        <ele>112</ele>
        <time>2011-09-10T14:26:23Z</time>
      </trkpt>
      <trkpt lat="48.18456" lon="-0.68032">
        <ele>113.3</ele>
        <time>2011-09-10T14:27:14Z</time>
      </trkpt>
      <trkpt lat="48.18457" lon="-0.68031">
        <ele>113</ele>
        <time>2011-09-10T14:27:15Z</time>
      </trkpt>
      <trkpt lat="48.18471" lon="-0.68022">
        <ele>112.9</ele>
        <time>2011-09-10T14:28:09Z</time>
      </trkpt>
      <trkpt lat="48.18479" lon="-0.6802">
        <ele>112.6</ele>
        <time>2011-09-10T14:28:15Z</time>
      </trkpt>
      <trkpt lat="48.18481" lon="-0.68019">
        <ele>112.6</ele>
        <time>2011-09-10T14:28:16Z</time>
      </trkpt>
      <trkpt lat="48.18495" lon="-0.68014">
        <ele>113.6</ele>
        <time>2011-09-10T14:28:33Z</time>
      </trkpt>
      <trkpt lat="48.18503" lon="-0.68015">
        <ele>114.8</ele>
        <time>2011-09-10T14:28:38Z</time>
      </trkpt>
      <trkpt lat="48.18511" lon="-0.68017">
        <ele>116.3</ele>
        <time>2011-09-10T14:28:44Z</time>
      </trkpt>
      <trkpt lat="48.18519" lon="-0.68019">
        <ele>116.6</ele>
        <time>2011-09-10T14:28:52Z</time>
      </trkpt>
      <trkpt lat="48.18528" lon="-0.6802">
        <ele>116.5</ele>
        <time>2011-09-10T14:28:59Z</time>
      </trkpt>
      <trkpt lat="48.18536" lon="-0.68021">
        <ele>118.1</ele>
        <time>2011-09-10T14:29:06Z</time>
      </trkpt>
      <trkpt lat="48.18544" lon="-0.68025">
        <ele>118.5</ele>
        <time>2011-09-10T14:29:12Z</time>
      </trkpt>
      <trkpt lat="48.18551" lon="-0.6803">
        <ele>119</ele>
        <time>2011-09-10T14:29:19Z</time>
      </trkpt>
      <trkpt lat="48.18552" lon="-0.6803">
        <ele>118.6</ele>
        <time>2011-09-10T14:29:20Z</time>
      </trkpt>
      <trkpt lat="48.18568" lon="-0.68037">
        <ele>117.1</ele>
        <time>2011-09-10T14:30:27Z</time>
      </trkpt>
      <trkpt lat="48.18569" lon="-0.68037">
        <ele>117.4</ele>
        <time>2011-09-10T14:30:28Z</time>
      </trkpt>
      <trkpt lat="48.18584" lon="-0.68041">
        <ele>118.8</ele>
        <time>2011-09-10T14:30:41Z</time>
      </trkpt>
      <trkpt lat="48.18592" lon="-0.68044">
        <ele>120.6</ele>
        <time>2011-09-10T14:30:49Z</time>
      </trkpt>
      <trkpt lat="48.186" lon="-0.68046">
        <ele>121.4</ele>
        <time>2011-09-10T14:30:57Z</time>
      </trkpt>
      <trkpt lat="48.18608" lon="-0.68052">
        <ele>122.6</ele>
        <time>2011-09-10T14:31:07Z</time>
      </trkpt>
      <trkpt lat="48.18617" lon="-0.68053">
        <ele>122.5</ele>
        <time>2011-09-10T14:31:14Z</time>
      </trkpt>
      <trkpt lat="48.18626" lon="-0.68057">
        <ele>123</ele>
        <time>2011-09-10T14:31:23Z</time>
      </trkpt>
      <trkpt lat="48.18633" lon="-0.68062">
        <ele>123.9</ele>
        <time>2011-09-10T14:31:33Z</time>
      </trkpt>
      <trkpt lat="48.18634" lon="-0.68063">
        <ele>123.6</ele>
        <time>2011-09-10T14:31:34Z</time>
      </trkpt>
      <trkpt lat="48.1865" lon="-0.68058">
        <ele>122.1</ele>
        <time>2011-09-10T14:32:03Z</time>
      </trkpt>
      <trkpt lat="48.18656" lon="-0.68049">
        <ele>120</ele>
        <time>2011-09-10T14:32:10Z</time>
      </trkpt>
      <trkpt lat="48.18663" lon="-0.68042">
        <ele>119.5</ele>
        <time>2011-09-10T14:32:16Z</time>
      </trkpt>
      <trkpt lat="48.18668" lon="-0.68033">
        <ele>117.8</ele>
        <time>2011-09-10T14:33:25Z</time>
      </trkpt>
      <trkpt lat="48.18669" lon="-0.68032">
        <ele>118</ele>
        <time>2011-09-10T14:33:26Z</time>
      </trkpt>
      <trkpt lat="48.18681" lon="-0.68014">
        <ele>118.4</ele>
        <time>2011-09-10T14:33:42Z</time>
      </trkpt>
      <trkpt lat="48.18686" lon="-0.68006">
        <ele>117.5</ele>
        <time>2011-09-10T14:33:48Z</time>
      </trkpt>
      <trkpt lat="48.18691" lon="-0.67996">
        <ele>117.4</ele>
        <time>2011-09-10T14:33:55Z</time>
      </trkpt>
      <trkpt lat="48.18696" lon="-0.67987">
        <ele>116.4</ele>
        <time>2011-09-10T14:34:03Z</time>
      </trkpt>
      <trkpt lat="48.18701" lon="-0.67976">
        <ele>115.4</ele>
        <time>2011-09-10T14:34:12Z</time>
      </trkpt>
      <trkpt lat="48.18705" lon="-0.67966">
        <ele>114.3</ele>
        <time>2011-09-10T14:34:20Z</time>
      </trkpt>
      <trkpt lat="48.18711" lon="-0.67956">
        <ele>114</ele>
        <time>2011-09-10T14:34:27Z</time>
      </trkpt>
      <trkpt lat="48.18712" lon="-0.67955">
        <ele>113.6</ele>
        <time>2011-09-10T14:34:28Z</time>
      </trkpt>
      <trkpt lat="48.1872" lon="-0.67934">
        <ele>112.8</ele>
        <time>2011-09-10T14:34:44Z</time>
      </trkpt>
      <trkpt lat="48.18725" lon="-0.67924">
        <ele>113.6</ele>
        <time>2011-09-10T14:34:51Z</time>
      </trkpt>
      <trkpt lat="48.1873" lon="-0.67913">
        <ele>113.5</ele>
        <time>2011-09-10T14:34:59Z</time>
      </trkpt>
      <trkpt lat="48.18734" lon="-0.67903">
        <ele>115</ele>
        <time>2011-09-10T14:35:07Z</time>
      </trkpt>
      <trkpt lat="48.18738" lon="-0.67891">
        <ele>114.3</ele>
        <time>2011-09-10T14:35:15Z</time>
      </trkpt>
      <trkpt lat="48.18743" lon="-0.67881">
        <ele>114.8</ele>
        <time>2011-09-10T14:35:23Z</time>
      </trkpt>
      <trkpt lat="48.18747" lon="-0.6787">
        <ele>115</ele>
        <time>2011-09-10T14:35:31Z</time>
      </trkpt>
      <trkpt lat="48.18747" lon="-0.67868">
        <ele>115.1</ele>
        <time>2011-09-10T14:35:32Z</time>
      </trkpt>
      <trkpt lat="48.18753" lon="-0.67848">
        <ele>116.8</ele>
        <time>2011-09-10T14:35:47Z</time>
      </trkpt>
      <trkpt lat="48.18758" lon="-0.67836">
        <ele>116.5</ele>
        <time>2011-09-10T14:35:55Z</time>
      </trkpt>
      <trkpt lat="48.18761" lon="-0.67826">
        <ele>116.5</ele>
        <time>2011-09-10T14:36:02Z</time>
      </trkpt>
      <trkpt lat="48.18766" lon="-0.67815">
        <ele>117</ele>
        <time>2011-09-10T14:36:09Z</time>
      </trkpt>
      <trkpt lat="48.1877" lon="-0.67804">
        <ele>116.4</ele>
        <time>2011-09-10T14:36:16Z</time>
      </trkpt>
      <trkpt lat="48.18773" lon="-0.67793">
        <ele>116.3</ele>
        <time>2011-09-10T14:36:23Z</time>
      </trkpt>
      <trkpt lat="48.18777" lon="-0.67781">
        <ele>115.5</ele>
        <time>2011-09-10T14:36:30Z</time>
      </trkpt>
      <trkpt lat="48.18781" lon="-0.67769">
        <ele>115.9</ele>
        <time>2011-09-10T14:36:38Z</time>
      </trkpt>
      <trkpt lat="48.18781" lon="-0.67768">
        <ele>115.9</ele>
        <time>2011-09-10T14:36:39Z</time>
      </trkpt>
      <trkpt lat="48.18788" lon="-0.67747">
        <ele>115.6</ele>
        <time>2011-09-10T14:36:53Z</time>
      </trkpt>
      <trkpt lat="48.18792" lon="-0.67736">
        <ele>115.9</ele>
        <time>2011-09-10T14:37:00Z</time>
      </trkpt>
      <trkpt lat="48.18797" lon="-0.67724">
        <ele>115.8</ele>
        <time>2011-09-10T14:37:07Z</time>
      </trkpt>
      <trkpt lat="48.188" lon="-0.67712">
        <ele>116.3</ele>
        <time>2011-09-10T14:37:14Z</time>
      </trkpt>
      <trkpt lat="48.18803" lon="-0.677">
        <ele>116.6</ele>
        <time>2011-09-10T14:37:21Z</time>
      </trkpt>
      <trkpt lat="48.18806" lon="-0.67689">
        <ele>117.5</ele>
        <time>2011-09-10T14:37:28Z</time>
      </trkpt>
      <trkpt lat="48.1881" lon="-0.67678">
        <ele>117.1</ele>
        <time>2011-09-10T14:37:35Z</time>
      </trkpt>
      <trkpt lat="48.18814" lon="-0.67667">
        <ele>116.8</ele>
        <time>2011-09-10T14:37:42Z</time>
      </trkpt>
      <trkpt lat="48.18814" lon="-0.67666">
        <ele>117</ele>
        <time>2011-09-10T14:37:43Z</time>
      </trkpt>
      <trkpt lat="48.1882" lon="-0.67645">
        <ele>117.9</ele>
        <time>2011-09-10T14:37:57Z</time>
      </trkpt>
      <trkpt lat="48.18824" lon="-0.67634">
        <ele>118</ele>
        <time>2011-09-10T14:38:05Z</time>
      </trkpt>
      <trkpt lat="48.18828" lon="-0.67622">
        <ele>118.5</ele>
        <time>2011-09-10T14:38:12Z</time>
      </trkpt>
      <trkpt lat="48.18831" lon="-0.67611">
        <ele>118.6</ele>
        <time>2011-09-10T14:38:19Z</time>
      </trkpt>
      <trkpt lat="48.18836" lon="-0.676">
        <ele>119</ele>
        <time>2011-09-10T14:38:27Z</time>
      </trkpt>
      <trkpt lat="48.18839" lon="-0.67589">
        <ele>119.8</ele>
        <time>2011-09-10T14:38:36Z</time>
      </trkpt>
      <trkpt lat="48.18843" lon="-0.67577">
        <ele>119.3</ele>
        <time>2011-09-10T14:38:43Z</time>
      </trkpt>
      <trkpt lat="48.18848" lon="-0.67566">
        <ele>118.6</ele>
        <time>2011-09-10T14:38:50Z</time>
      </trkpt>
      <trkpt lat="48.18849" lon="-0.67564">
        <ele>118.5</ele>
        <time>2011-09-10T14:38:51Z</time>
      </trkpt>
      <trkpt lat="48.18854" lon="-0.67543">
        <ele>119.8</ele>
        <time>2011-09-10T14:39:05Z</time>
      </trkpt>
      <trkpt lat="48.18857" lon="-0.6753">
        <ele>119.8</ele>
        <time>2011-09-10T14:39:12Z</time>
      </trkpt>
      <trkpt lat="48.18862" lon="-0.67519">
        <ele>120.4</ele>
        <time>2011-09-10T14:39:20Z</time>
      </trkpt>
      <trkpt lat="48.18865" lon="-0.67507">
        <ele>120.4</ele>
        <time>2011-09-10T14:39:29Z</time>
      </trkpt>
      <trkpt lat="48.1887" lon="-0.67496">
        <ele>119.9</ele>
        <time>2011-09-10T14:39:36Z</time>
      </trkpt>
      <trkpt lat="48.18874" lon="-0.67485">
        <ele>120.3</ele>
        <time>2011-09-10T14:39:43Z</time>
      </trkpt>
      <trkpt lat="48.18879" lon="-0.67474">
        <ele>121.5</ele>
        <time>2011-09-10T14:39:51Z</time>
      </trkpt>
      <trkpt lat="48.18883" lon="-0.67463">
        <ele>122.1</ele>
        <time>2011-09-10T14:39:59Z</time>
      </trkpt>
      <trkpt lat="48.18883" lon="-0.67461">
        <ele>122.1</ele>
        <time>2011-09-10T14:40:00Z</time>
      </trkpt>
      <trkpt lat="48.18893" lon="-0.67441">
        <ele>121.4</ele>
        <time>2011-09-10T14:40:11Z</time>
      </trkpt>
      <trkpt lat="48.18897" lon="-0.67429">
        <ele>121.4</ele>
        <time>2011-09-10T14:40:22Z</time>
      </trkpt>
      <trkpt lat="48.189" lon="-0.67417">
        <ele>122.1</ele>
        <time>2011-09-10T14:40:29Z</time>
      </trkpt>
      <trkpt lat="48.18904" lon="-0.67406">
        <ele>121.4</ele>
        <time>2011-09-10T14:40:36Z</time>
      </trkpt>
      <trkpt lat="48.18908" lon="-0.67396">
        <ele>120.5</ele>
        <time>2011-09-10T14:40:42Z</time>
      </trkpt>
      <trkpt lat="48.18914" lon="-0.67385">
        <ele>120.1</ele>
        <time>2011-09-10T14:40:49Z</time>
      </trkpt>
      <trkpt lat="48.18917" lon="-0.67374">
        <ele>120.6</ele>
        <time>2011-09-10T14:40:56Z</time>
      </trkpt>
      <trkpt lat="48.18922" lon="-0.67363">
        <ele>121.6</ele>
        <time>2011-09-10T14:41:03Z</time>
      </trkpt>
      <trkpt lat="48.18922" lon="-0.67362">
        <ele>121.9</ele>
        <time>2011-09-10T14:41:04Z</time>
      </trkpt>
      <trkpt lat="48.18928" lon="-0.67341">
        <ele>121.9</ele>
        <time>2011-09-10T14:41:18Z</time>
      </trkpt>
      <trkpt lat="48.18933" lon="-0.6733">
        <ele>121.1</ele>
        <time>2011-09-10T14:41:24Z</time>
      </trkpt>
      <trkpt lat="48.18938" lon="-0.6732">
        <ele>119.9</ele>
        <time>2011-09-10T14:41:29Z</time>
      </trkpt>
      <trkpt lat="48.18943" lon="-0.6731">
        <ele>117.4</ele>
        <time>2011-09-10T14:41:34Z</time>
      </trkpt>
      <trkpt lat="48.18948" lon="-0.67301">
        <ele>116.5</ele>
        <time>2011-09-10T14:41:44Z</time>
      </trkpt>
      <trkpt lat="48.18951" lon="-0.67289">
        <ele>115.3</ele>
        <time>2011-09-10T14:41:54Z</time>
      </trkpt>
      <trkpt lat="48.18955" lon="-0.67278">
        <ele>114.4</ele>
        <time>2011-09-10T14:42:00Z</time>
      </trkpt>
      <trkpt lat="48.18958" lon="-0.67266">
        <ele>112.9</ele>
        <time>2011-09-10T14:42:06Z</time>
      </trkpt>
      <trkpt lat="48.18958" lon="-0.67264">
        <ele>112.6</ele>
        <time>2011-09-10T14:42:07Z</time>
      </trkpt>
      <trkpt lat="48.18964" lon="-0.67243">
        <ele>112.1</ele>
        <time>2011-09-10T14:42:19Z</time>
      </trkpt>
      <trkpt lat="48.18967" lon="-0.67232">
        <ele>110.3</ele>
        <time>2011-09-10T14:42:25Z</time>
      </trkpt>
      <trkpt lat="48.18969" lon="-0.67221">
        <ele>110</ele>
        <time>2011-09-10T14:42:32Z</time>
      </trkpt>
      <trkpt lat="48.18972" lon="-0.67208">
        <ele>108.4</ele>
        <time>2011-09-10T14:42:39Z</time>
      </trkpt>
      <trkpt lat="48.18975" lon="-0.67197">
        <ele>110</ele>
        <time>2011-09-10T14:42:46Z</time>
      </trkpt>
      <trkpt lat="48.18977" lon="-0.67185">
        <ele>110.5</ele>
        <time>2011-09-10T14:42:52Z</time>
      </trkpt>
      <trkpt lat="48.18981" lon="-0.67173">
        <ele>109.3</ele>
        <time>2011-09-10T14:42:59Z</time>
      </trkpt>
      <trkpt lat="48.18984" lon="-0.67162">
        <ele>109</ele>
        <time>2011-09-10T14:43:05Z</time>
      </trkpt>
      <trkpt lat="48.18986" lon="-0.67151">
        <ele>109.8</ele>
        <time>2011-09-10T14:43:12Z</time>
      </trkpt>
      <trkpt lat="48.18987" lon="-0.67149">
        <ele>109.9</ele>
        <time>2011-09-10T14:43:13Z</time>
      </trkpt>
      <trkpt lat="48.18993" lon="-0.67128">
        <ele>108.9</ele>
        <time>2011-09-10T14:43:27Z</time>
      </trkpt>
      <trkpt lat="48.18995" lon="-0.67115">
        <ele>108.3</ele>
        <time>2011-09-10T14:43:34Z</time>
      </trkpt>
      <trkpt lat="48.18997" lon="-0.67103">
        <ele>108.8</ele>
        <time>2011-09-10T14:43:41Z</time>
      </trkpt>
      <trkpt lat="48.19" lon="-0.67091">
        <ele>108.3</ele>
        <time>2011-09-10T14:43:47Z</time>
      </trkpt>
      <trkpt lat="48.19001" lon="-0.67078">
        <ele>107.9</ele>
        <time>2011-09-10T14:43:53Z</time>
      </trkpt>
      <trkpt lat="48.19003" lon="-0.67067">
        <ele>108</ele>
        <time>2011-09-10T14:43:59Z</time>
      </trkpt>
      <trkpt lat="48.19" lon="-0.67055">
        <ele>110.1</ele>
        <time>2011-09-10T14:44:18Z</time>
      </trkpt>
      <trkpt lat="48.18999" lon="-0.67053">
        <ele>110.5</ele>
        <time>2011-09-10T14:44:19Z</time>
      </trkpt>
      <trkpt lat="48.1899" lon="-0.67035">
        <ele>114.5</ele>
        <time>2011-09-10T14:44:56Z</time>
      </trkpt>
      <trkpt lat="48.18987" lon="-0.67023">
        <ele>114.4</ele>
        <time>2011-09-10T14:45:04Z</time>
      </trkpt>
      <trkpt lat="48.18986" lon="-0.67011">
        <ele>114.6</ele>
        <time>2011-09-10T14:45:10Z</time>
      </trkpt>
      <trkpt lat="48.18988" lon="-0.66999">
        <ele>115.3</ele>
        <time>2011-09-10T14:45:16Z</time>
      </trkpt>
      <trkpt lat="48.18992" lon="-0.66988">
        <ele>115.8</ele>
        <time>2011-09-10T14:45:23Z</time>
      </trkpt>
      <trkpt lat="48.18993" lon="-0.66986">
        <ele>115.5</ele>
        <time>2011-09-10T14:45:24Z</time>
      </trkpt>
      <trkpt lat="48.19004" lon="-0.6697">
        <ele>115.3</ele>
        <time>2011-09-10T14:45:40Z</time>
      </trkpt>
      <trkpt lat="48.19011" lon="-0.66962">
        <ele>115.8</ele>
        <time>2011-09-10T14:45:53Z</time>
      </trkpt>
      <trkpt lat="48.19018" lon="-0.66957">
        <ele>115.6</ele>
        <time>2011-09-10T14:46:00Z</time>
      </trkpt>
      <trkpt lat="48.19025" lon="-0.66951">
        <ele>115.3</ele>
        <time>2011-09-10T14:46:08Z</time>
      </trkpt>
      <trkpt lat="48.19033" lon="-0.66944">
        <ele>115.5</ele>
        <time>2011-09-10T14:46:16Z</time>
      </trkpt>
      <trkpt lat="48.19039" lon="-0.66936">
        <ele>115.6</ele>
        <time>2011-09-10T14:46:24Z</time>
      </trkpt>
      <trkpt lat="48.19047" lon="-0.66934">
        <ele>113.5</ele>
        <time>2011-09-10T14:46:38Z</time>
      </trkpt>
      <trkpt lat="48.19048" lon="-0.66934">
        <ele>113.5</ele>
        <time>2011-09-10T14:46:39Z</time>
      </trkpt>
      <trkpt lat="48.19061" lon="-0.66919">
        <ele>114.5</ele>
        <time>2011-09-10T14:47:16Z</time>
      </trkpt>
      <trkpt lat="48.19068" lon="-0.66912">
        <ele>114.5</ele>
        <time>2011-09-10T14:47:22Z</time>
      </trkpt>
      <trkpt lat="48.19074" lon="-0.66903">
        <ele>113.6</ele>
        <time>2011-09-10T14:47:28Z</time>
      </trkpt>
      <trkpt lat="48.19079" lon="-0.66893">
        <ele>114</ele>
        <time>2011-09-10T14:47:36Z</time>
      </trkpt>
      <trkpt lat="48.19084" lon="-0.66884">
        <ele>114.6</ele>
        <time>2011-09-10T14:47:41Z</time>
      </trkpt>
      <trkpt lat="48.19086" lon="-0.66882">
        <ele>115</ele>
        <time>2011-09-10T14:47:42Z</time>
      </trkpt>
      <trkpt lat="48.19096" lon="-0.66864">
        <ele>116.3</ele>
        <time>2011-09-10T14:47:52Z</time>
      </trkpt>
      <trkpt lat="48.19099" lon="-0.66852">
        <ele>117.1</ele>
        <time>2011-09-10T14:48:02Z</time>
      </trkpt>
      <trkpt lat="48.19102" lon="-0.66839">
        <ele>114.5</ele>
        <time>2011-09-10T14:48:13Z</time>
      </trkpt>
      <trkpt lat="48.19108" lon="-0.6683">
        <ele>116.4</ele>
        <time>2011-09-10T14:48:25Z</time>
      </trkpt>
      <trkpt lat="48.19113" lon="-0.66819">
        <ele>115.5</ele>
        <time>2011-09-10T14:48:32Z</time>
      </trkpt>
      <trkpt lat="48.19119" lon="-0.66809">
        <ele>115.5</ele>
        <time>2011-09-10T14:48:39Z</time>
      </trkpt>
      <trkpt lat="48.19124" lon="-0.66799">
        <ele>115.3</ele>
        <time>2011-09-10T14:48:45Z</time>
      </trkpt>
      <trkpt lat="48.19125" lon="-0.66798">
        <ele>115.4</ele>
        <time>2011-09-10T14:48:46Z</time>
      </trkpt>
      <trkpt lat="48.19133" lon="-0.66781">
        <ele>114.9</ele>
        <time>2011-09-10T14:48:57Z</time>
      </trkpt>
      <trkpt lat="48.19138" lon="-0.66772">
        <ele>114.4</ele>
        <time>2011-09-10T14:49:02Z</time>
      </trkpt>
      <trkpt lat="48.19143" lon="-0.66763">
        <ele>113.8</ele>
        <time>2011-09-10T14:49:08Z</time>
      </trkpt>
      <trkpt lat="48.19148" lon="-0.66753">
        <ele>114</ele>
        <time>2011-09-10T14:49:15Z</time>
      </trkpt>
      <trkpt lat="48.19153" lon="-0.66743">
        <ele>113.1</ele>
        <time>2011-09-10T14:49:21Z</time>
      </trkpt>
      <trkpt lat="48.19157" lon="-0.66732">
        <ele>112.9</ele>
        <time>2011-09-10T14:49:33Z</time>
      </trkpt>
      <trkpt lat="48.19161" lon="-0.66722">
        <ele>115.5</ele>
        <time>2011-09-10T14:49:42Z</time>
      </trkpt>
      <trkpt lat="48.19166" lon="-0.66712">
        <ele>115.3</ele>
        <time>2011-09-10T14:49:49Z</time>
      </trkpt>
      <trkpt lat="48.19167" lon="-0.6671">
        <ele>115.1</ele>
        <time>2011-09-10T14:49:50Z</time>
      </trkpt>
      <trkpt lat="48.19176" lon="-0.66694">
        <ele>115</ele>
        <time>2011-09-10T14:49:59Z</time>
      </trkpt>
      <trkpt lat="48.19182" lon="-0.66685">
        <ele>114.8</ele>
        <time>2011-09-10T14:50:04Z</time>
      </trkpt>
      <trkpt lat="48.19189" lon="-0.66677">
        <ele>114</ele>
        <time>2011-09-10T14:50:11Z</time>
      </trkpt>
      <trkpt lat="48.19195" lon="-0.66669">
        <ele>113.8</ele>
        <time>2011-09-10T14:50:19Z</time>
      </trkpt>
      <trkpt lat="48.19199" lon="-0.66658">
        <ele>113.8</ele>
        <time>2011-09-10T14:50:26Z</time>
      </trkpt>
      <trkpt lat="48.19202" lon="-0.66648">
        <ele>113.4</ele>
        <time>2011-09-10T14:50:35Z</time>
      </trkpt>
      <trkpt lat="48.19207" lon="-0.66637">
        <ele>114</ele>
        <time>2011-09-10T14:50:40Z</time>
      </trkpt>
      <trkpt lat="48.19211" lon="-0.66627">
        <ele>113.8</ele>
        <time>2011-09-10T14:50:46Z</time>
      </trkpt>
      <trkpt lat="48.19218" lon="-0.66621">
        <ele>113.5</ele>
        <time>2011-09-10T14:50:51Z</time>
      </trkpt>
      <trkpt lat="48.19219" lon="-0.6662">
        <ele>113.5</ele>
        <time>2011-09-10T14:50:52Z</time>
      </trkpt>
      <trkpt lat="48.19229" lon="-0.66602">
        <ele>113.5</ele>
        <time>2011-09-10T14:51:06Z</time>
      </trkpt>
      <trkpt lat="48.19233" lon="-0.66591">
        <ele>112.4</ele>
        <time>2011-09-10T14:51:14Z</time>
      </trkpt>
      <trkpt lat="48.19235" lon="-0.66578">
        <ele>113.1</ele>
        <time>2011-09-10T14:51:21Z</time>
      </trkpt>
      <trkpt lat="48.1924" lon="-0.66571">
        <ele>114.3</ele>
        <time>2011-09-10T14:51:27Z</time>
      </trkpt>
      <trkpt lat="48.19246" lon="-0.66562">
        <ele>114</ele>
        <time>2011-09-10T14:51:32Z</time>
      </trkpt>
      <trkpt lat="48.19252" lon="-0.66552">
        <ele>114</ele>
        <time>2011-09-10T14:51:40Z</time>
      </trkpt>
      <trkpt lat="48.19257" lon="-0.66543">
        <ele>113.4</ele>
        <time>2011-09-10T14:51:45Z</time>
      </trkpt>
      <trkpt lat="48.19263" lon="-0.66534">
        <ele>112.8</ele>
        <time>2011-09-10T14:51:49Z</time>
      </trkpt>
      <trkpt lat="48.19268" lon="-0.66524">
        <ele>112.6</ele>
        <time>2011-09-10T14:51:55Z</time>
      </trkpt>
      <trkpt lat="48.19269" lon="-0.66522">
        <ele>112.6</ele>
        <time>2011-09-10T14:51:56Z</time>
      </trkpt>
      <trkpt lat="48.1928" lon="-0.66505">
        <ele>112.1</ele>
        <time>2011-09-10T14:52:06Z</time>
      </trkpt>
      <trkpt lat="48.19283" lon="-0.66494">
        <ele>114</ele>
        <time>2011-09-10T14:52:13Z</time>
      </trkpt>
      <trkpt lat="48.19289" lon="-0.66484">
        <ele>113.3</ele>
        <time>2011-09-10T14:52:19Z</time>
      </trkpt>
      <trkpt lat="48.19295" lon="-0.66474">
        <ele>112.4</ele>
        <time>2011-09-10T14:52:27Z</time>
      </trkpt>
      <trkpt lat="48.19301" lon="-0.66467">
        <ele>111.5</ele>
        <time>2011-09-10T14:52:34Z</time>
      </trkpt>
      <trkpt lat="48.19308" lon="-0.6646">
        <ele>111.9</ele>
        <time>2011-09-10T14:52:39Z</time>
      </trkpt>
      <trkpt lat="48.19316" lon="-0.66456">
        <ele>113.5</ele>
        <time>2011-09-10T14:52:44Z</time>
      </trkpt>
      <trkpt lat="48.19322" lon="-0.66448">
        <ele>113.6</ele>
        <time>2011-09-10T14:52:50Z</time>
      </trkpt>
      <trkpt lat="48.19324" lon="-0.66436">
        <ele>114.9</ele>
        <time>2011-09-10T14:52:56Z</time>
      </trkpt>
      <trkpt lat="48.19331" lon="-0.6643">
        <ele>115.9</ele>
        <time>2011-09-10T14:53:02Z</time>
      </trkpt>
      <trkpt lat="48.19332" lon="-0.66428">
        <ele>116</ele>
        <time>2011-09-10T14:53:03Z</time>
      </trkpt>
      <trkpt lat="48.19344" lon="-0.66413">
        <ele>116.9</ele>
        <time>2011-09-10T14:53:15Z</time>
      </trkpt>
      <trkpt lat="48.19348" lon="-0.66403">
        <ele>117.5</ele>
        <time>2011-09-10T14:53:26Z</time>
      </trkpt>
      <trkpt lat="48.1935" lon="-0.66391">
        <ele>116</ele>
        <time>2011-09-10T14:53:30Z</time>
      </trkpt>
      <trkpt lat="48.19346" lon="-0.66382">
        <ele>115.6</ele>
        <time>2011-09-10T14:53:35Z</time>
      </trkpt>
      <trkpt lat="48.19341" lon="-0.66374">
        <ele>116</ele>
        <time>2011-09-10T14:53:40Z</time>
      </trkpt>
      <trkpt lat="48.19335" lon="-0.66367">
        <ele>116.6</ele>
        <time>2011-09-10T14:53:44Z</time>
      </trkpt>
      <trkpt lat="48.1933" lon="-0.66356">
        <ele>116.6</ele>
        <time>2011-09-10T14:53:51Z</time>
      </trkpt>
      <trkpt lat="48.19331" lon="-0.66343">
        <ele>116.3</ele>
        <time>2011-09-10T14:53:56Z</time>
      </trkpt>
      <trkpt lat="48.19328" lon="-0.66331">
        <ele>115.8</ele>
        <time>2011-09-10T14:54:02Z</time>
      </trkpt>
      <trkpt lat="48.19323" lon="-0.66321">
        <ele>115.4</ele>
        <time>2011-09-10T14:54:08Z</time>
      </trkpt>
      <trkpt lat="48.19322" lon="-0.6632">
        <ele>115.6</ele>
        <time>2011-09-10T14:54:09Z</time>
      </trkpt>
      <trkpt lat="48.19315" lon="-0.66302">
        <ele>116.9</ele>
        <time>2011-09-10T14:54:21Z</time>
      </trkpt>
      <trkpt lat="48.19313" lon="-0.6629">
        <ele>116.5</ele>
        <time>2011-09-10T14:54:30Z</time>
      </trkpt>
      <trkpt lat="48.19309" lon="-0.66278">
        <ele>116.4</ele>
        <time>2011-09-10T14:54:59Z</time>
      </trkpt>
      <trkpt lat="48.19305" lon="-0.66268">
        <ele>116.3</ele>
        <time>2011-09-10T14:55:05Z</time>
      </trkpt>
      <trkpt lat="48.193" lon="-0.66259">
        <ele>117.3</ele>
        <time>2011-09-10T14:55:11Z</time>
      </trkpt>
      <trkpt lat="48.19299" lon="-0.66257">
        <ele>117.3</ele>
        <time>2011-09-10T14:55:12Z</time>
      </trkpt>
      <trkpt lat="48.19289" lon="-0.6624">
        <ele>117</ele>
        <time>2011-09-10T14:55:24Z</time>
      </trkpt>
      <trkpt lat="48.19285" lon="-0.66229">
        <ele>116.9</ele>
        <time>2011-09-10T14:55:32Z</time>
      </trkpt>
      <trkpt lat="48.19289" lon="-0.66218">
        <ele>115.6</ele>
        <time>2011-09-10T14:55:38Z</time>
      </trkpt>
      <trkpt lat="48.19284" lon="-0.66207">
        <ele>116.4</ele>
        <time>2011-09-10T14:55:45Z</time>
      </trkpt>
      <trkpt lat="48.1928" lon="-0.66196">
        <ele>117</ele>
        <time>2011-09-10T14:55:51Z</time>
      </trkpt>
      <trkpt lat="48.19274" lon="-0.66187">
        <ele>117.3</ele>
        <time>2011-09-10T14:55:57Z</time>
      </trkpt>
      <trkpt lat="48.19271" lon="-0.66177">
        <ele>118.5</ele>
        <time>2011-09-10T14:56:03Z</time>
      </trkpt>
      <trkpt lat="48.19264" lon="-0.66171">
        <ele>119.1</ele>
        <time>2011-09-10T14:56:07Z</time>
      </trkpt>
      <trkpt lat="48.19258" lon="-0.66164">
        <ele>119.8</ele>
        <time>2011-09-10T14:56:11Z</time>
      </trkpt>
      <trkpt lat="48.19251" lon="-0.66157">
        <ele>119.6</ele>
        <time>2011-09-10T14:56:16Z</time>
      </trkpt>
      <trkpt lat="48.1925" lon="-0.66155">
        <ele>120</ele>
        <time>2011-09-10T14:56:17Z</time>
      </trkpt>
      <trkpt lat="48.19239" lon="-0.66141">
        <ele>122</ele>
        <time>2011-09-10T14:56:26Z</time>
      </trkpt>
      <trkpt lat="48.19233" lon="-0.66132">
        <ele>122.5</ele>
        <time>2011-09-10T14:56:32Z</time>
      </trkpt>
      <trkpt lat="48.19226" lon="-0.66124">
        <ele>120.1</ele>
        <time>2011-09-10T14:56:38Z</time>
      </trkpt>
      <trkpt lat="48.19221" lon="-0.66115">
        <ele>120.1</ele>
        <time>2011-09-10T14:56:44Z</time>
      </trkpt>
      <trkpt lat="48.19215" lon="-0.66108">
        <ele>119.3</ele>
        <time>2011-09-10T14:56:49Z</time>
      </trkpt>
      <trkpt lat="48.19209" lon="-0.661">
        <ele>119</ele>
        <time>2011-09-10T14:56:55Z</time>
      </trkpt>
      <trkpt lat="48.19203" lon="-0.6609">
        <ele>119</ele>
        <time>2011-09-10T14:57:02Z</time>
      </trkpt>
      <trkpt lat="48.19198" lon="-0.6608">
        <ele>118.3</ele>
        <time>2011-09-10T14:57:08Z</time>
      </trkpt>
      <trkpt lat="48.19193" lon="-0.66071">
        <ele>118</ele>
        <time>2011-09-10T14:57:14Z</time>
      </trkpt>
      <trkpt lat="48.19187" lon="-0.66063">
        <ele>119</ele>
        <time>2011-09-10T14:57:20Z</time>
      </trkpt>
      <trkpt lat="48.19186" lon="-0.66061">
        <ele>119.1</ele>
        <time>2011-09-10T14:57:21Z</time>
      </trkpt>
      <trkpt lat="48.19174" lon="-0.66048">
        <ele>119.5</ele>
        <time>2011-09-10T14:57:32Z</time>
      </trkpt>
      <trkpt lat="48.19168" lon="-0.66041">
        <ele>119</ele>
        <time>2011-09-10T14:57:38Z</time>
      </trkpt>
      <trkpt lat="48.19161" lon="-0.66034">
        <ele>118.5</ele>
        <time>2011-09-10T14:57:44Z</time>
      </trkpt>
      <trkpt lat="48.19154" lon="-0.66028">
        <ele>118.6</ele>
        <time>2011-09-10T14:57:50Z</time>
      </trkpt>
      <trkpt lat="48.19147" lon="-0.66023">
        <ele>119.3</ele>
        <time>2011-09-10T14:57:56Z</time>
      </trkpt>
      <trkpt lat="48.1914" lon="-0.66017">
        <ele>120</ele>
        <time>2011-09-10T14:58:02Z</time>
      </trkpt>
      <trkpt lat="48.19132" lon="-0.66011">
        <ele>119.9</ele>
        <time>2011-09-10T14:58:11Z</time>
      </trkpt>
      <trkpt lat="48.19125" lon="-0.66004">
        <ele>120.5</ele>
        <time>2011-09-10T14:58:19Z</time>
      </trkpt>
      <trkpt lat="48.19117" lon="-0.65998">
        <ele>120.8</ele>
        <time>2011-09-10T14:58:25Z</time>
      </trkpt>
      <trkpt lat="48.19116" lon="-0.65997">
        <ele>121</ele>
        <time>2011-09-10T14:58:26Z</time>
      </trkpt>
      <trkpt lat="48.19102" lon="-0.6599">
        <ele>120.5</ele>
        <time>2011-09-10T14:58:40Z</time>
      </trkpt>
      <trkpt lat="48.19094" lon="-0.65987">
        <ele>120.5</ele>
        <time>2011-09-10T14:58:48Z</time>
      </trkpt>
      <trkpt lat="48.19088" lon="-0.65979">
        <ele>119.9</ele>
        <time>2011-09-10T14:59:08Z</time>
      </trkpt>
      <trkpt lat="48.19082" lon="-0.65971">
        <ele>119.1</ele>
        <time>2011-09-10T14:59:16Z</time>
      </trkpt>
      <trkpt lat="48.19074" lon="-0.6597">
        <ele>119.5</ele>
        <time>2011-09-10T14:59:38Z</time>
      </trkpt>
      <trkpt lat="48.19072" lon="-0.6597">
        <ele>119.6</ele>
        <time>2011-09-10T14:59:39Z</time>
      </trkpt>
      <trkpt lat="48.19059" lon="-0.65961">
        <ele>119.6</ele>
        <time>2011-09-10T14:59:59Z</time>
      </trkpt>
      <trkpt lat="48.1905" lon="-0.65957">
        <ele>122.5</ele>
        <time>2011-09-10T15:00:29Z</time>
      </trkpt>
      <trkpt lat="48.19043" lon="-0.65951">
        <ele>123.3</ele>
        <time>2011-09-10T15:00:44Z</time>
      </trkpt>
      <trkpt lat="48.19042" lon="-0.6595">
        <ele>122.9</ele>
        <time>2011-09-10T15:00:45Z</time>
      </trkpt>
      <trkpt lat="48.19027" lon="-0.65942">
        <ele>126.4</ele>
        <time>2011-09-10T15:00:53Z</time>
      </trkpt>
      <trkpt lat="48.19019" lon="-0.65937">
        <ele>129.5</ele>
        <time>2011-09-10T15:00:57Z</time>
      </trkpt>
      <trkpt lat="48.19011" lon="-0.65932">
        <ele>130.1</ele>
        <time>2011-09-10T15:01:02Z</time>
      </trkpt>
      <trkpt lat="48.19004" lon="-0.65926">
        <ele>130.8</ele>
        <time>2011-09-10T15:01:08Z</time>
      </trkpt>
      <trkpt lat="48.18997" lon="-0.65919">
        <ele>130</ele>
        <time>2011-09-10T15:01:14Z</time>
      </trkpt>
      <trkpt lat="48.18989" lon="-0.65913">
        <ele>129.8</ele>
        <time>2011-09-10T15:01:21Z</time>
      </trkpt>
      <trkpt lat="48.18982" lon="-0.65907">
        <ele>129.3</ele>
        <time>2011-09-10T15:01:26Z</time>
      </trkpt>
      <trkpt lat="48.18976" lon="-0.659">
        <ele>129.5</ele>
        <time>2011-09-10T15:01:32Z</time>
      </trkpt>
      <trkpt lat="48.18968" lon="-0.65895">
        <ele>129.6</ele>
        <time>2011-09-10T15:01:40Z</time>
      </trkpt>
      <trkpt lat="48.1896" lon="-0.6589">
        <ele>129.6</ele>
        <time>2011-09-10T15:01:46Z</time>
      </trkpt>
      <trkpt lat="48.18959" lon="-0.65889">
        <ele>129.6</ele>
        <time>2011-09-10T15:01:47Z</time>
      </trkpt>
      <trkpt lat="48.18947" lon="-0.65875">
        <ele>128.8</ele>
        <time>2011-09-10T15:02:00Z</time>
      </trkpt>
      <trkpt lat="48.18939" lon="-0.65868">
        <ele>128.6</ele>
        <time>2011-09-10T15:02:07Z</time>
      </trkpt>
      <trkpt lat="48.18932" lon="-0.6586">
        <ele>129.1</ele>
        <time>2011-09-10T15:02:14Z</time>
      </trkpt>
      <trkpt lat="48.18925" lon="-0.65853">
        <ele>129</ele>
        <time>2011-09-10T15:02:25Z</time>
      </trkpt>
      <trkpt lat="48.1892" lon="-0.65844">
        <ele>129.3</ele>
        <time>2011-09-10T15:02:31Z</time>
      </trkpt>
      <trkpt lat="48.18913" lon="-0.65837">
        <ele>129.1</ele>
        <time>2011-09-10T15:02:38Z</time>
      </trkpt>
      <trkpt lat="48.18907" lon="-0.65829">
        <ele>129.5</ele>
        <time>2011-09-10T15:02:45Z</time>
      </trkpt>
      <trkpt lat="48.18901" lon="-0.65821">
        <ele>129.3</ele>
        <time>2011-09-10T15:02:52Z</time>
      </trkpt>
      <trkpt lat="48.189" lon="-0.65819">
        <ele>129.1</ele>
        <time>2011-09-10T15:02:53Z</time>
      </trkpt>
      <trkpt lat="48.18888" lon="-0.65803">
        <ele>128.8</ele>
        <time>2011-09-10T15:03:06Z</time>
      </trkpt>
      <trkpt lat="48.18881" lon="-0.65797">
        <ele>128.3</ele>
        <time>2011-09-10T15:03:13Z</time>
      </trkpt>
      <trkpt lat="48.18874" lon="-0.6579">
        <ele>128.1</ele>
        <time>2011-09-10T15:03:19Z</time>
      </trkpt>
      <trkpt lat="48.18867" lon="-0.65786">
        <ele>128</ele>
        <time>2011-09-10T15:03:27Z</time>
      </trkpt>
      <trkpt lat="48.1886" lon="-0.65779">
        <ele>128.3</ele>
        <time>2011-09-10T15:03:34Z</time>
      </trkpt>
      <trkpt lat="48.18853" lon="-0.65775">
        <ele>127.5</ele>
        <time>2011-09-10T15:03:39Z</time>
      </trkpt>
      <trkpt lat="48.18845" lon="-0.6577">
        <ele>127.9</ele>
        <time>2011-09-10T15:03:45Z</time>
      </trkpt>
      <trkpt lat="48.18837" lon="-0.65767">
        <ele>128.3</ele>
        <time>2011-09-10T15:03:53Z</time>
      </trkpt>
      <trkpt lat="48.18829" lon="-0.65768">
        <ele>128.3</ele>
        <time>2011-09-10T15:04:00Z</time>
      </trkpt>
      <trkpt lat="48.18827" lon="-0.65767">
        <ele>128.1</ele>
        <time>2011-09-10T15:04:01Z</time>
      </trkpt>
      <trkpt lat="48.18812" lon="-0.65766">
        <ele>127.8</ele>
        <time>2011-09-10T15:04:16Z</time>
      </trkpt>
      <trkpt lat="48.18804" lon="-0.65763">
        <ele>128.1</ele>
        <time>2011-09-10T15:04:28Z</time>
      </trkpt>
      <trkpt lat="48.18795" lon="-0.65761">
        <ele>127.1</ele>
        <time>2011-09-10T15:04:36Z</time>
      </trkpt>
      <trkpt lat="48.18788" lon="-0.65758">
        <ele>126.4</ele>
        <time>2011-09-10T15:04:45Z</time>
      </trkpt>
      <trkpt lat="48.1878" lon="-0.65758">
        <ele>126.1</ele>
        <time>2011-09-10T15:04:49Z</time>
      </trkpt>
      <trkpt lat="48.18772" lon="-0.65756">
        <ele>125.6</ele>
        <time>2011-09-10T15:04:57Z</time>
      </trkpt>
      <trkpt lat="48.18764" lon="-0.65755">
        <ele>125.4</ele>
        <time>2011-09-10T15:05:04Z</time>
      </trkpt>
      <trkpt lat="48.18762" lon="-0.65755">
        <ele>125.3</ele>
        <time>2011-09-10T15:05:05Z</time>
      </trkpt>
      <trkpt lat="48.18748" lon="-0.65753">
        <ele>125.3</ele>
        <time>2011-09-10T15:05:14Z</time>
      </trkpt>
      <trkpt lat="48.1874" lon="-0.6575">
        <ele>123.3</ele>
        <time>2011-09-10T15:05:22Z</time>
      </trkpt>
      <trkpt lat="48.18731" lon="-0.65748">
        <ele>122.5</ele>
        <time>2011-09-10T15:05:32Z</time>
      </trkpt>
      <trkpt lat="48.18723" lon="-0.65745">
        <ele>122.5</ele>
        <time>2011-09-10T15:05:38Z</time>
      </trkpt>
      <trkpt lat="48.18714" lon="-0.65744">
        <ele>121.9</ele>
        <time>2011-09-10T15:06:05Z</time>
      </trkpt>
      <trkpt lat="48.18707" lon="-0.65741">
        <ele>121.5</ele>
        <time>2011-09-10T15:06:21Z</time>
      </trkpt>
      <trkpt lat="48.18705" lon="-0.6574">
        <ele>121.4</ele>
        <time>2011-09-10T15:06:22Z</time>
      </trkpt>
      <trkpt lat="48.18691" lon="-0.65734">
        <ele>122.5</ele>
        <time>2011-09-10T15:06:46Z</time>
      </trkpt>
      <trkpt lat="48.18684" lon="-0.6573">
        <ele>122.6</ele>
        <time>2011-09-10T15:06:51Z</time>
      </trkpt>
      <trkpt lat="48.18676" lon="-0.65725">
        <ele>123.8</ele>
        <time>2011-09-10T15:06:56Z</time>
      </trkpt>
      <trkpt lat="48.18667" lon="-0.65721">
        <ele>124.8</ele>
        <time>2011-09-10T15:07:01Z</time>
      </trkpt>
      <trkpt lat="48.1866" lon="-0.65717">
        <ele>125.5</ele>
        <time>2011-09-10T15:07:07Z</time>
      </trkpt>
      <trkpt lat="48.18652" lon="-0.65715">
        <ele>125.4</ele>
        <time>2011-09-10T15:07:14Z</time>
      </trkpt>
      <trkpt lat="48.18644" lon="-0.65714">
        <ele>125.5</ele>
        <time>2011-09-10T15:07:19Z</time>
      </trkpt>
      <trkpt lat="48.18637" lon="-0.65712">
        <ele>125.9</ele>
        <time>2011-09-10T15:07:28Z</time>
      </trkpt>
      <trkpt lat="48.18634" lon="-0.65713">
        <ele>125.9</ele>
        <time>2011-09-10T15:07:29Z</time>
      </trkpt>
      <trkpt lat="48.18621" lon="-0.65717">
        <ele>126.3</ele>
        <time>2011-09-10T15:07:35Z</time>
      </trkpt>
      <trkpt lat="48.18613" lon="-0.65718">
        <ele>125.9</ele>
        <time>2011-09-10T15:07:39Z</time>
      </trkpt>
      <trkpt lat="48.18606" lon="-0.6572">
        <ele>127.1</ele>
        <time>2011-09-10T15:07:43Z</time>
      </trkpt>
      <trkpt lat="48.18598" lon="-0.65724">
        <ele>127.8</ele>
        <time>2011-09-10T15:07:48Z</time>
      </trkpt>
      <trkpt lat="48.1859" lon="-0.65729">
        <ele>127.8</ele>
        <time>2011-09-10T15:07:53Z</time>
      </trkpt>
      <trkpt lat="48.18582" lon="-0.65734">
        <ele>127.9</ele>
        <time>2011-09-10T15:07:58Z</time>
      </trkpt>
      <trkpt lat="48.18575" lon="-0.65738">
        <ele>128.6</ele>
        <time>2011-09-10T15:08:02Z</time>
      </trkpt>
      <trkpt lat="48.18567" lon="-0.65743">
        <ele>128.8</ele>
        <time>2011-09-10T15:08:07Z</time>
      </trkpt>
      <trkpt lat="48.18559" lon="-0.65748">
        <ele>128.8</ele>
        <time>2011-09-10T15:08:14Z</time>
      </trkpt>
      <trkpt lat="48.18552" lon="-0.65754">
        <ele>128.8</ele>
        <time>2011-09-10T15:08:30Z</time>
      </trkpt>
      <trkpt lat="48.1855" lon="-0.65755">
        <ele>128.8</ele>
        <time>2011-09-10T15:08:31Z</time>
      </trkpt>
      <trkpt lat="48.18536" lon="-0.65764">
        <ele>127.9</ele>
        <time>2011-09-10T15:08:42Z</time>
      </trkpt>
      <trkpt lat="48.18528" lon="-0.65769">
        <ele>128.3</ele>
        <time>2011-09-10T15:08:47Z</time>
      </trkpt>
      <trkpt lat="48.18521" lon="-0.65773">
        <ele>128.1</ele>
        <time>2011-09-10T15:08:53Z</time>
      </trkpt>
      <trkpt lat="48.18513" lon="-0.65778">
        <ele>127.5</ele>
        <time>2011-09-10T15:08:59Z</time>
      </trkpt>
      <trkpt lat="48.18507" lon="-0.65785">
        <ele>126.5</ele>
        <time>2011-09-10T15:09:05Z</time>
      </trkpt>
      <trkpt lat="48.185" lon="-0.6579">
        <ele>126.5</ele>
        <time>2011-09-10T15:09:11Z</time>
      </trkpt>
      <trkpt lat="48.18493" lon="-0.65795">
        <ele>126.9</ele>
        <time>2011-09-10T15:09:17Z</time>
      </trkpt>
      <trkpt lat="48.18485" lon="-0.65801">
        <ele>126.9</ele>
        <time>2011-09-10T15:09:23Z</time>
      </trkpt>
      <trkpt lat="48.18477" lon="-0.65805">
        <ele>127.8</ele>
        <time>2011-09-10T15:09:29Z</time>
      </trkpt>
      <trkpt lat="48.18469" lon="-0.6581">
        <ele>128.1</ele>
        <time>2011-09-10T15:09:35Z</time>
      </trkpt>
      <trkpt lat="48.18468" lon="-0.65811">
        <ele>128.3</ele>
        <time>2011-09-10T15:09:36Z</time>
      </trkpt>
      <trkpt lat="48.18455" lon="-0.65821">
        <ele>127.6</ele>
        <time>2011-09-10T15:09:46Z</time>
      </trkpt>
      <trkpt lat="48.18447" lon="-0.65826">
        <ele>127.5</ele>
        <time>2011-09-10T15:09:52Z</time>
      </trkpt>
      <trkpt lat="48.1844" lon="-0.65831">
        <ele>127.8</ele>
        <time>2011-09-10T15:09:58Z</time>
      </trkpt>
      <trkpt lat="48.18433" lon="-0.65835">
        <ele>127.6</ele>
        <time>2011-09-10T15:10:04Z</time>
      </trkpt>
      <trkpt lat="48.18427" lon="-0.65843">
        <ele>127.5</ele>
        <time>2011-09-10T15:10:09Z</time>
      </trkpt>
      <trkpt lat="48.18427" lon="-0.65855">
        <ele>128.3</ele>
        <time>2011-09-10T15:10:15Z</time>
      </trkpt>
      <trkpt lat="48.18432" lon="-0.65866">
        <ele>128.5</ele>
        <time>2011-09-10T15:10:21Z</time>
      </trkpt>
      <trkpt lat="48.18436" lon="-0.65875">
        <ele>127.6</ele>
        <time>2011-09-10T15:10:26Z</time>
      </trkpt>
      <trkpt lat="48.18442" lon="-0.65884">
        <ele>127.5</ele>
        <time>2011-09-10T15:10:34Z</time>
      </trkpt>
      <trkpt lat="48.18448" lon="-0.65892">
        <ele>127.4</ele>
        <time>2011-09-10T15:10:39Z</time>
      </trkpt>
      <trkpt lat="48.18449" lon="-0.65893">
        <ele>127.5</ele>
        <time>2011-09-10T15:10:40Z</time>
      </trkpt>
      <trkpt lat="48.18459" lon="-0.6591">
        <ele>125.5</ele>
        <time>2011-09-10T15:11:01Z</time>
      </trkpt>
      <trkpt lat="48.18467" lon="-0.65912">
        <ele>123.9</ele>
        <time>2011-09-10T15:11:40Z</time>
      </trkpt>
      <trkpt lat="48.18473" lon="-0.65919">
        <ele>123.8</ele>
        <time>2011-09-10T15:11:45Z</time>
      </trkpt>
      <trkpt lat="48.18474" lon="-0.65921">
        <ele>123.6</ele>
        <time>2011-09-10T15:11:46Z</time>
      </trkpt>
      <trkpt lat="48.18485" lon="-0.65934">
        <ele>122.9</ele>
        <time>2011-09-10T15:11:56Z</time>
      </trkpt>
      <trkpt lat="48.1849" lon="-0.65942">
        <ele>122.6</ele>
        <time>2011-09-10T15:12:01Z</time>
      </trkpt>
      <trkpt lat="48.18496" lon="-0.65951">
        <ele>122.4</ele>
        <time>2011-09-10T15:12:07Z</time>
      </trkpt>
      <trkpt lat="48.18502" lon="-0.6596">
        <ele>121.6</ele>
        <time>2011-09-10T15:12:12Z</time>
      </trkpt>
      <trkpt lat="48.18507" lon="-0.6597">
        <ele>121.5</ele>
        <time>2011-09-10T15:12:18Z</time>
      </trkpt>
      <trkpt lat="48.18514" lon="-0.65978">
        <ele>121.1</ele>
        <time>2011-09-10T15:12:24Z</time>
      </trkpt>
      <trkpt lat="48.1852" lon="-0.65987">
        <ele>121</ele>
        <time>2011-09-10T15:12:30Z</time>
      </trkpt>
      <trkpt lat="48.18526" lon="-0.65996">
        <ele>120.6</ele>
        <time>2011-09-10T15:12:36Z</time>
      </trkpt>
      <trkpt lat="48.18532" lon="-0.66005">
        <ele>120.5</ele>
        <time>2011-09-10T15:12:42Z</time>
      </trkpt>
      <trkpt lat="48.1854" lon="-0.66012">
        <ele>119.5</ele>
        <time>2011-09-10T15:12:48Z</time>
      </trkpt>
      <trkpt lat="48.18541" lon="-0.66012">
        <ele>119</ele>
        <time>2011-09-10T15:12:49Z</time>
      </trkpt>
      <trkpt lat="48.18555" lon="-0.66">
        <ele>118.6</ele>
        <time>2011-09-10T15:13:10Z</time>
      </trkpt>
      <trkpt lat="48.18562" lon="-0.66005">
        <ele>119.1</ele>
        <time>2011-09-10T15:13:58Z</time>
      </trkpt>
      <trkpt lat="48.18562" lon="-0.66005">
        <ele>119.1</ele>
        <time>2011-09-10T15:13:58Z</time>
      </trkpt>
    </trkseg>
  </trk>
</gpx>